<?xml version='1.0' encoding='UTF-8'?><gpx version="1.1" creator="JPX - https://github.com/jenetics/jpx" xmlns="http://www.topografix.com/GPX/1/1"><trk><trkseg><trkpt lat="44.42053412228395" lon="8.946859993075316"><ele>14.0</ele><time>2026-04-04T07:09:29.692Z</time></trkpt><trkpt lat="44.42049020374803" lon="8.946931009334145"><ele>14.0</ele><time>2026-04-04T07:09:40Z</time></trkpt><trkpt lat="44.42040478694662" lon="8.946960055935989"><ele>14.0</ele><time>2026-04-04T07:09:41.007Z</time></trkpt><trkpt lat="44.42033325461694" lon="8.94715881285547"><ele>14.0</ele><time>2026-04-04T07:09:42.003Z</time></trkpt><trkpt lat="44.42048190023036" lon="8.946908144858032"><ele>14.0</ele><time>2026-04-04T07:09:44.003Z</time></trkpt><trkpt lat="44.42033412728026" lon="8.946746185168019"><ele>14.0</ele><time>2026-04-04T07:09:45Z</time></trkpt><trkpt lat="44.42046308895793" lon="8.946844576794009"><ele>14.0</ele><time>2026-04-04T07:09:58.596Z</time></trkpt><trkpt lat="44.42052436603532" lon="8.94689470109917"><ele>14.0</ele><time>2026-04-04T07:10:01.709Z</time></trkpt><trkpt lat="44.42046114466213" lon="8.946999753555744"><ele>14.000000000000002</ele><time>2026-04-04T07:11:31Z</time></trkpt><trkpt lat="44.42042636295072" lon="8.947093323972046"><ele>14.0</ele><time>2026-04-04T07:11:32Z</time></trkpt><trkpt lat="44.420481918584464" lon="8.946992219225995"><ele>14.0</ele><time>2026-04-04T07:11:50Z</time></trkpt><trkpt lat="44.42054034341396" lon="8.946925411777597"><ele>14.0</ele><time>2026-04-04T07:11:54.999Z</time></trkpt><trkpt lat="44.42057052272013" lon="8.946839595273905"><ele>14.000000000000002</ele><time>2026-04-04T07:12:13.999Z</time></trkpt><trkpt lat="44.420614424198284" lon="8.946935136185665"><ele>14.0</ele><time>2026-04-04T07:12:35Z</time></trkpt><trkpt lat="44.42064701173721" lon="8.946839509570246"><ele>14.0</ele><time>2026-04-04T07:12:46Z</time></trkpt><trkpt lat="44.42071278519898" lon="8.946813906816525"><ele>13.999999999999998</ele><time>2026-04-04T07:12:50Z</time></trkpt><trkpt lat="44.420784096133" lon="8.946783246578315"><ele>13.999999999999998</ele><time>2026-04-04T07:12:53Z</time></trkpt><trkpt lat="44.420852645499046" lon="8.946754631380848"><ele>14.0</ele><time>2026-04-04T07:12:56Z</time></trkpt><trkpt lat="44.42094528483763" lon="8.946732794251522"><ele>14.0</ele><time>2026-04-04T07:13:00Z</time></trkpt><trkpt lat="44.42111283096624" lon="8.946746599132277"><ele>14.000000000000002</ele><time>2026-04-04T07:13:05Z</time></trkpt><trkpt lat="44.4211861982944" lon="8.946750268727161"><ele>14.0</ele><time>2026-04-04T07:13:07Z</time></trkpt><trkpt lat="44.421261152057085" lon="8.946754905128303"><ele>14.0</ele><time>2026-04-04T07:13:09Z</time></trkpt><trkpt lat="44.42134823985677" lon="8.946767917881283"><ele>14.0</ele><time>2026-04-04T07:13:11Z</time></trkpt><trkpt lat="44.42142756071487" lon="8.946770162271333"><ele>14.000000000000002</ele><time>2026-04-04T07:13:13Z</time></trkpt><trkpt lat="44.42149862262001" lon="8.946814345163485"><ele>14.0</ele><time>2026-04-04T07:13:15Z</time></trkpt><trkpt lat="44.42158381281747" lon="8.946838252386662"><ele>14.000000000000002</ele><time>2026-04-04T07:13:17Z</time></trkpt><trkpt lat="44.421667494540934" lon="8.94684619664184"><ele>14.0</ele><time>2026-04-04T07:13:19Z</time></trkpt><trkpt lat="44.42174742561161" lon="8.946862374136872"><ele>14.0</ele><time>2026-04-04T07:13:21Z</time></trkpt><trkpt lat="44.42182519489696" lon="8.946871561452138"><ele>14.0</ele><time>2026-04-04T07:13:23Z</time></trkpt><trkpt lat="44.42191154286903" lon="8.946890844106143"><ele>14.000000000000002</ele><time>2026-04-04T07:13:25Z</time></trkpt><trkpt lat="44.42199485041967" lon="8.946897629894277"><ele>14.0</ele><time>2026-04-04T07:13:27Z</time></trkpt><trkpt lat="44.42207419572116" lon="8.946917839576209"><ele>14.166666666666668</ele><time>2026-04-04T07:13:29Z</time></trkpt><trkpt lat="44.42215569603782" lon="8.946926079787126"><ele>14.333333333333334</ele><time>2026-04-04T07:13:31Z</time></trkpt><trkpt lat="44.422237007854264" lon="8.946939739227657"><ele>14.5</ele><time>2026-04-04T07:13:33Z</time></trkpt><trkpt lat="44.42231925401806" lon="8.946954776901269"><ele>14.666666666666668</ele><time>2026-04-04T07:13:35Z</time></trkpt><trkpt lat="44.42239698349073" lon="8.946969859888148"><ele>14.833333333333334</ele><time>2026-04-04T07:13:37Z</time></trkpt><trkpt lat="44.42245608589341" lon="8.947022848562005"><ele>15.0</ele><time>2026-04-04T07:13:39Z</time></trkpt><trkpt lat="44.422539396551656" lon="8.947030890155927"><ele>15.0</ele><time>2026-04-04T07:13:42Z</time></trkpt><trkpt lat="44.42261689794515" lon="8.947040049409205"><ele>15.0</ele><time>2026-04-04T07:13:44Z</time></trkpt><trkpt lat="44.42268231624339" lon="8.947055002725557"><ele>15.0</ele><time>2026-04-04T07:13:46Z</time></trkpt><trkpt lat="44.42278106070209" lon="8.947063111124105"><ele>15.0</ele><time>2026-04-04T07:13:49Z</time></trkpt><trkpt lat="44.42284742996181" lon="8.947072558829595"><ele>15.0</ele><time>2026-04-04T07:13:52Z</time></trkpt><trkpt lat="44.42292728350345" lon="8.947079016130555"><ele>15.0</ele><time>2026-04-04T07:13:56Z</time></trkpt><trkpt lat="44.42299776984741" lon="8.947095485823677"><ele>15.333333333333334</ele><time>2026-04-04T07:13:57.999Z</time></trkpt><trkpt lat="44.42308541177798" lon="8.947099859126508"><ele>15.666666666666668</ele><time>2026-04-04T07:14:00.999Z</time></trkpt><trkpt lat="44.423155454908084" lon="8.947120987062842"><ele>16.0</ele><time>2026-04-04T07:14:03.999Z</time></trkpt><trkpt lat="44.423228297737666" lon="8.947123849126074"><ele>16.333333333333336</ele><time>2026-04-04T07:14:05.999Z</time></trkpt><trkpt lat="44.42330415414051" lon="8.947145777610999"><ele>16.666666666666668</ele><time>2026-04-04T07:14:08.999Z</time></trkpt><trkpt lat="44.423365570567" lon="8.947165231090976"><ele>17.0</ele><time>2026-04-04T07:14:10.999Z</time></trkpt><trkpt lat="44.42345680719747" lon="8.947175785126142"><ele>17.0</ele><time>2026-04-04T07:14:14Z</time></trkpt><trkpt lat="44.42354524048885" lon="8.947191064003547"><ele>17.0</ele><time>2026-04-04T07:14:17Z</time></trkpt><trkpt lat="44.42363318215842" lon="8.94720480702438"><ele>17.0</ele><time>2026-04-04T07:14:20Z</time></trkpt><trkpt lat="44.42372747544509" lon="8.947211101724623"><ele>17.0</ele><time>2026-04-04T07:14:23Z</time></trkpt><trkpt lat="44.42381754187594" lon="8.947230127085149"><ele>17.0</ele><time>2026-04-04T07:14:26Z</time></trkpt><trkpt lat="44.42390944829131" lon="8.947246371701466"><ele>17.666666666666668</ele><time>2026-04-04T07:14:29Z</time></trkpt><trkpt lat="44.42399708808391" lon="8.94725368287213"><ele>18.333333333333336</ele><time>2026-04-04T07:14:32Z</time></trkpt><trkpt lat="44.424085916770494" lon="8.947270983527503"><ele>19.0</ele><time>2026-04-04T07:14:35Z</time></trkpt><trkpt lat="44.424137238618336" lon="8.947352558118558"><ele>19.666666666666668</ele><time>2026-04-04T07:14:40Z</time></trkpt><trkpt lat="44.42420066444868" lon="8.947427027323434"><ele>20.333333333333332</ele><time>2026-04-04T07:14:42Z</time></trkpt><trkpt lat="44.42426327040451" lon="8.947415298572547"><ele>21.0</ele><time>2026-04-04T07:14:44Z</time></trkpt><trkpt lat="44.424278291179405" lon="8.947538965124803"><ele>21.285714285714285</ele><time>2026-04-04T07:14:47Z</time></trkpt><trkpt lat="44.424308371501255" lon="8.947622118497309"><ele>21.57142857142857</ele><time>2026-04-04T07:14:49Z</time></trkpt><trkpt lat="44.42438332881518" lon="8.947644487654962"><ele>21.857142857142858</ele><time>2026-04-04T07:14:51Z</time></trkpt><trkpt lat="44.4244580560579" lon="8.94764421117141"><ele>22.142857142857142</ele><time>2026-04-04T07:14:53Z</time></trkpt><trkpt lat="44.42453394513153" lon="8.94765871416486"><ele>22.428571428571427</ele><time>2026-04-04T07:14:55Z</time></trkpt><trkpt lat="44.42460896832501" lon="8.947677943269511"><ele>22.714285714285715</ele><time>2026-04-04T07:14:57Z</time></trkpt><trkpt lat="44.42468426209635" lon="8.947681909135735"><ele>23.0</ele><time>2026-04-04T07:14:59Z</time></trkpt><trkpt lat="44.42475957856789" lon="8.947683815643396"><ele>23.166666666666668</ele><time>2026-04-04T07:15:01Z</time></trkpt><trkpt lat="44.42483776431435" lon="8.947687234546226"><ele>23.333333333333336</ele><time>2026-04-04T07:15:03Z</time></trkpt><trkpt lat="44.424917884155434" lon="8.947695636654549"><ele>23.5</ele><time>2026-04-04T07:15:05Z</time></trkpt><trkpt lat="44.42499603171033" lon="8.947706109062395"><ele>23.666666666666668</ele><time>2026-04-04T07:15:07Z</time></trkpt><trkpt lat="44.4250728241223" lon="8.947719332605853"><ele>23.833333333333332</ele><time>2026-04-04T07:15:09Z</time></trkpt><trkpt lat="44.42515062170703" lon="8.947737892032151"><ele>24.0</ele><time>2026-04-04T07:15:11Z</time></trkpt><trkpt lat="44.42522658286823" lon="8.947751260499654"><ele>23.999999999999996</ele><time>2026-04-04T07:15:13Z</time></trkpt><trkpt lat="44.42529857752039" lon="8.947775837511868"><ele>24.0</ele><time>2026-04-04T07:15:15Z</time></trkpt><trkpt lat="44.4253574535323" lon="8.947840428613027"><ele>24.0</ele><time>2026-04-04T07:15:17Z</time></trkpt><trkpt lat="44.425390651850385" lon="8.947937412768491"><ele>24.0</ele><time>2026-04-04T07:15:19Z</time></trkpt><trkpt lat="44.42540737275801" lon="8.948038982479268"><ele>24.0</ele><time>2026-04-04T07:15:21Z</time></trkpt><trkpt lat="44.42539921946304" lon="8.948152678110006"><ele>23.999999999999996</ele><time>2026-04-04T07:15:24Z</time></trkpt><trkpt lat="44.4253808750232" lon="8.948243545588316"><ele>24.0</ele><time>2026-04-04T07:15:26Z</time></trkpt><trkpt lat="44.4253425209743" lon="8.948355089576523"><ele>24.71428571428571</ele><time>2026-04-04T07:15:28Z</time></trkpt><trkpt lat="44.42530886523954" lon="8.948445391199396"><ele>25.42857142857143</ele><time>2026-04-04T07:15:30Z</time></trkpt><trkpt lat="44.42530027755303" lon="8.948537873583545"><ele>26.142857142857146</ele><time>2026-04-04T07:15:32Z</time></trkpt><trkpt lat="44.42532054887385" lon="8.948624300291387"><ele>26.857142857142858</ele><time>2026-04-04T07:15:34Z</time></trkpt><trkpt lat="44.42533500858874" lon="8.948728331722085"><ele>27.571428571428573</ele><time>2026-04-04T07:15:36Z</time></trkpt><trkpt lat="44.425339819516594" lon="8.948834839308532"><ele>28.28571428571429</ele><time>2026-04-04T07:15:38Z</time></trkpt><trkpt lat="44.425331163412025" lon="8.94894708709935"><ele>29.000000000000004</ele><time>2026-04-04T07:15:40Z</time></trkpt><trkpt lat="44.42533547043969" lon="8.949081505582159"><ele>28.999999999999996</ele><time>2026-04-04T07:15:42Z</time></trkpt><trkpt lat="44.42534443745738" lon="8.949191034347225"><ele>29.0</ele><time>2026-04-04T07:15:44Z</time></trkpt><trkpt lat="44.42535146948861" lon="8.94928321506149"><ele>29.0</ele><time>2026-04-04T07:15:46Z</time></trkpt><trkpt lat="44.42543461232096" lon="8.94932815117655"><ele>29.0</ele><time>2026-04-04T07:15:50Z</time></trkpt><trkpt lat="44.42551313727094" lon="8.949351077455391"><ele>28.999999999999996</ele><time>2026-04-04T07:15:52Z</time></trkpt><trkpt lat="44.42560232557849" lon="8.949367891559083"><ele>29.0</ele><time>2026-04-04T07:15:54Z</time></trkpt><trkpt lat="44.425695831474435" lon="8.949386379621556"><ele>30.4</ele><time>2026-04-04T07:15:56Z</time></trkpt><trkpt lat="44.42584399169296" lon="8.949400310632994"><ele>31.799999999999997</ele><time>2026-04-04T07:16:00Z</time></trkpt><trkpt lat="44.42593084420797" lon="8.949433123365257"><ele>33.2</ele><time>2026-04-04T07:16:02Z</time></trkpt><trkpt lat="44.42601594147675" lon="8.949480714378478"><ele>34.6</ele><time>2026-04-04T07:16:05Z</time></trkpt><trkpt lat="44.42608101844069" lon="8.949532463564728"><ele>36.0</ele><time>2026-04-04T07:16:07Z</time></trkpt><trkpt lat="44.42614614329059" lon="8.949549013201622"><ele>36.0</ele><time>2026-04-04T07:16:09Z</time></trkpt><trkpt lat="44.42622890087554" lon="8.949562039279785"><ele>36.0</ele><time>2026-04-04T07:16:11Z</time></trkpt><trkpt lat="44.426300494116454" lon="8.949562832301428"><ele>36.0</ele><time>2026-04-04T07:16:13Z</time></trkpt><trkpt lat="44.42637932845051" lon="8.949568627774932"><ele>36.0</ele><time>2026-04-04T07:16:15Z</time></trkpt><trkpt lat="44.42645294970666" lon="8.949581202379214"><ele>36.0</ele><time>2026-04-04T07:16:17Z</time></trkpt><trkpt lat="44.42653059386331" lon="8.949597045426575"><ele>36.0</ele><time>2026-04-04T07:16:19Z</time></trkpt><trkpt lat="44.42660284164956" lon="8.949605689511655"><ele>35.333333333333336</ele><time>2026-04-04T07:16:21Z</time></trkpt><trkpt lat="44.426682034284276" lon="8.949622137403095"><ele>34.666666666666664</ele><time>2026-04-04T07:16:23Z</time></trkpt><trkpt lat="44.42675598638422" lon="8.949716422867608"><ele>34.0</ele><time>2026-04-04T07:16:26Z</time></trkpt><trkpt lat="44.42680357676245" lon="8.949794469780512"><ele>33.33333333333333</ele><time>2026-04-04T07:16:28Z</time></trkpt><trkpt lat="44.426851969868856" lon="8.94987654529306"><ele>32.666666666666664</ele><time>2026-04-04T07:16:30Z</time></trkpt><trkpt lat="44.42690164010411" lon="8.949967167538714"><ele>32.0</ele><time>2026-04-04T07:16:32Z</time></trkpt><trkpt lat="44.42694686160216" lon="8.950062400917352"><ele>33.666666666666664</ele><time>2026-04-04T07:16:34Z</time></trkpt><trkpt lat="44.426981108344364" lon="8.950160328109911"><ele>35.33333333333333</ele><time>2026-04-04T07:16:36Z</time></trkpt><trkpt lat="44.42703029074532" lon="8.9502624117099"><ele>37.0</ele><time>2026-04-04T07:16:38Z</time></trkpt><trkpt lat="44.42705984834244" lon="8.950368708226515"><ele>38.666666666666664</ele><time>2026-04-04T07:16:40Z</time></trkpt><trkpt lat="44.42709486211565" lon="8.950473137044892"><ele>40.333333333333336</ele><time>2026-04-04T07:16:42Z</time></trkpt><trkpt lat="44.42714105972777" lon="8.95056899476607"><ele>42.0</ele><time>2026-04-04T07:16:44Z</time></trkpt><trkpt lat="44.427172360022" lon="8.950673144901765"><ele>39.666666666666664</ele><time>2026-04-04T07:16:46Z</time></trkpt><trkpt lat="44.4272135023954" lon="8.950783760971545"><ele>37.333333333333336</ele><time>2026-04-04T07:16:48Z</time></trkpt><trkpt lat="44.427232862404374" lon="8.950895710065193"><ele>35.0</ele><time>2026-04-04T07:16:50Z</time></trkpt><trkpt lat="44.42725736332564" lon="8.951005381828898"><ele>32.66666666666667</ele><time>2026-04-04T07:16:52Z</time></trkpt><trkpt lat="44.42728175265473" lon="8.951120895631862"><ele>30.333333333333336</ele><time>2026-04-04T07:16:54Z</time></trkpt><trkpt lat="44.42730504120001" lon="8.95123585888372"><ele>28.0</ele><time>2026-04-04T07:16:56Z</time></trkpt><trkpt lat="44.42733077544344" lon="8.951353166865358"><ele>28.000000000000004</ele><time>2026-04-04T07:16:58Z</time></trkpt><trkpt lat="44.42735915658146" lon="8.95147251290843"><ele>28.0</ele><time>2026-04-04T07:17:00Z</time></trkpt><trkpt lat="44.42738235201115" lon="8.95159460841386"><ele>28.0</ele><time>2026-04-04T07:17:02Z</time></trkpt><trkpt lat="44.427411228242626" lon="8.951708095619033"><ele>28.0</ele><time>2026-04-04T07:17:04Z</time></trkpt><trkpt lat="44.42743828133606" lon="8.951822456693046"><ele>28.000000000000004</ele><time>2026-04-04T07:17:06Z</time></trkpt><trkpt lat="44.42746369042957" lon="8.951932937814464"><ele>28.0</ele><time>2026-04-04T07:17:08Z</time></trkpt><trkpt lat="44.427491054943175" lon="8.952041597558472"><ele>30.166666666666668</ele><time>2026-04-04T07:17:10Z</time></trkpt><trkpt lat="44.42752384681052" lon="8.95214754642064"><ele>32.333333333333336</ele><time>2026-04-04T07:17:12Z</time></trkpt><trkpt lat="44.42754836643559" lon="8.952256446470766"><ele>34.5</ele><time>2026-04-04T07:17:14Z</time></trkpt><trkpt lat="44.427569661227984" lon="8.952368107153212"><ele>36.666666666666664</ele><time>2026-04-04T07:17:16Z</time></trkpt><trkpt lat="44.4275900873483" lon="8.95248405441453"><ele>38.83333333333333</ele><time>2026-04-04T07:17:18Z</time></trkpt><trkpt lat="44.427612650805315" lon="8.952595962731644"><ele>41.0</ele><time>2026-04-04T07:17:20Z</time></trkpt><trkpt lat="44.4276324010489" lon="8.952714065082246"><ele>43.166666666666664</ele><time>2026-04-04T07:17:22Z</time></trkpt><trkpt lat="44.42765046856445" lon="8.952834943313354"><ele>45.33333333333333</ele><time>2026-04-04T07:17:24Z</time></trkpt><trkpt lat="44.42768671911045" lon="8.95294828696549"><ele>47.5</ele><time>2026-04-04T07:17:26Z</time></trkpt><trkpt lat="44.42771011557663" lon="8.95306389604782"><ele>49.666666666666664</ele><time>2026-04-04T07:17:28Z</time></trkpt><trkpt lat="44.42773171782837" lon="8.953182130933364"><ele>51.833333333333336</ele><time>2026-04-04T07:17:30Z</time></trkpt><trkpt lat="44.42775374907338" lon="8.953300906084376"><ele>54.0</ele><time>2026-04-04T07:17:32Z</time></trkpt><trkpt lat="44.42778316097278" lon="8.953417568452165"><ele>56.400000000000006</ele><time>2026-04-04T07:17:34Z</time></trkpt><trkpt lat="44.42780591208381" lon="8.953538683868896"><ele>58.800000000000004</ele><time>2026-04-04T07:17:36Z</time></trkpt><trkpt lat="44.42782946482452" lon="8.953661023460926"><ele>61.199999999999996</ele><time>2026-04-04T07:17:38Z</time></trkpt><trkpt lat="44.42785493132515" lon="8.953782909555455"><ele>63.599999999999994</ele><time>2026-04-04T07:17:40Z</time></trkpt><trkpt lat="44.427885379677264" lon="8.953902838818541"><ele>66.0</ele><time>2026-04-04T07:17:42Z</time></trkpt><trkpt lat="44.42792453951716" lon="8.954024807576532"><ele>66.0</ele><time>2026-04-04T07:17:44Z</time></trkpt><trkpt lat="44.42794362466861" lon="8.95415113542457"><ele>66.0</ele><time>2026-04-04T07:17:46Z</time></trkpt><trkpt lat="44.427970460725575" lon="8.954278397775525"><ele>66.0</ele><time>2026-04-04T07:17:48Z</time></trkpt><trkpt lat="44.428018075468344" lon="8.95440126447678"><ele>66.0</ele><time>2026-04-04T07:17:50Z</time></trkpt><trkpt lat="44.42805365581943" lon="8.954524984909558"><ele>66.0</ele><time>2026-04-04T07:17:52Z</time></trkpt><trkpt lat="44.428097562794704" lon="8.954643526580929"><ele>60.199999999999996</ele><time>2026-04-04T07:17:54Z</time></trkpt><trkpt lat="44.42813416113332" lon="8.954764779457923"><ele>54.39999999999999</ele><time>2026-04-04T07:17:56Z</time></trkpt><trkpt lat="44.428172093528374" lon="8.95487994150634"><ele>48.6</ele><time>2026-04-04T07:17:58Z</time></trkpt><trkpt lat="44.42821897883908" lon="8.954985339071115"><ele>42.8</ele><time>2026-04-04T07:18:00Z</time></trkpt><trkpt lat="44.4282676793353" lon="8.955089825096907"><ele>37.0</ele><time>2026-04-04T07:18:02Z</time></trkpt><trkpt lat="44.42830651226335" lon="8.955205465947074"><ele>37.0</ele><time>2026-04-04T07:18:04Z</time></trkpt><trkpt lat="44.42835060553145" lon="8.955312106285579"><ele>37.0</ele><time>2026-04-04T07:18:06Z</time></trkpt><trkpt lat="44.428389061992306" lon="8.955420972439306"><ele>37.0</ele><time>2026-04-04T07:18:08Z</time></trkpt><trkpt lat="44.42843359714006" lon="8.955520955860248"><ele>37.0</ele><time>2026-04-04T07:18:10Z</time></trkpt><trkpt lat="44.428478045309056" lon="8.955622655693169"><ele>37.0</ele><time>2026-04-04T07:18:12Z</time></trkpt><trkpt lat="44.428528258707686" lon="8.955719061824707"><ele>37.0</ele><time>2026-04-04T07:18:14Z</time></trkpt><trkpt lat="44.42857957296831" lon="8.955812839238648"><ele>38.5</ele><time>2026-04-04T07:18:16Z</time></trkpt><trkpt lat="44.428636641911865" lon="8.95590409343906"><ele>40.0</ele><time>2026-04-04T07:18:18Z</time></trkpt><trkpt lat="44.42868989974015" lon="8.956002594195347"><ele>41.5</ele><time>2026-04-04T07:18:20Z</time></trkpt><trkpt lat="44.42874226646569" lon="8.956093339760109"><ele>43.0</ele><time>2026-04-04T07:18:22Z</time></trkpt><trkpt lat="44.42877971276354" lon="8.956169285272432"><ele>44.5</ele><time>2026-04-04T07:18:24Z</time></trkpt><trkpt lat="44.42881669428478" lon="8.956254102440937"><ele>46.0</ele><time>2026-04-04T07:18:26Z</time></trkpt><trkpt lat="44.4288738925726" lon="8.956342654016312"><ele>43.66666666666667</ele><time>2026-04-04T07:18:28Z</time></trkpt><trkpt lat="44.42892743924092" lon="8.956436792740064"><ele>41.333333333333336</ele><time>2026-04-04T07:18:30Z</time></trkpt><trkpt lat="44.42898241504179" lon="8.95653146949911"><ele>39.0</ele><time>2026-04-04T07:18:32Z</time></trkpt><trkpt lat="44.42903585271528" lon="8.956630482982025"><ele>36.666666666666664</ele><time>2026-04-04T07:18:34Z</time></trkpt><trkpt lat="44.42909236063963" lon="8.956725596654941"><ele>34.33333333333333</ele><time>2026-04-04T07:18:36Z</time></trkpt><trkpt lat="44.42916288461994" lon="8.956810432271995"><ele>32.0</ele><time>2026-04-04T07:18:38Z</time></trkpt><trkpt lat="44.42922671057304" lon="8.956902882651729"><ele>31.999999999999996</ele><time>2026-04-04T07:18:40Z</time></trkpt><trkpt lat="44.42928717342491" lon="8.957003838854943"><ele>32.0</ele><time>2026-04-04T07:18:42Z</time></trkpt><trkpt lat="44.42935118288552" lon="8.957083667430693"><ele>32.0</ele><time>2026-04-04T07:18:44Z</time></trkpt><trkpt lat="44.42941345729283" lon="8.95716523791242"><ele>32.0</ele><time>2026-04-04T07:18:46Z</time></trkpt><trkpt lat="44.42947825857221" lon="8.957241907394213"><ele>31.999999999999996</ele><time>2026-04-04T07:18:48Z</time></trkpt><trkpt lat="44.42954306337024" lon="8.95733435704049"><ele>32.0</ele><time>2026-04-04T07:18:50Z</time></trkpt><trkpt lat="44.42960323950777" lon="8.957430038726596"><ele>31.333333333333332</ele><time>2026-04-04T07:18:52Z</time></trkpt><trkpt lat="44.42966087410497" lon="8.957504110885745"><ele>30.666666666666664</ele><time>2026-04-04T07:18:54Z</time></trkpt><trkpt lat="44.42970765403979" lon="8.957569426589579"><ele>30.0</ele><time>2026-04-04T07:18:56Z</time></trkpt><trkpt lat="44.42976992028572" lon="8.957639934489096"><ele>29.333333333333336</ele><time>2026-04-04T07:18:58Z</time></trkpt><trkpt lat="44.42984201467053" lon="8.957725509330066"><ele>28.666666666666668</ele><time>2026-04-04T07:19:00Z</time></trkpt><trkpt lat="44.429904711655865" lon="8.957803903333103"><ele>28.0</ele><time>2026-04-04T07:19:02Z</time></trkpt><trkpt lat="44.42995677646271" lon="8.957870730142737"><ele>28.0</ele><time>2026-04-04T07:19:04Z</time></trkpt><trkpt lat="44.430025644109435" lon="8.957931032856681"><ele>27.999999999999996</ele><time>2026-04-04T07:19:06Z</time></trkpt><trkpt lat="44.43009285107212" lon="8.958003143161832"><ele>27.999999999999996</ele><time>2026-04-04T07:19:08Z</time></trkpt><trkpt lat="44.43017279883196" lon="8.958091182131332"><ele>28.0</ele><time>2026-04-04T07:19:10Z</time></trkpt><trkpt lat="44.43025372907708" lon="8.95818086691259"><ele>28.0</ele><time>2026-04-04T07:19:12Z</time></trkpt><trkpt lat="44.43032935814776" lon="8.958257357694595"><ele>28.0</ele><time>2026-04-04T07:19:14Z</time></trkpt><trkpt lat="44.430405279713376" lon="8.95833104624425"><ele>27.999999999999996</ele><time>2026-04-04T07:19:16Z</time></trkpt><trkpt lat="44.43047604685211" lon="8.958425237261972"><ele>27.999999999999996</ele><time>2026-04-04T07:19:18Z</time></trkpt><trkpt lat="44.4305491548048" lon="8.958508506152999"><ele>28.0</ele><time>2026-04-04T07:19:20Z</time></trkpt><trkpt lat="44.43062626717613" lon="8.95859546992995"><ele>28.0</ele><time>2026-04-04T07:19:22Z</time></trkpt><trkpt lat="44.43070242985132" lon="8.958682426661808"><ele>28.799999999999997</ele><time>2026-04-04T07:19:24Z</time></trkpt><trkpt lat="44.43078172886037" lon="8.958766921594236"><ele>29.599999999999998</ele><time>2026-04-04T07:19:26Z</time></trkpt><trkpt lat="44.43085589353555" lon="8.95884846420058"><ele>30.400000000000002</ele><time>2026-04-04T07:19:28Z</time></trkpt><trkpt lat="44.43093138808514" lon="8.958924470669244"><ele>31.200000000000003</ele><time>2026-04-04T07:19:30Z</time></trkpt><trkpt lat="44.43100776901514" lon="8.959006121188102"><ele>32.0</ele><time>2026-04-04T07:19:32Z</time></trkpt><trkpt lat="44.43107896706696" lon="8.959092232832393"><ele>32.0</ele><time>2026-04-04T07:19:34Z</time></trkpt><trkpt lat="44.43115446148908" lon="8.959182616223325"><ele>32.0</ele><time>2026-04-04T07:19:36Z</time></trkpt><trkpt lat="44.431225647429905" lon="8.95927064172805"><ele>32.0</ele><time>2026-04-04T07:19:38Z</time></trkpt><trkpt lat="44.43130297436919" lon="8.959354982816196"><ele>32.0</ele><time>2026-04-04T07:19:40Z</time></trkpt><trkpt lat="44.43137529812911" lon="8.95943957814796"><ele>32.0</ele><time>2026-04-04T07:19:42Z</time></trkpt><trkpt lat="44.43144805697519" lon="8.959523588211303"><ele>31.857142857142854</ele><time>2026-04-04T07:19:44Z</time></trkpt><trkpt lat="44.431513249070136" lon="8.959609722559716"><ele>31.71428571428571</ele><time>2026-04-04T07:19:46Z</time></trkpt><trkpt lat="44.43157935990322" lon="8.95968659263869"><ele>31.57142857142857</ele><time>2026-04-04T07:19:48Z</time></trkpt><trkpt lat="44.431633301010315" lon="8.959753910763547"><ele>31.42857142857143</ele><time>2026-04-04T07:19:50Z</time></trkpt><trkpt lat="44.4316809847491" lon="8.959814890640821"><ele>31.28571428571429</ele><time>2026-04-04T07:19:52.001Z</time></trkpt><trkpt lat="44.431730922029786" lon="8.959890046911019"><ele>31.142857142857146</ele><time>2026-04-04T07:19:55.001Z</time></trkpt><trkpt lat="44.431789981803426" lon="8.959921238426206"><ele>31.0</ele><time>2026-04-04T07:20:06.001Z</time></trkpt><trkpt lat="44.43184239964856" lon="8.959988171056334"><ele>31.333333333333336</ele><time>2026-04-04T07:20:10.001Z</time></trkpt><trkpt lat="44.431890955756366" lon="8.96005795082056"><ele>31.666666666666668</ele><time>2026-04-04T07:20:12.001Z</time></trkpt><trkpt lat="44.43194918259138" lon="8.960123166007657"><ele>32.0</ele><time>2026-04-04T07:20:14.001Z</time></trkpt><trkpt lat="44.43201187910975" lon="8.960196269062845"><ele>32.333333333333336</ele><time>2026-04-04T07:20:16Z</time></trkpt><trkpt lat="44.43207859529233" lon="8.960273055584427"><ele>32.666666666666664</ele><time>2026-04-04T07:20:18Z</time></trkpt><trkpt lat="44.432140905366325" lon="8.960343620149276"><ele>33.0</ele><time>2026-04-04T07:20:20Z</time></trkpt><trkpt lat="44.432222049039304" lon="8.960439237421902"><ele>33.0</ele><time>2026-04-04T07:20:23Z</time></trkpt><trkpt lat="44.43227892883739" lon="8.960490732313918"><ele>33.0</ele><time>2026-04-04T07:20:25Z</time></trkpt><trkpt lat="44.43235949298159" lon="8.960579928190414"><ele>33.0</ele><time>2026-04-04T07:20:28Z</time></trkpt><trkpt lat="44.43246293187311" lon="8.960692548834906"><ele>33.0</ele><time>2026-04-04T07:20:31Z</time></trkpt><trkpt lat="44.43253181862391" lon="8.960777394548547"><ele>33.0</ele><time>2026-04-04T07:20:33Z</time></trkpt><trkpt lat="44.43260733458779" lon="8.960856021380355"><ele>35.2</ele><time>2026-04-04T07:20:35Z</time></trkpt><trkpt lat="44.4326775710713" lon="8.960944138752103"><ele>37.4</ele><time>2026-04-04T07:20:37Z</time></trkpt><trkpt lat="44.4327490124365" lon="8.961022829853405"><ele>39.6</ele><time>2026-04-04T07:20:39Z</time></trkpt><trkpt lat="44.432813293360795" lon="8.961109790090713"><ele>41.800000000000004</ele><time>2026-04-04T07:20:41Z</time></trkpt><trkpt lat="44.43288399190907" lon="8.961189168269337"><ele>44.0</ele><time>2026-04-04T07:20:43Z</time></trkpt><trkpt lat="44.432958369978536" lon="8.961264956197608"><ele>42.142857142857146</ele><time>2026-04-04T07:20:45Z</time></trkpt><trkpt lat="44.43302861657305" lon="8.961333719934274"><ele>40.285714285714285</ele><time>2026-04-04T07:20:47Z</time></trkpt><trkpt lat="44.43309406936512" lon="8.961400372694829"><ele>38.42857142857143</ele><time>2026-04-04T07:20:49Z</time></trkpt><trkpt lat="44.43316137159329" lon="8.961461310550524"><ele>36.57142857142857</ele><time>2026-04-04T07:20:51Z</time></trkpt><trkpt lat="44.433213642317924" lon="8.961520018393784"><ele>34.714285714285715</ele><time>2026-04-04T07:20:53Z</time></trkpt><trkpt lat="44.433267136914" lon="8.961573330212666"><ele>32.85714285714286</ele><time>2026-04-04T07:20:55Z</time></trkpt><trkpt lat="44.43331980557652" lon="8.961628922558917"><ele>31.0</ele><time>2026-04-04T07:20:57Z</time></trkpt><trkpt lat="44.43337309579855" lon="8.961688427691723"><ele>31.0</ele><time>2026-04-04T07:21:00Z</time></trkpt><trkpt lat="44.433428749348266" lon="8.96173919322939"><ele>31.000000000000004</ele><time>2026-04-04T07:21:08Z</time></trkpt><trkpt lat="44.43349062790259" lon="8.961797780389874"><ele>31.0</ele><time>2026-04-04T07:21:20Z</time></trkpt><trkpt lat="44.43354913471404" lon="8.961841239820535"><ele>31.0</ele><time>2026-04-04T07:21:23Z</time></trkpt><trkpt lat="44.433615036829" lon="8.961873574752241"><ele>31.000000000000004</ele><time>2026-04-04T07:21:26Z</time></trkpt><trkpt lat="44.43368710369079" lon="8.961922398228126"><ele>31.0</ele><time>2026-04-04T07:21:29Z</time></trkpt><trkpt lat="44.433745826894054" lon="8.961971827521117"><ele>31.0</ele><time>2026-04-04T07:21:31Z</time></trkpt><trkpt lat="44.43380760902361" lon="8.962024072595463"><ele>31.000000000000004</ele><time>2026-04-04T07:21:33Z</time></trkpt><trkpt lat="44.433873444008256" lon="8.962075838607864"><ele>31.0</ele><time>2026-04-04T07:21:35Z</time></trkpt><trkpt lat="44.43393972871139" lon="8.962126538322499"><ele>31.0</ele><time>2026-04-04T07:21:37Z</time></trkpt><trkpt lat="44.4340100669168" lon="8.962183944628508"><ele>31.0</ele><time>2026-04-04T07:21:39Z</time></trkpt><trkpt lat="44.43408216832804" lon="8.962234599867031"><ele>31.000000000000004</ele><time>2026-04-04T07:21:41Z</time></trkpt><trkpt lat="44.434154121555885" lon="8.962288136084856"><ele>31.0</ele><time>2026-04-04T07:21:43Z</time></trkpt><trkpt lat="44.43423097650434" lon="8.962340978378512"><ele>31.000000000000004</ele><time>2026-04-04T07:21:45Z</time></trkpt><trkpt lat="44.43430772269683" lon="8.962391525194151"><ele>31.0</ele><time>2026-04-04T07:21:47Z</time></trkpt><trkpt lat="44.43438249750531" lon="8.962442689545995"><ele>31.0</ele><time>2026-04-04T07:21:49Z</time></trkpt><trkpt lat="44.43445885225146" lon="8.962491345732445"><ele>31.0</ele><time>2026-04-04T07:21:51Z</time></trkpt><trkpt lat="44.43453599166654" lon="8.962540942055035"><ele>31.000000000000004</ele><time>2026-04-04T07:21:53Z</time></trkpt><trkpt lat="44.43461373515005" lon="8.96259638114229"><ele>31.0</ele><time>2026-04-04T07:21:55Z</time></trkpt><trkpt lat="44.43469670107538" lon="8.962647321042528"><ele>32.4</ele><time>2026-04-04T07:21:57.001Z</time></trkpt><trkpt lat="44.434784760283286" lon="8.962689741246372"><ele>33.8</ele><time>2026-04-04T07:21:59.001Z</time></trkpt><trkpt lat="44.434871327543064" lon="8.962717519765844"><ele>35.199999999999996</ele><time>2026-04-04T07:22:01.001Z</time></trkpt><trkpt lat="44.43495331372414" lon="8.962758034222638"><ele>36.6</ele><time>2026-04-04T07:22:03.001Z</time></trkpt><trkpt lat="44.43503296818241" lon="8.962805366950947"><ele>38.0</ele><time>2026-04-04T07:22:05.001Z</time></trkpt><trkpt lat="44.43512230444713" lon="8.962859869282267"><ele>38.0</ele><time>2026-04-04T07:22:07.001Z</time></trkpt><trkpt lat="44.43520910252965" lon="8.962896248836982"><ele>38.0</ele><time>2026-04-04T07:22:09.001Z</time></trkpt><trkpt lat="44.43530138237266" lon="8.962959228697638"><ele>38.0</ele><time>2026-04-04T07:22:11.001Z</time></trkpt><trkpt lat="44.43539313339639" lon="8.96299115253547"><ele>38.0</ele><time>2026-04-04T07:22:13.001Z</time></trkpt><trkpt lat="44.435480122472384" lon="8.96302176124156"><ele>38.0</ele><time>2026-04-04T07:22:15.001Z</time></trkpt><trkpt lat="44.435558270100984" lon="8.96306819572787"><ele>37.666666666666664</ele><time>2026-04-04T07:22:17.001Z</time></trkpt><trkpt lat="44.43561223117624" lon="8.963155169652355"><ele>37.33333333333333</ele><time>2026-04-04T07:22:19.001Z</time></trkpt><trkpt lat="44.43564608124317" lon="8.963279738490195"><ele>37.0</ele><time>2026-04-04T07:22:21Z</time></trkpt><trkpt lat="44.435708517273454" lon="8.963341316364447"><ele>36.666666666666664</ele><time>2026-04-04T07:22:24Z</time></trkpt><trkpt lat="44.43577777327717" lon="8.963381338831283"><ele>36.333333333333336</ele><time>2026-04-04T07:22:26Z</time></trkpt><trkpt lat="44.435861386504456" lon="8.963369575930637"><ele>36.0</ele><time>2026-04-04T07:22:28Z</time></trkpt><trkpt lat="44.43593455672037" lon="8.963283625032286"><ele>35.8</ele><time>2026-04-04T07:22:30Z</time></trkpt><trkpt lat="44.43601070137789" lon="8.963249969892091"><ele>35.6</ele><time>2026-04-04T07:22:32Z</time></trkpt><trkpt lat="44.43610499248102" lon="8.963250186979277"><ele>35.4</ele><time>2026-04-04T07:22:34Z</time></trkpt><trkpt lat="44.43620282636981" lon="8.963242451801158"><ele>35.2</ele><time>2026-04-04T07:22:36Z</time></trkpt><trkpt lat="44.43628034382883" lon="8.963242476222684"><ele>35.0</ele><time>2026-04-04T07:22:38Z</time></trkpt><trkpt lat="44.43643147643127" lon="8.963272494240199"><ele>35.0</ele><time>2026-04-04T07:22:41Z</time></trkpt><trkpt lat="44.436525817520284" lon="8.96328703158379"><ele>35.0</ele><time>2026-04-04T07:22:43Z</time></trkpt><trkpt lat="44.43661815954964" lon="8.963318921467678"><ele>35.0</ele><time>2026-04-04T07:22:45Z</time></trkpt><trkpt lat="44.43670968487035" lon="8.963327740787223"><ele>35.0</ele><time>2026-04-04T07:22:47Z</time></trkpt><trkpt lat="44.43680051246886" lon="8.963335425223839"><ele>35.0</ele><time>2026-04-04T07:22:49Z</time></trkpt><trkpt lat="44.43689187551896" lon="8.963348014436106"><ele>35.4</ele><time>2026-04-04T07:22:51Z</time></trkpt><trkpt lat="44.43698274664663" lon="8.963367932235794"><ele>35.8</ele><time>2026-04-04T07:22:53Z</time></trkpt><trkpt lat="44.437071652200736" lon="8.963370976410129"><ele>36.2</ele><time>2026-04-04T07:22:55Z</time></trkpt><trkpt lat="44.43715616359092" lon="8.963395487465553"><ele>36.6</ele><time>2026-04-04T07:22:57Z</time></trkpt><trkpt lat="44.437240831232046" lon="8.963414363226903"><ele>37.0</ele><time>2026-04-04T07:22:59Z</time></trkpt><trkpt lat="44.43734139033384" lon="8.963418914668582"><ele>37.16666666666667</ele><time>2026-04-04T07:23:01Z</time></trkpt><trkpt lat="44.437422278155786" lon="8.963443882955934"><ele>37.333333333333336</ele><time>2026-04-04T07:23:03Z</time></trkpt><trkpt lat="44.43750293386458" lon="8.963456199682296"><ele>37.5</ele><time>2026-04-04T07:23:05Z</time></trkpt><trkpt lat="44.43758969509843" lon="8.963469339963567"><ele>37.666666666666664</ele><time>2026-04-04T07:23:07Z</time></trkpt><trkpt lat="44.43767039315464" lon="8.96348220458839"><ele>37.83333333333333</ele><time>2026-04-04T07:23:09Z</time></trkpt><trkpt lat="44.437758189068894" lon="8.963518928579873"><ele>38.0</ele><time>2026-04-04T07:23:11Z</time></trkpt><trkpt lat="44.43784867388402" lon="8.963542014296124"><ele>38.0</ele><time>2026-04-04T07:23:13Z</time></trkpt><trkpt lat="44.43793207289901" lon="8.963566922349607"><ele>38.0</ele><time>2026-04-04T07:23:15Z</time></trkpt><trkpt lat="44.4380300576143" lon="8.963584746224246"><ele>38.0</ele><time>2026-04-04T07:23:17Z</time></trkpt><trkpt lat="44.43812239109187" lon="8.963577600159326"><ele>38.0</ele><time>2026-04-04T07:23:19Z</time></trkpt><trkpt lat="44.43822018006764" lon="8.963600923759962"><ele>38.0</ele><time>2026-04-04T07:23:21Z</time></trkpt><trkpt lat="44.4383049979855" lon="8.963619454263679"><ele>38.0</ele><time>2026-04-04T07:23:23Z</time></trkpt><trkpt lat="44.43839474225395" lon="8.963644195200398"><ele>38.0</ele><time>2026-04-04T07:23:25Z</time></trkpt><trkpt lat="44.43848857555075" lon="8.963666033370583"><ele>38.0</ele><time>2026-04-04T07:23:27Z</time></trkpt><trkpt lat="44.438578777762274" lon="8.963715186777424"><ele>38.0</ele><time>2026-04-04T07:23:29Z</time></trkpt><trkpt lat="44.43866831485275" lon="8.963744216387015"><ele>38.0</ele><time>2026-04-04T07:23:31Z</time></trkpt><trkpt lat="44.43876500596402" lon="8.96376400475819"><ele>37.8</ele><time>2026-04-04T07:23:33Z</time></trkpt><trkpt lat="44.438869878506836" lon="8.9637719859538"><ele>37.599999999999994</ele><time>2026-04-04T07:23:35Z</time></trkpt><trkpt lat="44.43897480304509" lon="8.963801673187733"><ele>37.400000000000006</ele><time>2026-04-04T07:23:37Z</time></trkpt><trkpt lat="44.43908145447027" lon="8.96382904251725"><ele>37.2</ele><time>2026-04-04T07:23:39Z</time></trkpt><trkpt lat="44.43918852677597" lon="8.963867204421156"><ele>37.0</ele><time>2026-04-04T07:23:41Z</time></trkpt><trkpt lat="44.43929811832903" lon="8.96390270613916"><ele>37.0</ele><time>2026-04-04T07:23:43Z</time></trkpt><trkpt lat="44.43940615689792" lon="8.963942297344584"><ele>37.0</ele><time>2026-04-04T07:23:45Z</time></trkpt><trkpt lat="44.43950968204502" lon="8.963984796900016"><ele>37.0</ele><time>2026-04-04T07:23:47Z</time></trkpt><trkpt lat="44.439612731359595" lon="8.964022529216678"><ele>37.0</ele><time>2026-04-04T07:23:49Z</time></trkpt><trkpt lat="44.43970850806794" lon="8.96406263504743"><ele>37.0</ele><time>2026-04-04T07:23:51Z</time></trkpt><trkpt lat="44.43980152692348" lon="8.964103412613964"><ele>37.16666666666667</ele><time>2026-04-04T07:23:53Z</time></trkpt><trkpt lat="44.439896656339286" lon="8.964131695187762"><ele>37.333333333333336</ele><time>2026-04-04T07:23:55Z</time></trkpt><trkpt lat="44.439985121658864" lon="8.964174818724413"><ele>37.5</ele><time>2026-04-04T07:23:57Z</time></trkpt><trkpt lat="44.440068666634716" lon="8.964211771828744"><ele>37.666666666666664</ele><time>2026-04-04T07:23:59Z</time></trkpt><trkpt lat="44.440144015709016" lon="8.964250554114102"><ele>37.83333333333333</ele><time>2026-04-04T07:24:01Z</time></trkpt><trkpt lat="44.44021861592509" lon="8.964274374624287"><ele>38.0</ele><time>2026-04-04T07:24:03Z</time></trkpt><trkpt lat="44.4402784934055" lon="8.964301832651659"><ele>38.33333333333333</ele><time>2026-04-04T07:24:05Z</time></trkpt><trkpt lat="44.440353725695275" lon="8.964332202387014"><ele>38.666666666666664</ele><time>2026-04-04T07:24:07Z</time></trkpt><trkpt lat="44.44041901869938" lon="8.96436335205922"><ele>39.0</ele><time>2026-04-04T07:24:09Z</time></trkpt><trkpt lat="44.44048842496164" lon="8.964386060899386"><ele>39.333333333333336</ele><time>2026-04-04T07:24:11Z</time></trkpt><trkpt lat="44.44055693460423" lon="8.964416518888587"><ele>39.66666666666667</ele><time>2026-04-04T07:24:13.001Z</time></trkpt><trkpt lat="44.44064632956745" lon="8.964461545211694"><ele>40.0</ele><time>2026-04-04T07:24:16.001Z</time></trkpt><trkpt lat="44.44070651166075" lon="8.964494530934362"><ele>40.14285714285714</ele><time>2026-04-04T07:24:18.001Z</time></trkpt><trkpt lat="44.44079614589684" lon="8.964542577515473"><ele>40.285714285714285</ele><time>2026-04-04T07:24:21.001Z</time></trkpt><trkpt lat="44.440856541589625" lon="8.964570787842142"><ele>40.42857142857143</ele><time>2026-04-04T07:24:23.001Z</time></trkpt><trkpt lat="44.44091880979488" lon="8.964608101064028"><ele>40.57142857142857</ele><time>2026-04-04T07:24:25.001Z</time></trkpt><trkpt lat="44.44097409096816" lon="8.964652637462779"><ele>40.714285714285715</ele><time>2026-04-04T07:24:27Z</time></trkpt><trkpt lat="44.44104878931614" lon="8.964706375997064"><ele>40.857142857142854</ele><time>2026-04-04T07:24:30Z</time></trkpt><trkpt lat="44.441109315417165" lon="8.964736679585195"><ele>41.0</ele><time>2026-04-04T07:24:33Z</time></trkpt><trkpt lat="44.44117050406156" lon="8.964782670680444"><ele>40.99999999999999</ele><time>2026-04-04T07:24:36Z</time></trkpt><trkpt lat="44.44123492551524" lon="8.964819194197853"><ele>41.0</ele><time>2026-04-04T07:24:39Z</time></trkpt><trkpt lat="44.44130808029943" lon="8.964869262388632"><ele>41.0</ele><time>2026-04-04T07:24:42Z</time></trkpt><trkpt lat="44.441374535955255" lon="8.964913586635484"><ele>41.0</ele><time>2026-04-04T07:24:45Z</time></trkpt><trkpt lat="44.441437117674106" lon="8.964903132790829"><ele>41.0</ele><time>2026-04-04T07:26:06.001Z</time></trkpt><trkpt lat="44.441457502849545" lon="8.964807544774732"><ele>40.99999999999999</ele><time>2026-04-04T07:26:09.001Z</time></trkpt><trkpt lat="44.44147521613238" lon="8.964715425281074"><ele>41.0</ele><time>2026-04-04T07:26:12.001Z</time></trkpt><trkpt lat="44.44150864265777" lon="8.964604543433964"><ele>40.57142857142857</ele><time>2026-04-04T07:26:15.001Z</time></trkpt><trkpt lat="44.44154294152313" lon="8.964492796810239"><ele>40.14285714285714</ele><time>2026-04-04T07:26:18.001Z</time></trkpt><trkpt lat="44.44157207829707" lon="8.964408843975727"><ele>39.71428571428571</ele><time>2026-04-04T07:26:20.001Z</time></trkpt><trkpt lat="44.44159686344749" lon="8.96431895155687"><ele>39.285714285714285</ele><time>2026-04-04T07:26:22.001Z</time></trkpt><trkpt lat="44.44162849811967" lon="8.964230270110985"><ele>38.85714285714286</ele><time>2026-04-04T07:26:24.001Z</time></trkpt><trkpt lat="44.44165631551141" lon="8.964140321249259"><ele>38.42857142857142</ele><time>2026-04-04T07:26:26.001Z</time></trkpt><trkpt lat="44.44168452539403" lon="8.9640486844615"><ele>38.0</ele><time>2026-04-04T07:26:28.001Z</time></trkpt><trkpt lat="44.44171026394044" lon="8.963966127495747"><ele>38.0</ele><time>2026-04-04T07:26:30.001Z</time></trkpt><trkpt lat="44.4417333905335" lon="8.963882118255452"><ele>38.0</ele><time>2026-04-04T07:26:32.001Z</time></trkpt><trkpt lat="44.441735270855254" lon="8.963773129747208"><ele>38.0</ele><time>2026-04-04T07:26:35Z</time></trkpt><trkpt lat="44.44178276651362" lon="8.963713376327018"><ele>38.0</ele><time>2026-04-04T07:26:37Z</time></trkpt><trkpt lat="44.44186035953078" lon="8.96374235954489"><ele>38.0</ele><time>2026-04-04T07:26:39Z</time></trkpt><trkpt lat="44.441929212576014" lon="8.963797897373132"><ele>38.0</ele><time>2026-04-04T07:26:41Z</time></trkpt><trkpt lat="44.44200052598172" lon="8.963836837840716"><ele>38.0</ele><time>2026-04-04T07:26:43Z</time></trkpt><trkpt lat="44.44207330647974" lon="8.963879589102367"><ele>38.5</ele><time>2026-04-04T07:26:45Z</time></trkpt><trkpt lat="44.44214325200015" lon="8.963929432913499"><ele>39.0</ele><time>2026-04-04T07:26:47Z</time></trkpt><trkpt lat="44.44221634110469" lon="8.96397614234499"><ele>39.5</ele><time>2026-04-04T07:26:49Z</time></trkpt><trkpt lat="44.442288759313875" lon="8.964026565294866"><ele>40.0</ele><time>2026-04-04T07:26:51Z</time></trkpt><trkpt lat="44.44235817540394" lon="8.964076594054152"><ele>40.5</ele><time>2026-04-04T07:26:53Z</time></trkpt><trkpt lat="44.44242603652555" lon="8.96412486010985"><ele>41.0</ele><time>2026-04-04T07:26:55Z</time></trkpt><trkpt lat="44.44248860226706" lon="8.964184289141006"><ele>40.166666666666664</ele><time>2026-04-04T07:26:57Z</time></trkpt><trkpt lat="44.442553877946125" lon="8.964238698535407"><ele>39.33333333333333</ele><time>2026-04-04T07:26:59Z</time></trkpt><trkpt lat="44.44261831909754" lon="8.964282303867568"><ele>38.5</ele><time>2026-04-04T07:27:01Z</time></trkpt><trkpt lat="44.4426798147994" lon="8.964337661643235"><ele>37.666666666666664</ele><time>2026-04-04T07:27:03Z</time></trkpt><trkpt lat="44.44275126604791" lon="8.964401289256504"><ele>36.833333333333336</ele><time>2026-04-04T07:27:05Z</time></trkpt><trkpt lat="44.44280568157962" lon="8.964457165595716"><ele>36.0</ele><time>2026-04-04T07:27:07Z</time></trkpt><trkpt lat="44.442873031066334" lon="8.964523600161595"><ele>36.0</ele><time>2026-04-04T07:27:09Z</time></trkpt><trkpt lat="44.442936248535815" lon="8.964593118165988"><ele>36.0</ele><time>2026-04-04T07:27:11Z</time></trkpt><trkpt lat="44.44300648169777" lon="8.96466005653561"><ele>36.0</ele><time>2026-04-04T07:27:13Z</time></trkpt><trkpt lat="44.443066383521725" lon="8.964736161777983"><ele>36.0</ele><time>2026-04-04T07:27:15Z</time></trkpt><trkpt lat="44.44313457510894" lon="8.964801746250663"><ele>36.0</ele><time>2026-04-04T07:27:17Z</time></trkpt><trkpt lat="44.443200606083266" lon="8.9648682189842"><ele>36.0</ele><time>2026-04-04T07:27:19Z</time></trkpt><trkpt lat="44.443269194409844" lon="8.964929662775875"><ele>36.666666666666664</ele><time>2026-04-04T07:27:21Z</time></trkpt><trkpt lat="44.4433339333114" lon="8.964994469331286"><ele>37.333333333333336</ele><time>2026-04-04T07:27:23Z</time></trkpt><trkpt lat="44.44339771560659" lon="8.965060559985528"><ele>38.0</ele><time>2026-04-04T07:27:25Z</time></trkpt><trkpt lat="44.44345838083549" lon="8.965132787968997"><ele>38.66666666666667</ele><time>2026-04-04T07:27:27Z</time></trkpt><trkpt lat="44.44352409779066" lon="8.965202655732174"><ele>39.333333333333336</ele><time>2026-04-04T07:27:29Z</time></trkpt><trkpt lat="44.44359190611707" lon="8.965265583091913"><ele>40.0</ele><time>2026-04-04T07:27:31Z</time></trkpt><trkpt lat="44.443658972255335" lon="8.965332265269875"><ele>40.0</ele><time>2026-04-04T07:27:33Z</time></trkpt><trkpt lat="44.44372488228103" lon="8.965397579223609"><ele>40.0</ele><time>2026-04-04T07:27:35Z</time></trkpt><trkpt lat="44.4437897531447" lon="8.965465349308438"><ele>40.0</ele><time>2026-04-04T07:27:37Z</time></trkpt><trkpt lat="44.44385663483243" lon="8.965531299966745"><ele>40.0</ele><time>2026-04-04T07:27:39Z</time></trkpt><trkpt lat="44.44392618331544" lon="8.9655970050381"><ele>40.0</ele><time>2026-04-04T07:27:41Z</time></trkpt><trkpt lat="44.44399073053927" lon="8.965664064330829"><ele>40.0</ele><time>2026-04-04T07:27:43Z</time></trkpt><trkpt lat="44.44405866874347" lon="8.965728869012707"><ele>39.833333333333336</ele><time>2026-04-04T07:27:45Z</time></trkpt><trkpt lat="44.444123907158676" lon="8.965791294577881"><ele>39.66666666666667</ele><time>2026-04-04T07:27:47Z</time></trkpt><trkpt lat="44.44419013677337" lon="8.96586471158903"><ele>39.5</ele><time>2026-04-04T07:27:49Z</time></trkpt><trkpt lat="44.444258397204194" lon="8.965932727601102"><ele>39.333333333333336</ele><time>2026-04-04T07:27:51Z</time></trkpt><trkpt lat="44.44432159546933" lon="8.966001588120585"><ele>39.166666666666664</ele><time>2026-04-04T07:27:53Z</time></trkpt><trkpt lat="44.44438686366329" lon="8.966071321397006"><ele>39.0</ele><time>2026-04-04T07:27:55Z</time></trkpt><trkpt lat="44.444446509199715" lon="8.96614742814508"><ele>39.0</ele><time>2026-04-04T07:27:57Z</time></trkpt><trkpt lat="44.44450833388501" lon="8.966221122643395"><ele>39.0</ele><time>2026-04-04T07:27:59Z</time></trkpt><trkpt lat="44.444572119161265" lon="8.966290159701751"><ele>39.0</ele><time>2026-04-04T07:28:01Z</time></trkpt><trkpt lat="44.444632690055904" lon="8.966362900799808"><ele>39.0</ele><time>2026-04-04T07:28:03Z</time></trkpt><trkpt lat="44.44469192530475" lon="8.966438147276634"><ele>39.0</ele><time>2026-04-04T07:28:05.001Z</time></trkpt><trkpt lat="44.44474960495641" lon="8.966516501555349"><ele>39.0</ele><time>2026-04-04T07:28:07.001Z</time></trkpt><trkpt lat="44.444812499584216" lon="8.966590601208589"><ele>39.333333333333336</ele><time>2026-04-04T07:28:09.001Z</time></trkpt><trkpt lat="44.44487910896175" lon="8.966660222003235"><ele>39.666666666666664</ele><time>2026-04-04T07:28:11.001Z</time></trkpt><trkpt lat="44.4449442681786" lon="8.966737238049529"><ele>40.0</ele><time>2026-04-04T07:28:13.001Z</time></trkpt><trkpt lat="44.44499990686403" lon="8.966830679202861"><ele>40.33333333333333</ele><time>2026-04-04T07:28:15.001Z</time></trkpt><trkpt lat="44.44506134864198" lon="8.96691771461896"><ele>40.666666666666664</ele><time>2026-04-04T07:28:17.001Z</time></trkpt><trkpt lat="44.445126404741345" lon="8.966993245835663"><ele>41.0</ele><time>2026-04-04T07:28:19.001Z</time></trkpt><trkpt lat="44.44518915785304" lon="8.967063206888328"><ele>41.0</ele><time>2026-04-04T07:28:21.001Z</time></trkpt><trkpt lat="44.44524497914159" lon="8.967145961075568"><ele>41.0</ele><time>2026-04-04T07:28:23.001Z</time></trkpt><trkpt lat="44.44530724864736" lon="8.9672189465287"><ele>41.0</ele><time>2026-04-04T07:28:25.001Z</time></trkpt><trkpt lat="44.44536350533016" lon="8.967295360014234"><ele>41.0</ele><time>2026-04-04T07:28:27.001Z</time></trkpt><trkpt lat="44.44542172442366" lon="8.967372530298835"><ele>41.0</ele><time>2026-04-04T07:28:29.001Z</time></trkpt><trkpt lat="44.445475069654066" lon="8.967452179345923"><ele>41.0</ele><time>2026-04-04T07:28:31.001Z</time></trkpt><trkpt lat="44.44553318592974" lon="8.967522245191464"><ele>41.42857142857142</ele><time>2026-04-04T07:28:33.001Z</time></trkpt><trkpt lat="44.44558592726025" lon="8.967589487299142"><ele>41.857142857142854</ele><time>2026-04-04T07:28:35.001Z</time></trkpt><trkpt lat="44.44563507693433" lon="8.967660988294131"><ele>42.285714285714285</ele><time>2026-04-04T07:28:37.001Z</time></trkpt><trkpt lat="44.4456877164655" lon="8.967729033706638"><ele>42.71428571428571</ele><time>2026-04-04T07:28:39Z</time></trkpt><trkpt lat="44.445736278045594" lon="8.967795558037336"><ele>43.14285714285714</ele><time>2026-04-04T07:28:41Z</time></trkpt><trkpt lat="44.445792691956285" lon="8.967851165048685"><ele>43.57142857142857</ele><time>2026-04-04T07:28:43Z</time></trkpt><trkpt lat="44.44584095800622" lon="8.967913582372667"><ele>44.0</ele><time>2026-04-04T07:28:45Z</time></trkpt><trkpt lat="44.44588617668815" lon="8.967977810875865"><ele>44.0</ele><time>2026-04-04T07:28:47Z</time></trkpt><trkpt lat="44.44592850399968" lon="8.968070217912326"><ele>44.0</ele><time>2026-04-04T07:28:50Z</time></trkpt><trkpt lat="44.44604758069012" lon="8.968161933397141"><ele>44.0</ele><time>2026-04-04T07:40:15.001Z</time></trkpt><trkpt lat="44.44610898890438" lon="8.968228058003149"><ele>44.0</ele><time>2026-04-04T07:40:19.001Z</time></trkpt><trkpt lat="44.44617389475877" lon="8.968315478541614"><ele>44.0</ele><time>2026-04-04T07:40:22.001Z</time></trkpt><trkpt lat="44.44624838223952" lon="8.96839761154024"><ele>43.85714285714286</ele><time>2026-04-04T07:40:25.001Z</time></trkpt><trkpt lat="44.446297246380354" lon="8.968469769732513"><ele>43.714285714285715</ele><time>2026-04-04T07:40:27.001Z</time></trkpt><trkpt lat="44.44634186978009" lon="8.968542088719122"><ele>43.57142857142857</ele><time>2026-04-04T07:40:29.001Z</time></trkpt><trkpt lat="44.446386345460446" lon="8.968613775877468"><ele>43.42857142857143</ele><time>2026-04-04T07:40:31.001Z</time></trkpt><trkpt lat="44.44645472634817" lon="8.968705858470543"><ele>43.285714285714285</ele><time>2026-04-04T07:40:34.001Z</time></trkpt><trkpt lat="44.446502691316624" lon="8.968778371676507"><ele>43.142857142857146</ele><time>2026-04-04T07:40:36.001Z</time></trkpt><trkpt lat="44.44655368050582" lon="8.968842242958393"><ele>43.0</ele><time>2026-04-04T07:40:38.001Z</time></trkpt><trkpt lat="44.446620772471775" lon="8.968899143853545"><ele>43.0</ele><time>2026-04-04T07:40:40.001Z</time></trkpt><trkpt lat="44.446683556828866" lon="8.96895689548925"><ele>43.0</ele><time>2026-04-04T07:40:42.001Z</time></trkpt><trkpt lat="44.44674151471614" lon="8.969019923810643"><ele>43.0</ele><time>2026-04-04T07:40:44.001Z</time></trkpt><trkpt lat="44.446798299640804" lon="8.969085020048501"><ele>43.0</ele><time>2026-04-04T07:40:46.001Z</time></trkpt><trkpt lat="44.44686041314066" lon="8.969154564351172"><ele>43.0</ele><time>2026-04-04T07:40:48.001Z</time></trkpt><trkpt lat="44.44691597990851" lon="8.969238643548474"><ele>43.0</ele><time>2026-04-04T07:40:50.001Z</time></trkpt><trkpt lat="44.44697113670579" lon="8.969323413868663"><ele>43.0</ele><time>2026-04-04T07:40:52.001Z</time></trkpt><trkpt lat="44.44703137158011" lon="8.969403932037347"><ele>43.0</ele><time>2026-04-04T07:40:54.001Z</time></trkpt><trkpt lat="44.44708619626902" lon="8.969482755115376"><ele>43.0</ele><time>2026-04-04T07:40:56.002Z</time></trkpt><trkpt lat="44.44714674370249" lon="8.969558368050903"><ele>43.0</ele><time>2026-04-04T07:40:58.002Z</time></trkpt><trkpt lat="44.44720344214428" lon="8.969636077361406"><ele>43.0</ele><time>2026-04-04T07:41:00.002Z</time></trkpt><trkpt lat="44.447267540556346" lon="8.969706134102337"><ele>43.0</ele><time>2026-04-04T07:41:02.002Z</time></trkpt><trkpt lat="44.44732923579704" lon="8.969778320154456"><ele>43.16666666666667</ele><time>2026-04-04T07:41:04.002Z</time></trkpt><trkpt lat="44.44739793197977" lon="8.969854499155305"><ele>43.333333333333336</ele><time>2026-04-04T07:41:06.002Z</time></trkpt><trkpt lat="44.44746871097472" lon="8.969927137147648"><ele>43.5</ele><time>2026-04-04T07:41:08.002Z</time></trkpt><trkpt lat="44.44753782892143" lon="8.969998722349583"><ele>43.666666666666664</ele><time>2026-04-04T07:41:10.002Z</time></trkpt><trkpt lat="44.44760583576506" lon="8.970074495419492"><ele>43.83333333333333</ele><time>2026-04-04T07:41:12.002Z</time></trkpt><trkpt lat="44.447664944247585" lon="8.970158776159863"><ele>44.0</ele><time>2026-04-04T07:41:14.002Z</time></trkpt><trkpt lat="44.44773877212611" lon="8.970214384355469"><ele>44.0</ele><time>2026-04-04T07:41:15.999Z</time></trkpt><trkpt lat="44.44780389237422" lon="8.970289909238735"><ele>44.0</ele><time>2026-04-04T07:41:17.999Z</time></trkpt><trkpt lat="44.44787352693337" lon="8.970369044736975"><ele>44.0</ele><time>2026-04-04T07:41:19.999Z</time></trkpt><trkpt lat="44.44793889411709" lon="8.970451510834254"><ele>44.0</ele><time>2026-04-04T07:41:21.999Z</time></trkpt><trkpt lat="44.44799851296481" lon="8.970535348940473"><ele>44.0</ele><time>2026-04-04T07:41:23.999Z</time></trkpt><trkpt lat="44.44805325708536" lon="8.970618380290844"><ele>44.0</ele><time>2026-04-04T07:41:25.999Z</time></trkpt><trkpt lat="44.44810370997784" lon="8.970707813327877"><ele>44.0</ele><time>2026-04-04T07:41:27.999Z</time></trkpt><trkpt lat="44.448168972995454" lon="8.970779542751078"><ele>44.0</ele><time>2026-04-04T07:41:29.999Z</time></trkpt><trkpt lat="44.44823014244039" lon="8.97086028806081"><ele>44.0</ele><time>2026-04-04T07:41:31.999Z</time></trkpt><trkpt lat="44.448294234294636" lon="8.970961981536918"><ele>44.0</ele><time>2026-04-04T07:41:33.999Z</time></trkpt><trkpt lat="44.448333780601985" lon="8.971059924215643"><ele>44.0</ele><time>2026-04-04T07:41:35.999Z</time></trkpt><trkpt lat="44.44838876007418" lon="8.971151751993526"><ele>44.0</ele><time>2026-04-04T07:41:37.999Z</time></trkpt><trkpt lat="44.448444200556956" lon="8.971237845236704"><ele>44.0</ele><time>2026-04-04T07:41:40Z</time></trkpt><trkpt lat="44.448502755192685" lon="8.971328704821348"><ele>44.0</ele><time>2026-04-04T07:41:42Z</time></trkpt><trkpt lat="44.44856292161261" lon="8.971411513894159"><ele>44.0</ele><time>2026-04-04T07:41:44Z</time></trkpt><trkpt lat="44.44862511720775" lon="8.971487913794888"><ele>44.0</ele><time>2026-04-04T07:41:46Z</time></trkpt><trkpt lat="44.44868498834756" lon="8.971569289601307"><ele>44.0</ele><time>2026-04-04T07:41:48Z</time></trkpt><trkpt lat="44.448744879418655" lon="8.971640553353614"><ele>44.0</ele><time>2026-04-04T07:41:50Z</time></trkpt><trkpt lat="44.448817756178755" lon="8.97170017091763"><ele>44.33333333333333</ele><time>2026-04-04T07:41:52Z</time></trkpt><trkpt lat="44.448884893756635" lon="8.97176308978428"><ele>44.666666666666664</ele><time>2026-04-04T07:41:54Z</time></trkpt><trkpt lat="44.44895069276205" lon="8.97181597516913"><ele>45.0</ele><time>2026-04-04T07:41:56Z</time></trkpt><trkpt lat="44.44901441531792" lon="8.971883610770613"><ele>45.333333333333336</ele><time>2026-04-04T07:41:58Z</time></trkpt><trkpt lat="44.44907122996407" lon="8.971958290076037"><ele>45.66666666666667</ele><time>2026-04-04T07:42:00Z</time></trkpt><trkpt lat="44.44913192695683" lon="8.972028255075982"><ele>46.0</ele><time>2026-04-04T07:42:02Z</time></trkpt><trkpt lat="44.449192884791735" lon="8.972093357986857"><ele>46.0</ele><time>2026-04-04T07:42:04Z</time></trkpt><trkpt lat="44.44925226575796" lon="8.972162504858503"><ele>46.0</ele><time>2026-04-04T07:42:06Z</time></trkpt><trkpt lat="44.449315444705874" lon="8.972228676062995"><ele>46.0</ele><time>2026-04-04T07:42:08Z</time></trkpt><trkpt lat="44.44939009612027" lon="8.972290064989418"><ele>46.0</ele><time>2026-04-04T07:42:10Z</time></trkpt><trkpt lat="44.44944876603498" lon="8.972363610540475"><ele>46.0</ele><time>2026-04-04T07:42:12.001Z</time></trkpt><trkpt lat="44.44951421237" lon="8.972436939653706"><ele>46.0</ele><time>2026-04-04T07:42:14.001Z</time></trkpt><trkpt lat="44.449572610802605" lon="8.972505359906775"><ele>46.333333333333336</ele><time>2026-04-04T07:42:16.001Z</time></trkpt><trkpt lat="44.4496259777953" lon="8.972586842214849"><ele>46.66666666666667</ele><time>2026-04-04T07:42:18.001Z</time></trkpt><trkpt lat="44.44967971680936" lon="8.97266157804772"><ele>47.0</ele><time>2026-04-04T07:42:20.001Z</time></trkpt><trkpt lat="44.449714263447234" lon="8.972762377082178"><ele>47.333333333333336</ele><time>2026-04-04T07:42:22.001Z</time></trkpt><trkpt lat="44.449759412575396" lon="8.972849080662316"><ele>47.666666666666664</ele><time>2026-04-04T07:42:24.001Z</time></trkpt><trkpt lat="44.449814328709685" lon="8.972925120449123"><ele>48.0</ele><time>2026-04-04T07:42:26.001Z</time></trkpt><trkpt lat="44.449871102151896" lon="8.972995112837253"><ele>48.0</ele><time>2026-04-04T07:42:28.001Z</time></trkpt><trkpt lat="44.44992721320102" lon="8.97307209831757"><ele>48.0</ele><time>2026-04-04T07:42:30.001Z</time></trkpt><trkpt lat="44.4499858770974" lon="8.97314712809792"><ele>48.0</ele><time>2026-04-04T07:42:32.001Z</time></trkpt><trkpt lat="44.45004827077748" lon="8.973218591004892"><ele>48.0</ele><time>2026-04-04T07:42:34.001Z</time></trkpt><trkpt lat="44.450102188725175" lon="8.973293194700943"><ele>48.0</ele><time>2026-04-04T07:42:36.001Z</time></trkpt><trkpt lat="44.450163185279415" lon="8.973360605462522"><ele>48.0</ele><time>2026-04-04T07:42:38.001Z</time></trkpt><trkpt lat="44.45021710786793" lon="8.973435462306126"><ele>48.166666666666664</ele><time>2026-04-04T07:42:40.001Z</time></trkpt><trkpt lat="44.45027233664362" lon="8.97350886109907"><ele>48.33333333333333</ele><time>2026-04-04T07:42:42.001Z</time></trkpt><trkpt lat="44.45033069434334" lon="8.973573847308463"><ele>48.5</ele><time>2026-04-04T07:42:44.001Z</time></trkpt><trkpt lat="44.45038766155019" lon="8.973643117664704"><ele>48.666666666666664</ele><time>2026-04-04T07:42:46.001Z</time></trkpt><trkpt lat="44.45045103315551" lon="8.973710233658538"><ele>48.83333333333333</ele><time>2026-04-04T07:42:48.001Z</time></trkpt><trkpt lat="44.450509140816465" lon="8.973784915335697"><ele>49.0</ele><time>2026-04-04T07:42:50.001Z</time></trkpt><trkpt lat="44.45056980657352" lon="8.973852646403975"><ele>49.166666666666664</ele><time>2026-04-04T07:42:52.002Z</time></trkpt><trkpt lat="44.45062516171715" lon="8.973926034841588"><ele>49.33333333333333</ele><time>2026-04-04T07:42:54.002Z</time></trkpt><trkpt lat="44.450684493307364" lon="8.974001334712206"><ele>49.5</ele><time>2026-04-04T07:42:56.002Z</time></trkpt><trkpt lat="44.45074703811309" lon="8.974067499115119"><ele>49.66666666666667</ele><time>2026-04-04T07:42:58.002Z</time></trkpt><trkpt lat="44.45079925503908" lon="8.974145217969708"><ele>49.833333333333336</ele><time>2026-04-04T07:43:00.002Z</time></trkpt><trkpt lat="44.45085856772032" lon="8.974212542056952"><ele>50.0</ele><time>2026-04-04T07:43:02.002Z</time></trkpt><trkpt lat="44.45091833445067" lon="8.974274366277994"><ele>49.50000000000001</ele><time>2026-04-04T07:43:04.002Z</time></trkpt><trkpt lat="44.45097927900644" lon="8.974345536179092"><ele>49.0</ele><time>2026-04-04T07:43:06.002Z</time></trkpt><trkpt lat="44.45104237231785" lon="8.974407682725296"><ele>48.5</ele><time>2026-04-04T07:43:08.002Z</time></trkpt><trkpt lat="44.45109886348573" lon="8.974483778599417"><ele>48.0</ele><time>2026-04-04T07:43:10.002Z</time></trkpt><trkpt lat="44.45115560529072" lon="8.974557669158083"><ele>47.5</ele><time>2026-04-04T07:43:12.002Z</time></trkpt><trkpt lat="44.451212795263345" lon="8.974629169370028"><ele>47.0</ele><time>2026-04-04T07:43:14.002Z</time></trkpt><trkpt lat="44.45127200648901" lon="8.974705977818944"><ele>47.83333333333333</ele><time>2026-04-04T07:43:16.002Z</time></trkpt><trkpt lat="44.45133202001301" lon="8.974773320524925"><ele>48.666666666666664</ele><time>2026-04-04T07:43:18.002Z</time></trkpt><trkpt lat="44.451390774798135" lon="8.974835899338625"><ele>49.5</ele><time>2026-04-04T07:43:20.002Z</time></trkpt><trkpt lat="44.451442283312865" lon="8.974911244862133"><ele>50.33333333333333</ele><time>2026-04-04T07:43:21.999Z</time></trkpt><trkpt lat="44.451505546394955" lon="8.974975202133244"><ele>51.166666666666664</ele><time>2026-04-04T07:43:23.999Z</time></trkpt><trkpt lat="44.451569253480635" lon="8.975042002375748"><ele>52.0</ele><time>2026-04-04T07:43:25.999Z</time></trkpt><trkpt lat="44.45163288448072" lon="8.975109019761906"><ele>52.0</ele><time>2026-04-04T07:43:27.999Z</time></trkpt><trkpt lat="44.451683702240395" lon="8.975176089195001"><ele>52.0</ele><time>2026-04-04T07:43:29.999Z</time></trkpt><trkpt lat="44.451737440674016" lon="8.975243346248417"><ele>52.0</ele><time>2026-04-04T07:43:31.999Z</time></trkpt><trkpt lat="44.45177360563328" lon="8.975325986174902"><ele>52.0</ele><time>2026-04-04T07:43:33.999Z</time></trkpt><trkpt lat="44.45179159923227" lon="8.975418035546012"><ele>52.0</ele><time>2026-04-04T07:43:35.999Z</time></trkpt><trkpt lat="44.45181394569902" lon="8.975519576621076"><ele>52.0</ele><time>2026-04-04T07:43:37.999Z</time></trkpt><trkpt lat="44.451841592540404" lon="8.97561927165298"><ele>52.0</ele><time>2026-04-04T07:43:39.999Z</time></trkpt><trkpt lat="44.45186486186234" lon="8.975725773684903"><ele>51.99999999999999</ele><time>2026-04-04T07:43:42Z</time></trkpt><trkpt lat="44.451886982755695" lon="8.975829184531491"><ele>52.0</ele><time>2026-04-04T07:43:44Z</time></trkpt><trkpt lat="44.451929275969285" lon="8.975917009901634"><ele>52.0</ele><time>2026-04-04T07:43:46Z</time></trkpt><trkpt lat="44.45197583973227" lon="8.976002967510288"><ele>52.0</ele><time>2026-04-04T07:43:48Z</time></trkpt><trkpt lat="44.45202346336377" lon="8.976093045596105"><ele>51.99999999999999</ele><time>2026-04-04T07:43:50Z</time></trkpt><trkpt lat="44.452072501586294" lon="8.97618525163583"><ele>52.0</ele><time>2026-04-04T07:43:52Z</time></trkpt><trkpt lat="44.452120636179" lon="8.976277201088983"><ele>52.49999999999999</ele><time>2026-04-04T07:43:54Z</time></trkpt><trkpt lat="44.45216967224412" lon="8.97636838308827"><ele>53.0</ele><time>2026-04-04T07:43:56Z</time></trkpt><trkpt lat="44.45221555144754" lon="8.976455801101238"><ele>53.5</ele><time>2026-04-04T07:43:58Z</time></trkpt><trkpt lat="44.45226292244172" lon="8.976549514339236"><ele>54.0</ele><time>2026-04-04T07:44:00Z</time></trkpt><trkpt lat="44.45231177324415" lon="8.976637993732599"><ele>54.49999999999999</ele><time>2026-04-04T07:44:02Z</time></trkpt><trkpt lat="44.45235990193508" lon="8.976731080771623"><ele>55.0</ele><time>2026-04-04T07:44:04Z</time></trkpt><trkpt lat="44.45240089730115" lon="8.976818735603086"><ele>55.33333333333333</ele><time>2026-04-04T07:44:06Z</time></trkpt><trkpt lat="44.452442886443166" lon="8.976903400871686"><ele>55.666666666666664</ele><time>2026-04-04T07:44:08Z</time></trkpt><trkpt lat="44.452486315072015" lon="8.976990674187183"><ele>56.0</ele><time>2026-04-04T07:44:10.001Z</time></trkpt><trkpt lat="44.45252618645354" lon="8.9770800970003"><ele>56.33333333333333</ele><time>2026-04-04T07:44:12.001Z</time></trkpt><trkpt lat="44.45256809673687" lon="8.977169332773725"><ele>56.666666666666664</ele><time>2026-04-04T07:44:14.001Z</time></trkpt><trkpt lat="44.45261157101924" lon="8.977263676095625"><ele>57.0</ele><time>2026-04-04T07:44:16.001Z</time></trkpt><trkpt lat="44.45265688788938" lon="8.977366184975175"><ele>57.0</ele><time>2026-04-04T07:44:18.001Z</time></trkpt><trkpt lat="44.45269994226811" lon="8.977470528452491"><ele>57.0</ele><time>2026-04-04T07:44:20.001Z</time></trkpt><trkpt lat="44.45274437479694" lon="8.977577306058715"><ele>57.0</ele><time>2026-04-04T07:44:22.001Z</time></trkpt><trkpt lat="44.452786419026694" lon="8.97768532211331"><ele>57.0</ele><time>2026-04-04T07:44:24.001Z</time></trkpt><trkpt lat="44.45281849417448" lon="8.977785884477585"><ele>57.0</ele><time>2026-04-04T07:44:26.001Z</time></trkpt><trkpt lat="44.45285877003234" lon="8.977882006129144"><ele>57.0</ele><time>2026-04-04T07:44:28.001Z</time></trkpt><trkpt lat="44.45289716788447" lon="8.977979995891673"><ele>57.5</ele><time>2026-04-04T07:44:30.001Z</time></trkpt><trkpt lat="44.45293773852079" lon="8.978081284183089"><ele>58.0</ele><time>2026-04-04T07:44:32.001Z</time></trkpt><trkpt lat="44.452968658997065" lon="8.978181389145535"><ele>58.5</ele><time>2026-04-04T07:44:34.001Z</time></trkpt><trkpt lat="44.45300519275668" lon="8.978275490513553"><ele>59.0</ele><time>2026-04-04T07:44:36.001Z</time></trkpt><trkpt lat="44.45303368222272" lon="8.978380120122809"><ele>59.5</ele><time>2026-04-04T07:44:38.001Z</time></trkpt><trkpt lat="44.45307066691804" lon="8.978479790323442"><ele>60.0</ele><time>2026-04-04T07:44:40.001Z</time></trkpt><trkpt lat="44.45310171934881" lon="8.978583998906897"><ele>60.0</ele><time>2026-04-04T07:44:42.001Z</time></trkpt><trkpt lat="44.45313057041572" lon="8.97868482147772"><ele>60.0</ele><time>2026-04-04T07:44:44.002Z</time></trkpt><trkpt lat="44.453154007201796" lon="8.978779518659445"><ele>60.0</ele><time>2026-04-04T07:44:46.002Z</time></trkpt><trkpt lat="44.453189906014366" lon="8.978900401893542"><ele>60.0</ele><time>2026-04-04T07:44:50.002Z</time></trkpt><trkpt lat="44.453219395854646" lon="8.979007336652684"><ele>60.0</ele><time>2026-04-04T07:44:53.002Z</time></trkpt><trkpt lat="44.45324804147493" lon="8.979103475843827"><ele>60.0</ele><time>2026-04-04T07:44:55.002Z</time></trkpt><trkpt lat="44.4532819785353" lon="8.979204494365934"><ele>59.285714285714285</ele><time>2026-04-04T07:44:58.002Z</time></trkpt><trkpt lat="44.45331102909138" lon="8.979300434087852"><ele>58.57142857142857</ele><time>2026-04-04T07:45:01.002Z</time></trkpt><trkpt lat="44.45332675511384" lon="8.979393364810926"><ele>57.857142857142854</ele><time>2026-04-04T07:45:04.002Z</time></trkpt><trkpt lat="44.453352530663054" lon="8.97947434895336"><ele>57.14285714285714</ele><time>2026-04-04T07:45:06.002Z</time></trkpt><trkpt lat="44.45338067295052" lon="8.979557865103297"><ele>56.42857142857143</ele><time>2026-04-04T07:45:08.002Z</time></trkpt><trkpt lat="44.45340291037003" lon="8.97965114681518"><ele>55.71428571428571</ele><time>2026-04-04T07:45:10.002Z</time></trkpt><trkpt lat="44.453418638421184" lon="8.979745760723707"><ele>55.0</ele><time>2026-04-04T07:45:12.002Z</time></trkpt><trkpt lat="44.45343880300769" lon="8.979870454594442"><ele>54.99999999999999</ele><time>2026-04-04T07:45:14.002Z</time></trkpt><trkpt lat="44.45345545321497" lon="8.980015247221804"><ele>55.0</ele><time>2026-04-04T07:45:17.002Z</time></trkpt><trkpt lat="44.4534746016686" lon="8.980119808161616"><ele>55.0</ele><time>2026-04-04T07:45:19.002Z</time></trkpt><trkpt lat="44.45349795619385" lon="8.980225768056442"><ele>55.0</ele><time>2026-04-04T07:45:21.003Z</time></trkpt><trkpt lat="44.45352343314655" lon="8.980313937636783"><ele>54.99999999999999</ele><time>2026-04-04T07:45:24.003Z</time></trkpt><trkpt lat="44.45358871776738" lon="8.98037358183858"><ele>55.0</ele><time>2026-04-04T07:45:28.999Z</time></trkpt><trkpt lat="44.45366130069472" lon="8.980358362762589"><ele>54.71428571428571</ele><time>2026-04-04T07:45:31.999Z</time></trkpt><trkpt lat="44.45372909344112" lon="8.980312714557227"><ele>54.42857142857143</ele><time>2026-04-04T07:45:35.999Z</time></trkpt><trkpt lat="44.45379767108115" lon="8.980276234009485"><ele>54.14285714285714</ele><time>2026-04-04T07:45:39.999Z</time></trkpt><trkpt lat="44.45385534893124" lon="8.980223938987699"><ele>53.857142857142854</ele><time>2026-04-04T07:45:44Z</time></trkpt><trkpt lat="44.45392045656904" lon="8.980171811846295"><ele>53.57142857142857</ele><time>2026-04-04T07:45:48Z</time></trkpt><trkpt lat="44.45398632204375" lon="8.98013281757103"><ele>53.285714285714285</ele><time>2026-04-04T07:45:51Z</time></trkpt><trkpt lat="44.45405533755903" lon="8.980111645982976"><ele>53.0</ele><time>2026-04-04T07:45:54Z</time></trkpt><trkpt lat="44.45411665245845" lon="8.980144123287483"><ele>54.16666666666667</ele><time>2026-04-04T07:45:57Z</time></trkpt><trkpt lat="44.45415329829312" lon="8.980240132774586"><ele>55.333333333333336</ele><time>2026-04-04T07:46:02Z</time></trkpt><trkpt lat="44.45418294537385" lon="8.980337868323065"><ele>56.5</ele><time>2026-04-04T07:46:08.001Z</time></trkpt><trkpt lat="44.454207636431924" lon="8.980458555096321"><ele>57.66666666666667</ele><time>2026-04-04T07:46:11.001Z</time></trkpt><trkpt lat="44.45423722652174" lon="8.980548193356645"><ele>58.833333333333336</ele><time>2026-04-04T07:46:13.001Z</time></trkpt><trkpt lat="44.454256721281965" lon="8.980643951043302"><ele>60.0</ele><time>2026-04-04T07:46:15.001Z</time></trkpt><trkpt lat="44.45427859667867" lon="8.980750317163814"><ele>59.5</ele><time>2026-04-04T07:46:17.001Z</time></trkpt><trkpt lat="44.4542880329809" lon="8.980860882664581"><ele>59.0</ele><time>2026-04-04T07:46:19.001Z</time></trkpt><trkpt lat="44.454307420065646" lon="8.980954564514539"><ele>58.5</ele><time>2026-04-04T07:46:21.001Z</time></trkpt><trkpt lat="44.454317686060335" lon="8.981051541292334"><ele>58.0</ele><time>2026-04-04T07:46:23.001Z</time></trkpt><trkpt lat="44.454328775739945" lon="8.981157326126347"><ele>57.5</ele><time>2026-04-04T07:46:25.001Z</time></trkpt><trkpt lat="44.45434038727991" lon="8.981267630303352"><ele>57.0</ele><time>2026-04-04T07:46:27.001Z</time></trkpt><trkpt lat="44.454362896884255" lon="8.981369649487146"><ele>57.0</ele><time>2026-04-04T07:46:29.001Z</time></trkpt><trkpt lat="44.45437473452273" lon="8.981481961870026"><ele>57.0</ele><time>2026-04-04T07:46:31.001Z</time></trkpt><trkpt lat="44.45438719841028" lon="8.981596164329797"><ele>57.0</ele><time>2026-04-04T07:46:33.001Z</time></trkpt><trkpt lat="44.45440014244018" lon="8.981713981230083"><ele>57.0</ele><time>2026-04-04T07:46:35.001Z</time></trkpt><trkpt lat="44.45441124687807" lon="8.98182840535024"><ele>57.0</ele><time>2026-04-04T07:46:37.002Z</time></trkpt><trkpt lat="44.45441960955206" lon="8.981944260789923"><ele>57.0</ele><time>2026-04-04T07:46:39.002Z</time></trkpt><trkpt lat="44.45442880991603" lon="8.982059249167724"><ele>57.0</ele><time>2026-04-04T07:46:41.002Z</time></trkpt><trkpt lat="44.45443508970813" lon="8.982175032143418"><ele>57.0</ele><time>2026-04-04T07:46:43.002Z</time></trkpt><trkpt lat="44.45444455505004" lon="8.982296553383028"><ele>57.0</ele><time>2026-04-04T07:46:45.002Z</time></trkpt><trkpt lat="44.454467521963764" lon="8.982419668105086"><ele>57.0</ele><time>2026-04-04T07:46:47.002Z</time></trkpt><trkpt lat="44.45446846365618" lon="8.98254028122118"><ele>57.0</ele><time>2026-04-04T07:46:49.002Z</time></trkpt><trkpt lat="44.45448425276367" lon="8.982661991434613"><ele>57.0</ele><time>2026-04-04T07:46:51.002Z</time></trkpt><trkpt lat="44.454499643638904" lon="8.98278443986104"><ele>57.0</ele><time>2026-04-04T07:46:53.002Z</time></trkpt><trkpt lat="44.45451447817014" lon="8.982906221623887"><ele>57.0</ele><time>2026-04-04T07:46:55.002Z</time></trkpt><trkpt lat="44.45452784844102" lon="8.9830251243508"><ele>57.0</ele><time>2026-04-04T07:46:57.002Z</time></trkpt><trkpt lat="44.45455747083335" lon="8.983141827293124"><ele>57.0</ele><time>2026-04-04T07:46:59.002Z</time></trkpt><trkpt lat="44.45455640289422" lon="8.98326230015732"><ele>57.0</ele><time>2026-04-04T07:47:01.002Z</time></trkpt><trkpt lat="44.45458021121879" lon="8.983374593884045"><ele>57.0</ele><time>2026-04-04T07:47:03.002Z</time></trkpt><trkpt lat="44.45459735044785" lon="8.983478519751614"><ele>56.833333333333336</ele><time>2026-04-04T07:47:05.002Z</time></trkpt><trkpt lat="44.45459852100375" lon="8.983589840011366"><ele>56.66666666666667</ele><time>2026-04-04T07:47:07.002Z</time></trkpt><trkpt lat="44.45461177757947" lon="8.98370209037256"><ele>56.5</ele><time>2026-04-04T07:47:09.002Z</time></trkpt><trkpt lat="44.45461130822491" lon="8.983808208200346"><ele>56.333333333333336</ele><time>2026-04-04T07:47:11.003Z</time></trkpt><trkpt lat="44.454617480310816" lon="8.983916860778828"><ele>56.16666666666667</ele><time>2026-04-04T07:47:13.003Z</time></trkpt><trkpt lat="44.4546263393632" lon="8.984024667039872"><ele>56.0</ele><time>2026-04-04T07:47:15.003Z</time></trkpt><trkpt lat="44.454635491975424" lon="8.98412922144775"><ele>57.16666666666667</ele><time>2026-04-04T07:47:17.003Z</time></trkpt><trkpt lat="44.45464342927049" lon="8.984235818930907"><ele>58.333333333333336</ele><time>2026-04-04T07:47:19.003Z</time></trkpt><trkpt lat="44.4546564899512" lon="8.984341465489496"><ele>59.5</ele><time>2026-04-04T07:47:21.003Z</time></trkpt><trkpt lat="44.454670166416896" lon="8.984451134155943"><ele>60.66666666666667</ele><time>2026-04-04T07:47:23.003Z</time></trkpt><trkpt lat="44.454687281857474" lon="8.984576855184953"><ele>61.833333333333336</ele><time>2026-04-04T07:47:25.003Z</time></trkpt><trkpt lat="44.454697112105194" lon="8.984684663041055"><ele>63.0</ele><time>2026-04-04T07:47:27.003Z</time></trkpt><trkpt lat="44.45470658530068" lon="8.984789377189006"><ele>63.0</ele><time>2026-04-04T07:47:29.003Z</time></trkpt><trkpt lat="44.454711787179335" lon="8.984900794461414"><ele>63.0</ele><time>2026-04-04T07:47:31.003Z</time></trkpt><trkpt lat="44.454711782644154" lon="8.985013852794905"><ele>63.0</ele><time>2026-04-04T07:47:32.999Z</time></trkpt><trkpt lat="44.45470324982888" lon="8.985126631578222"><ele>63.0</ele><time>2026-04-04T07:47:34.999Z</time></trkpt><trkpt lat="44.45468056946742" lon="8.985231419564414"><ele>63.0</ele><time>2026-04-04T07:47:36.999Z</time></trkpt><trkpt lat="44.45466249638732" lon="8.985337777061615"><ele>63.0</ele><time>2026-04-04T07:47:38.999Z</time></trkpt><trkpt lat="44.45464512758543" lon="8.985448479612986"><ele>63.166666666666664</ele><time>2026-04-04T07:47:40.999Z</time></trkpt><trkpt lat="44.45462624047681" lon="8.985552462641186"><ele>63.33333333333333</ele><time>2026-04-04T07:47:42.999Z</time></trkpt><trkpt lat="44.45460028886256" lon="8.985662423617727"><ele>63.5</ele><time>2026-04-04T07:47:44.999Z</time></trkpt><trkpt lat="44.45457360220358" lon="8.98577211974157"><ele>63.666666666666664</ele><time>2026-04-04T07:47:46.999Z</time></trkpt><trkpt lat="44.454549930195725" lon="8.985882041039279"><ele>63.83333333333333</ele><time>2026-04-04T07:47:48.999Z</time></trkpt><trkpt lat="44.454526486180995" lon="8.985984976883266"><ele>64.0</ele><time>2026-04-04T07:47:50.999Z</time></trkpt><trkpt lat="44.45450284906682" lon="8.986083746319503"><ele>63.666666666666664</ele><time>2026-04-04T07:47:52.999Z</time></trkpt><trkpt lat="44.45447539809586" lon="8.98618246525015"><ele>63.33333333333333</ele><time>2026-04-04T07:47:55Z</time></trkpt><trkpt lat="44.45444903208106" lon="8.986281887465273"><ele>63.0</ele><time>2026-04-04T07:47:57Z</time></trkpt><trkpt lat="44.45442872071473" lon="8.986383343401831"><ele>62.66666666666667</ele><time>2026-04-04T07:47:59Z</time></trkpt><trkpt lat="44.45439973566707" lon="8.986482250243567"><ele>62.333333333333336</ele><time>2026-04-04T07:48:01Z</time></trkpt><trkpt lat="44.4543813489924" lon="8.986584432673352"><ele>62.0</ele><time>2026-04-04T07:48:03Z</time></trkpt><trkpt lat="44.454351000789835" lon="8.986685001763517"><ele>62.00000000000001</ele><time>2026-04-04T07:48:05Z</time></trkpt><trkpt lat="44.45432612315971" lon="8.986783012911486"><ele>62.0</ele><time>2026-04-04T07:48:07Z</time></trkpt><trkpt lat="44.45429976008328" lon="8.986882363451256"><ele>62.0</ele><time>2026-04-04T07:48:09Z</time></trkpt><trkpt lat="44.45427266008698" lon="8.9869830248305"><ele>62.0</ele><time>2026-04-04T07:48:11Z</time></trkpt><trkpt lat="44.45424345777466" lon="8.98708768152894"><ele>62.00000000000001</ele><time>2026-04-04T07:48:13Z</time></trkpt><trkpt lat="44.454217195604265" lon="8.987192755763395"><ele>62.0</ele><time>2026-04-04T07:48:15Z</time></trkpt><trkpt lat="44.45419532462813" lon="8.987299191887097"><ele>62.00000000000001</ele><time>2026-04-04T07:48:17Z</time></trkpt><trkpt lat="44.45416116009159" lon="8.987406380917108"><ele>62.0</ele><time>2026-04-04T07:48:19.001Z</time></trkpt><trkpt lat="44.454136058445144" lon="8.987512699189908"><ele>62.0</ele><time>2026-04-04T07:48:21.001Z</time></trkpt><trkpt lat="44.45410895724146" lon="8.98760811286933"><ele>62.0</ele><time>2026-04-04T07:48:23.001Z</time></trkpt><trkpt lat="44.45408369313173" lon="8.987705092170877"><ele>62.00000000000001</ele><time>2026-04-04T07:48:25.001Z</time></trkpt><trkpt lat="44.45406041362164" lon="8.987801576107213"><ele>62.0</ele><time>2026-04-04T07:48:27.001Z</time></trkpt><trkpt lat="44.45402806131799" lon="8.987893629588966"><ele>63.833333333333336</ele><time>2026-04-04T07:48:29.001Z</time></trkpt><trkpt lat="44.45400419744231" lon="8.98800068680891"><ele>65.66666666666667</ele><time>2026-04-04T07:48:31.001Z</time></trkpt><trkpt lat="44.45397120418218" lon="8.98810471579351"><ele>67.5</ele><time>2026-04-04T07:48:33.001Z</time></trkpt><trkpt lat="44.45394637000827" lon="8.98821031307842"><ele>69.33333333333333</ele><time>2026-04-04T07:48:35.001Z</time></trkpt><trkpt lat="44.453914356283136" lon="8.98831533230982"><ele>71.16666666666666</ele><time>2026-04-04T07:48:37.001Z</time></trkpt><trkpt lat="44.45388840530593" lon="8.98842288343518"><ele>73.0</ele><time>2026-04-04T07:48:39.001Z</time></trkpt><trkpt lat="44.45386110887994" lon="8.988529764017049"><ele>73.66666666666666</ele><time>2026-04-04T07:48:41.001Z</time></trkpt><trkpt lat="44.453828893019924" lon="8.98863644496005"><ele>74.33333333333333</ele><time>2026-04-04T07:48:43.001Z</time></trkpt><trkpt lat="44.45380366471154" lon="8.98874275185972"><ele>75.0</ele><time>2026-04-04T07:48:45.001Z</time></trkpt><trkpt lat="44.45377393642522" lon="8.988844181348764"><ele>75.66666666666667</ele><time>2026-04-04T07:48:47.001Z</time></trkpt><trkpt lat="44.45374197001611" lon="8.988949939917555"><ele>76.33333333333334</ele><time>2026-04-04T07:48:49.001Z</time></trkpt><trkpt lat="44.45371477654306" lon="8.989054122980868"><ele>77.0</ele><time>2026-04-04T07:48:51.002Z</time></trkpt><trkpt lat="44.4536847614441" lon="8.9891624038085"><ele>73.83333333333334</ele><time>2026-04-04T07:48:53.002Z</time></trkpt><trkpt lat="44.45365692071619" lon="8.98927304820369"><ele>70.66666666666667</ele><time>2026-04-04T07:48:55.002Z</time></trkpt><trkpt lat="44.4536267961311" lon="8.989381413421759"><ele>67.5</ele><time>2026-04-04T07:48:57.002Z</time></trkpt><trkpt lat="44.453599599960654" lon="8.989485911714139"><ele>64.33333333333333</ele><time>2026-04-04T07:48:59.002Z</time></trkpt><trkpt lat="44.453569533017976" lon="8.989588498192083"><ele>61.166666666666664</ele><time>2026-04-04T07:49:01.002Z</time></trkpt><trkpt lat="44.45354424665543" lon="8.989687871951421"><ele>58.0</ele><time>2026-04-04T07:49:03.002Z</time></trkpt><trkpt lat="44.45351340116656" lon="8.989788449088529"><ele>57.99999999999999</ele><time>2026-04-04T07:49:05.002Z</time></trkpt><trkpt lat="44.45348701507867" lon="8.989885883430201"><ele>58.0</ele><time>2026-04-04T07:49:07.002Z</time></trkpt><trkpt lat="44.45345988929545" lon="8.98999001002371"><ele>58.0</ele><time>2026-04-04T07:49:09.002Z</time></trkpt><trkpt lat="44.453433615901616" lon="8.990090983480943"><ele>58.0</ele><time>2026-04-04T07:49:11.002Z</time></trkpt><trkpt lat="44.45340018033512" lon="8.990181117794478"><ele>57.99999999999999</ele><time>2026-04-04T07:49:13.002Z</time></trkpt><trkpt lat="44.453371032739106" lon="8.990278014355876"><ele>58.0</ele><time>2026-04-04T07:49:15.002Z</time></trkpt><trkpt lat="44.4533322618581" lon="8.990376622417525"><ele>58.99999999999999</ele><time>2026-04-04T07:49:17.002Z</time></trkpt><trkpt lat="44.45329195294875" lon="8.99048410625785"><ele>60.0</ele><time>2026-04-04T07:49:19.002Z</time></trkpt><trkpt lat="44.453252458829375" lon="8.990583870342455"><ele>61.0</ele><time>2026-04-04T07:49:21.002Z</time></trkpt><trkpt lat="44.45320941466107" lon="8.990682615746342"><ele>62.0</ele><time>2026-04-04T07:49:23.003Z</time></trkpt><trkpt lat="44.453166356217274" lon="8.990776963083666"><ele>62.99999999999999</ele><time>2026-04-04T07:49:25.003Z</time></trkpt><trkpt lat="44.45312316234538" lon="8.990868665328179"><ele>64.0</ele><time>2026-04-04T07:49:27.003Z</time></trkpt><trkpt lat="44.453075744355466" lon="8.990960139262699"><ele>63.99999999999999</ele><time>2026-04-04T07:49:29.003Z</time></trkpt><trkpt lat="44.45303085339971" lon="8.991050566835009"><ele>64.0</ele><time>2026-04-04T07:49:31.003Z</time></trkpt><trkpt lat="44.45298224170369" lon="8.991137558342688"><ele>64.0</ele><time>2026-04-04T07:49:33.003Z</time></trkpt><trkpt lat="44.452935480995045" lon="8.991217875504942"><ele>64.0</ele><time>2026-04-04T07:49:35.003Z</time></trkpt><trkpt lat="44.45288381976469" lon="8.991300299135844"><ele>63.99999999999999</ele><time>2026-04-04T07:49:37.003Z</time></trkpt><trkpt lat="44.452827078147" lon="8.991379892803375"><ele>64.0</ele><time>2026-04-04T07:49:38.999Z</time></trkpt><trkpt lat="44.45277373497709" lon="8.99146502021777"><ele>63.99999999999999</ele><time>2026-04-04T07:49:40.999Z</time></trkpt><trkpt lat="44.45271369758794" lon="8.991541732935989"><ele>64.0</ele><time>2026-04-04T07:49:42.999Z</time></trkpt><trkpt lat="44.4526523542963" lon="8.991619202179212"><ele>64.0</ele><time>2026-04-04T07:49:44.999Z</time></trkpt><trkpt lat="44.45258884815041" lon="8.99169670407649"><ele>64.0</ele><time>2026-04-04T07:49:46.999Z</time></trkpt><trkpt lat="44.452531037110916" lon="8.99178018151824"><ele>63.99999999999999</ele><time>2026-04-04T07:49:48.999Z</time></trkpt><trkpt lat="44.45246851330401" lon="8.991851116642133"><ele>64.0</ele><time>2026-04-04T07:49:50.999Z</time></trkpt><trkpt lat="44.45240998436442" lon="8.991926770954642"><ele>64.5</ele><time>2026-04-04T07:49:53Z</time></trkpt><trkpt lat="44.45235388913928" lon="8.992001205652118"><ele>65.0</ele><time>2026-04-04T07:49:55Z</time></trkpt><trkpt lat="44.4522962310372" lon="8.992075294405073"><ele>65.5</ele><time>2026-04-04T07:49:57Z</time></trkpt><trkpt lat="44.452241452706986" lon="8.992152854015632"><ele>66.0</ele><time>2026-04-04T07:49:59Z</time></trkpt><trkpt lat="44.45217877782708" lon="8.992213603817204"><ele>66.5</ele><time>2026-04-04T07:50:01Z</time></trkpt><trkpt lat="44.45211996543802" lon="8.992278073930194"><ele>67.0</ele><time>2026-04-04T07:50:03Z</time></trkpt><trkpt lat="44.45205476743832" lon="8.992344495983431"><ele>67.0</ele><time>2026-04-04T07:50:05Z</time></trkpt><trkpt lat="44.45198632959419" lon="8.992407260316567"><ele>67.0</ele><time>2026-04-04T07:50:07Z</time></trkpt><trkpt lat="44.45190489816007" lon="8.992430267168496"><ele>67.0</ele><time>2026-04-04T07:50:09Z</time></trkpt><trkpt lat="44.451822855350564" lon="8.992453510841372"><ele>67.0</ele><time>2026-04-04T07:50:11Z</time></trkpt><trkpt lat="44.451742588404734" lon="8.992477583872313"><ele>67.0</ele><time>2026-04-04T07:50:13.001Z</time></trkpt><trkpt lat="44.45165712583563" lon="8.992490501989632"><ele>67.0</ele><time>2026-04-04T07:50:15.001Z</time></trkpt><trkpt lat="44.4515748365519" lon="8.99249527469468"><ele>67.0</ele><time>2026-04-04T07:50:17.001Z</time></trkpt><trkpt lat="44.45148739936202" lon="8.992486053983864"><ele>67.0</ele><time>2026-04-04T07:50:19.001Z</time></trkpt><trkpt lat="44.451403209025706" lon="8.992462450853656"><ele>67.0</ele><time>2026-04-04T07:50:21.001Z</time></trkpt><trkpt lat="44.45131781932496" lon="8.992426971547127"><ele>67.0</ele><time>2026-04-04T07:50:23.001Z</time></trkpt><trkpt lat="44.45123741905649" lon="8.992387162354039"><ele>67.0</ele><time>2026-04-04T07:50:25.001Z</time></trkpt><trkpt lat="44.45115749437211" lon="8.992364424365746"><ele>67.0</ele><time>2026-04-04T07:50:27.001Z</time></trkpt><trkpt lat="44.45108073700875" lon="8.992341553641479"><ele>66.83333333333333</ele><time>2026-04-04T07:50:29.001Z</time></trkpt><trkpt lat="44.451004024356045" lon="8.992313992895882"><ele>66.66666666666666</ele><time>2026-04-04T07:50:31.001Z</time></trkpt><trkpt lat="44.450924441006876" lon="8.992298133242773"><ele>66.5</ele><time>2026-04-04T07:50:33.001Z</time></trkpt><trkpt lat="44.450845072761176" lon="8.992292546358764"><ele>66.33333333333333</ele><time>2026-04-04T07:50:35.001Z</time></trkpt><trkpt lat="44.45076259634874" lon="8.992300316314832"><ele>66.16666666666667</ele><time>2026-04-04T07:50:37.001Z</time></trkpt><trkpt lat="44.45068226444288" lon="8.992319732672613"><ele>66.0</ele><time>2026-04-04T07:50:39.001Z</time></trkpt><trkpt lat="44.45060513091856" lon="8.992350612183929"><ele>66.0</ele><time>2026-04-04T07:50:41.001Z</time></trkpt><trkpt lat="44.450533878743414" lon="8.99238555680898"><ele>66.0</ele><time>2026-04-04T07:50:43.002Z</time></trkpt><trkpt lat="44.45046452844301" lon="8.992436364460733"><ele>66.0</ele><time>2026-04-04T07:50:45.002Z</time></trkpt><trkpt lat="44.45041600910499" lon="8.99249902601178"><ele>66.0</ele><time>2026-04-04T07:50:47.002Z</time></trkpt><trkpt lat="44.45034319834153" lon="8.992578977545273"><ele>66.0</ele><time>2026-04-04T07:50:49.002Z</time></trkpt><trkpt lat="44.45028927844661" lon="8.992672050042833"><ele>66.0</ele><time>2026-04-04T07:50:51.002Z</time></trkpt><trkpt lat="44.4502377860909" lon="8.992769189950478"><ele>66.5</ele><time>2026-04-04T07:50:53.002Z</time></trkpt><trkpt lat="44.4501825685615" lon="8.992861681635324"><ele>67.0</ele><time>2026-04-04T07:50:55.002Z</time></trkpt><trkpt lat="44.45013509753715" lon="8.992957696661763"><ele>67.5</ele><time>2026-04-04T07:50:57.002Z</time></trkpt><trkpt lat="44.45008323852955" lon="8.993051954741127"><ele>68.0</ele><time>2026-04-04T07:50:59.002Z</time></trkpt><trkpt lat="44.450033291084026" lon="8.993148523236908"><ele>68.5</ele><time>2026-04-04T07:51:01.002Z</time></trkpt><trkpt lat="44.4499796186637" lon="8.99324228011817"><ele>69.0</ele><time>2026-04-04T07:51:03.002Z</time></trkpt><trkpt lat="44.44993486086255" lon="8.993341176113123"><ele>70.5</ele><time>2026-04-04T07:51:05.002Z</time></trkpt><trkpt lat="44.44988948075491" lon="8.993442097940457"><ele>72.0</ele><time>2026-04-04T07:51:07.002Z</time></trkpt><trkpt lat="44.449841167378885" lon="8.993538701715675"><ele>73.5</ele><time>2026-04-04T07:51:09.002Z</time></trkpt><trkpt lat="44.449795343430296" lon="8.993639372838121"><ele>75.0</ele><time>2026-04-04T07:51:11.002Z</time></trkpt><trkpt lat="44.44974761288462" lon="8.993739740702926"><ele>76.5</ele><time>2026-04-04T07:51:13.002Z</time></trkpt><trkpt lat="44.44970456048577" lon="8.993844411034734"><ele>78.0</ele><time>2026-04-04T07:51:15.003Z</time></trkpt><trkpt lat="44.449658646700996" lon="8.993946527617759"><ele>76.66666666666667</ele><time>2026-04-04T07:51:17.003Z</time></trkpt><trkpt lat="44.449615593882704" lon="8.994051852446091"><ele>75.33333333333333</ele><time>2026-04-04T07:51:19.003Z</time></trkpt><trkpt lat="44.44957919049545" lon="8.994164459300526"><ele>74.0</ele><time>2026-04-04T07:51:21.003Z</time></trkpt><trkpt lat="44.44955123819954" lon="8.994275904402594"><ele>72.66666666666666</ele><time>2026-04-04T07:51:23.003Z</time></trkpt><trkpt lat="44.4495147302672" lon="8.99438482152106"><ele>71.33333333333333</ele><time>2026-04-04T07:51:25.003Z</time></trkpt><trkpt lat="44.44949051264275" lon="8.994495912375747"><ele>70.0</ele><time>2026-04-04T07:51:27.003Z</time></trkpt><trkpt lat="44.449460465118186" lon="8.99460657876903"><ele>70.0</ele><time>2026-04-04T07:51:29.003Z</time></trkpt><trkpt lat="44.44943616495573" lon="8.99472045171587"><ele>70.0</ele><time>2026-04-04T07:51:31.003Z</time></trkpt><trkpt lat="44.44940993468982" lon="8.994832817983792"><ele>70.0</ele><time>2026-04-04T07:51:33.003Z</time></trkpt><trkpt lat="44.44938329780257" lon="8.994942681808004"><ele>70.0</ele><time>2026-04-04T07:51:35.003Z</time></trkpt><trkpt lat="44.44934873127222" lon="8.995053815717037"><ele>70.0</ele><time>2026-04-04T07:51:37.003Z</time></trkpt><trkpt lat="44.44931861189923" lon="8.995168393709937"><ele>70.0</ele><time>2026-04-04T07:51:39.003Z</time></trkpt><trkpt lat="44.449287268718486" lon="8.995275667797836"><ele>70.5</ele><time>2026-04-04T07:51:41.003Z</time></trkpt><trkpt lat="44.449256864036386" lon="8.995385702874051"><ele>71.0</ele><time>2026-04-04T07:51:43.003Z</time></trkpt><trkpt lat="44.44922712471017" lon="8.99549440122857"><ele>71.5</ele><time>2026-04-04T07:51:44.999Z</time></trkpt><trkpt lat="44.4492004961536" lon="8.995596362864923"><ele>72.0</ele><time>2026-04-04T07:51:46.999Z</time></trkpt><trkpt lat="44.44917573208412" lon="8.995700572066134"><ele>72.5</ele><time>2026-04-04T07:51:48.999Z</time></trkpt><trkpt lat="44.449147089830795" lon="8.995806193690235"><ele>73.0</ele><time>2026-04-04T07:51:50.999Z</time></trkpt><trkpt lat="44.44912140119363" lon="8.9959132687251"><ele>73.5</ele><time>2026-04-04T07:51:52.999Z</time></trkpt><trkpt lat="44.44909491059079" lon="8.996019152990796"><ele>74.0</ele><time>2026-04-04T07:51:54.999Z</time></trkpt><trkpt lat="44.449065621275565" lon="8.99612565679549"><ele>74.5</ele><time>2026-04-04T07:51:57Z</time></trkpt><trkpt lat="44.449037756608746" lon="8.996236284930701"><ele>75.0</ele><time>2026-04-04T07:51:59Z</time></trkpt><trkpt lat="44.44900953438968" lon="8.996346190356585"><ele>75.5</ele><time>2026-04-04T07:52:01Z</time></trkpt><trkpt lat="44.44898210363616" lon="8.996456754144319"><ele>76.0</ele><time>2026-04-04T07:52:03Z</time></trkpt><trkpt lat="44.44895642884679" lon="8.99656413051473"><ele>76.0</ele><time>2026-04-04T07:52:05Z</time></trkpt><trkpt lat="44.44893088014024" lon="8.996669400534772"><ele>76.0</ele><time>2026-04-04T07:52:07Z</time></trkpt><trkpt lat="44.44889890852474" lon="8.99676972447097"><ele>76.0</ele><time>2026-04-04T07:52:09Z</time></trkpt><trkpt lat="44.44886539391892" lon="8.996866009560986"><ele>76.0</ele><time>2026-04-04T07:52:11Z</time></trkpt><trkpt lat="44.44883941614703" lon="8.996974038078543"><ele>76.0</ele><time>2026-04-04T07:52:13Z</time></trkpt><trkpt lat="44.448811076474655" lon="8.997073065944107"><ele>76.0</ele><time>2026-04-04T07:52:15Z</time></trkpt><trkpt lat="44.448781416888295" lon="8.997170812099622"><ele>74.83333333333333</ele><time>2026-04-04T07:52:17Z</time></trkpt><trkpt lat="44.44875638470251" lon="8.997275943620352"><ele>73.66666666666666</ele><time>2026-04-04T07:52:19Z</time></trkpt><trkpt lat="44.44872782908352" lon="8.997388019813279"><ele>72.5</ele><time>2026-04-04T07:52:21.001Z</time></trkpt><trkpt lat="44.448698991720676" lon="8.997497885829002"><ele>71.33333333333333</ele><time>2026-04-04T07:52:23.001Z</time></trkpt><trkpt lat="44.448668725226305" lon="8.997608957935421"><ele>70.16666666666667</ele><time>2026-04-04T07:52:25.001Z</time></trkpt><trkpt lat="44.44864065146169" lon="8.997718925758102"><ele>69.0</ele><time>2026-04-04T07:52:27.001Z</time></trkpt><trkpt lat="44.44861413544026" lon="8.997828842223958"><ele>68.83333333333333</ele><time>2026-04-04T07:52:29.001Z</time></trkpt><trkpt lat="44.448585550822436" lon="8.99793699510878"><ele>68.66666666666667</ele><time>2026-04-04T07:52:31.001Z</time></trkpt><trkpt lat="44.44855987830631" lon="8.99804452215259"><ele>68.5</ele><time>2026-04-04T07:52:33.001Z</time></trkpt><trkpt lat="44.44853258228422" lon="8.998150797728652"><ele>68.33333333333334</ele><time>2026-04-04T07:52:35.001Z</time></trkpt><trkpt lat="44.44850251615371" lon="8.998260570411897"><ele>68.16666666666667</ele><time>2026-04-04T07:52:37.001Z</time></trkpt><trkpt lat="44.448472315465466" lon="8.99836993071505"><ele>68.0</ele><time>2026-04-04T07:52:39.001Z</time></trkpt><trkpt lat="44.44844481553531" lon="8.998481507371588"><ele>68.5</ele><time>2026-04-04T07:52:41.001Z</time></trkpt><trkpt lat="44.44841816169639" lon="8.998588254076015"><ele>69.0</ele><time>2026-04-04T07:52:43.001Z</time></trkpt><trkpt lat="44.44838898215797" lon="8.998692890271917"><ele>69.5</ele><time>2026-04-04T07:52:45.001Z</time></trkpt><trkpt lat="44.44836347649835" lon="8.998796326246579"><ele>70.0</ele><time>2026-04-04T07:52:47.001Z</time></trkpt><trkpt lat="44.44833939447132" lon="8.998900453954084"><ele>70.5</ele><time>2026-04-04T07:52:49.001Z</time></trkpt><trkpt lat="44.448309661658115" lon="8.998999372086205"><ele>71.0</ele><time>2026-04-04T07:52:51.002Z</time></trkpt><trkpt lat="44.448283920917454" lon="8.999102181783972"><ele>71.66666666666667</ele><time>2026-04-04T07:52:53.002Z</time></trkpt><trkpt lat="44.448261254757114" lon="8.999205673837915"><ele>72.33333333333334</ele><time>2026-04-04T07:52:55.002Z</time></trkpt><trkpt lat="44.448234476448704" lon="8.999309607139068"><ele>73.0</ele><time>2026-04-04T07:52:57.002Z</time></trkpt><trkpt lat="44.44820584881516" lon="8.999413211815899"><ele>73.66666666666667</ele><time>2026-04-04T07:52:59.002Z</time></trkpt><trkpt lat="44.448177427335544" lon="8.999517509538652"><ele>74.33333333333333</ele><time>2026-04-04T07:53:01.002Z</time></trkpt><trkpt lat="44.44814802573849" lon="8.99961812395929"><ele>75.0</ele><time>2026-04-04T07:53:03.002Z</time></trkpt><trkpt lat="44.44812063552639" lon="8.99972710384306"><ele>75.0</ele><time>2026-04-04T07:53:05.002Z</time></trkpt><trkpt lat="44.44809066538643" lon="8.999834395216768"><ele>75.0</ele><time>2026-04-04T07:53:07.002Z</time></trkpt><trkpt lat="44.44806290102637" lon="8.999939837916061"><ele>75.0</ele><time>2026-04-04T07:53:09.002Z</time></trkpt><trkpt lat="44.44803218293591" lon="9.000046900785733"><ele>75.0</ele><time>2026-04-04T07:53:11.002Z</time></trkpt><trkpt lat="44.44800194255189" lon="9.000154252108029"><ele>75.0</ele><time>2026-04-04T07:53:13.002Z</time></trkpt><trkpt lat="44.44797160168009" lon="9.000263846051181"><ele>75.0</ele><time>2026-04-04T07:53:15.002Z</time></trkpt><trkpt lat="44.4479417093966" lon="9.000368297502549"><ele>74.83333333333333</ele><time>2026-04-04T07:53:17.002Z</time></trkpt><trkpt lat="44.44792301868984" lon="9.000474900442601"><ele>74.66666666666667</ele><time>2026-04-04T07:53:19.002Z</time></trkpt><trkpt lat="44.447898041956094" lon="9.000576709222507"><ele>74.5</ele><time>2026-04-04T07:53:21.002Z</time></trkpt><trkpt lat="44.44788158554311" lon="9.000677752716346"><ele>74.33333333333334</ele><time>2026-04-04T07:53:23.002Z</time></trkpt><trkpt lat="44.44786675601207" lon="9.000780871338774"><ele>74.16666666666667</ele><time>2026-04-04T07:53:25.003Z</time></trkpt><trkpt lat="44.44783929125484" lon="9.000883678045875"><ele>74.0</ele><time>2026-04-04T07:53:27.003Z</time></trkpt><trkpt lat="44.44781246925159" lon="9.000987094522738"><ele>73.33333333333334</ele><time>2026-04-04T07:53:29.003Z</time></trkpt><trkpt lat="44.44777024758461" lon="9.001082269799634"><ele>72.66666666666667</ele><time>2026-04-04T07:53:31.003Z</time></trkpt><trkpt lat="44.44772993373325" lon="9.001181172613071"><ele>72.0</ele><time>2026-04-04T07:53:33.003Z</time></trkpt><trkpt lat="44.447701820310755" lon="9.001285429255601"><ele>71.33333333333333</ele><time>2026-04-04T07:53:35.003Z</time></trkpt><trkpt lat="44.447679466262635" lon="9.001397472982363"><ele>70.66666666666666</ele><time>2026-04-04T07:53:37.003Z</time></trkpt><trkpt lat="44.44765938976693" lon="9.001515632906274"><ele>70.0</ele><time>2026-04-04T07:53:39.003Z</time></trkpt><trkpt lat="44.447648071559954" lon="9.001627897082086"><ele>70.0</ele><time>2026-04-04T07:53:41.003Z</time></trkpt><trkpt lat="44.44762842269184" lon="9.001741640822992"><ele>70.0</ele><time>2026-04-04T07:53:43.003Z</time></trkpt><trkpt lat="44.44761204564273" lon="9.001849544569964"><ele>70.0</ele><time>2026-04-04T07:53:45.003Z</time></trkpt><trkpt lat="44.44759334049039" lon="9.001957551935812"><ele>70.0</ele><time>2026-04-04T07:53:47.003Z</time></trkpt><trkpt lat="44.447575226121614" lon="9.00206178197025"><ele>70.0</ele><time>2026-04-04T07:53:49.003Z</time></trkpt><trkpt lat="44.44756628570605" lon="9.002170921321207"><ele>70.0</ele><time>2026-04-04T07:53:50.999Z</time></trkpt><trkpt lat="44.44754944966386" lon="9.002280577489744"><ele>70.0</ele><time>2026-04-04T07:53:52.999Z</time></trkpt><trkpt lat="44.44753514540499" lon="9.00239319743491"><ele>70.0</ele><time>2026-04-04T07:53:54.999Z</time></trkpt><trkpt lat="44.44752229262039" lon="9.002501480821438"><ele>70.0</ele><time>2026-04-04T07:53:56.999Z</time></trkpt><trkpt lat="44.44751073469953" lon="9.002614162943988"><ele>70.0</ele><time>2026-04-04T07:53:59Z</time></trkpt><trkpt lat="44.44749925742586" lon="9.002728836087856"><ele>70.0</ele><time>2026-04-04T07:54:01Z</time></trkpt><trkpt lat="44.44749388685255" lon="9.002843227535317"><ele>70.0</ele><time>2026-04-04T07:54:03Z</time></trkpt><trkpt lat="44.44748978083348" lon="9.002959333806164"><ele>70.16666666666666</ele><time>2026-04-04T07:54:05Z</time></trkpt><trkpt lat="44.44749660028716" lon="9.003076521672874"><ele>70.33333333333333</ele><time>2026-04-04T07:54:07Z</time></trkpt><trkpt lat="44.44751230831541" lon="9.003188353925937"><ele>70.5</ele><time>2026-04-04T07:54:09Z</time></trkpt><trkpt lat="44.44751833450457" lon="9.003302571412393"><ele>70.66666666666667</ele><time>2026-04-04T07:54:11Z</time></trkpt><trkpt lat="44.447523014228054" lon="9.003420153033758"><ele>70.83333333333334</ele><time>2026-04-04T07:54:13Z</time></trkpt><trkpt lat="44.44752739421002" lon="9.003534318971449"><ele>71.0</ele><time>2026-04-04T07:54:15Z</time></trkpt><trkpt lat="44.44753662777883" lon="9.003650964567196"><ele>71.33333333333334</ele><time>2026-04-04T07:54:17Z</time></trkpt><trkpt lat="44.44752359860166" lon="9.003766636606784"><ele>71.66666666666667</ele><time>2026-04-04T07:54:19Z</time></trkpt><trkpt lat="44.447523889311235" lon="9.003884144125122"><ele>72.0</ele><time>2026-04-04T07:54:21Z</time></trkpt><trkpt lat="44.4475238177265" lon="9.003996595452731"><ele>72.33333333333333</ele><time>2026-04-04T07:54:23Z</time></trkpt><trkpt lat="44.44754438953861" lon="9.004112278964095"><ele>72.66666666666666</ele><time>2026-04-04T07:54:25.001Z</time></trkpt><trkpt lat="44.447558178876015" lon="9.004225444801667"><ele>73.0</ele><time>2026-04-04T07:54:27.001Z</time></trkpt><trkpt lat="44.44756967169269" lon="9.00433539901577"><ele>73.16666666666666</ele><time>2026-04-04T07:54:29.001Z</time></trkpt><trkpt lat="44.44758546186543" lon="9.004448615638811"><ele>73.33333333333333</ele><time>2026-04-04T07:54:31.001Z</time></trkpt><trkpt lat="44.44760921975195" lon="9.004558073426713"><ele>73.5</ele><time>2026-04-04T07:54:33.001Z</time></trkpt><trkpt lat="44.44763419691718" lon="9.004668774221852"><ele>73.66666666666667</ele><time>2026-04-04T07:54:35.001Z</time></trkpt><trkpt lat="44.44765305385657" lon="9.00477970389379"><ele>73.83333333333334</ele><time>2026-04-04T07:54:37.001Z</time></trkpt><trkpt lat="44.447677952847556" lon="9.004890055285584"><ele>74.0</ele><time>2026-04-04T07:54:39.001Z</time></trkpt><trkpt lat="44.44770244495619" lon="9.004996589658376"><ele>74.16666666666667</ele><time>2026-04-04T07:54:41.001Z</time></trkpt><trkpt lat="44.44772184659773" lon="9.005104587496307"><ele>74.33333333333334</ele><time>2026-04-04T07:54:43.001Z</time></trkpt><trkpt lat="44.4477431116642" lon="9.005214275174644"><ele>74.5</ele><time>2026-04-04T07:54:45.001Z</time></trkpt><trkpt lat="44.44777338778739" lon="9.00532112380111"><ele>74.66666666666667</ele><time>2026-04-04T07:54:47.001Z</time></trkpt><trkpt lat="44.44780283682405" lon="9.005422907525539"><ele>74.83333333333333</ele><time>2026-04-04T07:54:49.001Z</time></trkpt><trkpt lat="44.44781562436322" lon="9.005521534380891"><ele>75.0</ele><time>2026-04-04T07:54:51.001Z</time></trkpt><trkpt lat="44.44784713719628" lon="9.005623055792702"><ele>75.0</ele><time>2026-04-04T07:54:53.001Z</time></trkpt><trkpt lat="44.44786386483582" lon="9.005726744124695"><ele>75.0</ele><time>2026-04-04T07:54:55.002Z</time></trkpt><trkpt lat="44.44789553909482" lon="9.005826321441907"><ele>75.0</ele><time>2026-04-04T07:54:57.002Z</time></trkpt><trkpt lat="44.44791398866932" lon="9.005931000256533"><ele>75.0</ele><time>2026-04-04T07:54:59.002Z</time></trkpt><trkpt lat="44.44793781548733" lon="9.006037947180706"><ele>75.0</ele><time>2026-04-04T07:55:01.002Z</time></trkpt><trkpt lat="44.447960264839985" lon="9.0061362088918"><ele>75.0</ele><time>2026-04-04T07:55:03.002Z</time></trkpt><trkpt lat="44.44798473444362" lon="9.006239343553176"><ele>75.0</ele><time>2026-04-04T07:55:05.002Z</time></trkpt><trkpt lat="44.44801987526305" lon="9.00635043308984"><ele>75.0</ele><time>2026-04-04T07:55:07.002Z</time></trkpt><trkpt lat="44.448034137346234" lon="9.00646170807388"><ele>75.0</ele><time>2026-04-04T07:55:09.002Z</time></trkpt><trkpt lat="44.448004612612216" lon="9.006578136021682"><ele>75.0</ele><time>2026-04-04T07:55:11.002Z</time></trkpt><trkpt lat="44.44793425951702" lon="9.006657607658635"><ele>75.0</ele><time>2026-04-04T07:55:13.002Z</time></trkpt><trkpt lat="44.447873506626166" lon="9.006736741878056"><ele>75.0</ele><time>2026-04-04T07:55:15.002Z</time></trkpt><trkpt lat="44.44786320754919" lon="9.006855775658925"><ele>75.33333333333333</ele><time>2026-04-04T07:55:17.002Z</time></trkpt><trkpt lat="44.44789172330865" lon="9.006978055671027"><ele>75.66666666666667</ele><time>2026-04-04T07:55:19.002Z</time></trkpt><trkpt lat="44.44793101146381" lon="9.007088251908153"><ele>76.0</ele><time>2026-04-04T07:55:21.002Z</time></trkpt><trkpt lat="44.44796738942642" lon="9.007196423617192"><ele>76.33333333333334</ele><time>2026-04-04T07:55:23.002Z</time></trkpt><trkpt lat="44.44800057029214" lon="9.007307045111563"><ele>76.66666666666667</ele><time>2026-04-04T07:55:25.002Z</time></trkpt><trkpt lat="44.44803446292419" lon="9.007408998958976"><ele>77.0</ele><time>2026-04-04T07:55:27.002Z</time></trkpt><trkpt lat="44.44807742853734" lon="9.007505279058599"><ele>77.5</ele><time>2026-04-04T07:55:29.003Z</time></trkpt><trkpt lat="44.448130439911374" lon="9.007594228288006"><ele>78.0</ele><time>2026-04-04T07:55:31.003Z</time></trkpt><trkpt lat="44.44818766085147" lon="9.007681365663505"><ele>78.5</ele><time>2026-04-04T07:55:33.003Z</time></trkpt><trkpt lat="44.44824686925761" lon="9.007765075599638"><ele>79.0</ele><time>2026-04-04T07:55:35.003Z</time></trkpt><trkpt lat="44.44829633260948" lon="9.007863084729836"><ele>79.5</ele><time>2026-04-04T07:55:37.003Z</time></trkpt><trkpt lat="44.44832763497162" lon="9.007971913499498"><ele>80.0</ele><time>2026-04-04T07:55:39.003Z</time></trkpt><trkpt lat="44.44835185303747" lon="9.008082754321073"><ele>80.0</ele><time>2026-04-04T07:55:41.003Z</time></trkpt><trkpt lat="44.44836956970306" lon="9.008197087663746"><ele>80.0</ele><time>2026-04-04T07:55:43.003Z</time></trkpt><trkpt lat="44.448386347232955" lon="9.00831225739744"><ele>80.0</ele><time>2026-04-04T07:55:45.003Z</time></trkpt><trkpt lat="44.448406719262856" lon="9.008420975858122"><ele>80.0</ele><time>2026-04-04T07:55:47.003Z</time></trkpt><trkpt lat="44.44842181163003" lon="9.008537650808613"><ele>80.0</ele><time>2026-04-04T07:55:49.003Z</time></trkpt><trkpt lat="44.44844708139472" lon="9.008655153404609"><ele>80.0</ele><time>2026-04-04T07:55:51.003Z</time></trkpt><trkpt lat="44.448472156347414" lon="9.008768824450728"><ele>79.83333333333334</ele><time>2026-04-04T07:55:53.003Z</time></trkpt><trkpt lat="44.44849595548947" lon="9.008880476481979"><ele>79.66666666666667</ele><time>2026-04-04T07:55:55.003Z</time></trkpt><trkpt lat="44.44851643680797" lon="9.008995249294756"><ele>79.5</ele><time>2026-04-04T07:55:56.999Z</time></trkpt><trkpt lat="44.448541761482716" lon="9.009105982657639"><ele>79.33333333333333</ele><time>2026-04-04T07:55:59Z</time></trkpt><trkpt lat="44.448566114569545" lon="9.0092214592771"><ele>79.16666666666666</ele><time>2026-04-04T07:56:01Z</time></trkpt><trkpt lat="44.44859320425564" lon="9.009337477404284"><ele>79.0</ele><time>2026-04-04T07:56:03Z</time></trkpt><trkpt lat="44.44863356734101" lon="9.009454224788353"><ele>79.0</ele><time>2026-04-04T07:56:05Z</time></trkpt><trkpt lat="44.448646573120534" lon="9.009562819178864"><ele>79.0</ele><time>2026-04-04T07:56:07Z</time></trkpt><trkpt lat="44.44866908574288" lon="9.00967607562838"><ele>79.0</ele><time>2026-04-04T07:56:09Z</time></trkpt><trkpt lat="44.4486930725762" lon="9.009790500758891"><ele>79.0</ele><time>2026-04-04T07:56:11Z</time></trkpt><trkpt lat="44.44871724332628" lon="9.009899031210859"><ele>79.0</ele><time>2026-04-04T07:56:13Z</time></trkpt><trkpt lat="44.4487357326911" lon="9.009998093866292"><ele>79.0</ele><time>2026-04-04T07:56:14Z</time></trkpt><trkpt lat="44.44875143689669" lon="9.010095193985423"><ele>79.0</ele><time>2026-04-04T07:56:16Z</time></trkpt><trkpt lat="44.4487783856117" lon="9.010216264484862"><ele>79.0</ele><time>2026-04-04T07:56:18Z</time></trkpt><trkpt lat="44.44880955170393" lon="9.010337263796274"><ele>79.0</ele><time>2026-04-04T07:56:20Z</time></trkpt><trkpt lat="44.44884279532814" lon="9.010451353212835"><ele>79.0</ele><time>2026-04-04T07:56:22Z</time></trkpt><trkpt lat="44.448872029800256" lon="9.010561560224614"><ele>79.0</ele><time>2026-04-04T07:56:24Z</time></trkpt><trkpt lat="44.44890979417736" lon="9.010672472807947"><ele>79.0</ele><time>2026-04-04T07:56:26Z</time></trkpt><trkpt lat="44.448938820974796" lon="9.010791641144648"><ele>79.66666666666666</ele><time>2026-04-04T07:56:28Z</time></trkpt><trkpt lat="44.44894614522434" lon="9.010910827342364"><ele>80.33333333333333</ele><time>2026-04-04T07:56:30.001Z</time></trkpt><trkpt lat="44.44897205607607" lon="9.011036557670158"><ele>81.0</ele><time>2026-04-04T07:56:32.001Z</time></trkpt><trkpt lat="44.44899214058234" lon="9.011157591457518"><ele>81.66666666666667</ele><time>2026-04-04T07:56:34.001Z</time></trkpt><trkpt lat="44.44901912147316" lon="9.011273769368099"><ele>82.33333333333334</ele><time>2026-04-04T07:56:36.001Z</time></trkpt><trkpt lat="44.449036408900135" lon="9.011382884602872"><ele>83.0</ele><time>2026-04-04T07:56:38.001Z</time></trkpt><trkpt lat="44.44905504431514" lon="9.011476332175448"><ele>83.0</ele><time>2026-04-04T07:56:41.001Z</time></trkpt><trkpt lat="44.44908009167564" lon="9.011590088103276"><ele>83.0</ele><time>2026-04-04T07:56:46.001Z</time></trkpt><trkpt lat="44.449106664276556" lon="9.011716150691935"><ele>83.0</ele><time>2026-04-04T07:56:49.001Z</time></trkpt><trkpt lat="44.44913761434421" lon="9.011811413267388"><ele>83.0</ele><time>2026-04-04T07:56:51.001Z</time></trkpt><trkpt lat="44.44915841665003" lon="9.01191714924659"><ele>83.0</ele><time>2026-04-04T07:56:53.001Z</time></trkpt><trkpt lat="44.44917585001445" lon="9.012034010708069"><ele>83.0</ele><time>2026-04-04T07:56:55.001Z</time></trkpt><trkpt lat="44.44920375191229" lon="9.012142697625238"><ele>83.4</ele><time>2026-04-04T07:56:57.001Z</time></trkpt><trkpt lat="44.44922428450825" lon="9.012263428235611"><ele>83.80000000000001</ele><time>2026-04-04T07:56:59.001Z</time></trkpt><trkpt lat="44.44925093638834" lon="9.012395173166865"><ele>84.2</ele><time>2026-04-04T07:57:01.002Z</time></trkpt><trkpt lat="44.44926982678049" lon="9.012521487658077"><ele>84.6</ele><time>2026-04-04T07:57:03.002Z</time></trkpt><trkpt lat="44.44930206898583" lon="9.01264254574603"><ele>85.0</ele><time>2026-04-04T07:57:05.002Z</time></trkpt><trkpt lat="44.44932487749178" lon="9.012761085765398"><ele>84.5</ele><time>2026-04-04T07:57:07.002Z</time></trkpt><trkpt lat="44.44935226662095" lon="9.012876014704474"><ele>84.0</ele><time>2026-04-04T07:57:09.002Z</time></trkpt><trkpt lat="44.44937191033799" lon="9.012992892724712"><ele>83.5</ele><time>2026-04-04T07:57:11.002Z</time></trkpt><trkpt lat="44.44939642839387" lon="9.013111554828601"><ele>83.0</ele><time>2026-04-04T07:57:13.002Z</time></trkpt><trkpt lat="44.44942030014992" lon="9.013230919752004"><ele>82.5</ele><time>2026-04-04T07:57:15.002Z</time></trkpt><trkpt lat="44.4494353271223" lon="9.013348772611682"><ele>82.0</ele><time>2026-04-04T07:57:17.002Z</time></trkpt><trkpt lat="44.44947380240927" lon="9.013476769786138"><ele>82.0</ele><time>2026-04-04T07:57:19.002Z</time></trkpt><trkpt lat="44.44949642154108" lon="9.01359705103732"><ele>82.0</ele><time>2026-04-04T07:57:21.002Z</time></trkpt><trkpt lat="44.44952590826878" lon="9.013719379024117"><ele>82.0</ele><time>2026-04-04T07:57:23.002Z</time></trkpt><trkpt lat="44.44955479899716" lon="9.013843199147523"><ele>82.0</ele><time>2026-04-04T07:57:25.002Z</time></trkpt><trkpt lat="44.449577433028544" lon="9.013963395908807"><ele>82.0</ele><time>2026-04-04T07:57:27.002Z</time></trkpt><trkpt lat="44.449609699349736" lon="9.014086067060667"><ele>83.33333333333333</ele><time>2026-04-04T07:57:29.002Z</time></trkpt><trkpt lat="44.44963217022048" lon="9.014209646293562"><ele>84.66666666666666</ele><time>2026-04-04T07:57:31.002Z</time></trkpt><trkpt lat="44.44963686585376" lon="9.014338113119361"><ele>86.0</ele><time>2026-04-04T07:57:33.002Z</time></trkpt><trkpt lat="44.44967411880646" lon="9.014457256855849"><ele>87.33333333333333</ele><time>2026-04-04T07:57:35.003Z</time></trkpt><trkpt lat="44.44968936766381" lon="9.01456982937619"><ele>88.66666666666667</ele><time>2026-04-04T07:57:37.003Z</time></trkpt><trkpt lat="44.44971172602279" lon="9.014676712778787"><ele>90.0</ele><time>2026-04-04T07:57:39.003Z</time></trkpt><trkpt lat="44.4497291331288" lon="9.014785663657072"><ele>90.0</ele><time>2026-04-04T07:57:41.003Z</time></trkpt><trkpt lat="44.44974610902772" lon="9.01490758164281"><ele>90.0</ele><time>2026-04-04T07:57:43.003Z</time></trkpt><trkpt lat="44.44975945818362" lon="9.015036330083134"><ele>90.0</ele><time>2026-04-04T07:57:45.003Z</time></trkpt><trkpt lat="44.449769527199344" lon="9.015161617088975"><ele>90.0</ele><time>2026-04-04T07:57:47.003Z</time></trkpt><trkpt lat="44.44978384845213" lon="9.015287877977203"><ele>90.0</ele><time>2026-04-04T07:57:49.003Z</time></trkpt><trkpt lat="44.44978979357859" lon="9.015418560425164"><ele>90.0</ele><time>2026-04-04T07:57:51.003Z</time></trkpt><trkpt lat="44.44979737315616" lon="9.015552099010709"><ele>90.0</ele><time>2026-04-04T07:57:53.003Z</time></trkpt><trkpt lat="44.449803952529706" lon="9.01568834591619"><ele>90.0</ele><time>2026-04-04T07:57:55.003Z</time></trkpt><trkpt lat="44.449808538715864" lon="9.015824588034464"><ele>90.0</ele><time>2026-04-04T07:57:57.003Z</time></trkpt><trkpt lat="44.44981036719214" lon="9.01596026681584"><ele>90.0</ele><time>2026-04-04T07:57:59.003Z</time></trkpt><trkpt lat="44.44981590081666" lon="9.016092477611053"><ele>90.0</ele><time>2026-04-04T07:58:01.003Z</time></trkpt><trkpt lat="44.449815186703596" lon="9.016223888396478"><ele>90.0</ele><time>2026-04-04T07:58:03Z</time></trkpt><trkpt lat="44.449821366534636" lon="9.016359481002482"><ele>90.0</ele><time>2026-04-04T07:58:05Z</time></trkpt><trkpt lat="44.44982517869933" lon="9.016490904811283"><ele>90.0</ele><time>2026-04-04T07:58:07Z</time></trkpt><trkpt lat="44.44981460126735" lon="9.016623038942832"><ele>90.0</ele><time>2026-04-04T07:58:09Z</time></trkpt><trkpt lat="44.44980441105787" lon="9.016748423666437"><ele>90.0</ele><time>2026-04-04T07:58:11Z</time></trkpt><trkpt lat="44.44979848011354" lon="9.016873990828534"><ele>90.0</ele><time>2026-04-04T07:58:13Z</time></trkpt><trkpt lat="44.4497827644119" lon="9.016995395066479"><ele>90.0</ele><time>2026-04-04T07:58:15Z</time></trkpt><trkpt lat="44.4497747933883" lon="9.017114860808253"><ele>90.0</ele><time>2026-04-04T07:58:17Z</time></trkpt><trkpt lat="44.44976121617378" lon="9.017234904981256"><ele>90.0</ele><time>2026-04-04T07:58:19Z</time></trkpt><trkpt lat="44.44974456745882" lon="9.017350354356973"><ele>90.0</ele><time>2026-04-04T07:58:21Z</time></trkpt><trkpt lat="44.44973231820888" lon="9.017469877158959"><ele>90.16666666666667</ele><time>2026-04-04T07:58:23Z</time></trkpt><trkpt lat="44.44972935204159" lon="9.017591890106893"><ele>90.33333333333333</ele><time>2026-04-04T07:58:25Z</time></trkpt><trkpt lat="44.44972463046076" lon="9.017711714589035"><ele>90.5</ele><time>2026-04-04T07:58:27Z</time></trkpt><trkpt lat="44.44971410952849" lon="9.017829046816194"><ele>90.66666666666666</ele><time>2026-04-04T07:58:29Z</time></trkpt><trkpt lat="44.44970685064399" lon="9.01794364190804"><ele>90.83333333333333</ele><time>2026-04-04T07:58:31Z</time></trkpt><trkpt lat="44.44970495458592" lon="9.018062486327823"><ele>91.0</ele><time>2026-04-04T07:58:33Z</time></trkpt><trkpt lat="44.44968252468578" lon="9.018176320954188"><ele>91.0</ele><time>2026-04-04T07:58:35.001Z</time></trkpt><trkpt lat="44.4496817378778" lon="9.01828949767574"><ele>91.0</ele><time>2026-04-04T07:58:37.001Z</time></trkpt><trkpt lat="44.44967204965681" lon="9.018402474429234"><ele>91.0</ele><time>2026-04-04T07:58:39.001Z</time></trkpt><trkpt lat="44.44965419953918" lon="9.018512006949088"><ele>91.0</ele><time>2026-04-04T07:58:41.001Z</time></trkpt><trkpt lat="44.44964495272996" lon="9.018628082739793"><ele>91.0</ele><time>2026-04-04T07:58:43.001Z</time></trkpt><trkpt lat="44.449659003596075" lon="9.018749918265065"><ele>91.0</ele><time>2026-04-04T07:58:45.001Z</time></trkpt><trkpt lat="44.44964794661005" lon="9.018861935311886"><ele>91.16666666666666</ele><time>2026-04-04T07:58:47.001Z</time></trkpt><trkpt lat="44.449635736801646" lon="9.018965649292177"><ele>91.33333333333333</ele><time>2026-04-04T07:58:49.001Z</time></trkpt><trkpt lat="44.44960454962169" lon="9.019063592119144"><ele>91.5</ele><time>2026-04-04T07:58:51.001Z</time></trkpt><trkpt lat="44.449605316245936" lon="9.019170873390902"><ele>91.66666666666667</ele><time>2026-04-04T07:58:53.001Z</time></trkpt><trkpt lat="44.449584690375495" lon="9.019276188773096"><ele>91.83333333333334</ele><time>2026-04-04T07:58:55.001Z</time></trkpt><trkpt lat="44.44957299270696" lon="9.019381177528505"><ele>92.0</ele><time>2026-04-04T07:58:57.001Z</time></trkpt><trkpt lat="44.44956820969019" lon="9.019488998335614"><ele>91.71428571428572</ele><time>2026-04-04T07:58:59.001Z</time></trkpt><trkpt lat="44.4495568518677" lon="9.019590119334657"><ele>91.42857142857142</ele><time>2026-04-04T07:59:01.001Z</time></trkpt><trkpt lat="44.449541831478825" lon="9.019687480695458"><ele>91.14285714285714</ele><time>2026-04-04T07:59:03.001Z</time></trkpt><trkpt lat="44.44953671554013" lon="9.019788132706314"><ele>90.85714285714286</ele><time>2026-04-04T07:59:05.002Z</time></trkpt><trkpt lat="44.44953449270617" lon="9.019887336086926"><ele>90.57142857142858</ele><time>2026-04-04T07:59:07.002Z</time></trkpt><trkpt lat="44.44952621695063" lon="9.019987563359631"><ele>90.28571428571428</ele><time>2026-04-04T07:59:09.002Z</time></trkpt><trkpt lat="44.44951155349256" lon="9.020091566181348"><ele>90.0</ele><time>2026-04-04T07:59:11.002Z</time></trkpt><trkpt lat="44.44948966724907" lon="9.020197665508078"><ele>90.0</ele><time>2026-04-04T07:59:13.002Z</time></trkpt><trkpt lat="44.449490441884656" lon="9.020315227660776"><ele>90.0</ele><time>2026-04-04T07:59:15.002Z</time></trkpt><trkpt lat="44.44948012247859" lon="9.020412067503571"><ele>90.0</ele><time>2026-04-04T07:59:17.002Z</time></trkpt><trkpt lat="44.44947016173167" lon="9.020519406115518"><ele>90.0</ele><time>2026-04-04T07:59:19.002Z</time></trkpt><trkpt lat="44.44945654782936" lon="9.020627700847896"><ele>90.0</ele><time>2026-04-04T07:59:21.002Z</time></trkpt><trkpt lat="44.44944469377054" lon="9.02072974404718"><ele>90.0</ele><time>2026-04-04T07:59:23.002Z</time></trkpt><trkpt lat="44.44943862150086" lon="9.020832069008291"><ele>89.85714285714285</ele><time>2026-04-04T07:59:25.002Z</time></trkpt><trkpt lat="44.44943295048775" lon="9.020928698129659"><ele>89.71428571428572</ele><time>2026-04-04T07:59:27.002Z</time></trkpt><trkpt lat="44.449426853241" lon="9.021029209557502"><ele>89.57142857142857</ele><time>2026-04-04T07:59:29.002Z</time></trkpt><trkpt lat="44.4494153614728" lon="9.021125438456057"><ele>89.42857142857142</ele><time>2026-04-04T07:59:31.002Z</time></trkpt><trkpt lat="44.449402276631126" lon="9.021218340405229"><ele>89.28571428571428</ele><time>2026-04-04T07:59:33.002Z</time></trkpt><trkpt lat="44.449399993540126" lon="9.021309790552788"><ele>89.14285714285714</ele><time>2026-04-04T07:59:35.002Z</time></trkpt><trkpt lat="44.449385308316344" lon="9.021417546602992"><ele>89.0</ele><time>2026-04-04T07:59:37.002Z</time></trkpt><trkpt lat="44.44938151945783" lon="9.021516501464085"><ele>88.99999999999999</ele><time>2026-04-04T07:59:39.003Z</time></trkpt><trkpt lat="44.449363634127984" lon="9.021601907677878"><ele>89.0</ele><time>2026-04-04T07:59:41.003Z</time></trkpt><trkpt lat="44.44935806121953" lon="9.021709710039895"><ele>89.0</ele><time>2026-04-04T07:59:43.003Z</time></trkpt><trkpt lat="44.449353110199596" lon="9.021805170539979"><ele>89.0</ele><time>2026-04-04T07:59:45.003Z</time></trkpt><trkpt lat="44.449348606966296" lon="9.021910809337394"><ele>89.0</ele><time>2026-04-04T07:59:47.003Z</time></trkpt><trkpt lat="44.44933770929822" lon="9.022011067635002"><ele>88.99999999999999</ele><time>2026-04-04T07:59:49.003Z</time></trkpt><trkpt lat="44.44933351509515" lon="9.022113079681908"><ele>89.0</ele><time>2026-04-04T07:59:51.003Z</time></trkpt><trkpt lat="44.449324238479925" lon="9.022210935663928"><ele>89.14285714285714</ele><time>2026-04-04T07:59:53.003Z</time></trkpt><trkpt lat="44.44931625338665" lon="9.022309176914414"><ele>89.28571428571428</ele><time>2026-04-04T07:59:55.003Z</time></trkpt><trkpt lat="44.449302440503814" lon="9.022402972234575"><ele>89.42857142857142</ele><time>2026-04-04T07:59:57.003Z</time></trkpt><trkpt lat="44.449298376448986" lon="9.022500014221768"><ele>89.57142857142857</ele><time>2026-04-04T07:59:59.003Z</time></trkpt><trkpt lat="44.44929232305183" lon="9.022596252637712"><ele>89.71428571428572</ele><time>2026-04-04T08:00:01.003Z</time></trkpt><trkpt lat="44.44928646972459" lon="9.02269163268749"><ele>89.85714285714285</ele><time>2026-04-04T08:00:03.003Z</time></trkpt><trkpt lat="44.44928142272222" lon="9.02278721211824"><ele>90.0</ele><time>2026-04-04T08:00:05.003Z</time></trkpt><trkpt lat="44.44927854384844" lon="9.022883693467016"><ele>90.71428571428571</ele><time>2026-04-04T08:00:07.003Z</time></trkpt><trkpt lat="44.44927361258199" lon="9.022979800364476"><ele>91.42857142857143</ele><time>2026-04-04T08:00:09Z</time></trkpt><trkpt lat="44.44926697558197" lon="9.023077579576661"><ele>92.14285714285714</ele><time>2026-04-04T08:00:11Z</time></trkpt><trkpt lat="44.449260840311595" lon="9.023175348057748"><ele>92.85714285714286</ele><time>2026-04-04T08:00:13Z</time></trkpt><trkpt lat="44.44925898026332" lon="9.023275629259047"><ele>93.57142857142858</ele><time>2026-04-04T08:00:15Z</time></trkpt><trkpt lat="44.449250559143245" lon="9.023379436138645"><ele>94.28571428571429</ele><time>2026-04-04T08:00:17Z</time></trkpt><trkpt lat="44.44925037226148" lon="9.023483160170757"><ele>95.0</ele><time>2026-04-04T08:00:19Z</time></trkpt><trkpt lat="44.449239793057984" lon="9.023585322313057"><ele>95.85714285714286</ele><time>2026-04-04T08:00:21Z</time></trkpt><trkpt lat="44.44922759863565" lon="9.023684086586558"><ele>96.71428571428572</ele><time>2026-04-04T08:00:23Z</time></trkpt><trkpt lat="44.449217232613776" lon="9.023786265273628"><ele>97.57142857142857</ele><time>2026-04-04T08:00:25Z</time></trkpt><trkpt lat="44.449215219788265" lon="9.023887909606401"><ele>98.42857142857143</ele><time>2026-04-04T08:00:27Z</time></trkpt><trkpt lat="44.449204504269204" lon="9.023980817748598"><ele>99.28571428571428</ele><time>2026-04-04T08:00:29Z</time></trkpt><trkpt lat="44.44920275482711" lon="9.024076735407238"><ele>100.14285714285714</ele><time>2026-04-04T08:00:31Z</time></trkpt><trkpt lat="44.44921670974012" lon="9.02420756626133"><ele>101.0</ele><time>2026-04-04T08:00:34Z</time></trkpt><trkpt lat="44.44924831762817" lon="9.024319251710565"><ele>102.33333333333333</ele><time>2026-04-04T08:00:37Z</time></trkpt><trkpt lat="44.449307014267525" lon="9.024427869221208"><ele>103.66666666666666</ele><time>2026-04-04T08:00:40Z</time></trkpt><trkpt lat="44.449354672484375" lon="9.02449063382464"><ele>105.0</ele><time>2026-04-04T08:00:42.001Z</time></trkpt><trkpt lat="44.449428162517826" lon="9.024561007794828"><ele>106.33333333333334</ele><time>2026-04-04T08:00:45.001Z</time></trkpt><trkpt lat="44.44948555799224" lon="9.024609729695829"><ele>107.66666666666667</ele><time>2026-04-04T08:00:47.001Z</time></trkpt><trkpt lat="44.449545570573285" lon="9.024643903615353"><ele>109.0</ele><time>2026-04-04T08:00:49.001Z</time></trkpt><trkpt lat="44.44960557489363" lon="9.024685393702352"><ele>108.33333333333334</ele><time>2026-04-04T08:00:51.001Z</time></trkpt><trkpt lat="44.44969303013623" lon="9.02474098467246"><ele>107.66666666666667</ele><time>2026-04-04T08:00:54.001Z</time></trkpt><trkpt lat="44.44975032309531" lon="9.024779741666734"><ele>107.0</ele><time>2026-04-04T08:00:56.001Z</time></trkpt><trkpt lat="44.44983394276562" lon="9.02483455560702"><ele>106.33333333333334</ele><time>2026-04-04T08:00:59.001Z</time></trkpt><trkpt lat="44.44988671794461" lon="9.0248830540743"><ele>105.66666666666667</ele><time>2026-04-04T08:01:01.001Z</time></trkpt><trkpt lat="44.44995705302001" lon="9.024959788959263"><ele>105.0</ele><time>2026-04-04T08:01:04.001Z</time></trkpt><trkpt lat="44.45000762687159" lon="9.025014203001152"><ele>105.0</ele><time>2026-04-04T08:01:06.001Z</time></trkpt><trkpt lat="44.45005419610065" lon="9.02507534907254"><ele>105.0</ele><time>2026-04-04T08:01:08.001Z</time></trkpt><trkpt lat="44.45009742126649" lon="9.025140169322217"><ele>105.0</ele><time>2026-04-04T08:01:10.001Z</time></trkpt><trkpt lat="44.450159851071234" lon="9.025239932624078"><ele>105.0</ele><time>2026-04-04T08:01:13.002Z</time></trkpt><trkpt lat="44.450204889971346" lon="9.0253484118734"><ele>105.0</ele><time>2026-04-04T08:01:16.002Z</time></trkpt><trkpt lat="44.45024001339061" lon="9.025462180272935"><ele>105.0</ele><time>2026-04-04T08:01:19.002Z</time></trkpt><trkpt lat="44.450244412583864" lon="9.025552021701198"><ele>105.0</ele><time>2026-04-04T08:01:21.002Z</time></trkpt><trkpt lat="44.450231387872456" lon="9.02567924229876"><ele>105.0</ele><time>2026-04-04T08:01:24.002Z</time></trkpt><trkpt lat="44.450196823827454" lon="9.025764252201137"><ele>105.0</ele><time>2026-04-04T08:01:26.002Z</time></trkpt><trkpt lat="44.45015533846862" lon="9.02583561034609"><ele>105.0</ele><time>2026-04-04T08:01:28.002Z</time></trkpt><trkpt lat="44.45010011508315" lon="9.025903210369515"><ele>105.0</ele><time>2026-04-04T08:01:30.002Z</time></trkpt><trkpt lat="44.45004843943924" lon="9.025963004274493"><ele>105.0</ele><time>2026-04-04T08:01:32.002Z</time></trkpt><trkpt lat="44.44999051160657" lon="9.026021109057497"><ele>105.0</ele><time>2026-04-04T08:01:34.002Z</time></trkpt><trkpt lat="44.44993452541193" lon="9.026073307958209"><ele>106.0</ele><time>2026-04-04T08:01:36.002Z</time></trkpt><trkpt lat="44.44986798286999" lon="9.02611970571967"><ele>107.0</ele><time>2026-04-04T08:01:38.002Z</time></trkpt><trkpt lat="44.44980842336741" lon="9.02618524340711"><ele>108.0</ele><time>2026-04-04T08:01:40.002Z</time></trkpt><trkpt lat="44.44974596494771" lon="9.02623491976955"><ele>109.0</ele><time>2026-04-04T08:01:42.002Z</time></trkpt><trkpt lat="44.44969213413" lon="9.026288471321008"><ele>110.0</ele><time>2026-04-04T08:01:44.002Z</time></trkpt><trkpt lat="44.44963766817797" lon="9.026345350742035"><ele>111.0</ele><time>2026-04-04T08:01:46.003Z</time></trkpt><trkpt lat="44.449582863933195" lon="9.026408654366685"><ele>112.0</ele><time>2026-04-04T08:01:48.003Z</time></trkpt><trkpt lat="44.44953719516364" lon="9.026478134881472"><ele>116.83333333333334</ele><time>2026-04-04T08:01:50.003Z</time></trkpt><trkpt lat="44.44949965207347" lon="9.026557936283886"><ele>121.66666666666667</ele><time>2026-04-04T08:01:52.003Z</time></trkpt><trkpt lat="44.449465970474265" lon="9.02664040487773"><ele>126.5</ele><time>2026-04-04T08:01:54.003Z</time></trkpt><trkpt lat="44.44945716716673" lon="9.026739198959161"><ele>131.33333333333334</ele><time>2026-04-04T08:01:56.003Z</time></trkpt><trkpt lat="44.44947946993148" lon="9.026829040091732"><ele>136.16666666666666</ele><time>2026-04-04T08:01:58.003Z</time></trkpt><trkpt lat="44.449559484104434" lon="9.026970459620903"><ele>141.0</ele><time>2026-04-04T08:09:27.001Z</time></trkpt><trkpt lat="44.44958962286373" lon="9.027095822040284"><ele>141.0</ele><time>2026-04-04T08:09:30.001Z</time></trkpt><trkpt lat="44.449617439094204" lon="9.027195357335353"><ele>141.0</ele><time>2026-04-04T08:09:32.001Z</time></trkpt><trkpt lat="44.449657267678546" lon="9.027296341764872"><ele>141.0</ele><time>2026-04-04T08:09:34.001Z</time></trkpt><trkpt lat="44.4497282446823" lon="9.027373263086458"><ele>141.0</ele><time>2026-04-04T08:09:36.001Z</time></trkpt><trkpt lat="44.449785913396866" lon="9.027433992711371"><ele>141.0</ele><time>2026-04-04T08:09:38.001Z</time></trkpt><trkpt lat="44.44984940277883" lon="9.027476969759105"><ele>141.0</ele><time>2026-04-04T08:09:40.001Z</time></trkpt><trkpt lat="44.44991377102062" lon="9.027538534348306"><ele>137.0</ele><time>2026-04-04T08:09:42.002Z</time></trkpt><trkpt lat="44.44998259422746" lon="9.027611487090368"><ele>133.0</ele><time>2026-04-04T08:09:44.002Z</time></trkpt><trkpt lat="44.45005079692472" lon="9.02769274644654"><ele>129.0</ele><time>2026-04-04T08:09:46.002Z</time></trkpt><trkpt lat="44.45011667914271" lon="9.027771334879509"><ele>125.0</ele><time>2026-04-04T08:09:48.002Z</time></trkpt><trkpt lat="44.45019519530965" lon="9.02783307809933"><ele>121.0</ele><time>2026-04-04T08:09:50.002Z</time></trkpt><trkpt lat="44.45026298282956" lon="9.027893160365851"><ele>117.0</ele><time>2026-04-04T08:09:52.002Z</time></trkpt><trkpt lat="44.450338407585654" lon="9.02794528433618"><ele>117.0</ele><time>2026-04-04T08:09:54.002Z</time></trkpt><trkpt lat="44.45041438943884" lon="9.028015303872364"><ele>116.99999999999999</ele><time>2026-04-04T08:09:56.002Z</time></trkpt><trkpt lat="44.450491124080955" lon="9.028075654377933"><ele>116.99999999999999</ele><time>2026-04-04T08:09:58.002Z</time></trkpt><trkpt lat="44.4505628817775" lon="9.028137103996192"><ele>117.0</ele><time>2026-04-04T08:10:00.002Z</time></trkpt><trkpt lat="44.450639527062464" lon="9.028218059842542"><ele>117.0</ele><time>2026-04-04T08:10:02.002Z</time></trkpt><trkpt lat="44.450716735438846" lon="9.028310077467555"><ele>116.8</ele><time>2026-04-04T08:10:04.002Z</time></trkpt><trkpt lat="44.45078222811363" lon="9.028405663764577"><ele>116.6</ele><time>2026-04-04T08:10:06.002Z</time></trkpt><trkpt lat="44.45083516536434" lon="9.028508755636384"><ele>116.39999999999999</ele><time>2026-04-04T08:10:08.002Z</time></trkpt><trkpt lat="44.45086213563616" lon="9.028632750145677"><ele>116.19999999999999</ele><time>2026-04-04T08:10:10.002Z</time></trkpt><trkpt lat="44.45086025492846" lon="9.028765716031025"><ele>116.0</ele><time>2026-04-04T08:10:12.002Z</time></trkpt><trkpt lat="44.45084245484587" lon="9.028886595588787"><ele>115.99999999999999</ele><time>2026-04-04T08:10:14.002Z</time></trkpt><trkpt lat="44.45079702316219" lon="9.028986296696434"><ele>116.0</ele><time>2026-04-04T08:10:16.002Z</time></trkpt><trkpt lat="44.45075729047635" lon="9.029063046312478"><ele>116.0</ele><time>2026-04-04T08:10:18.002Z</time></trkpt><trkpt lat="44.450711694376295" lon="9.029156368515446"><ele>116.0</ele><time>2026-04-04T08:10:20.002Z</time></trkpt><trkpt lat="44.45065917379359" lon="9.029269340186737"><ele>115.99999999999999</ele><time>2026-04-04T08:10:22.002Z</time></trkpt><trkpt lat="44.45059550868228" lon="9.029331286697294"><ele>116.0</ele><time>2026-04-04T08:10:24.003Z</time></trkpt><trkpt lat="44.45053124275142" lon="9.029434567750158"><ele>114.83333333333333</ele><time>2026-04-04T08:10:26.003Z</time></trkpt><trkpt lat="44.45046773826555" lon="9.029514331581117"><ele>113.66666666666666</ele><time>2026-04-04T08:10:28.003Z</time></trkpt><trkpt lat="44.45040177347504" lon="9.029625446856715"><ele>112.5</ele><time>2026-04-04T08:10:30.003Z</time></trkpt><trkpt lat="44.450339948466784" lon="9.029709067638306"><ele>111.33333333333334</ele><time>2026-04-04T08:10:32.003Z</time></trkpt><trkpt lat="44.45028912093406" lon="9.029807427524679"><ele>110.16666666666667</ele><time>2026-04-04T08:10:34.003Z</time></trkpt><trkpt lat="44.45025498985358" lon="9.029893490009968"><ele>109.0</ele><time>2026-04-04T08:10:36.003Z</time></trkpt><trkpt lat="44.45023383673201" lon="9.029984557524582"><ele>114.50000000000001</ele><time>2026-04-04T08:10:38.003Z</time></trkpt><trkpt lat="44.45020882135547" lon="9.030086006653509"><ele>120.0</ele><time>2026-04-04T08:10:40Z</time></trkpt><trkpt lat="44.45019490494873" lon="9.030194642647"><ele>125.5</ele><time>2026-04-04T08:10:42Z</time></trkpt><trkpt lat="44.45017485043071" lon="9.030308598813342"><ele>131.0</ele><time>2026-04-04T08:10:44Z</time></trkpt><trkpt lat="44.45016371367505" lon="9.030426720346755"><ele>136.5</ele><time>2026-04-04T08:10:46Z</time></trkpt><trkpt lat="44.45016716267311" lon="9.03053529479182"><ele>142.0</ele><time>2026-04-04T08:10:48Z</time></trkpt><trkpt lat="44.450167862641656" lon="9.030634055421496"><ele>142.0</ele><time>2026-04-04T08:10:50Z</time></trkpt><trkpt lat="44.450180243459556" lon="9.030735947878645"><ele>142.0</ele><time>2026-04-04T08:10:52Z</time></trkpt><trkpt lat="44.45020650265847" lon="9.030835921630759"><ele>142.0</ele><time>2026-04-04T08:10:54Z</time></trkpt><trkpt lat="44.45023429498454" lon="9.030925128014276"><ele>142.0</ele><time>2026-04-04T08:10:56Z</time></trkpt><trkpt lat="44.45026782080516" lon="9.031007653629404"><ele>142.0</ele><time>2026-04-04T08:10:58Z</time></trkpt><trkpt lat="44.450299826286184" lon="9.03108410278762"><ele>142.0</ele><time>2026-04-04T08:11:00Z</time></trkpt><trkpt lat="44.45035089456787" lon="9.031188808279413"><ele>142.0</ele><time>2026-04-04T08:11:03Z</time></trkpt><trkpt lat="44.45039435910845" lon="9.031264008580262"><ele>142.66666666666669</ele><time>2026-04-04T08:11:05Z</time></trkpt><trkpt lat="44.450450077284124" lon="9.0313273572183"><ele>143.33333333333334</ele><time>2026-04-04T08:11:07Z</time></trkpt><trkpt lat="44.45052076601437" lon="9.031406289584709"><ele>144.0</ele><time>2026-04-04T08:11:10Z</time></trkpt><trkpt lat="44.45057596836144" lon="9.031466109697238"><ele>144.66666666666666</ele><time>2026-04-04T08:11:12Z</time></trkpt><trkpt lat="44.45065509059451" lon="9.031524333236955"><ele>145.33333333333331</ele><time>2026-04-04T08:11:15Z</time></trkpt><trkpt lat="44.450739539059136" lon="9.031603985353197"><ele>146.0</ele><time>2026-04-04T08:11:18.001Z</time></trkpt><trkpt lat="44.450812256769915" lon="9.031665290815074"><ele>142.16666666666666</ele><time>2026-04-04T08:11:21.001Z</time></trkpt><trkpt lat="44.450865553142485" lon="9.031715015611884"><ele>138.33333333333331</ele><time>2026-04-04T08:11:23.001Z</time></trkpt><trkpt lat="44.45092001828442" lon="9.031762684232886"><ele>134.5</ele><time>2026-04-04T08:11:25.001Z</time></trkpt><trkpt lat="44.450993625669874" lon="9.031823815818731"><ele>130.66666666666666</ele><time>2026-04-04T08:11:28.001Z</time></trkpt><trkpt lat="44.451050149256005" lon="9.031867432565091"><ele>126.83333333333333</ele><time>2026-04-04T08:11:30.001Z</time></trkpt><trkpt lat="44.45112352443055" lon="9.031945029694347"><ele>123.0</ele><time>2026-04-04T08:11:33.001Z</time></trkpt><trkpt lat="44.451195130159775" lon="9.032025073257739"><ele>123.0</ele><time>2026-04-04T08:11:36.001Z</time></trkpt><trkpt lat="44.451243083090986" lon="9.032085751848523"><ele>123.0</ele><time>2026-04-04T08:11:38.001Z</time></trkpt><trkpt lat="44.451313269131305" lon="9.03217255992582"><ele>123.0</ele><time>2026-04-04T08:11:41.001Z</time></trkpt><trkpt lat="44.451367393101435" lon="9.032273689335995"><ele>123.0</ele><time>2026-04-04T08:11:44.001Z</time></trkpt><trkpt lat="44.4513912244699" lon="9.03238314571822"><ele>123.0</ele><time>2026-04-04T08:11:47.001Z</time></trkpt><trkpt lat="44.45139679285894" lon="9.032504066773072"><ele>123.0</ele><time>2026-04-04T08:11:50.001Z</time></trkpt><trkpt lat="44.451387891567975" lon="9.032621499934443"><ele>123.66666666666667</ele><time>2026-04-04T08:11:53.001Z</time></trkpt><trkpt lat="44.451348175338254" lon="9.03272738560867"><ele>124.33333333333334</ele><time>2026-04-04T08:11:56.001Z</time></trkpt><trkpt lat="44.45130299176858" lon="9.032793331132059"><ele>125.0</ele><time>2026-04-04T08:11:58.002Z</time></trkpt><trkpt lat="44.4512356675427" lon="9.032873073688105"><ele>125.66666666666667</ele><time>2026-04-04T08:12:01.002Z</time></trkpt><trkpt lat="44.4511462176216" lon="9.032913419949478"><ele>126.33333333333334</ele><time>2026-04-04T08:12:04.002Z</time></trkpt><trkpt lat="44.451057146495074" lon="9.032941070647041"><ele>127.0</ele><time>2026-04-04T08:12:07.002Z</time></trkpt><trkpt lat="44.45096816404014" lon="9.032964168667098"><ele>127.00000000000001</ele><time>2026-04-04T08:12:10.002Z</time></trkpt><trkpt lat="44.450876677951356" lon="9.032999414699672"><ele>127.0</ele><time>2026-04-04T08:12:13.002Z</time></trkpt><trkpt lat="44.450815899488276" lon="9.03305362300133"><ele>127.0</ele><time>2026-04-04T08:12:15.002Z</time></trkpt><trkpt lat="44.45075511836142" lon="9.033110436881211"><ele>127.0</ele><time>2026-04-04T08:12:17.002Z</time></trkpt><trkpt lat="44.45069441894803" lon="9.033145218400376"><ele>127.00000000000001</ele><time>2026-04-04T08:12:19.002Z</time></trkpt><trkpt lat="44.45061147645301" lon="9.03318476827166"><ele>127.0</ele><time>2026-04-04T08:12:22.002Z</time></trkpt><trkpt lat="44.45058496805199" lon="9.033296058025806"><ele>125.42857142857143</ele><time>2026-04-04T08:12:25.002Z</time></trkpt><trkpt lat="44.450588641436056" lon="9.033408316183744"><ele>123.85714285714286</ele><time>2026-04-04T08:12:28.002Z</time></trkpt><trkpt lat="44.45058262399429" lon="9.033502890863753"><ele>122.28571428571429</ele><time>2026-04-04T08:14:42.003Z</time></trkpt><trkpt lat="44.45060362889333" lon="9.033608166365003"><ele>120.71428571428572</ele><time>2026-04-04T08:14:47.003Z</time></trkpt><trkpt lat="44.450617009904974" lon="9.033699551587583"><ele>119.14285714285714</ele><time>2026-04-04T08:14:50.003Z</time></trkpt><trkpt lat="44.45063238922575" lon="9.033792381374194"><ele>117.57142857142858</ele><time>2026-04-04T08:14:53Z</time></trkpt><trkpt lat="44.45063917918001" lon="9.033888423368476"><ele>116.00000000000001</ele><time>2026-04-04T08:14:56Z</time></trkpt><trkpt lat="44.450589648619435" lon="9.03394506541385"><ele>116.00000000000001</ele><time>2026-04-04T08:14:59Z</time></trkpt><trkpt lat="44.450510080775054" lon="9.033997097803923"><ele>116.0</ele><time>2026-04-04T08:15:03Z</time></trkpt><trkpt lat="44.450450171841744" lon="9.034026503928867"><ele>116.00000000000001</ele><time>2026-04-04T08:15:06Z</time></trkpt><trkpt lat="44.45039238591831" lon="9.034064953613703"><ele>116.00000000000001</ele><time>2026-04-04T08:15:09Z</time></trkpt><trkpt lat="44.450327795192685" lon="9.03409915494608"><ele>116.0</ele><time>2026-04-04T08:15:12Z</time></trkpt><trkpt lat="44.450270208370604" lon="9.034145539828803"><ele>116.00000000000001</ele><time>2026-04-04T08:15:15Z</time></trkpt><trkpt lat="44.45020342276432" lon="9.034210433340316"><ele>116.00000000000001</ele><time>2026-04-04T08:15:19.001Z</time></trkpt><trkpt lat="44.4501596077791" lon="9.034296002033237"><ele>117.2857142857143</ele><time>2026-04-04T08:19:01.003Z</time></trkpt><trkpt lat="44.450111885384246" lon="9.03437317519619"><ele>118.57142857142858</ele><time>2026-04-04T08:19:05Z</time></trkpt><trkpt lat="44.45007043646772" lon="9.03445325368838"><ele>119.85714285714286</ele><time>2026-04-04T08:19:09Z</time></trkpt><trkpt lat="44.450030028473115" lon="9.03454335612939"><ele>121.14285714285715</ele><time>2026-04-04T08:19:13Z</time></trkpt><trkpt lat="44.44998672766658" lon="9.034640950018066"><ele>122.42857142857144</ele><time>2026-04-04T08:19:17Z</time></trkpt><trkpt lat="44.449951624171455" lon="9.034718759739762"><ele>123.71428571428571</ele><time>2026-04-04T08:19:20Z</time></trkpt><trkpt lat="44.4499165033124" lon="9.034817600705516"><ele>125.0</ele><time>2026-04-04T08:19:24Z</time></trkpt><trkpt lat="44.44989581660469" lon="9.03491395598471"><ele>126.42857142857142</ele><time>2026-04-04T08:19:27Z</time></trkpt><trkpt lat="44.449893818090636" lon="9.035007919947954"><ele>127.85714285714286</ele><time>2026-04-04T08:19:30Z</time></trkpt><trkpt lat="44.44990057972183" lon="9.035102416764229"><ele>129.28571428571428</ele><time>2026-04-04T08:19:33.001Z</time></trkpt><trkpt lat="44.44990421999324" lon="9.035192860269149"><ele>130.71428571428572</ele><time>2026-04-04T08:19:36.001Z</time></trkpt><trkpt lat="44.44991557740399" lon="9.035298912168988"><ele>132.14285714285714</ele><time>2026-04-04T08:19:39.001Z</time></trkpt><trkpt lat="44.44990956571545" lon="9.035390857112159"><ele>133.57142857142856</ele><time>2026-04-04T08:19:42.001Z</time></trkpt><trkpt lat="44.44990029194199" lon="9.035479460856504"><ele>135.0</ele><time>2026-04-04T08:19:45.001Z</time></trkpt><trkpt lat="44.44988771154348" lon="9.035588965897588"><ele>135.0</ele><time>2026-04-04T08:19:49.001Z</time></trkpt><trkpt lat="44.449876253919754" lon="9.035676737394587"><ele>135.0</ele><time>2026-04-04T08:19:52.001Z</time></trkpt><trkpt lat="44.449860672798195" lon="9.035788427124553"><ele>135.0</ele><time>2026-04-04T08:19:56.001Z</time></trkpt><trkpt lat="44.44984473927197" lon="9.035901520296768"><ele>135.0</ele><time>2026-04-04T08:20:00.001Z</time></trkpt><trkpt lat="44.44982892739143" lon="9.036013866592397"><ele>135.0</ele><time>2026-04-04T08:20:04.001Z</time></trkpt><trkpt lat="44.449822977921905" lon="9.036124870968049"><ele>135.0</ele><time>2026-04-04T08:20:08.002Z</time></trkpt><trkpt lat="44.449860936691685" lon="9.03620199110507"><ele>135.0</ele><time>2026-04-04T08:20:11.002Z</time></trkpt><trkpt lat="44.449927172178874" lon="9.03621887989237"><ele>135.0</ele><time>2026-04-04T08:20:14.002Z</time></trkpt><trkpt lat="44.44999442601522" lon="9.036178780631184"><ele>135.0</ele><time>2026-04-04T08:20:17.002Z</time></trkpt><trkpt lat="44.45002925667204" lon="9.036081427793196"><ele>135.0</ele><time>2026-04-04T08:20:20.002Z</time></trkpt><trkpt lat="44.450024872731646" lon="9.03597236635973"><ele>135.0</ele><time>2026-04-04T08:20:23.002Z</time></trkpt><trkpt lat="44.45000801199044" lon="9.035867058644206"><ele>135.0</ele><time>2026-04-04T08:20:26.002Z</time></trkpt><trkpt lat="44.45001716860246" lon="9.035765423259269"><ele>135.0</ele><time>2026-04-04T08:20:29.002Z</time></trkpt><trkpt lat="44.45003478878394" lon="9.035671867415584"><ele>135.0</ele><time>2026-04-04T08:20:32.002Z</time></trkpt><trkpt lat="44.450056380801094" lon="9.035578577845765"><ele>135.0</ele><time>2026-04-04T08:20:35.002Z</time></trkpt><trkpt lat="44.4500757467126" lon="9.035487695323953"><ele>135.0</ele><time>2026-04-04T08:20:38.002Z</time></trkpt><trkpt lat="44.45009024177253" lon="9.03539079730668"><ele>135.0</ele><time>2026-04-04T08:20:41.002Z</time></trkpt><trkpt lat="44.450094128050104" lon="9.035297288014464"><ele>135.0</ele><time>2026-04-04T08:20:44.003Z</time></trkpt><trkpt lat="44.450087577681316" lon="9.035208592776637"><ele>135.0</ele><time>2026-04-04T08:20:47.003Z</time></trkpt><trkpt lat="44.45009485950605" lon="9.03509257168594"><ele>135.0</ele><time>2026-04-04T08:20:51.003Z</time></trkpt><trkpt lat="44.45010074483793" lon="9.034986957246932"><ele>133.57142857142856</ele><time>2026-04-04T08:20:55.003Z</time></trkpt><trkpt lat="44.45011446695297" lon="9.034897914349495"><ele>132.14285714285714</ele><time>2026-04-04T08:20:58.003Z</time></trkpt><trkpt lat="44.45014738297015" lon="9.034792310911465"><ele>130.71428571428572</ele><time>2026-04-04T08:21:02.003Z</time></trkpt><trkpt lat="44.450196334636566" lon="9.034707215153418"><ele>129.28571428571428</ele><time>2026-04-04T08:21:06.003Z</time></trkpt><trkpt lat="44.45023586560697" lon="9.0346343790733"><ele>127.85714285714286</ele><time>2026-04-04T08:21:09.001Z</time></trkpt><trkpt lat="44.450300332226114" lon="9.034559069432996"><ele>126.42857142857142</ele><time>2026-04-04T08:21:13.001Z</time></trkpt><trkpt lat="44.45034283798697" lon="9.034490610508133"><ele>125.0</ele><time>2026-04-04T08:21:16.001Z</time></trkpt><trkpt lat="44.45038243399246" lon="9.034393866760821"><ele>124.99999999999999</ele><time>2026-04-04T08:21:20.001Z</time></trkpt><trkpt lat="44.45044587387698" lon="9.03435823550448"><ele>125.0</ele><time>2026-04-04T08:21:30.001Z</time></trkpt><trkpt lat="44.45049451207257" lon="9.034298654088236"><ele>125.0</ele><time>2026-04-04T08:22:50.003Z</time></trkpt><trkpt lat="44.45057211023371" lon="9.034296997040933"><ele>125.0</ele><time>2026-04-04T08:22:54.003Z</time></trkpt><trkpt lat="44.45066178282084" lon="9.034285684255313"><ele>124.99999999999999</ele><time>2026-04-04T08:22:57.003Z</time></trkpt><trkpt lat="44.45072945753516" lon="9.03432730246026"><ele>125.0</ele><time>2026-04-04T08:22:59.003Z</time></trkpt><trkpt lat="44.45079504909182" lon="9.034402411071794"><ele>125.99999999999999</ele><time>2026-04-04T08:23:01.003Z</time></trkpt><trkpt lat="44.450847603793726" lon="9.034480140261524"><ele>127.0</ele><time>2026-04-04T08:23:03.003Z</time></trkpt><trkpt lat="44.4508775885918" lon="9.034600597223976"><ele>128.0</ele><time>2026-04-04T08:23:06.003Z</time></trkpt><trkpt lat="44.450911256468665" lon="9.034511280400807"><ele>129.0</ele><time>2026-04-04T08:23:12.003Z</time></trkpt><trkpt lat="44.450870055742094" lon="9.034425532506384"><ele>130.0</ele><time>2026-04-04T08:23:15.001Z</time></trkpt><trkpt lat="44.45093943547304" lon="9.034346292872389"><ele>131.0</ele><time>2026-04-04T08:23:18.001Z</time></trkpt><trkpt lat="44.451026900780874" lon="9.034347228885801"><ele>131.0</ele><time>2026-04-04T08:23:20.001Z</time></trkpt><trkpt lat="44.45109332063247" lon="9.034316071523282"><ele>131.0</ele><time>2026-04-04T08:23:22.001Z</time></trkpt><trkpt lat="44.4511882292827" lon="9.034318690822653"><ele>131.0</ele><time>2026-04-04T08:23:25.001Z</time></trkpt><trkpt lat="44.45125641539156" lon="9.03426794168935"><ele>131.0</ele><time>2026-04-04T08:23:28.001Z</time></trkpt><trkpt lat="44.45133961740138" lon="9.034234845472243"><ele>131.0</ele><time>2026-04-04T08:23:31.001Z</time></trkpt><trkpt lat="44.451403653705235" lon="9.034222033958745"><ele>131.0</ele><time>2026-04-04T08:23:33.001Z</time></trkpt><trkpt lat="44.45146788719656" lon="9.034190981548484"><ele>131.57142857142858</ele><time>2026-04-04T08:23:35.001Z</time></trkpt><trkpt lat="44.45153316197207" lon="9.03416045246381"><ele>132.14285714285717</ele><time>2026-04-04T08:23:37.001Z</time></trkpt><trkpt lat="44.451608161740054" lon="9.034140296450808"><ele>132.71428571428572</ele><time>2026-04-04T08:23:39.001Z</time></trkpt><trkpt lat="44.45168468614334" lon="9.034106801684665"><ele>133.28571428571428</ele><time>2026-04-04T08:23:41.001Z</time></trkpt><trkpt lat="44.45175858028787" lon="9.034080891265317"><ele>133.85714285714283</ele><time>2026-04-04T08:23:43.001Z</time></trkpt><trkpt lat="44.451820597667464" lon="9.034058823158652"><ele>134.42857142857142</ele><time>2026-04-04T08:23:45.001Z</time></trkpt><trkpt lat="44.45188371254267" lon="9.034044874304499"><ele>135.0</ele><time>2026-04-04T08:23:47.001Z</time></trkpt><trkpt lat="44.4519070451184" lon="9.03394248495418"><ele>132.66666666666666</ele><time>2026-04-04T08:23:50.001Z</time></trkpt><trkpt lat="44.45193628687081" lon="9.033819329196243"><ele>130.33333333333334</ele><time>2026-04-04T08:23:53.001Z</time></trkpt><trkpt lat="44.45197807237004" lon="9.03373152868411"><ele>128.0</ele><time>2026-04-04T08:23:55.001Z</time></trkpt><trkpt lat="44.45200757557093" lon="9.033646254302498"><ele>125.66666666666667</ele><time>2026-04-04T08:23:57.001Z</time></trkpt><trkpt lat="44.45204964870384" lon="9.03356596576268"><ele>123.33333333333334</ele><time>2026-04-04T08:23:59.001Z</time></trkpt><trkpt lat="44.452093050276474" lon="9.033483709960967"><ele>121.0</ele><time>2026-04-04T08:24:01.001Z</time></trkpt><trkpt lat="44.452157702152014" lon="9.033406034204557"><ele>128.33333333333334</ele><time>2026-04-04T08:24:04.001Z</time></trkpt><trkpt lat="44.45220706910944" lon="9.033322446562645"><ele>135.66666666666669</ele><time>2026-04-04T08:24:07.001Z</time></trkpt><trkpt lat="44.45225346350213" lon="9.033226814019661"><ele>143.0</ele><time>2026-04-04T08:24:10.001Z</time></trkpt><trkpt lat="44.45228164891054" lon="9.033136413216917"><ele>150.33333333333334</ele><time>2026-04-04T08:24:12.001Z</time></trkpt><trkpt lat="44.45233178073278" lon="9.033047118449268"><ele>157.66666666666666</ele><time>2026-04-04T08:24:15.002Z</time></trkpt><trkpt lat="44.45236193511265" lon="9.032926421446698"><ele>165.0</ele><time>2026-04-04T08:24:18.002Z</time></trkpt><trkpt lat="44.452368468664346" lon="9.032834017489819"><ele>165.0</ele><time>2026-04-04T08:24:21.002Z</time></trkpt><trkpt lat="44.45238911287193" lon="9.032701123140745"><ele>165.0</ele><time>2026-04-04T08:24:24.002Z</time></trkpt><trkpt lat="44.452400896856" lon="9.032593202907382"><ele>165.0</ele><time>2026-04-04T08:24:27.002Z</time></trkpt><trkpt lat="44.452414432838665" lon="9.032486539142228"><ele>165.0</ele><time>2026-04-04T08:24:30.002Z</time></trkpt><trkpt lat="44.45245889695267" lon="9.032388253831941"><ele>165.0</ele><time>2026-04-04T08:24:33.002Z</time></trkpt><trkpt lat="44.45245897992104" lon="9.032297020547297"><ele>165.0</ele><time>2026-04-04T08:24:36.002Z</time></trkpt><trkpt lat="44.452408230457614" lon="9.03223597443512"><ele>165.5</ele><time>2026-04-04T08:24:38.002Z</time></trkpt><trkpt lat="44.452361925277664" lon="9.03214386729165"><ele>166.0</ele><time>2026-04-04T08:24:41.002Z</time></trkpt><trkpt lat="44.452311508195855" lon="9.0320671757224"><ele>166.5</ele><time>2026-04-04T08:24:44.002Z</time></trkpt><trkpt lat="44.452265366738786" lon="9.031937552444349"><ele>167.0</ele><time>2026-04-04T08:24:47.002Z</time></trkpt><trkpt lat="44.45223196011354" lon="9.031849780642458"><ele>167.5</ele><time>2026-04-04T08:24:50.002Z</time></trkpt><trkpt lat="44.45216722773476" lon="9.031723867535714"><ele>168.0</ele><time>2026-04-04T08:24:53.002Z</time></trkpt><trkpt lat="44.4521393359532" lon="9.031639014275331"><ele>165.33333333333334</ele><time>2026-04-04T08:24:55.002Z</time></trkpt><trkpt lat="44.4521086047329" lon="9.03155083931079"><ele>162.66666666666666</ele><time>2026-04-04T08:24:57.003Z</time></trkpt><trkpt lat="44.45206886838959" lon="9.031477674038081"><ele>160.0</ele><time>2026-04-04T08:24:59.003Z</time></trkpt><trkpt lat="44.452041889633485" lon="9.03138358592564"><ele>157.33333333333331</ele><time>2026-04-04T08:25:02.003Z</time></trkpt><trkpt lat="44.451973953000305" lon="9.031309090182697"><ele>154.66666666666666</ele><time>2026-04-04T08:25:04.003Z</time></trkpt><trkpt lat="44.45192323583513" lon="9.031215994114987"><ele>152.0</ele><time>2026-04-04T08:25:07.003Z</time></trkpt><trkpt lat="44.45184281883471" lon="9.031161882729428"><ele>152.0</ele><time>2026-04-04T08:25:10.003Z</time></trkpt><trkpt lat="44.45178626596699" lon="9.031109889134568"><ele>152.0</ele><time>2026-04-04T08:25:12.003Z</time></trkpt><trkpt lat="44.45172846361049" lon="9.03105729952974"><ele>152.0</ele><time>2026-04-04T08:25:14.003Z</time></trkpt><trkpt lat="44.45166897239322" lon="9.031012285564021"><ele>152.0</ele><time>2026-04-04T08:25:16.003Z</time></trkpt><trkpt lat="44.45159652653053" lon="9.030957614546773"><ele>152.0</ele><time>2026-04-04T08:25:19.003Z</time></trkpt><trkpt lat="44.45152251820814" lon="9.030896589832434"><ele>152.0</ele><time>2026-04-04T08:25:22.001Z</time></trkpt><trkpt lat="44.45144502596215" lon="9.030831244888706"><ele>152.0</ele><time>2026-04-04T08:25:25Z</time></trkpt><trkpt lat="44.45137675123036" lon="9.030815535267338"><ele>152.0</ele><time>2026-04-04T08:25:27Z</time></trkpt><trkpt lat="44.4513069227746" lon="9.030791149237906"><ele>152.0</ele><time>2026-04-04T08:25:29Z</time></trkpt><trkpt lat="44.45122978862605" lon="9.030759891538478"><ele>152.0</ele><time>2026-04-04T08:25:32Z</time></trkpt><trkpt lat="44.45114478124624" lon="9.030724346291848"><ele>152.0</ele><time>2026-04-04T08:25:35Z</time></trkpt><trkpt lat="44.451077566896316" lon="9.03063108996416"><ele>152.0</ele><time>2026-04-04T08:25:39Z</time></trkpt><trkpt lat="44.45108225251075" lon="9.030537172404985"><ele>152.0</ele><time>2026-04-04T08:25:41Z</time></trkpt><trkpt lat="44.451101572944616" lon="9.030453110279632"><ele>152.0</ele><time>2026-04-04T08:25:43Z</time></trkpt><trkpt lat="44.451162827258294" lon="9.030365902956094"><ele>152.0</ele><time>2026-04-04T08:25:46.001Z</time></trkpt><trkpt lat="44.45119935221269" lon="9.030284240763574"><ele>152.0</ele><time>2026-04-04T08:25:48.001Z</time></trkpt><trkpt lat="44.45123697503032" lon="9.030213050924278"><ele>152.0</ele><time>2026-04-04T08:25:50.001Z</time></trkpt><trkpt lat="44.45127649933775" lon="9.03013275837774"><ele>152.0</ele><time>2026-04-04T08:25:52.001Z</time></trkpt><trkpt lat="44.45131645354178" lon="9.030060711926719"><ele>152.0</ele><time>2026-04-04T08:25:54.001Z</time></trkpt><trkpt lat="44.451366804757754" lon="9.029982272478227"><ele>150.33333333333331</ele><time>2026-04-04T08:25:57.001Z</time></trkpt><trkpt lat="44.451445190784575" lon="9.029920208670873"><ele>148.66666666666666</ele><time>2026-04-04T08:26:00.001Z</time></trkpt><trkpt lat="44.45151363065585" lon="9.029830279013193"><ele>147.0</ele><time>2026-04-04T08:26:03.001Z</time></trkpt><trkpt lat="44.45155091176882" lon="9.029737684167191"><ele>145.33333333333334</ele><time>2026-04-04T08:26:05.001Z</time></trkpt><trkpt lat="44.45159216970795" lon="9.029659722992166"><ele>143.66666666666669</ele><time>2026-04-04T08:26:07.001Z</time></trkpt><trkpt lat="44.451648959109896" lon="9.029570142284054"><ele>142.0</ele><time>2026-04-04T08:26:09.001Z</time></trkpt><trkpt lat="44.45170740336892" lon="9.02947192930105"><ele>142.0</ele><time>2026-04-04T08:26:12.001Z</time></trkpt><trkpt lat="44.45173963686345" lon="9.029373611795597"><ele>142.0</ele><time>2026-04-04T08:26:15.001Z</time></trkpt><trkpt lat="44.45178901393715" lon="9.029288954836783"><ele>142.0</ele><time>2026-04-04T08:26:18.001Z</time></trkpt><trkpt lat="44.45180699843985" lon="9.029202446238056"><ele>142.0</ele><time>2026-04-04T08:26:20.001Z</time></trkpt><trkpt lat="44.45177275282329" lon="9.02911201873521"><ele>142.0</ele><time>2026-04-04T08:26:22.001Z</time></trkpt><trkpt lat="44.4517655068476" lon="9.029004780638568"><ele>142.0</ele><time>2026-04-04T08:26:24.001Z</time></trkpt><trkpt lat="44.451754637847756" lon="9.028906291872886"><ele>142.0</ele><time>2026-04-04T08:26:26.001Z</time></trkpt><trkpt lat="44.451772706298335" lon="9.028819589995226"><ele>143.0</ele><time>2026-04-04T08:26:28.001Z</time></trkpt><trkpt lat="44.45177885898918" lon="9.028730113767727"><ele>144.0</ele><time>2026-04-04T08:26:30.001Z</time></trkpt><trkpt lat="44.45177661228889" lon="9.028628076707433"><ele>145.0</ele><time>2026-04-04T08:26:33.001Z</time></trkpt><trkpt lat="44.451800648154936" lon="9.028532749183423"><ele>146.0</ele><time>2026-04-04T08:26:37.002Z</time></trkpt><trkpt lat="44.45182990641825" lon="9.02842674511298"><ele>147.0</ele><time>2026-04-04T08:26:48.002Z</time></trkpt><trkpt lat="44.45184924117481" lon="9.028333829408707"><ele>148.0</ele><time>2026-04-04T08:26:51.002Z</time></trkpt><trkpt lat="44.451859360437005" lon="9.02823142496303"><ele>149.0</ele><time>2026-04-04T08:26:54.002Z</time></trkpt><trkpt lat="44.45181932174371" lon="9.02816246159689"><ele>152.83333333333331</ele><time>2026-04-04T08:26:56.002Z</time></trkpt><trkpt lat="44.45175228545541" lon="9.02812722558619"><ele>156.66666666666666</ele><time>2026-04-04T08:26:58.002Z</time></trkpt><trkpt lat="44.451667346075524" lon="9.028121867294061"><ele>160.5</ele><time>2026-04-04T08:27:01.002Z</time></trkpt><trkpt lat="44.451596801079305" lon="9.028037606416488"><ele>164.33333333333334</ele><time>2026-04-04T08:27:03.002Z</time></trkpt><trkpt lat="44.451558406165304" lon="9.027941072060443"><ele>168.16666666666669</ele><time>2026-04-04T08:27:05.002Z</time></trkpt><trkpt lat="44.45151754225093" lon="9.027835199432442"><ele>172.0</ele><time>2026-04-04T08:27:07.002Z</time></trkpt><trkpt lat="44.45145770404817" lon="9.027751217090668"><ele>172.0</ele><time>2026-04-04T08:27:09.002Z</time></trkpt><trkpt lat="44.45141540615102" lon="9.027670601433298"><ele>172.0</ele><time>2026-04-04T08:27:11.002Z</time></trkpt><trkpt lat="44.45134318802617" lon="9.027613566565805"><ele>172.0</ele><time>2026-04-04T08:27:14.002Z</time></trkpt><trkpt lat="44.45129202168952" lon="9.027520102096108"><ele>172.0</ele><time>2026-04-04T08:27:17.002Z</time></trkpt><trkpt lat="44.451254235165635" lon="9.027445912945842"><ele>172.0</ele><time>2026-04-04T08:27:19.003Z</time></trkpt><trkpt lat="44.45116195288363" lon="9.0274334373047"><ele>172.0</ele><time>2026-04-04T08:27:22.003Z</time></trkpt><trkpt lat="44.45107420443787" lon="9.027374710591443"><ele>165.66666666666669</ele><time>2026-04-04T08:27:25.003Z</time></trkpt><trkpt lat="44.451013254416075" lon="9.027338886245428"><ele>159.33333333333334</ele><time>2026-04-04T08:27:27Z</time></trkpt><trkpt lat="44.45093890203339" lon="9.027300087705733"><ele>153.0</ele><time>2026-04-04T08:27:30Z</time></trkpt><trkpt lat="44.45086672160484" lon="9.027244685746163"><ele>146.66666666666666</ele><time>2026-04-04T08:27:33Z</time></trkpt><trkpt lat="44.45078566104059" lon="9.02719486415756"><ele>140.33333333333331</ele><time>2026-04-04T08:27:36Z</time></trkpt><trkpt lat="44.45071704004039" lon="9.027137749591747"><ele>134.0</ele><time>2026-04-04T08:27:39Z</time></trkpt><trkpt lat="44.45068148299142" lon="9.02703766560039"><ele>134.0</ele><time>2026-04-04T08:27:42Z</time></trkpt><trkpt lat="44.45072074264374" lon="9.026934655884663"><ele>134.0</ele><time>2026-04-04T08:27:47Z</time></trkpt><trkpt lat="44.45079128820606" lon="9.026864473281504"><ele>134.0</ele><time>2026-04-04T08:27:51Z</time></trkpt><trkpt lat="44.45084314092299" lon="9.026806744231065"><ele>134.0</ele><time>2026-04-04T08:27:54Z</time></trkpt><trkpt lat="44.45092048563286" lon="9.026754776526278"><ele>134.0</ele><time>2026-04-04T08:27:57Z</time></trkpt><trkpt lat="44.4509848056294" lon="9.0266714497731"><ele>134.0</ele><time>2026-04-04T08:28:00Z</time></trkpt><trkpt lat="44.45103823858621" lon="9.026583317385414"><ele>131.66666666666666</ele><time>2026-04-04T08:28:03Z</time></trkpt><trkpt lat="44.45109655118459" lon="9.026511712958381"><ele>129.33333333333331</ele><time>2026-04-04T08:28:06Z</time></trkpt><trkpt lat="44.45115143230692" lon="9.026430426651405"><ele>127.0</ele><time>2026-04-04T08:28:09Z</time></trkpt><trkpt lat="44.451203095308976" lon="9.026351946127033"><ele>124.66666666666666</ele><time>2026-04-04T08:28:13.001Z</time></trkpt><trkpt lat="44.45123946383189" lon="9.026260407975293"><ele>122.33333333333333</ele><time>2026-04-04T08:28:22.001Z</time></trkpt><trkpt lat="44.45127690102027" lon="9.026164070950996"><ele>120.0</ele><time>2026-04-04T08:28:26.001Z</time></trkpt><trkpt lat="44.45131622421804" lon="9.026051741782881"><ele>126.57142857142858</ele><time>2026-04-04T08:28:30.001Z</time></trkpt><trkpt lat="44.451318741671514" lon="9.025952688588038"><ele>133.14285714285714</ele><time>2026-04-04T08:28:34.001Z</time></trkpt><trkpt lat="44.4513321935903" lon="9.025862797764143"><ele>139.71428571428572</ele><time>2026-04-04T08:28:37.001Z</time></trkpt><trkpt lat="44.45135353710488" lon="9.025750667506173"><ele>146.28571428571428</ele><time>2026-04-04T08:28:41.001Z</time></trkpt><trkpt lat="44.45137321837698" lon="9.02566330191175"><ele>152.85714285714286</ele><time>2026-04-04T08:28:44.001Z</time></trkpt><trkpt lat="44.451400132074866" lon="9.025569215303738"><ele>159.42857142857142</ele><time>2026-04-04T08:28:46.001Z</time></trkpt><trkpt lat="44.451409847453654" lon="9.025481161299682"><ele>166.0</ele><time>2026-04-04T08:28:48.001Z</time></trkpt><trkpt lat="44.45138945381663" lon="9.025384452650249"><ele>166.0</ele><time>2026-04-04T08:28:50.001Z</time></trkpt><trkpt lat="44.45136298732927" lon="9.025280723417431"><ele>166.0</ele><time>2026-04-04T08:28:52.001Z</time></trkpt><trkpt lat="44.45134367855352" lon="9.02518673823308"><ele>166.0</ele><time>2026-04-04T08:28:54.001Z</time></trkpt><trkpt lat="44.45130760356767" lon="9.025100529747263"><ele>166.0</ele><time>2026-04-04T08:28:56.002Z</time></trkpt><trkpt lat="44.451285851062266" lon="9.025014892341515"><ele>166.0</ele><time>2026-04-04T08:28:58.002Z</time></trkpt><trkpt lat="44.45125273158304" lon="9.024933775708083"><ele>166.0</ele><time>2026-04-04T08:29:00.002Z</time></trkpt><trkpt lat="44.45121205530474" lon="9.024851774423896"><ele>166.0</ele><time>2026-04-04T08:29:03.002Z</time></trkpt><trkpt lat="44.45117353228319" lon="9.024748802542737"><ele>159.85714285714286</ele><time>2026-04-04T08:29:06.002Z</time></trkpt><trkpt lat="44.45115470145713" lon="9.024655943258702"><ele>153.71428571428572</ele><time>2026-04-04T08:29:20.002Z</time></trkpt><trkpt lat="44.4511469810399" lon="9.024566686460238"><ele>147.57142857142858</ele><time>2026-04-04T08:29:27.002Z</time></trkpt><trkpt lat="44.45111850653767" lon="9.024469233180076"><ele>141.42857142857144</ele><time>2026-04-04T08:29:35.999Z</time></trkpt><trkpt lat="44.45109614382975" lon="9.024372763871842"><ele>135.28571428571428</ele><time>2026-04-04T08:31:35.003Z</time></trkpt><trkpt lat="44.45114470570769" lon="9.024293151468028"><ele>129.14285714285717</ele><time>2026-04-04T08:31:39.999Z</time></trkpt><trkpt lat="44.451189838523554" lon="9.024210866747778"><ele>123.00000000000001</ele><time>2026-04-04T08:31:43.999Z</time></trkpt><trkpt lat="44.45123949318171" lon="9.02414203620882"><ele>122.83333333333333</ele><time>2026-04-04T08:31:47Z</time></trkpt><trkpt lat="44.451303191508735" lon="9.024082633636612"><ele>122.66666666666666</ele><time>2026-04-04T08:31:50Z</time></trkpt><trkpt lat="44.45135390879697" lon="9.024022048700793"><ele>122.5</ele><time>2026-04-04T08:31:53Z</time></trkpt><trkpt lat="44.451362749265286" lon="9.023934595176561"><ele>122.33333333333333</ele><time>2026-04-04T08:31:56Z</time></trkpt><trkpt lat="44.45126691047084" lon="9.023885473576316"><ele>122.16666666666666</ele><time>2026-04-04T08:31:59Z</time></trkpt><trkpt lat="44.4512697945807" lon="9.023773332933201"><ele>122.0</ele><time>2026-04-04T08:32:02Z</time></trkpt><trkpt lat="44.451290777832504" lon="9.023654227328995"><ele>121.99999999999999</ele><time>2026-04-04T08:32:05Z</time></trkpt><trkpt lat="44.45131097085005" lon="9.023544497368865"><ele>122.0</ele><time>2026-04-04T08:32:08Z</time></trkpt><trkpt lat="44.45132054078247" lon="9.023432978109746"><ele>122.0</ele><time>2026-04-04T08:32:11Z</time></trkpt><trkpt lat="44.45127600786672" lon="9.0233383644297"><ele>122.0</ele><time>2026-04-04T08:32:14Z</time></trkpt><trkpt lat="44.4512178227183" lon="9.023254279914953"><ele>121.99999999999999</ele><time>2026-04-04T08:32:17Z</time></trkpt><trkpt lat="44.451192991917964" lon="9.023170459601365"><ele>122.0</ele><time>2026-04-04T08:32:19.001Z</time></trkpt><trkpt lat="44.451250015792745" lon="9.023109588089625"><ele>122.28571428571428</ele><time>2026-04-04T08:32:22.001Z</time></trkpt><trkpt lat="44.451294088823786" lon="9.023040548912737"><ele>122.57142857142857</ele><time>2026-04-04T08:32:26.001Z</time></trkpt><trkpt lat="44.45133921574781" lon="9.022975276112758"><ele>122.85714285714286</ele><time>2026-04-04T08:32:29.001Z</time></trkpt><trkpt lat="44.45139374736912" lon="9.022897148840608"><ele>123.14285714285714</ele><time>2026-04-04T08:32:32.001Z</time></trkpt><trkpt lat="44.451472428878496" lon="9.022879835750693"><ele>123.42857142857144</ele><time>2026-04-04T08:32:36.001Z</time></trkpt><trkpt lat="44.45154141376006" lon="9.022915762267743"><ele>123.71428571428572</ele><time>2026-04-04T08:32:39.001Z</time></trkpt><trkpt lat="44.45161184819638" lon="9.022956972393253"><ele>124.0</ele><time>2026-04-04T08:32:41.001Z</time></trkpt><trkpt lat="44.45168740493639" lon="9.022994220310725"><ele>124.0</ele><time>2026-04-04T08:32:45.001Z</time></trkpt><trkpt lat="44.45174595027171" lon="9.023036437239297"><ele>124.00000000000001</ele><time>2026-04-04T08:32:48.001Z</time></trkpt><trkpt lat="44.45182385239273" lon="9.023049726919002"><ele>124.0</ele><time>2026-04-04T08:32:52.001Z</time></trkpt><trkpt lat="44.4518683727706" lon="9.022961524273956"><ele>124.0</ele><time>2026-04-04T08:32:56.002Z</time></trkpt><trkpt lat="44.45193013414626" lon="9.022944169995789"><ele>124.00000000000001</ele><time>2026-04-04T08:32:59.002Z</time></trkpt><trkpt lat="44.45197396754908" lon="9.022857029387941"><ele>124.0</ele><time>2026-04-04T08:33:04.002Z</time></trkpt><trkpt lat="44.45204822490261" lon="9.022841093808484"><ele>124.0</ele><time>2026-04-04T08:33:10.002Z</time></trkpt><trkpt lat="44.45212170268954" lon="9.022906111875924"><ele>127.16666666666667</ele><time>2026-04-04T08:33:15.002Z</time></trkpt><trkpt lat="44.452189400636634" lon="9.022885165805206"><ele>130.33333333333334</ele><time>2026-04-04T08:33:18.002Z</time></trkpt><trkpt lat="44.45224917423395" lon="9.022835156543378"><ele>133.5</ele><time>2026-04-04T08:33:22.002Z</time></trkpt><trkpt lat="44.45230154945535" lon="9.022737462750944"><ele>136.66666666666666</ele><time>2026-04-04T08:33:25.002Z</time></trkpt><trkpt lat="44.45234323230725" lon="9.022637703878841"><ele>139.83333333333331</ele><time>2026-04-04T08:33:28.003Z</time></trkpt><trkpt lat="44.452383740765626" lon="9.022529266676024"><ele>143.0</ele><time>2026-04-04T08:33:31.003Z</time></trkpt><trkpt lat="44.4523996856077" lon="9.022430569171922"><ele>144.5</ele><time>2026-04-04T08:33:34.003Z</time></trkpt><trkpt lat="44.452410927993874" lon="9.02234238366166"><ele>146.0</ele><time>2026-04-04T08:33:37.003Z</time></trkpt><trkpt lat="44.45242965663489" lon="9.022240957959596"><ele>147.5</ele><time>2026-04-04T08:33:40.003Z</time></trkpt><trkpt lat="44.452426106753975" lon="9.022132893890264"><ele>149.0</ele><time>2026-04-04T08:33:43.003Z</time></trkpt><trkpt lat="44.45240600284702" lon="9.02201607926674"><ele>150.5</ele><time>2026-04-04T08:33:46Z</time></trkpt><trkpt lat="44.45237474261507" lon="9.021920553173482"><ele>152.0</ele><time>2026-04-04T08:33:49Z</time></trkpt><trkpt lat="44.452348381981956" lon="9.021823804937215"><ele>152.0</ele><time>2026-04-04T08:33:52Z</time></trkpt><trkpt lat="44.452324306041284" lon="9.021723593956757"><ele>152.0</ele><time>2026-04-04T08:33:55Z</time></trkpt><trkpt lat="44.45229057940031" lon="9.021624638127193"><ele>152.0</ele><time>2026-04-04T08:33:58Z</time></trkpt><trkpt lat="44.45226055134329" lon="9.021526965878676"><ele>152.0</ele><time>2026-04-04T08:34:01Z</time></trkpt><trkpt lat="44.45221637609648" lon="9.021439683970133"><ele>152.0</ele><time>2026-04-04T08:34:04Z</time></trkpt><trkpt lat="44.45217740040915" lon="9.021358011240407"><ele>152.0</ele><time>2026-04-04T08:34:07Z</time></trkpt><trkpt lat="44.45213481196473" lon="9.021277037591911"><ele>152.0</ele><time>2026-04-04T08:34:10Z</time></trkpt><trkpt lat="44.45209602503879" lon="9.021183816080516"><ele>148.16666666666666</ele><time>2026-04-04T08:34:13Z</time></trkpt><trkpt lat="44.45204946888798" lon="9.021100526006244"><ele>144.33333333333331</ele><time>2026-04-04T08:34:16Z</time></trkpt><trkpt lat="44.45201706489539" lon="9.02099863343551"><ele>140.5</ele><time>2026-04-04T08:34:19Z</time></trkpt><trkpt lat="44.45201149583321" lon="9.020878425803447"><ele>136.66666666666666</ele><time>2026-04-04T08:34:22.001Z</time></trkpt><trkpt lat="44.45201377785574" lon="9.020762336356333"><ele>132.83333333333334</ele><time>2026-04-04T08:34:25.001Z</time></trkpt><trkpt lat="44.45201016611855" lon="9.020644199768501"><ele>129.0</ele><time>2026-04-04T08:34:28.001Z</time></trkpt><trkpt lat="44.45200799983593" lon="9.02053030933419"><ele>129.0</ele><time>2026-04-04T08:34:31.001Z</time></trkpt><trkpt lat="44.45201249918298" lon="9.020412212985775"><ele>129.0</ele><time>2026-04-04T08:34:34.001Z</time></trkpt><trkpt lat="44.452008918643656" lon="9.02029903842541"><ele>129.0</ele><time>2026-04-04T08:34:37.001Z</time></trkpt><trkpt lat="44.45201420982111" lon="9.020175415670913"><ele>129.0</ele><time>2026-04-04T08:34:40.001Z</time></trkpt><trkpt lat="44.452008566007144" lon="9.020051585064742"><ele>129.0</ele><time>2026-04-04T08:34:43.001Z</time></trkpt><trkpt lat="44.45201513154212" lon="9.019929211197109"><ele>129.0</ele><time>2026-04-04T08:34:46.001Z</time></trkpt><trkpt lat="44.452021540688015" lon="9.019811907831073"><ele>128.33333333333334</ele><time>2026-04-04T08:34:49.001Z</time></trkpt><trkpt lat="44.45204151885672" lon="9.01972274680417"><ele>127.66666666666666</ele><time>2026-04-04T08:34:51.001Z</time></trkpt><trkpt lat="44.452084215849126" lon="9.01960929664618"><ele>127.0</ele><time>2026-04-04T08:34:54.001Z</time></trkpt><trkpt lat="44.452120677315285" lon="9.019535174172498"><ele>126.33333333333333</ele><time>2026-04-04T08:34:56.002Z</time></trkpt><trkpt lat="44.452160124281285" lon="9.019419583750027"><ele>125.66666666666666</ele><time>2026-04-04T08:34:59.002Z</time></trkpt><trkpt lat="44.45220444665978" lon="9.019319589021766"><ele>125.0</ele><time>2026-04-04T08:35:02.002Z</time></trkpt><trkpt lat="44.45223460649433" lon="9.019237072388663"><ele>129.0</ele><time>2026-04-04T08:35:04.002Z</time></trkpt><trkpt lat="44.452277461629066" lon="9.01912996272855"><ele>133.0</ele><time>2026-04-04T08:35:07.002Z</time></trkpt><trkpt lat="44.452316134575526" lon="9.019011240549668"><ele>137.0</ele><time>2026-04-04T08:35:10.002Z</time></trkpt><trkpt lat="44.452346382258234" lon="9.018887588662109"><ele>141.0</ele><time>2026-04-04T08:35:13.002Z</time></trkpt><trkpt lat="44.45239378389988" lon="9.018780414038666"><ele>145.0</ele><time>2026-04-04T08:35:16.002Z</time></trkpt><trkpt lat="44.4524377407491" lon="9.018685865565573"><ele>149.0</ele><time>2026-04-04T08:35:19.002Z</time></trkpt><trkpt lat="44.452452661333616" lon="9.01858275399479"><ele>149.0</ele><time>2026-04-04T08:36:08Z</time></trkpt><trkpt lat="44.4524158500192" lon="9.018482798727863"><ele>149.0</ele><time>2026-04-04T08:36:11Z</time></trkpt><trkpt lat="44.452386472181" lon="9.018384817251256"><ele>149.0</ele><time>2026-04-04T08:36:13Z</time></trkpt><trkpt lat="44.45235856141002" lon="9.018261018919764"><ele>149.0</ele><time>2026-04-04T08:36:15Z</time></trkpt><trkpt lat="44.45234442794434" lon="9.018131790540012"><ele>149.0</ele><time>2026-04-04T08:36:17Z</time></trkpt><trkpt lat="44.45233836179904" lon="9.017990164804184"><ele>149.0</ele><time>2026-04-04T08:36:19Z</time></trkpt><trkpt lat="44.45232971335148" lon="9.017844433224377"><ele>149.4</ele><time>2026-04-04T08:36:21Z</time></trkpt><trkpt lat="44.45232595957619" lon="9.017685197955764"><ele>149.8</ele><time>2026-04-04T08:36:23Z</time></trkpt><trkpt lat="44.45231731276607" lon="9.017516379904183"><ele>150.2</ele><time>2026-04-04T08:36:25Z</time></trkpt><trkpt lat="44.45231410249589" lon="9.017340808518833"><ele>150.6</ele><time>2026-04-04T08:36:27Z</time></trkpt><trkpt lat="44.452306184759685" lon="9.017248008853583"><ele>151.0</ele><time>2026-04-04T08:36:28Z</time></trkpt><trkpt lat="44.45228005159651" lon="9.017160455264937"><ele>151.2857142857143</ele><time>2026-04-04T08:36:29Z</time></trkpt><trkpt lat="44.45223926876098" lon="9.017081627350631"><ele>151.57142857142858</ele><time>2026-04-04T08:36:30Z</time></trkpt><trkpt lat="44.45218825280459" lon="9.017008747640098"><ele>151.85714285714286</ele><time>2026-04-04T08:36:31.001Z</time></trkpt><trkpt lat="44.45214030034201" lon="9.016934387737825"><ele>152.14285714285717</ele><time>2026-04-04T08:36:32.001Z</time></trkpt><trkpt lat="44.452092613414884" lon="9.016859214732685"><ele>152.42857142857144</ele><time>2026-04-04T08:36:33.001Z</time></trkpt><trkpt lat="44.452049485220954" lon="9.01678931781085"><ele>152.71428571428572</ele><time>2026-04-04T08:36:34.001Z</time></trkpt><trkpt lat="44.45199721481346" lon="9.016720971051639"><ele>153.0</ele><time>2026-04-04T08:36:35.001Z</time></trkpt><trkpt lat="44.45194822868545" lon="9.016657859375881"><ele>150.0</ele><time>2026-04-04T08:36:36.001Z</time></trkpt><trkpt lat="44.45190481693907" lon="9.016589270414404"><ele>147.0</ele><time>2026-04-04T08:36:37.001Z</time></trkpt><trkpt lat="44.45183703227558" lon="9.016477216465656"><ele>144.0</ele><time>2026-04-04T08:36:39.001Z</time></trkpt><trkpt lat="44.45180975998904" lon="9.016348356009193"><ele>141.0</ele><time>2026-04-04T08:36:41.001Z</time></trkpt><trkpt lat="44.451816972601314" lon="9.016240773493628"><ele>138.0</ele><time>2026-04-04T08:36:43.001Z</time></trkpt><trkpt lat="44.45187817170284" lon="9.01615003928825"><ele>135.0</ele><time>2026-04-04T08:36:45.001Z</time></trkpt><trkpt lat="44.451937572723395" lon="9.016062509644778"><ele>135.0</ele><time>2026-04-04T08:36:47.001Z</time></trkpt><trkpt lat="44.45198664738063" lon="9.015958478788143"><ele>135.0</ele><time>2026-04-04T08:36:49.001Z</time></trkpt><trkpt lat="44.45202055548449" lon="9.01584298217938"><ele>135.0</ele><time>2026-04-04T08:36:51.001Z</time></trkpt><trkpt lat="44.45205308621733" lon="9.015727850515654"><ele>135.0</ele><time>2026-04-04T08:36:53.001Z</time></trkpt><trkpt lat="44.452067017005014" lon="9.015594440001403"><ele>135.0</ele><time>2026-04-04T08:36:55.001Z</time></trkpt><trkpt lat="44.45203707026701" lon="9.01546093360533"><ele>135.5</ele><time>2026-04-04T08:36:57.001Z</time></trkpt><trkpt lat="44.45202091033607" lon="9.015348764319722"><ele>136.0</ele><time>2026-04-04T08:36:59.001Z</time></trkpt><trkpt lat="44.451992215898215" lon="9.015224566216162"><ele>136.5</ele><time>2026-04-04T08:37:01.001Z</time></trkpt><trkpt lat="44.45193482679847" lon="9.015128236490236"><ele>137.0</ele><time>2026-04-04T08:37:03.002Z</time></trkpt><trkpt lat="44.45186559063824" lon="9.015062300509483"><ele>137.5</ele><time>2026-04-04T08:37:05.002Z</time></trkpt><trkpt lat="44.451799485765314" lon="9.014992490662474"><ele>138.0</ele><time>2026-04-04T08:37:07.002Z</time></trkpt><trkpt lat="44.45173399683609" lon="9.014929378197932"><ele>140.0</ele><time>2026-04-04T08:37:09.002Z</time></trkpt><trkpt lat="44.45167699111136" lon="9.014843074196731"><ele>142.0</ele><time>2026-04-04T08:37:11.002Z</time></trkpt><trkpt lat="44.451647841389004" lon="9.014694722716222"><ele>144.0</ele><time>2026-04-04T08:37:13.002Z</time></trkpt><trkpt lat="44.45161805578674" lon="9.014567222038691"><ele>146.0</ele><time>2026-04-04T08:37:15.002Z</time></trkpt><trkpt lat="44.45156847817086" lon="9.014457572133889"><ele>148.0</ele><time>2026-04-04T08:37:17.002Z</time></trkpt><trkpt lat="44.45150342833557" lon="9.014365654794656"><ele>148.0</ele><time>2026-04-04T08:37:19.002Z</time></trkpt><trkpt lat="44.45149723625787" lon="9.014262344112154"><ele>148.0</ele><time>2026-04-04T08:37:21.002Z</time></trkpt><trkpt lat="44.45149455013111" lon="9.014151979679983"><ele>148.0</ele><time>2026-04-04T08:37:23.002Z</time></trkpt><trkpt lat="44.45148965903748" lon="9.014031930976927"><ele>148.0</ele><time>2026-04-04T08:37:25.002Z</time></trkpt><trkpt lat="44.45147081121063" lon="9.013925224254779"><ele>148.0</ele><time>2026-04-04T08:37:27.002Z</time></trkpt><trkpt lat="44.45148183845149" lon="9.013805814792638"><ele>148.0</ele><time>2026-04-04T08:37:30.002Z</time></trkpt><trkpt lat="44.45147669237781" lon="9.013672172442826"><ele>148.0</ele><time>2026-04-04T08:37:33.002Z</time></trkpt><trkpt lat="44.45147254138668" lon="9.013572344584542"><ele>148.0</ele><time>2026-04-04T08:37:35.003Z</time></trkpt><trkpt lat="44.45145384250169" lon="9.01347795637985"><ele>148.0</ele><time>2026-04-04T08:37:37.003Z</time></trkpt><trkpt lat="44.45143584353233" lon="9.013375212249153"><ele>148.0</ele><time>2026-04-04T08:37:39.003Z</time></trkpt><trkpt lat="44.45141645630193" lon="9.013272550964851"><ele>148.0</ele><time>2026-04-04T08:37:41.003Z</time></trkpt><trkpt lat="44.45140832543315" lon="9.013161080125602"><ele>148.0</ele><time>2026-04-04T08:37:43.003Z</time></trkpt><trkpt lat="44.451461242586454" lon="9.013053631100506"><ele>146.66666666666669</ele><time>2026-04-04T08:37:45.003Z</time></trkpt><trkpt lat="44.45151376162309" lon="9.0129582697641"><ele>145.33333333333334</ele><time>2026-04-04T08:37:47.003Z</time></trkpt><trkpt lat="44.4515608265696" lon="9.012862118149728"><ele>144.0</ele><time>2026-04-04T08:37:49.003Z</time></trkpt><trkpt lat="44.45160855123084" lon="9.012766408263541"><ele>142.66666666666666</ele><time>2026-04-04T08:37:51.003Z</time></trkpt><trkpt lat="44.4516710832941" lon="9.012682800742326"><ele>141.33333333333331</ele><time>2026-04-04T08:37:53.003Z</time></trkpt><trkpt lat="44.45173860900551" lon="9.012616553952213"><ele>140.0</ele><time>2026-04-04T08:37:55.003Z</time></trkpt><trkpt lat="44.45176662619074" lon="9.012532264931613"><ele>138.5</ele><time>2026-04-04T08:37:56.999Z</time></trkpt><trkpt lat="44.45177505736381" lon="9.012442217428607"><ele>137.0</ele><time>2026-04-04T08:38:01.999Z</time></trkpt><trkpt lat="44.451815488269034" lon="9.012333634327055"><ele>135.5</ele><time>2026-04-04T08:38:06Z</time></trkpt><trkpt lat="44.45185835362449" lon="9.012214852536722"><ele>134.0</ele><time>2026-04-04T08:38:09Z</time></trkpt><trkpt lat="44.45189243436034" lon="9.012121154278006"><ele>132.5</ele><time>2026-04-04T08:38:11Z</time></trkpt><trkpt lat="44.451925676043636" lon="9.012022162122637"><ele>131.0</ele><time>2026-04-04T08:38:13Z</time></trkpt><trkpt lat="44.4519541921003" lon="9.011921592065265"><ele>131.0</ele><time>2026-04-04T08:38:15Z</time></trkpt><trkpt lat="44.45198802852646" lon="9.01182000820042"><ele>131.0</ele><time>2026-04-04T08:38:17Z</time></trkpt><trkpt lat="44.45201952029288" lon="9.011715554029191"><ele>131.0</ele><time>2026-04-04T08:38:19Z</time></trkpt><trkpt lat="44.45206928722048" lon="9.011610231691368"><ele>131.0</ele><time>2026-04-04T08:38:21Z</time></trkpt><trkpt lat="44.4521398281928" lon="9.011510957989596"><ele>131.0</ele><time>2026-04-04T08:38:23Z</time></trkpt><trkpt lat="44.452206029244465" lon="9.011411495461754"><ele>131.0</ele><time>2026-04-04T08:38:25Z</time></trkpt><trkpt lat="44.45227012721689" lon="9.011335364672465"><ele>132.0</ele><time>2026-04-04T08:38:27Z</time></trkpt><trkpt lat="44.45235518160985" lon="9.011298461743303"><ele>133.0</ele><time>2026-04-04T08:38:30.001Z</time></trkpt><trkpt lat="44.452429878555144" lon="9.011222822091696"><ele>134.0</ele><time>2026-04-04T08:38:33.001Z</time></trkpt><trkpt lat="44.45249098610592" lon="9.011134148237694"><ele>135.0</ele><time>2026-04-04T08:38:36.001Z</time></trkpt><trkpt lat="44.45253497222398" lon="9.011042071442548"><ele>136.0</ele><time>2026-04-04T08:38:39.001Z</time></trkpt><trkpt lat="44.452558211344936" lon="9.010931657401567"><ele>137.0</ele><time>2026-04-04T08:38:42.001Z</time></trkpt><trkpt lat="44.45256506806384" lon="9.01080964219881"><ele>135.0</ele><time>2026-04-04T08:38:45.001Z</time></trkpt><trkpt lat="44.45262856599276" lon="9.010748847755345"><ele>133.0</ele><time>2026-04-04T08:38:47.001Z</time></trkpt><trkpt lat="44.452692764757046" lon="9.010645253222895"><ele>131.0</ele><time>2026-04-04T08:38:50.001Z</time></trkpt><trkpt lat="44.45273564749672" lon="9.010580130310382"><ele>129.0</ele><time>2026-04-04T08:38:52.001Z</time></trkpt><trkpt lat="44.45278432036609" lon="9.010500628100562"><ele>126.99999999999999</ele><time>2026-04-04T08:38:54.001Z</time></trkpt><trkpt lat="44.45283951167413" lon="9.010433339022354"><ele>125.0</ele><time>2026-04-04T08:38:56.001Z</time></trkpt><trkpt lat="44.452893181292346" lon="9.010361935618775"><ele>125.0</ele><time>2026-04-04T08:38:58.001Z</time></trkpt><trkpt lat="44.4529381620762" lon="9.01029471847268"><ele>125.0</ele><time>2026-04-04T08:39:00.002Z</time></trkpt><trkpt lat="44.45300683663684" lon="9.010213812043734"><ele>125.0</ele><time>2026-04-04T08:39:03.002Z</time></trkpt><trkpt lat="44.45307362120465" lon="9.010219517939348"><ele>125.0</ele><time>2026-04-04T08:39:05.002Z</time></trkpt><trkpt lat="44.4531412581634" lon="9.010264194234965"><ele>125.0</ele><time>2026-04-04T08:39:07.002Z</time></trkpt><trkpt lat="44.45319180873829" lon="9.0103307955866"><ele>125.0</ele><time>2026-04-04T08:39:09.002Z</time></trkpt><trkpt lat="44.45325318943107" lon="9.010387564283478"><ele>125.0</ele><time>2026-04-04T08:39:11.002Z</time></trkpt><trkpt lat="44.45332190096838" lon="9.010409800580863"><ele>125.28571428571428</ele><time>2026-04-04T08:39:13.002Z</time></trkpt><trkpt lat="44.453387845550424" lon="9.010398282310573"><ele>125.57142857142858</ele><time>2026-04-04T08:39:15.002Z</time></trkpt><trkpt lat="44.453454776154146" lon="9.010385147283147"><ele>125.85714285714286</ele><time>2026-04-04T08:39:17.002Z</time></trkpt><trkpt lat="44.45352273297562" lon="9.010418786871513"><ele>126.14285714285714</ele><time>2026-04-04T08:39:19.002Z</time></trkpt><trkpt lat="44.45359346302704" lon="9.010448877320245"><ele>126.42857142857142</ele><time>2026-04-04T08:39:21.002Z</time></trkpt><trkpt lat="44.45367914648401" lon="9.01049348815059"><ele>126.71428571428572</ele><time>2026-04-04T08:39:24.002Z</time></trkpt><trkpt lat="44.453735643996936" lon="9.010542818705735"><ele>127.0</ele><time>2026-04-04T08:39:26.002Z</time></trkpt><trkpt lat="44.45377543036222" lon="9.010619872219973"><ele>127.0</ele><time>2026-04-04T08:39:28.002Z</time></trkpt><trkpt lat="44.4537779437553" lon="9.010719245953043"><ele>127.0</ele><time>2026-04-04T08:39:30.002Z</time></trkpt><trkpt lat="44.453795322299335" lon="9.010807844221377"><ele>127.0</ele><time>2026-04-04T08:39:32.002Z</time></trkpt><trkpt lat="44.45385397208008" lon="9.010882166382046"><ele>127.0</ele><time>2026-04-04T08:39:35.003Z</time></trkpt><trkpt lat="44.45390588474688" lon="9.01098384597792"><ele>127.0</ele><time>2026-04-04T08:39:38.003Z</time></trkpt><trkpt lat="44.45393768611052" lon="9.011064178606485"><ele>127.0</ele><time>2026-04-04T08:39:41.003Z</time></trkpt><trkpt lat="44.45399282113404" lon="9.011122353049107"><ele>127.0</ele><time>2026-04-04T08:39:44.003Z</time></trkpt><trkpt lat="44.45405375309857" lon="9.011151871543799"><ele>128.0</ele><time>2026-04-04T08:39:46.003Z</time></trkpt><trkpt lat="44.454136072699804" lon="9.011192670063245"><ele>129.0</ele><time>2026-04-04T08:39:49.003Z</time></trkpt><trkpt lat="44.454213676412024" lon="9.011254951161348"><ele>130.0</ele><time>2026-04-04T08:39:52.003Z</time></trkpt><trkpt lat="44.454293314953354" lon="9.011266948867297"><ele>131.0</ele><time>2026-04-04T08:39:55.003Z</time></trkpt><trkpt lat="44.45438355286471" lon="9.011280697205933"><ele>132.0</ele><time>2026-04-04T08:39:58.003Z</time></trkpt><trkpt lat="44.45444673909867" lon="9.011282987467435"><ele>133.0</ele><time>2026-04-04T08:40:00.003Z</time></trkpt><trkpt lat="44.45454062916314" lon="9.011301022947663"><ele>133.33333333333334</ele><time>2026-04-04T08:40:02.999Z</time></trkpt><trkpt lat="44.4546246812472" lon="9.011308025496081"><ele>133.66666666666669</ele><time>2026-04-04T08:40:05.999Z</time></trkpt><trkpt lat="44.45469542680346" lon="9.011304098237158"><ele>134.0</ele><time>2026-04-04T08:40:08.999Z</time></trkpt><trkpt lat="44.45478787831132" lon="9.011209863050832"><ele>134.33333333333334</ele><time>2026-04-04T08:40:11.999Z</time></trkpt><trkpt lat="44.454833421736495" lon="9.011117560515629"><ele>134.66666666666666</ele><time>2026-04-04T08:40:13.999Z</time></trkpt><trkpt lat="44.4548834945395" lon="9.011050971717285"><ele>135.0</ele><time>2026-04-04T08:40:15.999Z</time></trkpt><trkpt lat="44.4549269658982" lon="9.010968797479327"><ele>135.0</ele><time>2026-04-04T08:40:18Z</time></trkpt><trkpt lat="44.455000342573335" lon="9.010888943258587"><ele>135.0</ele><time>2026-04-04T08:40:21Z</time></trkpt><trkpt lat="44.455076060882085" lon="9.010848273482136"><ele>135.0</ele><time>2026-04-04T08:40:24Z</time></trkpt><trkpt lat="44.45514443763179" lon="9.010835382398378"><ele>135.0</ele><time>2026-04-04T08:40:26Z</time></trkpt><trkpt lat="44.45522766542455" lon="9.010825239399583"><ele>135.0</ele><time>2026-04-04T08:40:28Z</time></trkpt><trkpt lat="44.45529648993748" lon="9.010784528788733"><ele>135.0</ele><time>2026-04-04T08:40:31Z</time></trkpt><trkpt lat="44.45536645174306" lon="9.010704139530523"><ele>134.0</ele><time>2026-04-04T08:40:35Z</time></trkpt><trkpt lat="44.45541029981924" lon="9.010609643134554"><ele>133.0</ele><time>2026-04-04T08:40:37Z</time></trkpt><trkpt lat="44.45545837767708" lon="9.010513521329477"><ele>132.0</ele><time>2026-04-04T08:40:39.001Z</time></trkpt><trkpt lat="44.455507203101405" lon="9.010431909004"><ele>131.0</ele><time>2026-04-04T08:40:41.001Z</time></trkpt><trkpt lat="44.455546577361844" lon="9.010345314358121"><ele>130.0</ele><time>2026-04-04T08:40:43.001Z</time></trkpt><trkpt lat="44.45559109031616" lon="9.010264841817564"><ele>129.0</ele><time>2026-04-04T08:40:45.001Z</time></trkpt><trkpt lat="44.4556393413354" lon="9.010177070306305"><ele>129.0</ele><time>2026-04-04T08:40:47.001Z</time></trkpt><trkpt lat="44.455683895877314" lon="9.010098770153215"><ele>129.0</ele><time>2026-04-04T08:40:49.001Z</time></trkpt><trkpt lat="44.45572679452053" lon="9.010016572224504"><ele>129.0</ele><time>2026-04-04T08:40:51.001Z</time></trkpt><trkpt lat="44.45577229742673" lon="9.009945971905466"><ele>129.0</ele><time>2026-04-04T08:40:53.001Z</time></trkpt><trkpt lat="44.45579747363703" lon="9.009849728942932"><ele>129.0</ele><time>2026-04-04T08:40:55.001Z</time></trkpt><trkpt lat="44.4557620189025" lon="9.009756426437752"><ele>129.0</ele><time>2026-04-04T08:40:57.001Z</time></trkpt><trkpt lat="44.45574795562911" lon="9.009623042000959"><ele>130.57142857142856</ele><time>2026-04-04T08:41:00.001Z</time></trkpt><trkpt lat="44.455728710023806" lon="9.009527123085064"><ele>132.14285714285714</ele><time>2026-04-04T08:41:02.001Z</time></trkpt><trkpt lat="44.45570287315368" lon="9.00943981987591"><ele>133.71428571428572</ele><time>2026-04-04T08:41:04.001Z</time></trkpt><trkpt lat="44.45572351842565" lon="9.009349296915598"><ele>135.28571428571428</ele><time>2026-04-04T08:41:13.002Z</time></trkpt><trkpt lat="44.4557550818025" lon="9.009258331167983"><ele>136.85714285714286</ele><time>2026-04-04T08:41:26.002Z</time></trkpt><trkpt lat="44.45576119228172" lon="9.009153273217773"><ele>138.42857142857142</ele><time>2026-04-04T08:41:30.002Z</time></trkpt><trkpt lat="44.45577295737026" lon="9.009053209077544"><ele>140.0</ele><time>2026-04-04T08:41:33.002Z</time></trkpt><trkpt lat="44.455776007071826" lon="9.00895987570127"><ele>141.83333333333331</ele><time>2026-04-04T08:41:35.002Z</time></trkpt><trkpt lat="44.455738633346016" lon="9.008840485147873"><ele>143.66666666666666</ele><time>2026-04-04T08:41:38.002Z</time></trkpt><trkpt lat="44.45569402348341" lon="9.008733251467502"><ele>145.5</ele><time>2026-04-04T08:41:41.003Z</time></trkpt><trkpt lat="44.45568059075075" lon="9.00863753231666"><ele>147.33333333333334</ele><time>2026-04-04T08:41:43.003Z</time></trkpt><trkpt lat="44.455664807867684" lon="9.008537998836939"><ele>149.16666666666669</ele><time>2026-04-04T08:41:45.003Z</time></trkpt><trkpt lat="44.45564277834693" lon="9.008448979626802"><ele>151.0</ele><time>2026-04-04T08:41:47.003Z</time></trkpt><trkpt lat="44.45561288958949" lon="9.008338856283274"><ele>152.66666666666669</ele><time>2026-04-04T08:41:50.003Z</time></trkpt><trkpt lat="44.45559431156045" lon="9.008212953821136"><ele>154.33333333333334</ele><time>2026-04-04T08:41:53.003Z</time></trkpt><trkpt lat="44.455557002205545" lon="9.00808834477312"><ele>156.0</ele><time>2026-04-04T08:41:56.003Z</time></trkpt><trkpt lat="44.45552912652085" lon="9.008006840124409"><ele>157.66666666666666</ele><time>2026-04-04T08:41:58.003Z</time></trkpt><trkpt lat="44.455504434198296" lon="9.007896949254357"><ele>159.33333333333331</ele><time>2026-04-04T08:42:01.003Z</time></trkpt><trkpt lat="44.4554891746489" lon="9.007773694431654"><ele>161.0</ele><time>2026-04-04T08:42:04.003Z</time></trkpt><trkpt lat="44.455475005659174" lon="9.007636270576102"><ele>161.0</ele><time>2026-04-04T08:42:07.003Z</time></trkpt><trkpt lat="44.45549664277579" lon="9.007527466468792"><ele>161.0</ele><time>2026-04-04T08:42:08.999Z</time></trkpt><trkpt lat="44.45553295117555" lon="9.007445659708317"><ele>161.0</ele><time>2026-04-04T08:42:10.999Z</time></trkpt><trkpt lat="44.45556437552552" lon="9.007366230412861"><ele>161.0</ele><time>2026-04-04T08:42:12.999Z</time></trkpt><trkpt lat="44.455602730972686" lon="9.0072848016724"><ele>161.0</ele><time>2026-04-04T08:42:14.999Z</time></trkpt><trkpt lat="44.45564194179695" lon="9.007215092369195"><ele>161.0</ele><time>2026-04-04T08:42:16.999Z</time></trkpt><trkpt lat="44.45567310744927" lon="9.007134287612885"><ele>161.0</ele><time>2026-04-04T08:42:19.999Z</time></trkpt><trkpt lat="44.45564422295693" lon="9.00703942190425"><ele>162.5</ele><time>2026-04-04T08:42:23.999Z</time></trkpt><trkpt lat="44.45556961435353" lon="9.0069791195472"><ele>164.0</ele><time>2026-04-04T08:42:27Z</time></trkpt><trkpt lat="44.455508007643466" lon="9.006943846997402"><ele>165.5</ele><time>2026-04-04T08:42:29Z</time></trkpt><trkpt lat="44.45541671569278" lon="9.006936956582535"><ele>167.0</ele><time>2026-04-04T08:42:32Z</time></trkpt><trkpt lat="44.45533261151848" lon="9.006961261790025"><ele>168.5</ele><time>2026-04-04T08:42:35Z</time></trkpt><trkpt lat="44.45524493623097" lon="9.006976751828903"><ele>170.0</ele><time>2026-04-04T08:42:38Z</time></trkpt><trkpt lat="44.45517617439502" lon="9.00698547422151"><ele>166.0</ele><time>2026-04-04T08:42:40Z</time></trkpt><trkpt lat="44.45509034104946" lon="9.006976122619754"><ele>162.0</ele><time>2026-04-04T08:42:43Z</time></trkpt><trkpt lat="44.45500551694811" lon="9.006955521062212"><ele>158.0</ele><time>2026-04-04T08:42:46Z</time></trkpt><trkpt lat="44.45492692792653" lon="9.006893883451415"><ele>154.0</ele><time>2026-04-04T08:42:49.001Z</time></trkpt><trkpt lat="44.45486525342041" lon="9.006816020445191"><ele>150.0</ele><time>2026-04-04T08:42:52.001Z</time></trkpt><trkpt lat="44.45479166465335" lon="9.006858879682483"><ele>146.0</ele><time>2026-04-04T08:42:56.001Z</time></trkpt><trkpt lat="44.45474231514347" lon="9.006914676295176"><ele>146.0</ele><time>2026-04-04T08:42:58.001Z</time></trkpt><trkpt lat="44.45468805575299" lon="9.006966729237995"><ele>146.0</ele><time>2026-04-04T08:43:00.001Z</time></trkpt><trkpt lat="44.45461384102317" lon="9.00703049044237"><ele>146.0</ele><time>2026-04-04T08:43:03.001Z</time></trkpt><trkpt lat="44.45453042194075" lon="9.007001198662778"><ele>146.0</ele><time>2026-04-04T08:43:06.001Z</time></trkpt><trkpt lat="44.45446964529934" lon="9.00696451428489"><ele>146.0</ele><time>2026-04-04T08:43:08.001Z</time></trkpt><trkpt lat="44.45441050322746" lon="9.006928690587394"><ele>146.0</ele><time>2026-04-04T08:43:10.001Z</time></trkpt><trkpt lat="44.454350440775656" lon="9.006895654219433"><ele>146.0</ele><time>2026-04-04T08:43:12.001Z</time></trkpt><trkpt lat="44.45428777173938" lon="9.006859000540196"><ele>145.0</ele><time>2026-04-04T08:43:14.001Z</time></trkpt><trkpt lat="44.45422484735204" lon="9.006819524679846"><ele>144.0</ele><time>2026-04-04T08:43:16.001Z</time></trkpt><trkpt lat="44.45414201969035" lon="9.00676900452126"><ele>143.0</ele><time>2026-04-04T08:43:19.002Z</time></trkpt><trkpt lat="44.45407386055637" lon="9.006737809215483"><ele>142.0</ele><time>2026-04-04T08:43:22.002Z</time></trkpt><trkpt lat="44.45401395089647" lon="9.006825340737654"><ele>141.0</ele><time>2026-04-04T08:43:25.002Z</time></trkpt><trkpt lat="44.45398819096279" lon="9.006907342767123"><ele>140.0</ele><time>2026-04-04T08:43:27.002Z</time></trkpt><trkpt lat="44.453925982887" lon="9.006968137875479"><ele>140.0</ele><time>2026-04-04T08:43:30.002Z</time></trkpt><trkpt lat="44.45386281855186" lon="9.006969878859744"><ele>140.0</ele><time>2026-04-04T08:43:32.002Z</time></trkpt><trkpt lat="44.45379212987276" lon="9.00696428745209"><ele>140.0</ele><time>2026-04-04T08:43:34.002Z</time></trkpt><trkpt lat="44.453728653901976" lon="9.006967151596534"><ele>140.0</ele><time>2026-04-04T08:43:36.002Z</time></trkpt><trkpt lat="44.45364895457613" lon="9.006993362383517"><ele>140.0</ele><time>2026-04-04T08:43:38.002Z</time></trkpt><trkpt lat="44.45357545796689" lon="9.007010307485444"><ele>140.0</ele><time>2026-04-04T08:43:40.002Z</time></trkpt><trkpt lat="44.45348958176015" lon="9.00703150575261"><ele>140.0</ele><time>2026-04-04T08:43:43.002Z</time></trkpt><trkpt lat="44.45340560208656" lon="9.007038968024615"><ele>140.0</ele><time>2026-04-04T08:43:46.002Z</time></trkpt><trkpt lat="44.45333402114879" lon="9.007030120930878"><ele>140.0</ele><time>2026-04-04T08:43:49.002Z</time></trkpt><trkpt lat="44.45326467352828" lon="9.006944455809714"><ele>140.0</ele><time>2026-04-04T08:43:52.003Z</time></trkpt><trkpt lat="44.453199082903176" lon="9.00686656880662"><ele>140.0</ele><time>2026-04-04T08:43:55.003Z</time></trkpt><trkpt lat="44.45315743122434" lon="9.006784700977724"><ele>140.0</ele><time>2026-04-04T08:43:57.003Z</time></trkpt><trkpt lat="44.453121202745685" lon="9.006702053559222"><ele>140.0</ele><time>2026-04-04T08:43:59.003Z</time></trkpt><trkpt lat="44.453105953193976" lon="9.006605847118866"><ele>138.66666666666666</ele><time>2026-04-04T08:44:01.003Z</time></trkpt><trkpt lat="44.45310634296673" lon="9.006516354997583"><ele>137.33333333333331</ele><time>2026-04-04T08:44:03.003Z</time></trkpt><trkpt lat="44.45308164869594" lon="9.006392405639684"><ele>136.0</ele><time>2026-04-04T08:44:06.003Z</time></trkpt><trkpt lat="44.4530395739209" lon="9.006321162762518"><ele>134.66666666666666</ele><time>2026-04-04T08:44:08.003Z</time></trkpt><trkpt lat="44.45297468283635" lon="9.006234309893593"><ele>133.33333333333334</ele><time>2026-04-04T08:44:11.003Z</time></trkpt><trkpt lat="44.4529309783058" lon="9.006138863012417"><ele>132.0</ele><time>2026-04-04T08:44:14.003Z</time></trkpt><trkpt lat="44.45290041557218" lon="9.006053469563886"><ele>132.0</ele><time>2026-04-04T08:44:16.998Z</time></trkpt><trkpt lat="44.45289699153898" lon="9.00596321142059"><ele>132.0</ele><time>2026-04-04T08:44:19.999Z</time></trkpt><trkpt lat="44.45288068837834" lon="9.005876651138989"><ele>132.0</ele><time>2026-04-04T08:44:22.999Z</time></trkpt><trkpt lat="44.45286266996727" lon="9.00578270642859"><ele>132.0</ele><time>2026-04-04T08:44:26.999Z</time></trkpt><trkpt lat="44.45288162137044" lon="9.005688438003235"><ele>132.0</ele><time>2026-04-04T08:44:30.999Z</time></trkpt><trkpt lat="44.45286152172868" lon="9.005594661888773"><ele>132.0</ele><time>2026-04-04T08:44:35Z</time></trkpt><trkpt lat="44.45286808681166" lon="9.005495227158818"><ele>132.0</ele><time>2026-04-04T08:44:40Z</time></trkpt><trkpt lat="44.45281722514762" lon="9.005417614130998"><ele>133.16666666666666</ele><time>2026-04-04T08:44:46Z</time></trkpt><trkpt lat="44.452743154490385" lon="9.005369526745215"><ele>134.33333333333334</ele><time>2026-04-04T08:44:50Z</time></trkpt><trkpt lat="44.45267872262237" lon="9.00533858791269"><ele>135.5</ele><time>2026-04-04T08:44:52.001Z</time></trkpt><trkpt lat="44.45260525851098" lon="9.005296199538975"><ele>136.66666666666669</ele><time>2026-04-04T08:44:53.001Z</time></trkpt><trkpt lat="44.45255444654989" lon="9.005208912153138"><ele>137.83333333333334</ele><time>2026-04-04T08:44:56.001Z</time></trkpt><trkpt lat="44.45250641514956" lon="9.005105319964489"><ele>139.0</ele><time>2026-04-04T08:44:57.001Z</time></trkpt><trkpt lat="44.45246644337675" lon="9.004991362695527"><ele>139.5</ele><time>2026-04-04T08:44:59.001Z</time></trkpt><trkpt lat="44.45242923890922" lon="9.00487035280555"><ele>140.0</ele><time>2026-04-04T08:45:01.001Z</time></trkpt><trkpt lat="44.45238927852354" lon="9.004749962695195"><ele>140.5</ele><time>2026-04-04T08:45:03.001Z</time></trkpt><trkpt lat="44.45235526236398" lon="9.004634519365684"><ele>141.0</ele><time>2026-04-04T08:45:05.001Z</time></trkpt><trkpt lat="44.452322957070166" lon="9.004522924957241"><ele>141.5</ele><time>2026-04-04T08:45:07.001Z</time></trkpt><trkpt lat="44.45228718605271" lon="9.004444015363081"><ele>142.0</ele><time>2026-04-04T08:45:09.001Z</time></trkpt><trkpt lat="44.45222646197644" lon="9.004393629618932"><ele>142.0</ele><time>2026-04-04T08:45:12.001Z</time></trkpt><trkpt lat="44.452135074296386" lon="9.004373584386647"><ele>142.0</ele><time>2026-04-04T08:45:15.001Z</time></trkpt><trkpt lat="44.45207689160388" lon="9.004314348182287"><ele>142.0</ele><time>2026-04-04T08:47:18.001Z</time></trkpt><trkpt lat="44.45203823237233" lon="9.004206355488417"><ele>142.0</ele><time>2026-04-04T08:47:22.001Z</time></trkpt><trkpt lat="44.45201419558646" lon="9.004094676326634"><ele>142.0</ele><time>2026-04-04T08:47:26.002Z</time></trkpt><trkpt lat="44.45200024319692" lon="9.004005267979272"><ele>142.0</ele><time>2026-04-04T08:47:29.002Z</time></trkpt><trkpt lat="44.45199610917405" lon="9.00390666112532"><ele>142.42857142857142</ele><time>2026-04-04T08:47:32.002Z</time></trkpt><trkpt lat="44.4520203261347" lon="9.003816934708793"><ele>142.85714285714283</ele><time>2026-04-04T08:47:35.002Z</time></trkpt><trkpt lat="44.45205259860432" lon="9.003734896643335"><ele>143.28571428571428</ele><time>2026-04-04T08:47:38.002Z</time></trkpt><trkpt lat="44.45210711890014" lon="9.003681382852685"><ele>143.71428571428572</ele><time>2026-04-04T08:47:41.002Z</time></trkpt><trkpt lat="44.45216905318028" lon="9.00365083536917"><ele>144.14285714285717</ele><time>2026-04-04T08:47:44.002Z</time></trkpt><trkpt lat="44.452252527778704" lon="9.003660992407264"><ele>144.57142857142858</ele><time>2026-04-04T08:47:48.002Z</time></trkpt><trkpt lat="44.45232652756181" lon="9.003721896840997"><ele>145.0</ele><time>2026-04-04T08:47:52.002Z</time></trkpt><trkpt lat="44.45236649045471" lon="9.00379040408063"><ele>145.0</ele><time>2026-04-04T08:47:55.002Z</time></trkpt><trkpt lat="44.45239321023727" lon="9.003875743343157"><ele>145.0</ele><time>2026-04-04T08:47:58.003Z</time></trkpt><trkpt lat="44.452412956018165" lon="9.003969110450033"><ele>145.0</ele><time>2026-04-04T08:48:01.003Z</time></trkpt><trkpt lat="44.45243627456635" lon="9.0040568286828"><ele>145.0</ele><time>2026-04-04T08:48:04.003Z</time></trkpt><trkpt lat="44.45246371047321" lon="9.004149406085306"><ele>145.0</ele><time>2026-04-04T08:48:07.003Z</time></trkpt><trkpt lat="44.45248575673088" lon="9.00425402919967"><ele>145.0</ele><time>2026-04-04T08:48:10.003Z</time></trkpt><trkpt lat="44.452517833188374" lon="9.004349174496273"><ele>145.0</ele><time>2026-04-04T08:48:13.003Z</time></trkpt><trkpt lat="44.45253532571367" lon="9.004453380036885"><ele>144.5</ele><time>2026-04-04T08:48:16.003Z</time></trkpt><trkpt lat="44.452559922314045" lon="9.004565165332986"><ele>144.0</ele><time>2026-04-04T08:48:19.003Z</time></trkpt><trkpt lat="44.45258852072654" lon="9.004676023959806"><ele>143.5</ele><time>2026-04-04T08:48:22.003Z</time></trkpt><trkpt lat="44.452618832533915" lon="9.00479049799004"><ele>143.0</ele><time>2026-04-04T08:48:25.003Z</time></trkpt><trkpt lat="44.452650626317904" lon="9.004901879486054"><ele>142.5</ele><time>2026-04-04T08:48:27.999Z</time></trkpt><trkpt lat="44.45268779554563" lon="9.005009305366642"><ele>142.0</ele><time>2026-04-04T08:48:30.999Z</time></trkpt><trkpt lat="44.45273853751232" lon="9.005115976548254"><ele>141.5</ele><time>2026-04-04T08:48:33.999Z</time></trkpt><trkpt lat="44.452792678400755" lon="9.005210722320276"><ele>141.0</ele><time>2026-04-04T08:48:36.999Z</time></trkpt><trkpt lat="44.452840143096125" lon="9.005269769232266"><ele>140.5</ele><time>2026-04-04T08:48:38.999Z</time></trkpt><trkpt lat="44.45289763822299" lon="9.005369460108236"><ele>140.0</ele><time>2026-04-04T08:48:41.999Z</time></trkpt><trkpt lat="44.45294072703423" lon="9.00543466207258"><ele>139.5</ele><time>2026-04-04T08:48:44Z</time></trkpt><trkpt lat="44.45301240751953" lon="9.005517179298899"><ele>139.0</ele><time>2026-04-04T08:48:47Z</time></trkpt><trkpt lat="44.453070815749996" lon="9.00561235659969"><ele>140.83333333333334</ele><time>2026-04-04T08:48:50Z</time></trkpt><trkpt lat="44.45313021616996" lon="9.005705038054968"><ele>142.66666666666669</ele><time>2026-04-04T08:48:53Z</time></trkpt><trkpt lat="44.453188637143356" lon="9.005791086137544"><ele>144.5</ele><time>2026-04-04T08:48:56Z</time></trkpt><trkpt lat="44.45323687735719" lon="9.005873371448562"><ele>146.33333333333334</ele><time>2026-04-04T08:48:59Z</time></trkpt><trkpt lat="44.45328038859701" lon="9.00595158964528"><ele>148.16666666666666</ele><time>2026-04-04T08:49:02Z</time></trkpt><trkpt lat="44.453329579378824" lon="9.006027107866686"><ele>150.0</ele><time>2026-04-04T08:49:05.001Z</time></trkpt><trkpt lat="44.45337157813338" lon="9.006104894207493"><ele>149.99999999999997</ele><time>2026-04-04T08:49:08.001Z</time></trkpt><trkpt lat="44.45341575175812" lon="9.0061811085167"><ele>150.0</ele><time>2026-04-04T08:49:11.001Z</time></trkpt><trkpt lat="44.453461948334166" lon="9.006245502323802"><ele>150.0</ele><time>2026-04-04T08:49:14.001Z</time></trkpt><trkpt lat="44.453503414429115" lon="9.006315056645276"><ele>150.0</ele><time>2026-04-04T08:49:17.001Z</time></trkpt><trkpt lat="44.45355695140019" lon="9.006364161708799"><ele>150.0</ele><time>2026-04-04T08:49:20.001Z</time></trkpt><trkpt lat="44.453627218996274" lon="9.00641932332542"><ele>149.99999999999997</ele><time>2026-04-04T08:49:24.001Z</time></trkpt><trkpt lat="44.45369191494749" lon="9.006431012455456"><ele>150.0</ele><time>2026-04-04T08:49:27.001Z</time></trkpt><trkpt lat="44.453755190277015" lon="9.006420439851269"><ele>150.85714285714283</ele><time>2026-04-04T08:49:30.001Z</time></trkpt><trkpt lat="44.453817852808854" lon="9.006385341327348"><ele>151.71428571428572</ele><time>2026-04-04T08:49:33.002Z</time></trkpt><trkpt lat="44.45388078143136" lon="9.006341669762042"><ele>152.57142857142856</ele><time>2026-04-04T08:49:36.002Z</time></trkpt><trkpt lat="44.453941394841166" lon="9.006297747811507"><ele>153.42857142857142</ele><time>2026-04-04T08:49:39.002Z</time></trkpt><trkpt lat="44.4539981519974" lon="9.006249411252217"><ele>154.28571428571428</ele><time>2026-04-04T08:49:42.002Z</time></trkpt><trkpt lat="44.45405872987111" lon="9.006170685307284"><ele>155.14285714285714</ele><time>2026-04-04T08:49:46.002Z</time></trkpt><trkpt lat="44.4541050856687" lon="9.006108122819708"><ele>156.0</ele><time>2026-04-04T08:49:49.002Z</time></trkpt><trkpt lat="44.45414988012574" lon="9.006041455777059"><ele>156.0</ele><time>2026-04-04T08:49:52.002Z</time></trkpt><trkpt lat="44.454202590417914" lon="9.00598045578188"><ele>156.0</ele><time>2026-04-04T08:49:55.002Z</time></trkpt><trkpt lat="44.45426240555185" lon="9.005898853615076"><ele>156.0</ele><time>2026-04-04T08:49:59.002Z</time></trkpt><trkpt lat="44.454270721543836" lon="9.005788672069365"><ele>156.0</ele><time>2026-04-04T08:50:03.002Z</time></trkpt><trkpt lat="44.45425546095726" lon="9.005702237528027"><ele>156.0</ele><time>2026-04-04T08:50:06.003Z</time></trkpt><trkpt lat="44.45425835987529" lon="9.005590203734704"><ele>156.0</ele><time>2026-04-04T08:50:10.003Z</time></trkpt><trkpt lat="44.45423781222366" lon="9.00549237816094"><ele>156.0</ele><time>2026-04-04T08:50:14.003Z</time></trkpt><trkpt lat="44.45418621459359" lon="9.005403737027416"><ele>156.85714285714286</ele><time>2026-04-04T08:50:18.003Z</time></trkpt><trkpt lat="44.454143507809206" lon="9.005308430799394"><ele>157.7142857142857</ele><time>2026-04-04T08:50:22.003Z</time></trkpt><trkpt lat="44.4540847687411" lon="9.005256140089815"><ele>158.57142857142856</ele><time>2026-04-04T08:50:26.003Z</time></trkpt><trkpt lat="44.454044168223945" lon="9.005163345081415"><ele>159.42857142857144</ele><time>2026-04-04T08:50:30.003Z</time></trkpt><trkpt lat="44.45400374942584" lon="9.005088195166277"><ele>160.28571428571428</ele><time>2026-04-04T08:50:32.998Z</time></trkpt><trkpt lat="44.45394289014274" lon="9.005004674864661"><ele>161.14285714285714</ele><time>2026-04-04T08:50:36.999Z</time></trkpt><trkpt lat="44.45390392483524" lon="9.00493037796804"><ele>162.0</ele><time>2026-04-04T08:50:39.999Z</time></trkpt><trkpt lat="44.453866813769096" lon="9.004846565950203"><ele>161.66666666666666</ele><time>2026-04-04T08:50:42.999Z</time></trkpt><trkpt lat="44.45384664185583" lon="9.004747106161828"><ele>161.33333333333334</ele><time>2026-04-04T08:50:45.999Z</time></trkpt><trkpt lat="44.45383003187344" lon="9.00465114625753"><ele>161.0</ele><time>2026-04-04T08:50:48.999Z</time></trkpt><trkpt lat="44.45380516947893" lon="9.0045519176107"><ele>160.66666666666669</ele><time>2026-04-04T08:50:52Z</time></trkpt><trkpt lat="44.45377718629567" lon="9.004451554115493"><ele>160.33333333333334</ele><time>2026-04-04T08:50:55Z</time></trkpt><trkpt lat="44.453757632628225" lon="9.00434870948865"><ele>160.0</ele><time>2026-04-04T08:50:58Z</time></trkpt><trkpt lat="44.45372524083023" lon="9.004244426659362"><ele>161.0</ele><time>2026-04-04T08:51:01Z</time></trkpt><trkpt lat="44.453698689894594" lon="9.004158212162222"><ele>162.0</ele><time>2026-04-04T08:51:04Z</time></trkpt><trkpt lat="44.45368316450723" lon="9.004071255888471"><ele>163.0</ele><time>2026-04-04T08:52:41.998Z</time></trkpt><trkpt lat="44.45371598580607" lon="9.003979549602398"><ele>164.0</ele><time>2026-04-04T08:52:45.999Z</time></trkpt><trkpt lat="44.453765249380915" lon="9.003907838771608"><ele>165.0</ele><time>2026-04-04T08:52:49.999Z</time></trkpt><trkpt lat="44.45380079269336" lon="9.003816285944845"><ele>166.0</ele><time>2026-04-04T08:52:53.999Z</time></trkpt><trkpt lat="44.45378357894053" lon="9.003729435387687"><ele>167.0</ele><time>2026-04-04T08:52:57.999Z</time></trkpt><trkpt lat="44.453758837468776" lon="9.003639818932617"><ele>167.0</ele><time>2026-04-04T08:53:02Z</time></trkpt><trkpt lat="44.45374671814282" lon="9.00353958933971"><ele>167.0</ele><time>2026-04-04T08:53:07Z</time></trkpt><trkpt lat="44.45373472197563" lon="9.00345260273283"><ele>167.0</ele><time>2026-04-04T08:53:11Z</time></trkpt><trkpt lat="44.45371353976262" lon="9.003359978445108"><ele>167.0</ele><time>2026-04-04T08:53:16Z</time></trkpt><trkpt lat="44.45370630904627" lon="9.003259297603194"><ele>167.0</ele><time>2026-04-04T08:53:20.001Z</time></trkpt><trkpt lat="44.45368641097694" lon="9.003167179479373"><ele>167.0</ele><time>2026-04-04T08:53:23.001Z</time></trkpt><trkpt lat="44.45365912668222" lon="9.003065323686815"><ele>167.0</ele><time>2026-04-04T08:53:27.001Z</time></trkpt><trkpt lat="44.45357184530518" lon="9.00298568515161"><ele>168.33333333333331</ele><time>2026-04-04T08:53:29.001Z</time></trkpt><trkpt lat="44.45351623447568" lon="9.002877765479896"><ele>169.66666666666666</ele><time>2026-04-04T08:53:33.001Z</time></trkpt><trkpt lat="44.45347412583575" lon="9.002788504431877"><ele>171.0</ele><time>2026-04-04T08:53:35.001Z</time></trkpt><trkpt lat="44.453448716327856" lon="9.002700461463027"><ele>172.33333333333334</ele><time>2026-04-04T08:53:37.001Z</time></trkpt><trkpt lat="44.453433880123335" lon="9.002583128983815"><ele>173.66666666666669</ele><time>2026-04-04T08:53:40.001Z</time></trkpt><trkpt lat="44.4534031690525" lon="9.002492726022195"><ele>175.0</ele><time>2026-04-04T08:53:43.001Z</time></trkpt><trkpt lat="44.45339058678469" lon="9.002399926070307"><ele>176.42857142857142</ele><time>2026-04-04T08:53:46.002Z</time></trkpt><trkpt lat="44.45335503032865" lon="9.002323676747924"><ele>177.85714285714286</ele><time>2026-04-04T08:53:49.002Z</time></trkpt><trkpt lat="44.45332714571853" lon="9.002236838467882"><ele>179.28571428571428</ele><time>2026-04-04T08:53:52.002Z</time></trkpt><trkpt lat="44.453297012024834" lon="9.002140895445558"><ele>180.71428571428572</ele><time>2026-04-04T08:53:56.002Z</time></trkpt><trkpt lat="44.453279880715435" lon="9.002035421435592"><ele>182.14285714285714</ele><time>2026-04-04T08:54:07.002Z</time></trkpt><trkpt lat="44.45326183807967" lon="9.001927322746006"><ele>183.57142857142856</ele><time>2026-04-04T08:54:11.002Z</time></trkpt><trkpt lat="44.45325334748843" lon="9.001836699672998"><ele>185.0</ele><time>2026-04-04T08:54:14.002Z</time></trkpt><trkpt lat="44.4532348548157" lon="9.001726750329153"><ele>185.0</ele><time>2026-04-04T08:54:17.003Z</time></trkpt><trkpt lat="44.45320386995061" lon="9.001599837983921"><ele>185.0</ele><time>2026-04-04T08:54:20.003Z</time></trkpt><trkpt lat="44.45316788664902" lon="9.001493610784598"><ele>185.0</ele><time>2026-04-04T08:54:22.003Z</time></trkpt><trkpt lat="44.45314898534718" lon="9.001353591256624"><ele>185.0</ele><time>2026-04-04T08:54:24.003Z</time></trkpt><trkpt lat="44.45314387084929" lon="9.001176793569305"><ele>185.0</ele><time>2026-04-04T08:54:26.003Z</time></trkpt><trkpt lat="44.45315903024655" lon="9.001083775590539"><ele>185.0</ele><time>2026-04-04T08:54:27.003Z</time></trkpt><trkpt lat="44.45318251262657" lon="9.000989060786052"><ele>185.0</ele><time>2026-04-04T08:54:28.003Z</time></trkpt><trkpt lat="44.45320677943474" lon="9.000887995821856"><ele>185.0</ele><time>2026-04-04T08:54:29.003Z</time></trkpt><trkpt lat="44.453217919642746" lon="9.000784084528435"><ele>185.0</ele><time>2026-04-04T08:54:30.003Z</time></trkpt><trkpt lat="44.45322486036449" lon="9.000675382105813"><ele>185.0</ele><time>2026-04-04T08:54:31.003Z</time></trkpt><trkpt lat="44.4532308176151" lon="9.000565690901283"><ele>185.0</ele><time>2026-04-04T08:54:32.003Z</time></trkpt><trkpt lat="44.45323999693084" lon="9.000459722773474"><ele>183.6</ele><time>2026-04-04T08:54:33.003Z</time></trkpt><trkpt lat="44.45324734252391" lon="9.000348179809404"><ele>182.2</ele><time>2026-04-04T08:54:34.003Z</time></trkpt><trkpt lat="44.45326352962534" lon="9.000186669588429"><ele>180.8</ele><time>2026-04-04T08:54:36.003Z</time></trkpt><trkpt lat="44.45327089963338" lon="9.000029232151222"><ele>179.4</ele><time>2026-04-04T08:54:38.003Z</time></trkpt><trkpt lat="44.45326124430088" lon="8.999883171709582"><ele>178.0</ele><time>2026-04-04T08:54:40.003Z</time></trkpt><trkpt lat="44.453177128655064" lon="8.999819211530127"><ele>177.99999999999997</ele><time>2026-04-04T08:54:42.003Z</time></trkpt><trkpt lat="44.45311350993834" lon="8.999845123161434"><ele>178.0</ele><time>2026-04-04T08:54:44.003Z</time></trkpt><trkpt lat="44.45305085909235" lon="8.999836140610764"><ele>178.0</ele><time>2026-04-04T08:54:45.998Z</time></trkpt><trkpt lat="44.45299397754889" lon="8.999794693422299"><ele>178.0</ele><time>2026-04-04T08:54:47.998Z</time></trkpt><trkpt lat="44.452941320293256" lon="8.999736397516182"><ele>178.0</ele><time>2026-04-04T08:54:49.999Z</time></trkpt><trkpt lat="44.45290556565118" lon="8.999649116955746"><ele>177.99999999999997</ele><time>2026-04-04T08:54:51.999Z</time></trkpt><trkpt lat="44.452880025109735" lon="8.999564078494751"><ele>178.0</ele><time>2026-04-04T08:54:53.999Z</time></trkpt><trkpt lat="44.45286830120846" lon="8.999435483212592"><ele>174.8</ele><time>2026-04-04T08:54:56.999Z</time></trkpt><trkpt lat="44.45284362340323" lon="8.999315484341682"><ele>171.60000000000002</ele><time>2026-04-04T08:54:59.999Z</time></trkpt><trkpt lat="44.452834666354576" lon="8.99919043566399"><ele>168.39999999999998</ele><time>2026-04-04T08:55:03Z</time></trkpt><trkpt lat="44.45283800095739" lon="8.999057017184974"><ele>165.2</ele><time>2026-04-04T08:55:06Z</time></trkpt><trkpt lat="44.452860322863394" lon="8.998928975730141"><ele>162.0</ele><time>2026-04-04T08:55:09Z</time></trkpt><trkpt lat="44.45288804190392" lon="8.998811483100829"><ele>162.0</ele><time>2026-04-04T08:55:12Z</time></trkpt><trkpt lat="44.45290209428594" lon="8.998722986538123"><ele>162.0</ele><time>2026-04-04T08:55:14Z</time></trkpt><trkpt lat="44.452906349156194" lon="8.998596404374744"><ele>162.0</ele><time>2026-04-04T08:55:17Z</time></trkpt><trkpt lat="44.45291390591772" lon="8.998479809672407"><ele>162.0</ele><time>2026-04-04T08:55:20Z</time></trkpt><trkpt lat="44.45290621447145" lon="8.998379925959394"><ele>162.0</ele><time>2026-04-04T08:55:24.001Z</time></trkpt><trkpt lat="44.45291829152179" lon="8.998272071548502"><ele>162.0</ele><time>2026-04-04T08:55:28.001Z</time></trkpt><trkpt lat="44.45296261866345" lon="8.99818979855459"><ele>161.33333333333334</ele><time>2026-04-04T08:55:33.001Z</time></trkpt><trkpt lat="44.45290789480291" lon="8.998098857329579"><ele>160.66666666666666</ele><time>2026-04-04T08:56:55.998Z</time></trkpt><trkpt lat="44.45293999393233" lon="8.998022190228383"><ele>160.0</ele><time>2026-04-04T08:56:57.998Z</time></trkpt><trkpt lat="44.45300959053226" lon="8.99793524629623"><ele>159.33333333333331</ele><time>2026-04-04T08:57:00.999Z</time></trkpt><trkpt lat="44.453059523781306" lon="8.997839418076165"><ele>158.66666666666666</ele><time>2026-04-04T08:57:03.999Z</time></trkpt><trkpt lat="44.453104145444065" lon="8.997751489706092"><ele>158.0</ele><time>2026-04-04T08:57:06.999Z</time></trkpt><trkpt lat="44.45314562379393" lon="8.997639053251337"><ele>159.5</ele><time>2026-04-04T08:57:09.999Z</time></trkpt><trkpt lat="44.453192167880474" lon="8.997569232140208"><ele>161.0</ele><time>2026-04-04T08:57:11.999Z</time></trkpt><trkpt lat="44.453245110017896" lon="8.997508591305062"><ele>162.5</ele><time>2026-04-04T08:57:14Z</time></trkpt><trkpt lat="44.45327682270986" lon="8.997393279426388"><ele>164.0</ele><time>2026-04-04T08:57:17Z</time></trkpt><trkpt lat="44.45329718696106" lon="8.997289021190944"><ele>165.5</ele><time>2026-04-04T08:57:20Z</time></trkpt><trkpt lat="44.45332067353247" lon="8.997171534256356"><ele>167.0</ele><time>2026-04-04T08:57:23Z</time></trkpt><trkpt lat="44.453373705704216" lon="8.997102933232977"><ele>167.0</ele><time>2026-04-04T08:57:26Z</time></trkpt><trkpt lat="44.453417510964826" lon="8.997018190577593"><ele>167.0</ele><time>2026-04-04T08:57:29Z</time></trkpt><trkpt lat="44.45348800466175" lon="8.99696636838337"><ele>167.0</ele><time>2026-04-04T08:57:32Z</time></trkpt><trkpt lat="44.45354687576881" lon="8.99688690846548"><ele>167.0</ele><time>2026-04-04T08:57:34.001Z</time></trkpt><trkpt lat="44.453522152503936" lon="8.996792079551948"><ele>167.0</ele><time>2026-04-04T08:57:36.001Z</time></trkpt><trkpt lat="44.45349479701791" lon="8.996693746388402"><ele>167.0</ele><time>2026-04-04T08:57:39.001Z</time></trkpt><trkpt lat="44.45348452581172" lon="8.996570834272786"><ele>165.42857142857142</ele><time>2026-04-04T08:57:42.001Z</time></trkpt><trkpt lat="44.4534741278227" lon="8.996468684579725"><ele>163.85714285714286</ele><time>2026-04-04T08:57:44.001Z</time></trkpt><trkpt lat="44.45347827115889" lon="8.996352438577748"><ele>162.28571428571428</ele><time>2026-04-04T08:57:47.001Z</time></trkpt><trkpt lat="44.453485434073166" lon="8.996252514054328"><ele>160.71428571428572</ele><time>2026-04-04T08:57:50.001Z</time></trkpt><trkpt lat="44.45349650241174" lon="8.996151582754177"><ele>159.14285714285714</ele><time>2026-04-04T08:57:52.001Z</time></trkpt><trkpt lat="44.45352141873775" lon="8.996054485018677"><ele>157.57142857142858</ele><time>2026-04-04T08:57:54.001Z</time></trkpt><trkpt lat="44.45353864660039" lon="8.9959624856297"><ele>156.0</ele><time>2026-04-04T08:57:56.001Z</time></trkpt><trkpt lat="44.45356270887714" lon="8.995874786738574"><ele>156.0</ele><time>2026-04-04T08:57:58.001Z</time></trkpt><trkpt lat="44.45360061739139" lon="8.995759366547846"><ele>156.0</ele><time>2026-04-04T08:58:01.001Z</time></trkpt><trkpt lat="44.453620954341545" lon="8.995644525927037"><ele>156.0</ele><time>2026-04-04T08:58:04.002Z</time></trkpt><trkpt lat="44.45363844193785" lon="8.995531446907206"><ele>156.0</ele><time>2026-04-04T08:58:07.002Z</time></trkpt><trkpt lat="44.45364638857567" lon="8.995409742277946"><ele>156.0</ele><time>2026-04-04T08:58:10.002Z</time></trkpt><trkpt lat="44.453643855719974" lon="8.995289815249276"><ele>156.0</ele><time>2026-04-04T08:58:13.002Z</time></trkpt><trkpt lat="44.45366142164965" lon="8.995203395176041"><ele>156.0</ele><time>2026-04-04T08:58:15.002Z</time></trkpt><trkpt lat="44.453711249378074" lon="8.995111018186973"><ele>156.0</ele><time>2026-04-04T08:58:18.002Z</time></trkpt><trkpt lat="44.45363592052603" lon="8.995086977378698"><ele>156.0</ele><time>2026-04-04T08:58:21.002Z</time></trkpt><trkpt lat="44.453548014296004" lon="8.995081617743272"><ele>156.0</ele><time>2026-04-04T08:58:23.002Z</time></trkpt><trkpt lat="44.453443326837835" lon="8.995083885079705"><ele>156.0</ele><time>2026-04-04T08:58:25.002Z</time></trkpt><trkpt lat="44.45335251295989" lon="8.995084757479725"><ele>156.0</ele><time>2026-04-04T08:58:27.002Z</time></trkpt><trkpt lat="44.45328105817216" lon="8.995075266996032"><ele>156.0</ele><time>2026-04-04T08:58:29.002Z</time></trkpt><trkpt lat="44.453210743563" lon="8.99506351017681"><ele>156.0</ele><time>2026-04-04T08:58:31.002Z</time></trkpt><trkpt lat="44.45314665351089" lon="8.995066718317894"><ele>156.0</ele><time>2026-04-04T08:58:33.002Z</time></trkpt><trkpt lat="44.45307552891931" lon="8.995086920667173"><ele>156.0</ele><time>2026-04-04T08:58:35.003Z</time></trkpt><trkpt lat="44.45300130867145" lon="8.995087582685354"><ele>156.0</ele><time>2026-04-04T08:58:37.003Z</time></trkpt><trkpt lat="44.4529316486991" lon="8.99510723255895"><ele>156.0</ele><time>2026-04-04T08:58:39.003Z</time></trkpt><trkpt lat="44.452867354097606" lon="8.995120868239262"><ele>156.0</ele><time>2026-04-04T08:58:41.003Z</time></trkpt><trkpt lat="44.45279686535202" lon="8.995098543813004"><ele>153.5</ele><time>2026-04-04T08:58:43.003Z</time></trkpt><trkpt lat="44.45272368058269" lon="8.99510312834598"><ele>151.0</ele><time>2026-04-04T08:58:45.003Z</time></trkpt><trkpt lat="44.45265361964507" lon="8.99509904229185"><ele>148.5</ele><time>2026-04-04T08:58:47.003Z</time></trkpt><trkpt lat="44.452586758767815" lon="8.995057588558806"><ele>146.0</ele><time>2026-04-04T08:58:49.003Z</time></trkpt><trkpt lat="44.45252258481431" lon="8.99502487708876"><ele>143.5</ele><time>2026-04-04T08:58:51.003Z</time></trkpt><trkpt lat="44.452441632748716" lon="8.995001980174317"><ele>141.0</ele><time>2026-04-04T08:58:54.003Z</time></trkpt><trkpt lat="44.452350528042714" lon="8.995002238155237"><ele>141.0</ele><time>2026-04-04T08:58:56.998Z</time></trkpt><trkpt lat="44.45227181532347" lon="8.995024250255504"><ele>141.0</ele><time>2026-04-04T08:58:59.998Z</time></trkpt><trkpt lat="44.45222033555122" lon="8.994955186658313"><ele>141.0</ele><time>2026-04-04T08:59:02.999Z</time></trkpt><trkpt lat="44.45217103771397" lon="8.994875515465889"><ele>141.0</ele><time>2026-04-04T08:59:05.999Z</time></trkpt><trkpt lat="44.45209325207646" lon="8.994817077415663"><ele>141.0</ele><time>2026-04-04T08:59:08.999Z</time></trkpt><trkpt lat="44.452055741154055" lon="8.994729567060332"><ele>141.0</ele><time>2026-04-04T08:59:11.999Z</time></trkpt><trkpt lat="44.45201930706659" lon="8.994646913050484"><ele>141.0</ele><time>2026-04-04T08:59:15Z</time></trkpt><trkpt lat="44.45198624926373" lon="8.994532120256958"><ele>141.0</ele><time>2026-04-04T08:59:18Z</time></trkpt><trkpt lat="44.452014548248506" lon="8.994417841461111"><ele>141.0</ele><time>2026-04-04T08:59:21Z</time></trkpt><trkpt lat="44.45209578737572" lon="8.99436791062248"><ele>141.0</ele><time>2026-04-04T08:59:24Z</time></trkpt><trkpt lat="44.45218217822489" lon="8.994354020077244"><ele>141.0</ele><time>2026-04-04T08:59:27Z</time></trkpt><trkpt lat="44.4522621820834" lon="8.99434971551435"><ele>141.0</ele><time>2026-04-04T08:59:30Z</time></trkpt><trkpt lat="44.45235058413363" lon="8.994346235166356"><ele>141.0</ele><time>2026-04-04T08:59:33.001Z</time></trkpt><trkpt lat="44.45242190999917" lon="8.99434596019255"><ele>141.0</ele><time>2026-04-04T08:59:35.001Z</time></trkpt><trkpt lat="44.45250457977224" lon="8.994353947932755"><ele>141.0</ele><time>2026-04-04T08:59:39.001Z</time></trkpt><trkpt lat="44.45258639032817" lon="8.994336747082748"><ele>141.0</ele><time>2026-04-04T08:59:42.001Z</time></trkpt><trkpt lat="44.45267398470336" lon="8.99432307154121"><ele>141.0</ele><time>2026-04-04T08:59:44.001Z</time></trkpt><trkpt lat="44.45274049290752" lon="8.994312965284028"><ele>141.0</ele><time>2026-04-04T08:59:46.001Z</time></trkpt><trkpt lat="44.45281009123502" lon="8.994297523685246"><ele>141.0</ele><time>2026-04-04T08:59:48.001Z</time></trkpt><trkpt lat="44.45287303669762" lon="8.994264407806797"><ele>141.0</ele><time>2026-04-04T08:59:50.001Z</time></trkpt><trkpt lat="44.452935644827235" lon="8.994235776860336"><ele>141.0</ele><time>2026-04-04T08:59:52.001Z</time></trkpt><trkpt lat="44.452998175312246" lon="8.994201276665182"><ele>141.0</ele><time>2026-04-04T08:59:54.001Z</time></trkpt><trkpt lat="44.4530618362957" lon="8.994181111112896"><ele>141.0</ele><time>2026-04-04T08:59:56.001Z</time></trkpt><trkpt lat="44.45315783777228" lon="8.994153972594939"><ele>141.0</ele><time>2026-04-04T08:59:59.001Z</time></trkpt><trkpt lat="44.45321713363983" lon="8.994122938796043"><ele>141.0</ele><time>2026-04-04T09:00:01.002Z</time></trkpt><trkpt lat="44.45327954414589" lon="8.994094091037837"><ele>140.85714285714286</ele><time>2026-04-04T09:00:03.002Z</time></trkpt><trkpt lat="44.45333977357911" lon="8.994050817850903"><ele>140.71428571428572</ele><time>2026-04-04T09:00:05.002Z</time></trkpt><trkpt lat="44.45339748937359" lon="8.993993939460166"><ele>140.57142857142856</ele><time>2026-04-04T09:00:07.002Z</time></trkpt><trkpt lat="44.45345595534385" lon="8.993938587865921"><ele>140.42857142857144</ele><time>2026-04-04T09:00:09.002Z</time></trkpt><trkpt lat="44.45351207799333" lon="8.993883234603816"><ele>140.28571428571428</ele><time>2026-04-04T09:00:11.002Z</time></trkpt><trkpt lat="44.45356902776377" lon="8.993840014045247"><ele>140.14285714285714</ele><time>2026-04-04T09:00:13.002Z</time></trkpt><trkpt lat="44.453655935405926" lon="8.993786957722106"><ele>140.0</ele><time>2026-04-04T09:00:16.002Z</time></trkpt><trkpt lat="44.453725318052925" lon="8.993778527315566"><ele>144.14285714285714</ele><time>2026-04-04T09:00:19.002Z</time></trkpt><trkpt lat="44.453808252172394" lon="8.993792040340027"><ele>148.28571428571428</ele><time>2026-04-04T09:00:23.002Z</time></trkpt><trkpt lat="44.45387360868974" lon="8.99380229697816"><ele>152.42857142857144</ele><time>2026-04-04T09:00:27.002Z</time></trkpt><trkpt lat="44.45390415215643" lon="8.993703248805218"><ele>156.57142857142856</ele><time>2026-04-04T09:00:31.002Z</time></trkpt><trkpt lat="44.45389582952085" lon="8.993614860026751"><ele>160.71428571428572</ele><time>2026-04-04T09:00:34.003Z</time></trkpt><trkpt lat="44.45384640867662" lon="8.993540141104956"><ele>164.85714285714286</ele><time>2026-04-04T09:00:38.003Z</time></trkpt><trkpt lat="44.45382030162793" lon="8.993447672006775"><ele>169.0</ele><time>2026-04-04T09:00:41.003Z</time></trkpt><trkpt lat="44.45379709244984" lon="8.993362068479412"><ele>167.28571428571428</ele><time>2026-04-04T09:01:00.003Z</time></trkpt><trkpt lat="44.45375132021684" lon="8.993287671160928"><ele>165.57142857142856</ele><time>2026-04-04T09:01:10.998Z</time></trkpt><trkpt lat="44.45370423120683" lon="8.993221178374945"><ele>163.85714285714283</ele><time>2026-04-04T09:01:19.999Z</time></trkpt><trkpt lat="44.45368440625048" lon="8.99312807770559"><ele>162.14285714285714</ele><time>2026-04-04T09:01:34Z</time></trkpt><trkpt lat="44.45372013972965" lon="8.993048673151263"><ele>160.42857142857142</ele><time>2026-04-04T09:01:42Z</time></trkpt><trkpt lat="44.45377338580785" lon="8.99299897072986"><ele>158.7142857142857</ele><time>2026-04-04T09:01:49.001Z</time></trkpt><trkpt lat="44.45383728564346" lon="8.992992909572694"><ele>157.0</ele><time>2026-04-04T09:01:55.001Z</time></trkpt><trkpt lat="44.45389697392149" lon="8.99296405034003"><ele>156.99999999999997</ele><time>2026-04-04T09:02:08.001Z</time></trkpt><trkpt lat="44.45394276664511" lon="8.992899581822195"><ele>157.0</ele><time>2026-04-04T09:02:16.002Z</time></trkpt><trkpt lat="44.453972879913174" lon="8.99280804469252"><ele>157.0</ele><time>2026-04-04T09:02:20.002Z</time></trkpt><trkpt lat="44.45401759803527" lon="8.992741700295008"><ele>157.0</ele><time>2026-04-04T09:02:23.002Z</time></trkpt><trkpt lat="44.45404419421977" lon="8.992649186313354"><ele>157.0</ele><time>2026-04-04T09:02:28.002Z</time></trkpt><trkpt lat="44.454078955801975" lon="8.992535422951672"><ele>156.99999999999997</ele><time>2026-04-04T09:02:33.002Z</time></trkpt><trkpt lat="44.454098148853475" lon="8.992431589297615"><ele>157.0</ele><time>2026-04-04T09:02:36.002Z</time></trkpt><trkpt lat="44.4541176979225" lon="8.992297746416549"><ele>154.33333333333334</ele><time>2026-04-04T09:02:39.002Z</time></trkpt><trkpt lat="44.45412254713894" lon="8.992199937828067"><ele>151.66666666666669</ele><time>2026-04-04T09:02:42.003Z</time></trkpt><trkpt lat="44.454132109853084" lon="8.99209932495475"><ele>149.0</ele><time>2026-04-04T09:02:44.003Z</time></trkpt><trkpt lat="44.454155812551356" lon="8.992007861160522"><ele>146.33333333333334</ele><time>2026-04-04T09:02:46.003Z</time></trkpt><trkpt lat="44.45416243140718" lon="8.991904745091931"><ele>143.66666666666666</ele><time>2026-04-04T09:02:48.003Z</time></trkpt><trkpt lat="44.454189591742896" lon="8.991781934797483"><ele>141.0</ele><time>2026-04-04T09:02:51.003Z</time></trkpt><trkpt lat="44.45423556533812" lon="8.991690386960737"><ele>141.0</ele><time>2026-04-04T09:02:54.003Z</time></trkpt><trkpt lat="44.45431419918093" lon="8.991642978102478"><ele>141.0</ele><time>2026-04-04T09:02:57.003Z</time></trkpt><trkpt lat="44.454397654980816" lon="8.991677365509386"><ele>141.0</ele><time>2026-04-04T09:03:00.003Z</time></trkpt><trkpt lat="44.45449037777068" lon="8.991714173174744"><ele>141.0</ele><time>2026-04-04T09:03:03.003Z</time></trkpt><trkpt lat="44.45455276080771" lon="8.991746880493068"><ele>141.0</ele><time>2026-04-04T09:03:05.003Z</time></trkpt><trkpt lat="44.454620884158246" lon="8.991736300112592"><ele>141.0</ele><time>2026-04-04T09:03:07.003Z</time></trkpt><trkpt lat="44.454704126542424" lon="8.991725496084722"><ele>142.57142857142858</ele><time>2026-04-04T09:03:09.998Z</time></trkpt><trkpt lat="44.45478236186752" lon="8.99169763912548"><ele>144.14285714285714</ele><time>2026-04-04T09:03:12.998Z</time></trkpt><trkpt lat="44.454859449492076" lon="8.991705627563942"><ele>145.71428571428572</ele><time>2026-04-04T09:03:15.999Z</time></trkpt><trkpt lat="44.4549478167621" lon="8.991691621320921"><ele>147.28571428571428</ele><time>2026-04-04T09:03:18.999Z</time></trkpt><trkpt lat="44.455010875023326" lon="8.991665051792879"><ele>148.85714285714286</ele><time>2026-04-04T09:03:20.999Z</time></trkpt><trkpt lat="44.45507682750607" lon="8.991629284813937"><ele>150.42857142857142</ele><time>2026-04-04T09:03:22.999Z</time></trkpt><trkpt lat="44.45513894701411" lon="8.991602942937664"><ele>152.0</ele><time>2026-04-04T09:03:24.999Z</time></trkpt><trkpt lat="44.455213710226" lon="8.991567221774789"><ele>152.0</ele><time>2026-04-04T09:03:28Z</time></trkpt><trkpt lat="44.455196262695026" lon="8.9914643251648"><ele>152.0</ele><time>2026-04-04T09:03:32Z</time></trkpt><trkpt lat="44.455132557268115" lon="8.991396716011968"><ele>152.0</ele><time>2026-04-04T09:03:35Z</time></trkpt><trkpt lat="44.455093705298744" lon="8.991318751065688"><ele>152.0</ele><time>2026-04-04T09:03:37Z</time></trkpt><trkpt lat="44.45505230961185" lon="8.991234226850892"><ele>152.0</ele><time>2026-04-04T09:03:39Z</time></trkpt><trkpt lat="44.455013659717565" lon="8.991137141836726"><ele>152.0</ele><time>2026-04-04T09:03:41Z</time></trkpt><trkpt lat="44.45497477948393" lon="8.991045852571801"><ele>152.0</ele><time>2026-04-04T09:03:43Z</time></trkpt><trkpt lat="44.45493946705817" lon="8.990969046677154"><ele>152.0</ele><time>2026-04-04T09:03:45Z</time></trkpt><trkpt lat="44.45490669230905" lon="8.990890845992949"><ele>152.0</ele><time>2026-04-04T09:03:47.001Z</time></trkpt><trkpt lat="44.45487153041787" lon="8.990797313048017"><ele>152.0</ele><time>2026-04-04T09:03:49.001Z</time></trkpt><trkpt lat="44.454863011939786" lon="8.990699543419593"><ele>152.0</ele><time>2026-04-04T09:03:51.001Z</time></trkpt><trkpt lat="44.45486460685978" lon="8.990600423283599"><ele>152.0</ele><time>2026-04-04T09:03:53.001Z</time></trkpt><trkpt lat="44.45485043500119" lon="8.990498699066775"><ele>152.0</ele><time>2026-04-04T09:03:55.001Z</time></trkpt><trkpt lat="44.4548324393023" lon="8.990412483618636"><ele>150.7142857142857</ele><time>2026-04-04T09:03:57.001Z</time></trkpt><trkpt lat="44.45484821417014" lon="8.990324933305798"><ele>149.42857142857144</ele><time>2026-04-04T09:03:59.001Z</time></trkpt><trkpt lat="44.454879287260255" lon="8.990241827811003"><ele>148.14285714285714</ele><time>2026-04-04T09:04:01.001Z</time></trkpt><trkpt lat="44.454901621332745" lon="8.990156212334972"><ele>146.85714285714283</ele><time>2026-04-04T09:04:03.001Z</time></trkpt><trkpt lat="44.45492693172703" lon="8.99007511137389"><ele>145.57142857142856</ele><time>2026-04-04T09:04:05.001Z</time></trkpt><trkpt lat="44.4549910182274" lon="8.989972399923412"><ele>144.28571428571428</ele><time>2026-04-04T09:04:08.001Z</time></trkpt><trkpt lat="44.455044322044756" lon="8.989914531711667"><ele>143.0</ele><time>2026-04-04T09:04:10.001Z</time></trkpt><trkpt lat="44.45509949727428" lon="8.989861322818527"><ele>141.28571428571428</ele><time>2026-04-04T09:04:12.002Z</time></trkpt><trkpt lat="44.455155532578246" lon="8.989807842236901"><ele>139.57142857142856</ele><time>2026-04-04T09:04:14.002Z</time></trkpt><trkpt lat="44.455199313293896" lon="8.98974098017951"><ele>137.85714285714286</ele><time>2026-04-04T09:04:16.002Z</time></trkpt><trkpt lat="44.455241861829045" lon="8.989658799983323"><ele>136.14285714285714</ele><time>2026-04-04T09:04:18.002Z</time></trkpt><trkpt lat="44.455273297437444" lon="8.989571696021384"><ele>134.42857142857144</ele><time>2026-04-04T09:04:20.002Z</time></trkpt><trkpt lat="44.45530098858547" lon="8.989477036065182"><ele>132.71428571428572</ele><time>2026-04-04T09:04:22.002Z</time></trkpt><trkpt lat="44.45532859457241" lon="8.989380585658445"><ele>131.0</ele><time>2026-04-04T09:04:24.002Z</time></trkpt><trkpt lat="44.4553662553753" lon="8.989290419555784"><ele>131.0</ele><time>2026-04-04T09:04:26.002Z</time></trkpt><trkpt lat="44.45539861157176" lon="8.989203042996651"><ele>131.0</ele><time>2026-04-04T09:04:28.002Z</time></trkpt><trkpt lat="44.45543037315378" lon="8.989112445008475"><ele>131.0</ele><time>2026-04-04T09:04:30.002Z</time></trkpt><trkpt lat="44.45545727583089" lon="8.98902562863329"><ele>131.0</ele><time>2026-04-04T09:04:32.002Z</time></trkpt><trkpt lat="44.455468447825126" lon="8.988936588463885"><ele>131.0</ele><time>2026-04-04T09:04:34.002Z</time></trkpt><trkpt lat="44.45548781512924" lon="8.988814737683763"><ele>131.0</ele><time>2026-04-04T09:04:37.002Z</time></trkpt><trkpt lat="44.455505685693645" lon="8.988692853453408"><ele>131.85714285714286</ele><time>2026-04-04T09:04:40.002Z</time></trkpt><trkpt lat="44.455511363886714" lon="8.98859924199144"><ele>132.71428571428572</ele><time>2026-04-04T09:04:42.002Z</time></trkpt><trkpt lat="44.45551444363621" lon="8.988499459870917"><ele>133.57142857142858</ele><time>2026-04-04T09:04:44.002Z</time></trkpt><trkpt lat="44.45551771419673" lon="8.988403550813416"><ele>134.42857142857144</ele><time>2026-04-04T09:04:46.003Z</time></trkpt><trkpt lat="44.45551709086907" lon="8.98830028459274"><ele>135.28571428571428</ele><time>2026-04-04T09:04:48.003Z</time></trkpt><trkpt lat="44.45552306326781" lon="8.98819775791615"><ele>136.14285714285717</ele><time>2026-04-04T09:04:50.003Z</time></trkpt><trkpt lat="44.45550525043372" lon="8.988098481422913"><ele>137.0</ele><time>2026-04-04T09:04:52.003Z</time></trkpt><trkpt lat="44.45549412937396" lon="8.987971946239309"><ele>137.0</ele><time>2026-04-04T09:04:55.003Z</time></trkpt><trkpt lat="44.45553691547565" lon="8.987896758410269"><ele>137.0</ele><time>2026-04-04T09:04:58.003Z</time></trkpt><trkpt lat="44.455606746151105" lon="8.987814464315358"><ele>137.0</ele><time>2026-04-04T09:05:01.003Z</time></trkpt><trkpt lat="44.455673438973356" lon="8.987738024435632"><ele>137.0</ele><time>2026-04-04T09:05:04.003Z</time></trkpt><trkpt lat="44.455746065856125" lon="8.987659083434046"><ele>137.0</ele><time>2026-04-04T09:05:07.003Z</time></trkpt><trkpt lat="44.45582541727179" lon="8.987613476386295"><ele>137.0</ele><time>2026-04-04T09:05:10.003Z</time></trkpt><trkpt lat="44.45588362643056" lon="8.987579550043945"><ele>137.00000000000003</ele><time>2026-04-04T09:05:13.003Z</time></trkpt><trkpt lat="44.455940901402776" lon="8.987540154384007"><ele>137.0</ele><time>2026-04-04T09:05:15.998Z</time></trkpt><trkpt lat="44.45599439767669" lon="8.987488352164702"><ele>137.0</ele><time>2026-04-04T09:05:20.999Z</time></trkpt><trkpt lat="44.45606197461704" lon="8.987443823605796"><ele>137.0</ele><time>2026-04-04T09:05:27.999Z</time></trkpt><trkpt lat="44.45611395476551" lon="8.98739242006226"><ele>137.0</ele><time>2026-04-04T09:05:30.999Z</time></trkpt><trkpt lat="44.456160980405066" lon="8.987301455574055"><ele>137.00000000000003</ele><time>2026-04-04T09:05:35Z</time></trkpt><trkpt lat="44.45621990427679" lon="8.987221440297242"><ele>137.0</ele><time>2026-04-04T09:05:38Z</time></trkpt><trkpt lat="44.456282787473675" lon="8.987115965412457"><ele>137.42857142857144</ele><time>2026-04-04T09:05:41Z</time></trkpt><trkpt lat="44.45633824029065" lon="8.987072164527568"><ele>137.85714285714286</ele><time>2026-04-04T09:05:43Z</time></trkpt><trkpt lat="44.456404352931465" lon="8.98704213750906"><ele>138.28571428571428</ele><time>2026-04-04T09:05:45Z</time></trkpt><trkpt lat="44.456474838705645" lon="8.987010862787653"><ele>138.71428571428572</ele><time>2026-04-04T09:05:47Z</time></trkpt><trkpt lat="44.456545920215305" lon="8.986976958512637"><ele>139.14285714285714</ele><time>2026-04-04T09:05:49Z</time></trkpt><trkpt lat="44.45660867859172" lon="8.986934983338125"><ele>139.57142857142858</ele><time>2026-04-04T09:05:51Z</time></trkpt><trkpt lat="44.456665882914045" lon="8.986896475222308"><ele>140.0</ele><time>2026-04-04T09:05:53.001Z</time></trkpt><trkpt lat="44.456752639391716" lon="8.986851480111957"><ele>140.0</ele><time>2026-04-04T09:05:56.001Z</time></trkpt><trkpt lat="44.45684526317013" lon="8.986810037395157"><ele>140.0</ele><time>2026-04-04T09:05:59.001Z</time></trkpt><trkpt lat="44.45689115803492" lon="8.986748414722355"><ele>140.0</ele><time>2026-04-04T09:06:01.001Z</time></trkpt><trkpt lat="44.456933157402474" lon="8.986681182646242"><ele>140.0</ele><time>2026-04-04T09:06:03.001Z</time></trkpt><trkpt lat="44.456979444663006" lon="8.986617781971919"><ele>140.0</ele><time>2026-04-04T09:06:05.001Z</time></trkpt><trkpt lat="44.45702545807117" lon="8.986547064626617"><ele>140.0</ele><time>2026-04-04T09:06:07.001Z</time></trkpt><trkpt lat="44.45706709346975" lon="8.986477334342363"><ele>140.0</ele><time>2026-04-04T09:06:09.001Z</time></trkpt><trkpt lat="44.45712402384271" lon="8.98638127007546"><ele>139.66666666666666</ele><time>2026-04-04T09:06:12.001Z</time></trkpt><trkpt lat="44.457171175293674" lon="8.98631195339897"><ele>139.33333333333331</ele><time>2026-04-04T09:06:14.001Z</time></trkpt><trkpt lat="44.45721646991808" lon="8.986247942107902"><ele>139.0</ele><time>2026-04-04T09:06:16.001Z</time></trkpt><trkpt lat="44.45727825398345" lon="8.98617008344325"><ele>138.66666666666666</ele><time>2026-04-04T09:06:19.001Z</time></trkpt><trkpt lat="44.45736343894859" lon="8.986141041507587"><ele>138.33333333333334</ele><time>2026-04-04T09:06:22.002Z</time></trkpt><trkpt lat="44.45744107362009" lon="8.986118285403206"><ele>138.0</ele><time>2026-04-04T09:06:25.002Z</time></trkpt><trkpt lat="44.45751784901541" lon="8.986154906807"><ele>138.0</ele><time>2026-04-04T09:06:28.002Z</time></trkpt><trkpt lat="44.45758507686754" lon="8.986204927461912"><ele>138.0</ele><time>2026-04-04T09:06:31.002Z</time></trkpt><trkpt lat="44.4576623978515" lon="8.98620490687416"><ele>138.0</ele><time>2026-04-04T09:06:34.002Z</time></trkpt><trkpt lat="44.45768832980232" lon="8.98630295059899"><ele>138.0</ele><time>2026-04-04T09:06:37.002Z</time></trkpt><trkpt lat="44.45769408184902" lon="8.986398963751451"><ele>138.0</ele><time>2026-04-04T09:06:41.002Z</time></trkpt><trkpt lat="44.45765660775497" lon="8.986486310894696"><ele>138.0</ele><time>2026-04-04T09:06:45.002Z</time></trkpt><trkpt lat="44.45757361675389" lon="8.986522505975167"><ele>138.0</ele><time>2026-04-04T09:06:48.002Z</time></trkpt><trkpt lat="44.457506594338355" lon="8.98663122205463"><ele>138.0</ele><time>2026-04-04T09:06:52.002Z</time></trkpt><trkpt lat="44.457477563946476" lon="8.986712371287533"><ele>138.0</ele><time>2026-04-04T09:06:55.003Z</time></trkpt><trkpt lat="44.4574331544886" lon="8.98681180219237"><ele>138.0</ele><time>2026-04-04T09:06:58.003Z</time></trkpt><trkpt lat="44.457383648442594" lon="8.986887635811064"><ele>138.0</ele><time>2026-04-04T09:07:01.003Z</time></trkpt><trkpt lat="44.457342350476516" lon="8.986965924118564"><ele>138.0</ele><time>2026-04-04T09:07:03.003Z</time></trkpt><trkpt lat="44.45731917540853" lon="8.987062637943584"><ele>138.28571428571428</ele><time>2026-04-04T09:07:08.003Z</time></trkpt><trkpt lat="44.457273995728144" lon="8.987146533818219"><ele>138.57142857142858</ele><time>2026-04-04T09:07:11.003Z</time></trkpt><trkpt lat="44.45722911498993" lon="8.987233815473276"><ele>138.85714285714286</ele><time>2026-04-04T09:07:14.003Z</time></trkpt><trkpt lat="44.45718365681708" lon="8.987301309350137"><ele>139.14285714285714</ele><time>2026-04-04T09:07:17.003Z</time></trkpt><trkpt lat="44.45714042873561" lon="8.987383065101127"><ele>139.42857142857144</ele><time>2026-04-04T09:07:20.003Z</time></trkpt><trkpt lat="44.45710086531718" lon="8.987471483494149"><ele>139.71428571428572</ele><time>2026-04-04T09:07:22.998Z</time></trkpt><trkpt lat="44.457047023082005" lon="8.987554097400912"><ele>140.0</ele><time>2026-04-04T09:07:25.999Z</time></trkpt><trkpt lat="44.456985535072384" lon="8.98762436157845"><ele>141.0</ele><time>2026-04-04T09:07:28.999Z</time></trkpt><trkpt lat="44.45694298785034" lon="8.987700491448614"><ele>142.0</ele><time>2026-04-04T09:07:31.999Z</time></trkpt><trkpt lat="44.45690119334278" lon="8.987774305902304"><ele>143.0</ele><time>2026-04-04T09:07:34.999Z</time></trkpt><trkpt lat="44.45684772675394" lon="8.98786208533291"><ele>144.0</ele><time>2026-04-04T09:07:38.999Z</time></trkpt><trkpt lat="44.45680586210778" lon="8.987935086713048"><ele>145.0</ele><time>2026-04-04T09:07:42Z</time></trkpt><trkpt lat="44.45674812268458" lon="8.98800980455232"><ele>146.0</ele><time>2026-04-04T09:07:46Z</time></trkpt><trkpt lat="44.45669231518637" lon="8.988067178737298"><ele>147.0</ele><time>2026-04-04T09:07:50Z</time></trkpt><trkpt lat="44.4566619188072" lon="8.988164452071176"><ele>147.0</ele><time>2026-04-04T09:07:54Z</time></trkpt><trkpt lat="44.45662013226093" lon="8.98825127021039"><ele>147.0</ele><time>2026-04-04T09:07:58.001Z</time></trkpt><trkpt lat="44.45657303647885" lon="8.98833698785076"><ele>147.0</ele><time>2026-04-04T09:08:02.001Z</time></trkpt><trkpt lat="44.456529112564326" lon="8.988421207963652"><ele>147.0</ele><time>2026-04-04T09:08:06.001Z</time></trkpt><trkpt lat="44.45647203347491" lon="8.988486837611454"><ele>147.0</ele><time>2026-04-04T09:08:10.001Z</time></trkpt><trkpt lat="44.45642247076487" lon="8.988570770631288"><ele>147.0</ele><time>2026-04-04T09:08:15.001Z</time></trkpt><trkpt lat="44.456382262552026" lon="8.98865685277393"><ele>146.85714285714286</ele><time>2026-04-04T09:08:20.001Z</time></trkpt><trkpt lat="44.456331606880056" lon="8.988718212954574"><ele>146.71428571428572</ele><time>2026-04-04T09:08:24.001Z</time></trkpt><trkpt lat="44.45628605519803" lon="8.988781645475264"><ele>146.57142857142856</ele><time>2026-04-04T09:08:29.002Z</time></trkpt><trkpt lat="44.45633999916799" lon="8.988839013096229"><ele>146.42857142857144</ele><time>2026-04-04T09:16:39.001Z</time></trkpt><trkpt lat="44.45634012756935" lon="8.988930770998682"><ele>146.28571428571428</ele><time>2026-04-04T09:16:49.001Z</time></trkpt><trkpt lat="44.45631322480606" lon="8.988848482872283"><ele>146.14285714285714</ele><time>2026-04-04T09:17:50.003Z</time></trkpt><trkpt lat="44.4563172017647" lon="8.988742843004577"><ele>146.0</ele><time>2026-04-04T09:19:36.003Z</time></trkpt><trkpt lat="44.45637020854236" lon="8.988673746272529"><ele>146.16666666666666</ele><time>2026-04-04T09:19:40.003Z</time></trkpt><trkpt lat="44.456420219276104" lon="8.988596927801606"><ele>146.33333333333331</ele><time>2026-04-04T09:19:44.003Z</time></trkpt><trkpt lat="44.45647675065087" lon="8.98848158039011"><ele>146.5</ele><time>2026-04-04T09:19:47.003Z</time></trkpt><trkpt lat="44.45653811810957" lon="8.988390484951541"><ele>146.66666666666666</ele><time>2026-04-04T09:19:49.003Z</time></trkpt><trkpt lat="44.45660537702206" lon="8.98826025046418"><ele>146.83333333333334</ele><time>2026-04-04T09:19:51.003Z</time></trkpt><trkpt lat="44.45664635502267" lon="8.988189108419554"><ele>147.0</ele><time>2026-04-04T09:19:52.003Z</time></trkpt><trkpt lat="44.4566891485333" lon="8.988113672337446"><ele>147.0</ele><time>2026-04-04T09:19:53.003Z</time></trkpt><trkpt lat="44.45673281959856" lon="8.988038712905022"><ele>147.0</ele><time>2026-04-04T09:19:54.003Z</time></trkpt><trkpt lat="44.45678075869167" lon="8.98797745347437"><ele>147.0</ele><time>2026-04-04T09:19:55.003Z</time></trkpt><trkpt lat="44.456852043148245" lon="8.987866550392736"><ele>147.0</ele><time>2026-04-04T09:19:56.999Z</time></trkpt><trkpt lat="44.456899985475964" lon="8.98778142939571"><ele>147.0</ele><time>2026-04-04T09:19:58.999Z</time></trkpt><trkpt lat="44.45694396753531" lon="8.98771650257435"><ele>147.0</ele><time>2026-04-04T09:20:01.999Z</time></trkpt><trkpt lat="44.45698493165656" lon="8.987636596462277"><ele>147.0</ele><time>2026-04-04T09:20:03.999Z</time></trkpt><trkpt lat="44.45703327197584" lon="8.98755537765736"><ele>147.0</ele><time>2026-04-04T09:20:05.999Z</time></trkpt><trkpt lat="44.45708341676732" lon="8.987468373493574"><ele>147.0</ele><time>2026-04-04T09:20:13Z</time></trkpt><trkpt lat="44.45713805348051" lon="8.987374350349718"><ele>147.0</ele><time>2026-04-04T09:20:16Z</time></trkpt><trkpt lat="44.457190571344256" lon="8.98726183912659"><ele>147.0</ele><time>2026-04-04T09:20:19Z</time></trkpt><trkpt lat="44.457240491564164" lon="8.987187438744185"><ele>147.0</ele><time>2026-04-04T09:20:21Z</time></trkpt><trkpt lat="44.45730203292402" lon="8.98711042442404"><ele>147.66666666666666</ele><time>2026-04-04T09:20:23Z</time></trkpt><trkpt lat="44.4573602795401" lon="8.987041922790999"><ele>148.33333333333334</ele><time>2026-04-04T09:20:25Z</time></trkpt><trkpt lat="44.45742659159587" lon="8.986981385835438"><ele>149.0</ele><time>2026-04-04T09:20:27Z</time></trkpt><trkpt lat="44.45749175871991" lon="8.98692156209875"><ele>149.66666666666669</ele><time>2026-04-04T09:20:29Z</time></trkpt><trkpt lat="44.457555355572524" lon="8.98685251029843"><ele>150.33333333333334</ele><time>2026-04-04T09:20:31.001Z</time></trkpt><trkpt lat="44.45762006915959" lon="8.986790424227769"><ele>151.0</ele><time>2026-04-04T09:20:33.001Z</time></trkpt><trkpt lat="44.45768642614814" lon="8.986737043174339"><ele>151.00000000000003</ele><time>2026-04-04T09:20:35.001Z</time></trkpt><trkpt lat="44.45773611372888" lon="8.986681219086346"><ele>151.0</ele><time>2026-04-04T09:20:37.001Z</time></trkpt><trkpt lat="44.45780049128686" lon="8.986636590376149"><ele>151.0</ele><time>2026-04-04T09:20:40.001Z</time></trkpt><trkpt lat="44.45786950320063" lon="8.986596692108627"><ele>151.0</ele><time>2026-04-04T09:20:45.001Z</time></trkpt><trkpt lat="44.45793245982448" lon="8.986543216766329"><ele>151.0</ele><time>2026-04-04T09:22:18Z</time></trkpt><trkpt lat="44.45799576727136" lon="8.986493807015519"><ele>151.00000000000003</ele><time>2026-04-04T09:22:23Z</time></trkpt><trkpt lat="44.458051759603265" lon="8.98645204992193"><ele>151.0</ele><time>2026-04-04T09:22:27Z</time></trkpt><trkpt lat="44.45810159121277" lon="8.986362155261565"><ele>151.16666666666669</ele><time>2026-04-04T09:22:31Z</time></trkpt><trkpt lat="44.4581234010834" lon="8.986278473845866"><ele>151.33333333333334</ele><time>2026-04-04T09:22:34Z</time></trkpt><trkpt lat="44.458139781307075" lon="8.986175995152982"><ele>151.5</ele><time>2026-04-04T09:22:37.001Z</time></trkpt><trkpt lat="44.45816343184539" lon="8.986059621912595"><ele>151.66666666666666</ele><time>2026-04-04T09:22:40.001Z</time></trkpt><trkpt lat="44.45819084127902" lon="8.985964485674392"><ele>151.83333333333331</ele><time>2026-04-04T09:22:43.001Z</time></trkpt><trkpt lat="44.45822772870079" lon="8.985864345755155"><ele>152.0</ele><time>2026-04-04T09:22:46.001Z</time></trkpt><trkpt lat="44.45827195587046" lon="8.985782827212725"><ele>151.0</ele><time>2026-04-04T09:22:49.001Z</time></trkpt><trkpt lat="44.45832960585364" lon="8.985688646862593"><ele>150.0</ele><time>2026-04-04T09:22:52.001Z</time></trkpt><trkpt lat="44.45838734532324" lon="8.985625163106999"><ele>149.0</ele><time>2026-04-04T09:22:55.001Z</time></trkpt><trkpt lat="44.458423841426715" lon="8.985526811022213"><ele>148.0</ele><time>2026-04-04T09:22:59.001Z</time></trkpt><trkpt lat="44.458462409045744" lon="8.985445203741264"><ele>147.0</ele><time>2026-04-04T09:23:01.001Z</time></trkpt><trkpt lat="44.45850631500301" lon="8.98535310057621"><ele>146.0</ele><time>2026-04-04T09:23:04.001Z</time></trkpt><trkpt lat="44.4585493416562" lon="8.985221140930422"><ele>146.0</ele><time>2026-04-04T09:23:07.002Z</time></trkpt><trkpt lat="44.45860296853153" lon="8.985085915468593"><ele>146.0</ele><time>2026-04-04T09:23:09.002Z</time></trkpt><trkpt lat="44.458677980859015" lon="8.984941574880242"><ele>146.0</ele><time>2026-04-04T09:23:11.002Z</time></trkpt><trkpt lat="44.45870563675022" lon="8.984854950006511"><ele>146.0</ele><time>2026-04-04T09:23:12.002Z</time></trkpt><trkpt lat="44.458744227747935" lon="8.984762125240556"><ele>146.0</ele><time>2026-04-04T09:23:13.002Z</time></trkpt><trkpt lat="44.458771629531235" lon="8.984675027977646"><ele>146.83333333333331</ele><time>2026-04-04T09:23:14.002Z</time></trkpt><trkpt lat="44.458811042342816" lon="8.984587563008521"><ele>147.66666666666666</ele><time>2026-04-04T09:23:15.002Z</time></trkpt><trkpt lat="44.45884549320521" lon="8.984488983497435"><ele>148.5</ele><time>2026-04-04T09:23:16.002Z</time></trkpt><trkpt lat="44.458875035410166" lon="8.984389740340452"><ele>149.33333333333334</ele><time>2026-04-04T09:23:17.002Z</time></trkpt><trkpt lat="44.458919778060334" lon="8.984290142952725"><ele>150.16666666666669</ele><time>2026-04-04T09:23:18.002Z</time></trkpt><trkpt lat="44.458956506838454" lon="8.984191416333426"><ele>151.0</ele><time>2026-04-04T09:23:19.002Z</time></trkpt><trkpt lat="44.4589947760572" lon="8.984089549516911"><ele>149.16666666666669</ele><time>2026-04-04T09:23:20.002Z</time></trkpt><trkpt lat="44.45902967019159" lon="8.98398271939489"><ele>147.33333333333334</ele><time>2026-04-04T09:23:21.002Z</time></trkpt><trkpt lat="44.45907780897072" lon="8.98388034859945"><ele>145.5</ele><time>2026-04-04T09:23:22.002Z</time></trkpt><trkpt lat="44.459111026806085" lon="8.983794577265687"><ele>143.66666666666666</ele><time>2026-04-04T09:23:23.002Z</time></trkpt><trkpt lat="44.459137960973486" lon="8.983713609759672"><ele>141.83333333333331</ele><time>2026-04-04T09:23:24.002Z</time></trkpt><trkpt lat="44.459192875654395" lon="8.983565738607979"><ele>140.0</ele><time>2026-04-04T09:23:26.002Z</time></trkpt><trkpt lat="44.45922433883726" lon="8.983411747021838"><ele>138.2</ele><time>2026-04-04T09:23:28.002Z</time></trkpt><trkpt lat="44.45920249188969" lon="8.983254213530424"><ele>136.4</ele><time>2026-04-04T09:23:30.002Z</time></trkpt><trkpt lat="44.45914474866508" lon="8.983107889349887"><ele>134.6</ele><time>2026-04-04T09:23:32.002Z</time></trkpt><trkpt lat="44.459050362859145" lon="8.982982832561108"><ele>132.8</ele><time>2026-04-04T09:23:34.002Z</time></trkpt><trkpt lat="44.45899352057671" lon="8.9829284441893"><ele>131.0</ele><time>2026-04-04T09:23:35.002Z</time></trkpt><trkpt lat="44.45893846106457" lon="8.982870203154475"><ele>131.0</ele><time>2026-04-04T09:23:36.002Z</time></trkpt><trkpt lat="44.458885340625315" lon="8.982820627128678"><ele>131.0</ele><time>2026-04-04T09:23:37.002Z</time></trkpt><trkpt lat="44.458832742728106" lon="8.982765693496892"><ele>131.0</ele><time>2026-04-04T09:23:38.002Z</time></trkpt><trkpt lat="44.45878523495627" lon="8.982707797375879"><ele>131.0</ele><time>2026-04-04T09:23:39.002Z</time></trkpt><trkpt lat="44.45873282915175" lon="8.982648043792604"><ele>131.0</ele><time>2026-04-04T09:23:40.003Z</time></trkpt><trkpt lat="44.45867646703959" lon="8.982595107200865"><ele>131.0</ele><time>2026-04-04T09:23:41.003Z</time></trkpt><trkpt lat="44.45862124524468" lon="8.982534878217583"><ele>131.0</ele><time>2026-04-04T09:23:42.003Z</time></trkpt><trkpt lat="44.45857075394945" lon="8.98247678266089"><ele>130.14285714285714</ele><time>2026-04-04T09:23:43.003Z</time></trkpt><trkpt lat="44.458517016982746" lon="8.982425470525222"><ele>129.2857142857143</ele><time>2026-04-04T09:23:44.003Z</time></trkpt><trkpt lat="44.45846172613937" lon="8.982374763333516"><ele>128.42857142857144</ele><time>2026-04-04T09:23:45.003Z</time></trkpt><trkpt lat="44.45840698111782" lon="8.982324226000523"><ele>127.57142857142858</ele><time>2026-04-04T09:23:46.003Z</time></trkpt><trkpt lat="44.4583516842922" lon="8.98228112808004"><ele>126.71428571428572</ele><time>2026-04-04T09:23:47.003Z</time></trkpt><trkpt lat="44.458289080099085" lon="8.982248462011533"><ele>125.85714285714286</ele><time>2026-04-04T09:23:48.003Z</time></trkpt><trkpt lat="44.458219963181634" lon="8.982223125888146"><ele>125.0</ele><time>2026-04-04T09:23:49.003Z</time></trkpt><trkpt lat="44.45814812904685" lon="8.982210636371692"><ele>124.99999999999999</ele><time>2026-04-04T09:23:50.003Z</time></trkpt><trkpt lat="44.45807609116011" lon="8.982201216359169"><ele>125.0</ele><time>2026-04-04T09:23:51.003Z</time></trkpt><trkpt lat="44.457997786989814" lon="8.982194281880126"><ele>125.0</ele><time>2026-04-04T09:23:52.003Z</time></trkpt><trkpt lat="44.457927202773625" lon="8.982172840897427"><ele>125.0</ele><time>2026-04-04T09:23:53.003Z</time></trkpt><trkpt lat="44.45784333748785" lon="8.98214245785872"><ele>124.99999999999999</ele><time>2026-04-04T09:23:54.003Z</time></trkpt><trkpt lat="44.45776249285996" lon="8.982120540593389"><ele>125.0</ele><time>2026-04-04T09:23:55.003Z</time></trkpt><trkpt lat="44.457681637541086" lon="8.982102117115193"><ele>123.33333333333333</ele><time>2026-04-04T09:23:56.003Z</time></trkpt><trkpt lat="44.457595037092" lon="8.982110738537406"><ele>121.66666666666666</ele><time>2026-04-04T09:23:57.003Z</time></trkpt><trkpt lat="44.457504279538036" lon="8.982135082479191"><ele>120.0</ele><time>2026-04-04T09:23:58.003Z</time></trkpt><trkpt lat="44.45743533864555" lon="8.982220423559117"><ele>118.33333333333334</ele><time>2026-04-04T09:23:59.003Z</time></trkpt><trkpt lat="44.45736863132199" lon="8.982310907781468"><ele>116.66666666666667</ele><time>2026-04-04T09:24:00.003Z</time></trkpt><trkpt lat="44.45731621680392" lon="8.982374712544864"><ele>115.0</ele><time>2026-04-04T09:24:01.003Z</time></trkpt><trkpt lat="44.45723162151689" lon="8.982473704498727"><ele>114.33333333333334</ele><time>2026-04-04T09:24:03.003Z</time></trkpt><trkpt lat="44.45717122836023" lon="8.982526761146625"><ele>113.66666666666667</ele><time>2026-04-04T09:24:04.003Z</time></trkpt><trkpt lat="44.45711470459187" lon="8.98258508422095"><ele>113.0</ele><time>2026-04-04T09:24:05.003Z</time></trkpt><trkpt lat="44.45705450924645" lon="8.982632082002311"><ele>112.33333333333334</ele><time>2026-04-04T09:24:06.003Z</time></trkpt><trkpt lat="44.45699779615231" lon="8.982685366404635"><ele>111.66666666666667</ele><time>2026-04-04T09:24:07.003Z</time></trkpt><trkpt lat="44.456942994320116" lon="8.982747572668375"><ele>111.0</ele><time>2026-04-04T09:24:08.003Z</time></trkpt><trkpt lat="44.45686283073556" lon="8.982842331923063"><ele>111.0</ele><time>2026-04-04T09:24:10Z</time></trkpt><trkpt lat="44.45678144288214" lon="8.982918363057529"><ele>111.0</ele><time>2026-04-04T09:24:12Z</time></trkpt><trkpt lat="44.45672867935099" lon="8.98304561727356"><ele>111.0</ele><time>2026-04-04T09:24:14Z</time></trkpt><trkpt lat="44.45670186813476" lon="8.983195504511384"><ele>111.0</ele><time>2026-04-04T09:24:16Z</time></trkpt><trkpt lat="44.456690076634054" lon="8.983285317184638"><ele>111.0</ele><time>2026-04-04T09:24:17Z</time></trkpt><trkpt lat="44.456673990990915" lon="8.98337848614991"><ele>111.0</ele><time>2026-04-04T09:24:18Z</time></trkpt><trkpt lat="44.45665528798862" lon="8.983467150014327"><ele>110.0</ele><time>2026-04-04T09:24:19Z</time></trkpt><trkpt lat="44.45663088377421" lon="8.983557564948777"><ele>109.0</ele><time>2026-04-04T09:24:20Z</time></trkpt><trkpt lat="44.456611142249066" lon="8.983643612663288"><ele>108.0</ele><time>2026-04-04T09:24:21Z</time></trkpt><trkpt lat="44.45657016847919" lon="8.98377656256448"><ele>107.0</ele><time>2026-04-04T09:24:23Z</time></trkpt><trkpt lat="44.456516702237366" lon="8.983849418049918"><ele>106.0</ele><time>2026-04-04T09:24:25Z</time></trkpt><trkpt lat="44.45641720914677" lon="8.983834442514404"><ele>105.0</ele><time>2026-04-04T09:24:27Z</time></trkpt><trkpt lat="44.4563496313849" lon="8.983724882362809"><ele>105.0</ele><time>2026-04-04T09:24:29Z</time></trkpt><trkpt lat="44.456344633932446" lon="8.983629467422762"><ele>105.0</ele><time>2026-04-04T09:24:30Z</time></trkpt><trkpt lat="44.45635822846923" lon="8.983534049292555"><ele>105.0</ele><time>2026-04-04T09:24:31Z</time></trkpt><trkpt lat="44.456381901405315" lon="8.98343812593096"><ele>105.0</ele><time>2026-04-04T09:24:32Z</time></trkpt><trkpt lat="44.45641409715994" lon="8.983342313755882"><ele>105.0</ele><time>2026-04-04T09:24:33Z</time></trkpt><trkpt lat="44.45643636170505" lon="8.98323686344682"><ele>105.0</ele><time>2026-04-04T09:24:34Z</time></trkpt><trkpt lat="44.456446555534896" lon="8.983132241819206"><ele>105.0</ele><time>2026-04-04T09:24:35Z</time></trkpt><trkpt lat="44.45643815413926" lon="8.983025985590196"><ele>105.66666666666667</ele><time>2026-04-04T09:24:36Z</time></trkpt><trkpt lat="44.4564233261461" lon="8.982918136410502"><ele>106.33333333333334</ele><time>2026-04-04T09:24:37Z</time></trkpt><trkpt lat="44.45640311884953" lon="8.982823353793844"><ele>107.0</ele><time>2026-04-04T09:24:38.001Z</time></trkpt><trkpt lat="44.45638951102435" lon="8.982725482321266"><ele>107.66666666666667</ele><time>2026-04-04T09:24:39.001Z</time></trkpt><trkpt lat="44.45638210846775" lon="8.982631439980839"><ele>108.33333333333334</ele><time>2026-04-04T09:24:40.001Z</time></trkpt><trkpt lat="44.45637567164988" lon="8.982538665349319"><ele>109.0</ele><time>2026-04-04T09:24:41.001Z</time></trkpt><trkpt lat="44.45637538519818" lon="8.982361114999675"><ele>109.0</ele><time>2026-04-04T09:24:43.001Z</time></trkpt><trkpt lat="44.456385995228814" lon="8.982187914945909"><ele>109.0</ele><time>2026-04-04T09:24:45.001Z</time></trkpt><trkpt lat="44.456398304760036" lon="8.982024558655567"><ele>109.0</ele><time>2026-04-04T09:24:47.001Z</time></trkpt><trkpt lat="44.45640101911399" lon="8.981854473132632"><ele>109.0</ele><time>2026-04-04T09:24:49.001Z</time></trkpt><trkpt lat="44.45640330909119" lon="8.981688687051609"><ele>107.50000000000001</ele><time>2026-04-04T09:24:51.001Z</time></trkpt><trkpt lat="44.45641235716282" lon="8.981520418141928"><ele>106.0</ele><time>2026-04-04T09:24:53.001Z</time></trkpt><trkpt lat="44.45642244761234" lon="8.981427698895573"><ele>104.5</ele><time>2026-04-04T09:24:54.001Z</time></trkpt><trkpt lat="44.456438632453334" lon="8.981329907270775"><ele>103.0</ele><time>2026-04-04T09:24:55.001Z</time></trkpt><trkpt lat="44.45647790341782" lon="8.981250617584546"><ele>101.50000000000001</ele><time>2026-04-04T09:24:56.001Z</time></trkpt><trkpt lat="44.45653359226333" lon="8.981181479907189"><ele>100.0</ele><time>2026-04-04T09:24:57.001Z</time></trkpt><trkpt lat="44.456597588702934" lon="8.981129362587462"><ele>100.00000000000001</ele><time>2026-04-04T09:24:58.001Z</time></trkpt><trkpt lat="44.45666453356684" lon="8.981096268492722"><ele>100.0</ele><time>2026-04-04T09:24:59.001Z</time></trkpt><trkpt lat="44.45673421606324" lon="8.981058447027168"><ele>100.0</ele><time>2026-04-04T09:25:00.001Z</time></trkpt><trkpt lat="44.456804220792144" lon="8.981020382335084"><ele>100.0</ele><time>2026-04-04T09:25:01.001Z</time></trkpt><trkpt lat="44.456870587205756" lon="8.980981640897138"><ele>100.0</ele><time>2026-04-04T09:25:02.001Z</time></trkpt><trkpt lat="44.456943334733204" lon="8.980947119767936"><ele>100.00000000000001</ele><time>2026-04-04T09:25:03.001Z</time></trkpt><trkpt lat="44.45702076625799" lon="8.980928553110616"><ele>100.0</ele><time>2026-04-04T09:25:04.001Z</time></trkpt><trkpt lat="44.457096039055486" lon="8.980887096449715"><ele>99.16666666666667</ele><time>2026-04-04T09:25:05.001Z</time></trkpt><trkpt lat="44.45717622394219" lon="8.98086838898399"><ele>98.33333333333334</ele><time>2026-04-04T09:25:06.001Z</time></trkpt><trkpt lat="44.457260319610235" lon="8.98085506846351"><ele>97.5</ele><time>2026-04-04T09:25:07.001Z</time></trkpt><trkpt lat="44.45733925333227" lon="8.98083888069946"><ele>96.66666666666667</ele><time>2026-04-04T09:25:08.001Z</time></trkpt><trkpt lat="44.457421892112585" lon="8.980829316634114"><ele>95.83333333333334</ele><time>2026-04-04T09:25:09.001Z</time></trkpt><trkpt lat="44.45749697704965" lon="8.980819826947084"><ele>95.0</ele><time>2026-04-04T09:25:10.001Z</time></trkpt><trkpt lat="44.45757161250193" lon="8.980806935859418"><ele>95.0</ele><time>2026-04-04T09:25:11.001Z</time></trkpt><trkpt lat="44.45764335783539" lon="8.98080160393964"><ele>95.0</ele><time>2026-04-04T09:25:12.001Z</time></trkpt><trkpt lat="44.45776868204343" lon="8.980769994447433"><ele>95.0</ele><time>2026-04-04T09:25:14.002Z</time></trkpt><trkpt lat="44.457805681411756" lon="8.980697358436156"><ele>95.0</ele><time>2026-04-04T09:25:15.002Z</time></trkpt><trkpt lat="44.457804147540564" lon="8.980601285957569"><ele>95.0</ele><time>2026-04-04T09:25:16.002Z</time></trkpt><trkpt lat="44.45776814954628" lon="8.980526786186665"><ele>95.0</ele><time>2026-04-04T09:25:17.002Z</time></trkpt><trkpt lat="44.45769980303949" lon="8.980500690115125"><ele>95.0</ele><time>2026-04-04T09:25:18.002Z</time></trkpt><trkpt lat="44.457634233607585" lon="8.980508752935641"><ele>95.0</ele><time>2026-04-04T09:25:19.002Z</time></trkpt><trkpt lat="44.45751260731899" lon="8.98051641593254"><ele>95.0</ele><time>2026-04-04T09:25:21.002Z</time></trkpt><trkpt lat="44.457386453152374" lon="8.980509465874274"><ele>95.0</ele><time>2026-04-04T09:25:23.002Z</time></trkpt><trkpt lat="44.457317473892815" lon="8.980507162193298"><ele>95.0</ele><time>2026-04-04T09:25:24.002Z</time></trkpt><trkpt lat="44.45725159975602" lon="8.980513826367215"><ele>95.0</ele><time>2026-04-04T09:25:25.002Z</time></trkpt><trkpt lat="44.457185309851475" lon="8.980520343518174"><ele>95.0</ele><time>2026-04-04T09:25:26.002Z</time></trkpt><trkpt lat="44.4571208991822" lon="8.980530405057909"><ele>95.0</ele><time>2026-04-04T09:25:27.002Z</time></trkpt><trkpt lat="44.45705285287028" lon="8.980528112630642"><ele>95.0</ele><time>2026-04-04T09:25:28.002Z</time></trkpt><trkpt lat="44.45698783736734" lon="8.98052156202422"><ele>95.0</ele><time>2026-04-04T09:25:29.002Z</time></trkpt><trkpt lat="44.456875571399216" lon="8.980517331663453"><ele>95.0</ele><time>2026-04-04T09:25:31.002Z</time></trkpt><trkpt lat="44.45676430396717" lon="8.980520722534704"><ele>95.0</ele><time>2026-04-04T09:25:33.002Z</time></trkpt><trkpt lat="44.4567010460856" lon="8.980516726155251"><ele>94.0</ele><time>2026-04-04T09:25:34.002Z</time></trkpt><trkpt lat="44.45657073000373" lon="8.980496185994477"><ele>93.0</ele><time>2026-04-04T09:25:36.002Z</time></trkpt><trkpt lat="44.456500740116496" lon="8.980488559808613"><ele>92.0</ele><time>2026-04-04T09:25:37.002Z</time></trkpt><trkpt lat="44.45643594487557" lon="8.980499586871174"><ele>91.0</ele><time>2026-04-04T09:25:38.002Z</time></trkpt><trkpt lat="44.45636188710786" lon="8.980474766027863"><ele>90.0</ele><time>2026-04-04T09:25:39.002Z</time></trkpt><trkpt lat="44.45628523439934" lon="8.980483676104305"><ele>89.0</ele><time>2026-04-04T09:25:40.002Z</time></trkpt><trkpt lat="44.45620988797235" lon="8.980504247568692"><ele>87.66666666666667</ele><time>2026-04-04T09:25:41.002Z</time></trkpt><trkpt lat="44.456132718031014" lon="8.980512100230058"><ele>86.33333333333334</ele><time>2026-04-04T09:25:42.002Z</time></trkpt><trkpt lat="44.4560651231732" lon="8.980531295851652"><ele>85.0</ele><time>2026-04-04T09:25:43.002Z</time></trkpt><trkpt lat="44.455991239447854" lon="8.980560092872857"><ele>83.66666666666667</ele><time>2026-04-04T09:25:44.002Z</time></trkpt><trkpt lat="44.45592419628122" lon="8.980594607077043"><ele>82.33333333333333</ele><time>2026-04-04T09:25:45.002Z</time></trkpt><trkpt lat="44.45583555182222" lon="8.980611548217267"><ele>81.0</ele><time>2026-04-04T09:25:46.002Z</time></trkpt><trkpt lat="44.45576122832119" lon="8.980630940959353"><ele>81.0</ele><time>2026-04-04T09:25:47.003Z</time></trkpt><trkpt lat="44.455692035013485" lon="8.98064195337187"><ele>81.0</ele><time>2026-04-04T09:25:48.003Z</time></trkpt><trkpt lat="44.455613984342186" lon="8.98066313531533"><ele>81.0</ele><time>2026-04-04T09:25:49.003Z</time></trkpt><trkpt lat="44.455532533389984" lon="8.98068419464527"><ele>81.0</ele><time>2026-04-04T09:25:50.003Z</time></trkpt><trkpt lat="44.45547560125183" lon="8.980723116349935"><ele>81.0</ele><time>2026-04-04T09:25:51.003Z</time></trkpt><trkpt lat="44.45539592069379" lon="8.980754165366982"><ele>81.0</ele><time>2026-04-04T09:25:52.003Z</time></trkpt><trkpt lat="44.45529574049943" lon="8.980813736963253"><ele>79.0</ele><time>2026-04-04T09:25:53.003Z</time></trkpt><trkpt lat="44.455227376493895" lon="8.980854133258203"><ele>77.0</ele><time>2026-04-04T09:25:54.003Z</time></trkpt><trkpt lat="44.45517129917193" lon="8.980900469490807"><ele>75.0</ele><time>2026-04-04T09:25:55.003Z</time></trkpt><trkpt lat="44.4551186325317" lon="8.9809606006464"><ele>73.0</ele><time>2026-04-04T09:25:56.003Z</time></trkpt><trkpt lat="44.45506139269147" lon="8.981014261542676"><ele>71.0</ele><time>2026-04-04T09:25:57.003Z</time></trkpt><trkpt lat="44.45497390303124" lon="8.981087484951562"><ele>69.0</ele><time>2026-04-04T09:25:59.003Z</time></trkpt><trkpt lat="44.45490149590888" lon="8.98114397565552"><ele>69.0</ele><time>2026-04-04T09:26:01.003Z</time></trkpt><trkpt lat="44.45479727295151" lon="8.981181565152193"><ele>69.0</ele><time>2026-04-04T09:26:03.003Z</time></trkpt><trkpt lat="44.45467239375627" lon="8.981195782391264"><ele>69.0</ele><time>2026-04-04T09:26:05.003Z</time></trkpt><trkpt lat="44.45460816857342" lon="8.981207477534705"><ele>69.0</ele><time>2026-04-04T09:26:06.003Z</time></trkpt><trkpt lat="44.454517615193055" lon="8.981217953872271"><ele>69.0</ele><time>2026-04-04T09:26:08.003Z</time></trkpt><trkpt lat="44.4544443872989" lon="8.981233565867857"><ele>67.5</ele><time>2026-04-04T09:26:11.003Z</time></trkpt><trkpt lat="44.454371937884424" lon="8.981195580611008"><ele>66.0</ele><time>2026-04-04T09:26:15.001Z</time></trkpt><trkpt lat="44.45436172534874" lon="8.981099464940138"><ele>64.5</ele><time>2026-04-04T09:26:18.001Z</time></trkpt><trkpt lat="44.45435882662684" lon="8.980996498461376"><ele>63.0</ele><time>2026-04-04T09:26:21.001Z</time></trkpt><trkpt lat="44.4543496423588" lon="8.980891529954835"><ele>61.5</ele><time>2026-04-04T09:26:24.001Z</time></trkpt><trkpt lat="44.454333858629795" lon="8.980783294317229"><ele>60.0</ele><time>2026-04-04T09:26:27Z</time></trkpt><trkpt lat="44.454308396678556" lon="8.98068025952043"><ele>60.0</ele><time>2026-04-04T09:26:30Z</time></trkpt><trkpt lat="44.45427990177669" lon="8.980555157833116"><ele>60.0</ele><time>2026-04-04T09:26:33Z</time></trkpt><trkpt lat="44.45425595661452" lon="8.980472780486433"><ele>60.0</ele><time>2026-04-04T09:26:35.001Z</time></trkpt><trkpt lat="44.45423748876238" lon="8.980387398399992"><ele>60.0</ele><time>2026-04-04T09:26:38.001Z</time></trkpt><trkpt lat="44.45420988106667" lon="8.980299169897938"><ele>60.0</ele><time>2026-04-04T09:26:41.001Z</time></trkpt><trkpt lat="44.454184095424374" lon="8.980193530722273"><ele>60.0</ele><time>2026-04-04T09:26:43.001Z</time></trkpt><trkpt lat="44.45419055174179" lon="8.980081756546472"><ele>60.0</ele><time>2026-04-04T09:26:45.001Z</time></trkpt><trkpt lat="44.454192785193506" lon="8.979946603727592"><ele>59.833333333333336</ele><time>2026-04-04T09:26:47.001Z</time></trkpt><trkpt lat="44.45415856412405" lon="8.979838406675345"><ele>59.66666666666667</ele><time>2026-04-04T09:26:49.001Z</time></trkpt><trkpt lat="44.45410793897401" lon="8.979724569236751"><ele>59.5</ele><time>2026-04-04T09:26:51.001Z</time></trkpt><trkpt lat="44.45405692226625" lon="8.979625672142042"><ele>59.333333333333336</ele><time>2026-04-04T09:26:53.001Z</time></trkpt><trkpt lat="44.454036006245104" lon="8.979509469655321"><ele>59.16666666666667</ele><time>2026-04-04T09:26:55.001Z</time></trkpt><trkpt lat="44.45401290574738" lon="8.979394788591206"><ele>59.0</ele><time>2026-04-04T09:26:57.001Z</time></trkpt><trkpt lat="44.45398453998478" lon="8.979283158857086"><ele>59.0</ele><time>2026-04-04T09:26:59.001Z</time></trkpt><trkpt lat="44.4539534325139" lon="8.979161406101401"><ele>59.00000000000001</ele><time>2026-04-04T09:27:01.001Z</time></trkpt><trkpt lat="44.45391519524506" lon="8.979043650285508"><ele>59.00000000000001</ele><time>2026-04-04T09:27:03.001Z</time></trkpt><trkpt lat="44.45387487224537" lon="8.978927110084598"><ele>59.0</ele><time>2026-04-04T09:27:05.001Z</time></trkpt><trkpt lat="44.45382552338311" lon="8.978818395455452"><ele>59.0</ele><time>2026-04-04T09:27:07.001Z</time></trkpt><trkpt lat="44.45377383994701" lon="8.978710492038644"><ele>59.16666666666667</ele><time>2026-04-04T09:27:09.001Z</time></trkpt><trkpt lat="44.45372007313636" lon="8.9786036183331"><ele>59.333333333333336</ele><time>2026-04-04T09:27:11.001Z</time></trkpt><trkpt lat="44.453668688286676" lon="8.978493132479922"><ele>59.5</ele><time>2026-04-04T09:27:13.001Z</time></trkpt><trkpt lat="44.45362380611846" lon="8.978408645257918"><ele>59.66666666666667</ele><time>2026-04-04T09:27:15.001Z</time></trkpt><trkpt lat="44.45356498291361" lon="8.978308030368199"><ele>59.833333333333336</ele><time>2026-04-04T09:27:18.001Z</time></trkpt><trkpt lat="44.45351335966741" lon="8.978201040167983"><ele>60.0</ele><time>2026-04-04T09:27:21.002Z</time></trkpt><trkpt lat="44.45347497274594" lon="8.978122403947358"><ele>60.0</ele><time>2026-04-04T09:27:23.002Z</time></trkpt><trkpt lat="44.45344000121435" lon="8.978039037566722"><ele>60.0</ele><time>2026-04-04T09:27:25.002Z</time></trkpt><trkpt lat="44.45339928968203" lon="8.977970654353635"><ele>60.0</ele><time>2026-04-04T09:27:27.002Z</time></trkpt><trkpt lat="44.4533437967657" lon="8.97787383272438"><ele>60.0</ele><time>2026-04-04T09:27:30.002Z</time></trkpt><trkpt lat="44.453296677146135" lon="8.977767996028584"><ele>60.0</ele><time>2026-04-04T09:27:33.002Z</time></trkpt><trkpt lat="44.45325729326848" lon="8.97769179153543"><ele>60.0</ele><time>2026-04-04T09:27:35.002Z</time></trkpt><trkpt lat="44.453208318746526" lon="8.977599091893383"><ele>59.4</ele><time>2026-04-04T09:27:37.002Z</time></trkpt><trkpt lat="44.45316507818364" lon="8.97749147996541"><ele>58.8</ele><time>2026-04-04T09:27:39.002Z</time></trkpt><trkpt lat="44.45311207169134" lon="8.97739456929119"><ele>58.2</ele><time>2026-04-04T09:27:41.002Z</time></trkpt><trkpt lat="44.453059547199054" lon="8.977295339304865"><ele>57.6</ele><time>2026-04-04T09:27:43.002Z</time></trkpt><trkpt lat="44.45300719793767" lon="8.977187652902812"><ele>57.0</ele><time>2026-04-04T09:27:45.002Z</time></trkpt><trkpt lat="44.4529470353227" lon="8.977084736541643"><ele>57.0</ele><time>2026-04-04T09:27:47.002Z</time></trkpt><trkpt lat="44.4528897988178" lon="8.97697697453467"><ele>57.0</ele><time>2026-04-04T09:27:49.002Z</time></trkpt><trkpt lat="44.45283576026195" lon="8.976861115560283"><ele>57.0</ele><time>2026-04-04T09:27:51.002Z</time></trkpt><trkpt lat="44.45277441230786" lon="8.976749948039474"><ele>57.0</ele><time>2026-04-04T09:27:53.002Z</time></trkpt><trkpt lat="44.45272088731992" lon="8.976635494618112"><ele>57.0</ele><time>2026-04-04T09:27:55.002Z</time></trkpt><trkpt lat="44.452659130309904" lon="8.976523660165958"><ele>56.6</ele><time>2026-04-04T09:27:57.002Z</time></trkpt><trkpt lat="44.45260243721423" lon="8.976406066690458"><ele>56.2</ele><time>2026-04-04T09:27:59.003Z</time></trkpt><trkpt lat="44.452545408950584" lon="8.976293194998012"><ele>55.8</ele><time>2026-04-04T09:28:01.003Z</time></trkpt><trkpt lat="44.45248241711695" lon="8.976184788280886"><ele>55.4</ele><time>2026-04-04T09:28:03.003Z</time></trkpt><trkpt lat="44.45242007365179" lon="8.976060420796983"><ele>55.0</ele><time>2026-04-04T09:28:05.003Z</time></trkpt><trkpt lat="44.452365371151615" lon="8.975939537725878"><ele>54.4</ele><time>2026-04-04T09:28:07.003Z</time></trkpt><trkpt lat="44.452311767635884" lon="8.975831491350922"><ele>53.8</ele><time>2026-04-04T09:28:09.003Z</time></trkpt><trkpt lat="44.452258044365934" lon="8.975724970076037"><ele>53.2</ele><time>2026-04-04T09:28:11.003Z</time></trkpt><trkpt lat="44.45220384757002" lon="8.975624847895572"><ele>52.6</ele><time>2026-04-04T09:28:13.003Z</time></trkpt><trkpt lat="44.45215215602003" lon="8.975519395944255"><ele>52.0</ele><time>2026-04-04T09:28:15.003Z</time></trkpt><trkpt lat="44.45209791612466" lon="8.975424944679222"><ele>51.99999999999999</ele><time>2026-04-04T09:28:17.003Z</time></trkpt><trkpt lat="44.45204327015017" lon="8.975325862501055"><ele>52.0</ele><time>2026-04-04T09:28:20.003Z</time></trkpt><trkpt lat="44.45199973363139" lon="8.975238843571518"><ele>52.0</ele><time>2026-04-04T09:28:22.001Z</time></trkpt><trkpt lat="44.451949406775505" lon="8.975155923931485"><ele>52.0</ele><time>2026-04-04T09:28:24.001Z</time></trkpt><trkpt lat="44.45189747651415" lon="8.975066924465436"><ele>51.99999999999999</ele><time>2026-04-04T09:28:26.001Z</time></trkpt><trkpt lat="44.451850634082625" lon="8.974960254745667"><ele>52.0</ele><time>2026-04-04T09:28:28.001Z</time></trkpt><trkpt lat="44.45180876599301" lon="8.974844107562433"><ele>52.8</ele><time>2026-04-04T09:28:30.001Z</time></trkpt><trkpt lat="44.451749711009576" lon="8.974744737777295"><ele>53.6</ele><time>2026-04-04T09:28:32.001Z</time></trkpt><trkpt lat="44.45170059972456" lon="8.974630060391"><ele>54.39999999999999</ele><time>2026-04-04T09:28:34.001Z</time></trkpt><trkpt lat="44.451646592232684" lon="8.974526094206972"><ele>55.199999999999996</ele><time>2026-04-04T09:28:36.001Z</time></trkpt><trkpt lat="44.4515874013217" lon="8.974425793453047"><ele>56.0</ele><time>2026-04-04T09:28:38.001Z</time></trkpt><trkpt lat="44.45153185680634" lon="8.974310815036624"><ele>56.0</ele><time>2026-04-04T09:28:40.001Z</time></trkpt><trkpt lat="44.451474010511056" lon="8.974202440020026"><ele>55.99999999999999</ele><time>2026-04-04T09:28:42.001Z</time></trkpt><trkpt lat="44.45141230666276" lon="8.974093571321543"><ele>55.99999999999999</ele><time>2026-04-04T09:28:44.001Z</time></trkpt><trkpt lat="44.451355787723784" lon="8.973982979700674"><ele>56.0</ele><time>2026-04-04T09:28:46.001Z</time></trkpt><trkpt lat="44.45129449771949" lon="8.97388002284237"><ele>56.0</ele><time>2026-04-04T09:28:48.001Z</time></trkpt><trkpt lat="44.45124415452904" lon="8.973763743502195"><ele>55.599999999999994</ele><time>2026-04-04T09:28:50.001Z</time></trkpt><trkpt lat="44.45119196713982" lon="8.973650906905398"><ele>55.199999999999996</ele><time>2026-04-04T09:28:52.001Z</time></trkpt><trkpt lat="44.45113511172589" lon="8.973541039592563"><ele>54.800000000000004</ele><time>2026-04-04T09:28:54.001Z</time></trkpt><trkpt lat="44.45108154638222" lon="8.97342959956463"><ele>54.400000000000006</ele><time>2026-04-04T09:28:56.001Z</time></trkpt><trkpt lat="44.451022659853656" lon="8.973321231032719"><ele>54.0</ele><time>2026-04-04T09:28:58.001Z</time></trkpt><trkpt lat="44.45096254187575" lon="8.973216924270886"><ele>54.0</ele><time>2026-04-04T09:29:00.001Z</time></trkpt><trkpt lat="44.45090669103818" lon="8.97311105797349"><ele>54.0</ele><time>2026-04-04T09:29:02.001Z</time></trkpt><trkpt lat="44.45085157397738" lon="8.973008880145375"><ele>54.0</ele><time>2026-04-04T09:29:04.001Z</time></trkpt><trkpt lat="44.45080024493788" lon="8.972911738885355"><ele>54.0</ele><time>2026-04-04T09:29:06.001Z</time></trkpt><trkpt lat="44.45075356457396" lon="8.9728161016749"><ele>54.0</ele><time>2026-04-04T09:29:08.001Z</time></trkpt><trkpt lat="44.4507079571004" lon="8.972730418376196"><ele>54.0</ele><time>2026-04-04T09:29:10.001Z</time></trkpt><trkpt lat="44.4506612291086" lon="8.972646996220826"><ele>54.0</ele><time>2026-04-04T09:29:12.001Z</time></trkpt><trkpt lat="44.45065026483165" lon="8.972558949205329"><ele>54.0</ele><time>2026-04-04T09:29:14.001Z</time></trkpt><trkpt lat="44.450732928546635" lon="8.972542008828615"><ele>54.0</ele><time>2026-04-04T09:29:17.001Z</time></trkpt><trkpt lat="44.45078660372674" lon="8.972598011770488"><ele>54.0</ele><time>2026-04-04T09:29:20.001Z</time></trkpt><trkpt lat="44.45083567087918" lon="8.972680121457193"><ele>54.0</ele><time>2026-04-04T09:29:23.001Z</time></trkpt><trkpt lat="44.45088160117998" lon="8.9727832804566"><ele>54.0</ele><time>2026-04-04T09:29:26.002Z</time></trkpt><trkpt lat="44.45092981862302" lon="8.972898610975562"><ele>54.0</ele><time>2026-04-04T09:29:30.002Z</time></trkpt><trkpt lat="44.450968705267044" lon="8.972972732134528"><ele>54.0</ele><time>2026-04-04T09:29:33.002Z</time></trkpt><trkpt lat="44.45101265319367" lon="8.973068186562095"><ele>54.0</ele><time>2026-04-04T09:29:36.002Z</time></trkpt><trkpt lat="44.45105579063817" lon="8.973140033359694"><ele>54.0</ele><time>2026-04-04T09:29:39.002Z</time></trkpt><trkpt lat="44.451106095815256" lon="8.973209477940236"><ele>54.0</ele><time>2026-04-04T09:29:42.002Z</time></trkpt><trkpt lat="44.45115487458131" lon="8.973282300288666"><ele>54.0</ele><time>2026-04-04T09:29:45.002Z</time></trkpt><trkpt lat="44.4512034836395" lon="8.973346019815377"><ele>54.0</ele><time>2026-04-04T09:29:48.002Z</time></trkpt><trkpt lat="44.451254431123395" lon="8.973405324274045"><ele>56.833333333333336</ele><time>2026-04-04T09:29:51.002Z</time></trkpt><trkpt lat="44.45130834067036" lon="8.973483539668086"><ele>59.66666666666667</ele><time>2026-04-04T09:29:55.002Z</time></trkpt><trkpt lat="44.45136833133285" lon="8.973563908182426"><ele>62.5</ele><time>2026-04-04T09:29:59.002Z</time></trkpt><trkpt lat="44.45142330530218" lon="8.973649250951945"><ele>65.33333333333334</ele><time>2026-04-04T09:30:03.002Z</time></trkpt><trkpt lat="44.451478175627265" lon="8.97373307522551"><ele>68.16666666666667</ele><time>2026-04-04T09:30:07.002Z</time></trkpt><trkpt lat="44.45152306831922" lon="8.973801276765405"><ele>71.0</ele><time>2026-04-04T09:30:10.003Z</time></trkpt><trkpt lat="44.451565824632425" lon="8.973868016829709"><ele>71.0</ele><time>2026-04-04T09:30:13.003Z</time></trkpt><trkpt lat="44.451612172275965" lon="8.973954004598301"><ele>71.0</ele><time>2026-04-04T09:30:17.003Z</time></trkpt><trkpt lat="44.45164938031204" lon="8.974042189766305"><ele>71.0</ele><time>2026-04-04T09:30:21.003Z</time></trkpt><trkpt lat="44.45170296347582" lon="8.974113420018435"><ele>71.0</ele><time>2026-04-04T09:30:25.003Z</time></trkpt><trkpt lat="44.45175096516856" lon="8.974183487165046"><ele>71.0</ele><time>2026-04-04T09:30:29.001Z</time></trkpt><trkpt lat="44.45180025549648" lon="8.974258192967017"><ele>71.0</ele><time>2026-04-04T09:30:33.001Z</time></trkpt><trkpt lat="44.451852504413836" lon="8.974328616293498"><ele>71.0</ele><time>2026-04-04T09:30:37.001Z</time></trkpt><trkpt lat="44.45189962003063" lon="8.97438830994906"><ele>71.85714285714286</ele><time>2026-04-04T09:30:41.001Z</time></trkpt><trkpt lat="44.45194380360232" lon="8.974470941507898"><ele>72.71428571428571</ele><time>2026-04-04T09:30:45.001Z</time></trkpt><trkpt lat="44.45199579091206" lon="8.974534282516172"><ele>73.57142857142857</ele><time>2026-04-04T09:30:49.001Z</time></trkpt><trkpt lat="44.452047111056" lon="8.974590828388525"><ele>74.42857142857143</ele><time>2026-04-04T09:30:53.001Z</time></trkpt><trkpt lat="44.452103770689966" lon="8.974647764046932"><ele>75.28571428571428</ele><time>2026-04-04T09:30:57.001Z</time></trkpt><trkpt lat="44.452160436918184" lon="8.974709723989017"><ele>76.14285714285714</ele><time>2026-04-04T09:31:01.001Z</time></trkpt><trkpt lat="44.45221727551683" lon="8.974771358455822"><ele>77.0</ele><time>2026-04-04T09:31:05.001Z</time></trkpt><trkpt lat="44.45227836254235" lon="8.974834514146833"><ele>77.0</ele><time>2026-04-04T09:31:09.001Z</time></trkpt><trkpt lat="44.45233641931907" lon="8.974899105277146"><ele>77.0</ele><time>2026-04-04T09:31:13.001Z</time></trkpt><trkpt lat="44.45240156864787" lon="8.974981633794606"><ele>77.0</ele><time>2026-04-04T09:31:18.001Z</time></trkpt><trkpt lat="44.45246776463396" lon="8.975066247289462"><ele>77.0</ele><time>2026-04-04T09:31:23.001Z</time></trkpt><trkpt lat="44.45253009544582" lon="8.975136139585913"><ele>77.0</ele><time>2026-04-04T09:31:27.001Z</time></trkpt><trkpt lat="44.45257992974586" lon="8.975217350573441"><ele>77.0</ele><time>2026-04-04T09:31:31.001Z</time></trkpt><trkpt lat="44.45262162813163" lon="8.975301458965443"><ele>76.83333333333334</ele><time>2026-04-04T09:31:35.002Z</time></trkpt><trkpt lat="44.452678453334165" lon="8.9753519999524"><ele>76.66666666666667</ele><time>2026-04-04T09:31:38.002Z</time></trkpt><trkpt lat="44.452757744493006" lon="8.975396954919706"><ele>76.5</ele><time>2026-04-04T09:31:42.002Z</time></trkpt><trkpt lat="44.4528237318828" lon="8.97544215183579"><ele>76.33333333333333</ele><time>2026-04-04T09:31:46.002Z</time></trkpt><trkpt lat="44.452890658897054" lon="8.975455299943999"><ele>76.16666666666666</ele><time>2026-04-04T09:31:49.002Z</time></trkpt><trkpt lat="44.45296159385735" lon="8.975475704268158"><ele>76.0</ele><time>2026-04-04T09:31:52.002Z</time></trkpt><trkpt lat="44.45303957862472" lon="8.975522770128107"><ele>76.0</ele><time>2026-04-04T09:31:55.002Z</time></trkpt><trkpt lat="44.453119773062" lon="8.975569367523416"><ele>76.0</ele><time>2026-04-04T09:31:58.002Z</time></trkpt><trkpt lat="44.453200026699626" lon="8.975603926992871"><ele>76.0</ele><time>2026-04-04T09:32:01.002Z</time></trkpt><trkpt lat="44.45327633638879" lon="8.975640213381624"><ele>76.0</ele><time>2026-04-04T09:32:04.002Z</time></trkpt><trkpt lat="44.45334562006229" lon="8.975653945353503"><ele>76.0</ele><time>2026-04-04T09:32:07.002Z</time></trkpt><trkpt lat="44.4534186360823" lon="8.975652652326286"><ele>76.0</ele><time>2026-04-04T09:32:10.002Z</time></trkpt><trkpt lat="44.453493845842736" lon="8.975642633271255"><ele>76.0</ele><time>2026-04-04T09:32:13.002Z</time></trkpt><trkpt lat="44.45356183924202" lon="8.975620484813364"><ele>76.0</ele><time>2026-04-04T09:32:16.002Z</time></trkpt><trkpt lat="44.453632135230436" lon="8.975608905815804"><ele>76.0</ele><time>2026-04-04T09:32:19.002Z</time></trkpt><trkpt lat="44.45371444421125" lon="8.975587982137714"><ele>76.0</ele><time>2026-04-04T09:32:23.003Z</time></trkpt><trkpt lat="44.4537972675718" lon="8.97556007381535"><ele>76.0</ele><time>2026-04-04T09:32:27.003Z</time></trkpt><trkpt lat="44.45386440116672" lon="8.975541329269053"><ele>76.0</ele><time>2026-04-04T09:32:30.003Z</time></trkpt><trkpt lat="44.453924850579256" lon="8.975511869659657"><ele>76.0</ele><time>2026-04-04T09:32:33.001Z</time></trkpt><trkpt lat="44.453979782386845" lon="8.975467995055869"><ele>75.16666666666666</ele><time>2026-04-04T09:32:36.001Z</time></trkpt><trkpt lat="44.454050711220596" lon="8.97540754413809"><ele>74.33333333333333</ele><time>2026-04-04T09:32:40.001Z</time></trkpt><trkpt lat="44.45410907017027" lon="8.975349249482987"><ele>73.5</ele><time>2026-04-04T09:32:44.001Z</time></trkpt><trkpt lat="44.45417050160716" lon="8.975279004191504"><ele>72.66666666666667</ele><time>2026-04-04T09:32:48.001Z</time></trkpt><trkpt lat="44.45421421965728" lon="8.97520129770876"><ele>71.83333333333334</ele><time>2026-04-04T09:32:52.001Z</time></trkpt><trkpt lat="44.454252412888756" lon="8.97511337542361"><ele>71.0</ele><time>2026-04-04T09:32:56.001Z</time></trkpt><trkpt lat="44.45429621353613" lon="8.975027669939779"><ele>75.0</ele><time>2026-04-04T09:33:00.001Z</time></trkpt><trkpt lat="44.4543446460683" lon="8.974947457235906"><ele>79.0</ele><time>2026-04-04T09:33:04.001Z</time></trkpt><trkpt lat="44.45439525755895" lon="8.974857839728575"><ele>83.0</ele><time>2026-04-04T09:33:08.001Z</time></trkpt><trkpt lat="44.4544461471074" lon="8.97477588884685"><ele>87.0</ele><time>2026-04-04T09:33:12.001Z</time></trkpt><trkpt lat="44.4544993564567" lon="8.97469471068124"><ele>91.0</ele><time>2026-04-04T09:33:16.001Z</time></trkpt><trkpt lat="44.45457172752458" lon="8.974661258199331"><ele>95.0</ele><time>2026-04-04T09:33:20.001Z</time></trkpt><trkpt lat="44.45464969676575" lon="8.974665336204053"><ele>96.16666666666667</ele><time>2026-04-04T09:33:24.001Z</time></trkpt><trkpt lat="44.45471844684369" lon="8.974730944755455"><ele>97.33333333333334</ele><time>2026-04-04T09:33:28.001Z</time></trkpt><trkpt lat="44.454760911833645" lon="8.974833490106175"><ele>98.5</ele><time>2026-04-04T09:33:32.001Z</time></trkpt><trkpt lat="44.45478298846582" lon="8.974934352092138"><ele>99.66666666666667</ele><time>2026-04-04T09:33:37.001Z</time></trkpt><trkpt lat="44.45481420945706" lon="8.975011240653798"><ele>100.83333333333333</ele><time>2026-04-04T09:36:27.002Z</time></trkpt><trkpt lat="44.45486072672201" lon="8.975113337389095"><ele>102.0</ele><time>2026-04-04T09:36:31.002Z</time></trkpt><trkpt lat="44.454937393936305" lon="8.97517022619866"><ele>99.28571428571429</ele><time>2026-04-04T09:36:34.002Z</time></trkpt><trkpt lat="44.454987156421325" lon="8.97524133340038"><ele>96.57142857142858</ele><time>2026-04-04T09:36:37.002Z</time></trkpt><trkpt lat="44.455029856970455" lon="8.97531351111454"><ele>93.85714285714286</ele><time>2026-04-04T09:36:40.002Z</time></trkpt><trkpt lat="44.455080106383164" lon="8.975377383723025"><ele>91.14285714285714</ele><time>2026-04-04T09:36:43.002Z</time></trkpt><trkpt lat="44.45514143618849" lon="8.975457657640211"><ele>88.42857142857143</ele><time>2026-04-04T09:36:47Z</time></trkpt><trkpt lat="44.45520059097108" lon="8.97551858326715"><ele>85.71428571428571</ele><time>2026-04-04T09:36:50Z</time></trkpt><trkpt lat="44.45525125274792" lon="8.97557487740099"><ele>83.0</ele><time>2026-04-04T09:36:53Z</time></trkpt><trkpt lat="44.455321745999164" lon="8.975632751766085"><ele>83.0</ele><time>2026-04-04T09:36:57Z</time></trkpt><trkpt lat="44.455386377180304" lon="8.975695145033809"><ele>83.0</ele><time>2026-04-04T09:37:01Z</time></trkpt><trkpt lat="44.455450457343865" lon="8.975760800004593"><ele>83.0</ele><time>2026-04-04T09:37:05Z</time></trkpt><trkpt lat="44.455503788211736" lon="8.97582573541128"><ele>83.0</ele><time>2026-04-04T09:37:09Z</time></trkpt><trkpt lat="44.45557656103429" lon="8.975858584511679"><ele>83.0</ele><time>2026-04-04T09:37:14Z</time></trkpt><trkpt lat="44.45565933311906" lon="8.975845378111318"><ele>83.0</ele><time>2026-04-04T09:37:18Z</time></trkpt><trkpt lat="44.45572882382897" lon="8.975851816767213"><ele>85.85714285714285</ele><time>2026-04-04T09:37:21Z</time></trkpt><trkpt lat="44.45579216135646" lon="8.975837534983931"><ele>88.71428571428572</ele><time>2026-04-04T09:37:25.001Z</time></trkpt><trkpt lat="44.455852134643905" lon="8.975798665207476"><ele>91.57142857142857</ele><time>2026-04-04T09:37:29.001Z</time></trkpt><trkpt lat="44.45592184823009" lon="8.975757453384235"><ele>94.42857142857142</ele><time>2026-04-04T09:37:33.001Z</time></trkpt><trkpt lat="44.45598180911028" lon="8.97570893769478"><ele>97.28571428571428</ele><time>2026-04-04T09:37:37.001Z</time></trkpt><trkpt lat="44.4560086614651" lon="8.975605938216452"><ele>100.14285714285714</ele><time>2026-04-04T09:37:45.001Z</time></trkpt><trkpt lat="44.45593058429191" lon="8.975604928515729"><ele>103.0</ele><time>2026-04-04T09:37:50.001Z</time></trkpt><trkpt lat="44.45587495160605" lon="8.975655181741299"><ele>102.99999999999999</ele><time>2026-04-04T09:37:53.001Z</time></trkpt><trkpt lat="44.455805647562464" lon="8.975684537325906"><ele>103.0</ele><time>2026-04-04T09:37:57.001Z</time></trkpt><trkpt lat="44.45574514188171" lon="8.975717045747935"><ele>103.0</ele><time>2026-04-04T09:38:00.001Z</time></trkpt><trkpt lat="44.45568142141479" lon="8.975713808527255"><ele>103.0</ele><time>2026-04-04T09:38:03.001Z</time></trkpt><trkpt lat="44.455626598098014" lon="8.975662099694414"><ele>103.0</ele><time>2026-04-04T09:38:06.001Z</time></trkpt><trkpt lat="44.455578753783904" lon="8.975571733136492"><ele>102.99999999999999</ele><time>2026-04-04T09:38:10.001Z</time></trkpt><trkpt lat="44.45553177689118" lon="8.97548927364644"><ele>103.0</ele><time>2026-04-04T09:38:14.001Z</time></trkpt><trkpt lat="44.45549798484992" lon="8.975391470655255"><ele>103.00000000000001</ele><time>2026-04-04T09:38:18.002Z</time></trkpt><trkpt lat="44.45546051314635" lon="8.975300397117483"><ele>103.0</ele><time>2026-04-04T09:38:22.002Z</time></trkpt><trkpt lat="44.45542536938156" lon="8.975209943861767"><ele>103.0</ele><time>2026-04-04T09:38:26.002Z</time></trkpt><trkpt lat="44.45538510307094" lon="8.975125741759088"><ele>103.0</ele><time>2026-04-04T09:38:30.002Z</time></trkpt><trkpt lat="44.45534378883799" lon="8.975037311944881"><ele>103.00000000000001</ele><time>2026-04-04T09:38:34.002Z</time></trkpt><trkpt lat="44.455292776575114" lon="8.97494757453473"><ele>103.0</ele><time>2026-04-04T09:38:38.002Z</time></trkpt><trkpt lat="44.45524053712528" lon="8.974861203268434"><ele>102.85714285714285</ele><time>2026-04-04T09:38:42.002Z</time></trkpt><trkpt lat="44.45519930702088" lon="8.974775078334044"><ele>102.71428571428571</ele><time>2026-04-04T09:38:45.002Z</time></trkpt><trkpt lat="44.45516201756271" lon="8.974697253931309"><ele>102.57142857142857</ele><time>2026-04-04T09:38:48.002Z</time></trkpt><trkpt lat="44.45512650201176" lon="8.974617075325181"><ele>102.42857142857142</ele><time>2026-04-04T09:38:51Z</time></trkpt><trkpt lat="44.45509048508178" lon="8.974539408989386"><ele>102.28571428571429</ele><time>2026-04-04T09:38:54Z</time></trkpt><trkpt lat="44.45505713278605" lon="8.974458146121863"><ele>102.14285714285714</ele><time>2026-04-04T09:38:57Z</time></trkpt><trkpt lat="44.45503337033326" lon="8.974372372091961"><ele>102.0</ele><time>2026-04-04T09:39:00Z</time></trkpt><trkpt lat="44.45501686608945" lon="8.97428477077009"><ele>102.0</ele><time>2026-04-04T09:39:03Z</time></trkpt><trkpt lat="44.45499163609212" lon="8.974200211018713"><ele>102.0</ele><time>2026-04-04T09:39:06Z</time></trkpt><trkpt lat="44.45498072744487" lon="8.974110645452521"><ele>102.0</ele><time>2026-04-04T09:39:09Z</time></trkpt><trkpt lat="44.45494659073915" lon="8.974002815686648"><ele>102.0</ele><time>2026-04-04T09:39:13Z</time></trkpt><trkpt lat="44.45493088854245" lon="8.973916905597196"><ele>102.0</ele><time>2026-04-04T09:39:16Z</time></trkpt><trkpt lat="44.454921314431004" lon="8.973801735513083"><ele>102.0</ele><time>2026-04-04T09:39:20Z</time></trkpt><trkpt lat="44.45492361373449" lon="8.973706175421654"><ele>102.0</ele><time>2026-04-04T09:39:23Z</time></trkpt><trkpt lat="44.45487534873236" lon="8.97364919007549"><ele>105.0</ele><time>2026-04-04T09:39:26Z</time></trkpt><trkpt lat="44.454842253680965" lon="8.973561591316539"><ele>108.0</ele><time>2026-04-04T09:39:30Z</time></trkpt><trkpt lat="44.45478032309372" lon="8.973534839649556"><ele>111.0</ele><time>2026-04-04T09:39:34Z</time></trkpt><trkpt lat="44.45469959467536" lon="8.973434562381028"><ele>114.0</ele><time>2026-04-04T09:48:11.002Z</time></trkpt><trkpt lat="44.454591369062406" lon="8.973493821390438"><ele>117.0</ele><time>2026-04-04T09:50:04.001Z</time></trkpt><trkpt lat="44.45453827113197" lon="8.97356673142977"><ele>120.0</ele><time>2026-04-04T09:50:08.001Z</time></trkpt><trkpt lat="44.45449200015928" lon="8.973669978681222"><ele>120.5</ele><time>2026-04-04T09:50:12.001Z</time></trkpt><trkpt lat="44.454452224152455" lon="8.973775125557504"><ele>121.0</ele><time>2026-04-04T09:50:16.001Z</time></trkpt><trkpt lat="44.454403218855816" lon="8.973852485654922"><ele>121.5</ele><time>2026-04-04T09:50:19.001Z</time></trkpt><trkpt lat="44.45435920001841" lon="8.973943864420818"><ele>122.0</ele><time>2026-04-04T09:50:22.001Z</time></trkpt><trkpt lat="44.45430402582372" lon="8.97402555342408"><ele>122.5</ele><time>2026-04-04T09:50:25.001Z</time></trkpt><trkpt lat="44.454256149042955" lon="8.97413639228102"><ele>123.0</ele><time>2026-04-04T09:50:28.001Z</time></trkpt><trkpt lat="44.45421420094334" lon="8.974240750987816"><ele>118.33333333333333</ele><time>2026-04-04T09:50:31.001Z</time></trkpt><trkpt lat="44.45415557249553" lon="8.974323996975363"><ele>113.66666666666667</ele><time>2026-04-04T09:50:34.001Z</time></trkpt><trkpt lat="44.454082403017544" lon="8.974392365281158"><ele>109.0</ele><time>2026-04-04T09:50:37.001Z</time></trkpt><trkpt lat="44.45401335209701" lon="8.974390416902471"><ele>104.33333333333334</ele><time>2026-04-04T09:50:39.001Z</time></trkpt><trkpt lat="44.45392133171472" lon="8.974358915192138"><ele>99.66666666666667</ele><time>2026-04-04T09:50:42.002Z</time></trkpt><trkpt lat="44.453860281818585" lon="8.974322170498624"><ele>95.0</ele><time>2026-04-04T09:50:44.002Z</time></trkpt><trkpt lat="44.453801885493796" lon="8.974268775152682"><ele>94.33333333333334</ele><time>2026-04-04T09:50:46.002Z</time></trkpt><trkpt lat="44.45372628659988" lon="8.974197768875745"><ele>93.66666666666667</ele><time>2026-04-04T09:50:49.002Z</time></trkpt><trkpt lat="44.45366698987273" lon="8.974119405840378"><ele>93.0</ele><time>2026-04-04T09:50:52.002Z</time></trkpt><trkpt lat="44.45359981911624" lon="8.97402733113592"><ele>92.33333333333333</ele><time>2026-04-04T09:50:55.002Z</time></trkpt><trkpt lat="44.45354317540817" lon="8.973940450663408"><ele>91.66666666666666</ele><time>2026-04-04T09:50:58.002Z</time></trkpt><trkpt lat="44.45348595789603" lon="8.973859970749388"><ele>91.0</ele><time>2026-04-04T09:51:01.002Z</time></trkpt><trkpt lat="44.45342014815033" lon="8.973783511312195"><ele>93.14285714285714</ele><time>2026-04-04T09:51:04.002Z</time></trkpt><trkpt lat="44.45337110588754" lon="8.97372039759817"><ele>95.28571428571428</ele><time>2026-04-04T09:51:06.002Z</time></trkpt><trkpt lat="44.45331288905148" lon="8.973665323993966"><ele>97.42857142857143</ele><time>2026-04-04T09:51:08.002Z</time></trkpt><trkpt lat="44.45325971644447" lon="8.97361483963634"><ele>99.57142857142857</ele><time>2026-04-04T09:51:10.002Z</time></trkpt><trkpt lat="44.45320004413006" lon="8.97357276663502"><ele>101.71428571428571</ele><time>2026-04-04T09:51:12.002Z</time></trkpt><trkpt lat="44.45312964314894" lon="8.973497781966753"><ele>103.85714285714286</ele><time>2026-04-04T09:51:15.002Z</time></trkpt><trkpt lat="44.45307911696796" lon="8.97344128318421"><ele>106.0</ele><time>2026-04-04T09:51:17.002Z</time></trkpt><trkpt lat="44.453020229529486" lon="8.973397413641317"><ele>107.50000000000001</ele><time>2026-04-04T09:51:19.002Z</time></trkpt><trkpt lat="44.45296597551525" lon="8.973339444676979"><ele>109.0</ele><time>2026-04-04T09:51:21.002Z</time></trkpt><trkpt lat="44.45289404616007" lon="8.973289229194766"><ele>110.5</ele><time>2026-04-04T09:51:24.002Z</time></trkpt><trkpt lat="44.45282051983921" lon="8.973215708631109"><ele>112.0</ele><time>2026-04-04T09:51:27.002Z</time></trkpt><trkpt lat="44.45274135027015" lon="8.973161374715628"><ele>113.50000000000001</ele><time>2026-04-04T09:51:30.002Z</time></trkpt><trkpt lat="44.45268734939057" lon="8.973115714217299"><ele>115.0</ele><time>2026-04-04T09:51:32.002Z</time></trkpt><trkpt lat="44.45260846727952" lon="8.973077806746597"><ele>115.00000000000001</ele><time>2026-04-04T09:51:35.002Z</time></trkpt><trkpt lat="44.45253010074889" lon="8.973062335875245"><ele>115.0</ele><time>2026-04-04T09:51:38.001Z</time></trkpt><trkpt lat="44.452447252175446" lon="8.973058398567545"><ele>115.0</ele><time>2026-04-04T09:51:41.001Z</time></trkpt><trkpt lat="44.452369339842804" lon="8.973067724034284"><ele>115.0</ele><time>2026-04-04T09:51:44.001Z</time></trkpt><trkpt lat="44.4522982584629" lon="8.973085936314998"><ele>115.00000000000001</ele><time>2026-04-04T09:51:47.001Z</time></trkpt><trkpt lat="44.45223086904521" lon="8.973085352264698"><ele>115.0</ele><time>2026-04-04T09:51:50.001Z</time></trkpt><trkpt lat="44.45214482789438" lon="8.973084897146055"><ele>110.66666666666667</ele><time>2026-04-04T09:51:53.001Z</time></trkpt><trkpt lat="44.45208088502227" lon="8.97305354992159"><ele>106.33333333333334</ele><time>2026-04-04T09:51:56.001Z</time></trkpt><trkpt lat="44.45200897365993" lon="8.973010303548953"><ele>102.0</ele><time>2026-04-04T09:51:59.001Z</time></trkpt><trkpt lat="44.45193065052597" lon="8.972968209475649"><ele>97.66666666666667</ele><time>2026-04-04T09:52:02.001Z</time></trkpt><trkpt lat="44.45191097958187" lon="8.972873317871297"><ele>93.33333333333334</ele><time>2026-04-04T09:52:06.001Z</time></trkpt><trkpt lat="44.451963598333485" lon="8.972783405387407"><ele>89.0</ele><time>2026-04-04T09:52:09.001Z</time></trkpt><trkpt lat="44.45200701874217" lon="8.972667787527397"><ele>89.0</ele><time>2026-04-04T09:52:12.001Z</time></trkpt><trkpt lat="44.45204557639479" lon="8.972558308937838"><ele>89.0</ele><time>2026-04-04T09:52:15.001Z</time></trkpt><trkpt lat="44.45208299779376" lon="8.972462825698257"><ele>89.0</ele><time>2026-04-04T09:52:18.001Z</time></trkpt><trkpt lat="44.45211552635255" lon="8.972361604728365"><ele>89.0</ele><time>2026-04-04T09:52:21.001Z</time></trkpt><trkpt lat="44.45214478221141" lon="8.972240227261816"><ele>89.0</ele><time>2026-04-04T09:52:24.001Z</time></trkpt><trkpt lat="44.45217145733594" lon="8.97212473971007"><ele>89.0</ele><time>2026-04-04T09:52:27.001Z</time></trkpt><trkpt lat="44.452223541895144" lon="8.972017493458653"><ele>95.16666666666667</ele><time>2026-04-04T09:52:30.001Z</time></trkpt><trkpt lat="44.452277781765005" lon="8.971910459251339"><ele>101.33333333333334</ele><time>2026-04-04T09:52:33.001Z</time></trkpt><trkpt lat="44.45232201261031" lon="8.971839176340131"><ele>107.5</ele><time>2026-04-04T09:52:36.001Z</time></trkpt><trkpt lat="44.452371336280684" lon="8.971783832311589"><ele>113.66666666666667</ele><time>2026-04-04T09:52:38.001Z</time></trkpt><trkpt lat="44.452431201812225" lon="8.971697789804173"><ele>119.83333333333333</ele><time>2026-04-04T09:52:41.001Z</time></trkpt><trkpt lat="44.45250665264333" lon="8.971624740828553"><ele>126.0</ele><time>2026-04-04T09:52:44.001Z</time></trkpt><trkpt lat="44.45256109820238" lon="8.971564151545609"><ele>126.0</ele><time>2026-04-04T09:52:46.001Z</time></trkpt><trkpt lat="44.45261085677613" lon="8.971488516814208"><ele>126.0</ele><time>2026-04-04T09:52:49.001Z</time></trkpt><trkpt lat="44.45266642802627" lon="8.971393012323553"><ele>126.0</ele><time>2026-04-04T09:52:52.001Z</time></trkpt><trkpt lat="44.45271405763624" lon="8.971308066232094"><ele>126.0</ele><time>2026-04-04T09:52:55.002Z</time></trkpt><trkpt lat="44.452722495251" lon="8.97121612955533"><ele>126.0</ele><time>2026-04-04T09:52:58.002Z</time></trkpt><trkpt lat="44.452658460174355" lon="8.97118675605186"><ele>126.0</ele><time>2026-04-04T09:53:01.002Z</time></trkpt><trkpt lat="44.4525894925262" lon="8.971175035707468"><ele>126.0</ele><time>2026-04-04T09:53:03.002Z</time></trkpt><trkpt lat="44.45250018093064" lon="8.971149594567043"><ele>126.0</ele><time>2026-04-04T09:53:06.002Z</time></trkpt><trkpt lat="44.45243085158622" lon="8.971149627469476"><ele>126.0</ele><time>2026-04-04T09:53:08.002Z</time></trkpt><trkpt lat="44.45236482782861" lon="8.971141115116993"><ele>126.0</ele><time>2026-04-04T09:53:10.002Z</time></trkpt><trkpt lat="44.45229923630917" lon="8.971150650854732"><ele>126.0</ele><time>2026-04-04T09:53:12.002Z</time></trkpt><trkpt lat="44.45220715171485" lon="8.971169553364875"><ele>126.0</ele><time>2026-04-04T09:53:15.002Z</time></trkpt><trkpt lat="44.452133115107436" lon="8.97118469881838"><ele>126.0</ele><time>2026-04-04T09:53:17.002Z</time></trkpt><trkpt lat="44.452063018040796" lon="8.971203805716888"><ele>126.0</ele><time>2026-04-04T09:53:19.002Z</time></trkpt><trkpt lat="44.45198405907762" lon="8.971199920774321"><ele>122.5</ele><time>2026-04-04T09:53:22.002Z</time></trkpt><trkpt lat="44.45189205939472" lon="8.971206003850808"><ele>119.0</ele><time>2026-04-04T09:53:25.002Z</time></trkpt><trkpt lat="44.451815957384625" lon="8.97120670920993"><ele>115.5</ele><time>2026-04-04T09:53:28.002Z</time></trkpt><trkpt lat="44.451725125359104" lon="8.971211713664918"><ele>112.0</ele><time>2026-04-04T09:53:31.002Z</time></trkpt><trkpt lat="44.451662469799565" lon="8.97119838475868"><ele>108.5</ele><time>2026-04-04T09:53:33.002Z</time></trkpt><trkpt lat="44.45160194512618" lon="8.971165142336197"><ele>105.0</ele><time>2026-04-04T09:53:35.002Z</time></trkpt><trkpt lat="44.4515454489294" lon="8.971109716504381"><ele>105.0</ele><time>2026-04-04T09:53:37.002Z</time></trkpt><trkpt lat="44.45149749503849" lon="8.970996235666796"><ele>105.0</ele><time>2026-04-04T09:53:40.002Z</time></trkpt><trkpt lat="44.451458705259455" lon="8.970918984541642"><ele>105.0</ele><time>2026-04-04T09:53:42.002Z</time></trkpt><trkpt lat="44.45143713769069" lon="8.970823654957172"><ele>105.0</ele><time>2026-04-04T09:53:44.002Z</time></trkpt><trkpt lat="44.4514208295288" lon="8.97073111835219"><ele>105.0</ele><time>2026-04-04T09:53:46.001Z</time></trkpt><trkpt lat="44.4513940574799" lon="8.97064543094732"><ele>105.0</ele><time>2026-04-04T09:53:48.001Z</time></trkpt><trkpt lat="44.45135610908081" lon="8.9705681728964"><ele>105.0</ele><time>2026-04-04T09:53:50.001Z</time></trkpt><trkpt lat="44.45130368282626" lon="8.970496592456252"><ele>105.0</ele><time>2026-04-04T09:53:52.001Z</time></trkpt><trkpt lat="44.451226148494015" lon="8.970441359969735"><ele>105.0</ele><time>2026-04-04T09:53:55.001Z</time></trkpt><trkpt lat="44.45116654315567" lon="8.970405712085975"><ele>105.0</ele><time>2026-04-04T09:53:57.001Z</time></trkpt><trkpt lat="44.45111255306154" lon="8.970349963960905"><ele>105.0</ele><time>2026-04-04T09:53:59.001Z</time></trkpt><trkpt lat="44.451059656319565" lon="8.970294048101072"><ele>105.0</ele><time>2026-04-04T09:54:01.001Z</time></trkpt><trkpt lat="44.45100947068744" lon="8.970228120387263"><ele>105.0</ele><time>2026-04-04T09:54:03.001Z</time></trkpt><trkpt lat="44.45096534801461" lon="8.970158304991921"><ele>105.0</ele><time>2026-04-04T09:54:05.001Z</time></trkpt><trkpt lat="44.450920592167066" lon="8.970048709541398"><ele>106.83333333333333</ele><time>2026-04-04T09:54:08.001Z</time></trkpt><trkpt lat="44.45089735692291" lon="8.969903912079085"><ele>108.66666666666666</ele><time>2026-04-04T09:54:11.001Z</time></trkpt><trkpt lat="44.450882661364936" lon="8.96981366281869"><ele>110.5</ele><time>2026-04-04T09:54:13.001Z</time></trkpt><trkpt lat="44.450882003187026" lon="8.969714108098486"><ele>112.33333333333333</ele><time>2026-04-04T09:54:15.001Z</time></trkpt><trkpt lat="44.45085890469064" lon="8.969607120345048"><ele>114.16666666666666</ele><time>2026-04-04T09:54:17.001Z</time></trkpt><trkpt lat="44.450833898545774" lon="8.969502538486891"><ele>116.0</ele><time>2026-04-04T09:54:19.001Z</time></trkpt><trkpt lat="44.45080471376873" lon="8.969405088837506"><ele>115.99999999999999</ele><time>2026-04-04T09:54:21.001Z</time></trkpt><trkpt lat="44.450734176637816" lon="8.96934196723214"><ele>116.0</ele><time>2026-04-04T09:54:23.001Z</time></trkpt><trkpt lat="44.45065260859786" lon="8.969289218959334"><ele>116.0</ele><time>2026-04-04T09:54:25.001Z</time></trkpt><trkpt lat="44.450581470848945" lon="8.969247035437968"><ele>116.0</ele><time>2026-04-04T09:54:27.001Z</time></trkpt><trkpt lat="44.450511064259416" lon="8.96918237295669"><ele>115.99999999999999</ele><time>2026-04-04T09:54:30.001Z</time></trkpt><trkpt lat="44.45049223380512" lon="8.969066749951383"><ele>116.0</ele><time>2026-04-04T09:54:33.001Z</time></trkpt><trkpt lat="44.45048120178859" lon="8.96895905603603"><ele>117.85714285714288</ele><time>2026-04-04T09:54:35.001Z</time></trkpt><trkpt lat="44.45046564482183" lon="8.96885469979501"><ele>119.71428571428572</ele><time>2026-04-04T09:54:37.001Z</time></trkpt><trkpt lat="44.450453372714925" lon="8.968748847636782"><ele>121.57142857142857</ele><time>2026-04-04T09:54:39.001Z</time></trkpt><trkpt lat="44.45044353447206" lon="8.968652888639003"><ele>123.42857142857143</ele><time>2026-04-04T09:54:41.001Z</time></trkpt><trkpt lat="44.450437431337846" lon="8.968539577316639"><ele>125.28571428571428</ele><time>2026-04-04T09:54:43.001Z</time></trkpt><trkpt lat="44.45043152475156" lon="8.968434939790367"><ele>127.14285714285712</ele><time>2026-04-04T09:54:45.001Z</time></trkpt><trkpt lat="44.450442557270826" lon="8.968344933327687"><ele>129.0</ele><time>2026-04-04T09:54:47.001Z</time></trkpt><trkpt lat="44.45043872097074" lon="8.96825494461199"><ele>124.5</ele><time>2026-04-04T09:54:49.001Z</time></trkpt><trkpt lat="44.45042632367876" lon="8.968137377841922"><ele>120.0</ele><time>2026-04-04T09:54:52.001Z</time></trkpt><trkpt lat="44.45040100069715" lon="8.968021846920559"><ele>115.5</ele><time>2026-04-04T09:54:55.001Z</time></trkpt><trkpt lat="44.45036750065965" lon="8.967931345831442"><ele>111.0</ele><time>2026-04-04T09:54:57.001Z</time></trkpt><trkpt lat="44.45035086073397" lon="8.967837465390563"><ele>106.5</ele><time>2026-04-04T09:54:59.001Z</time></trkpt><trkpt lat="44.450335269825466" lon="8.967701191677593"><ele>102.0</ele><time>2026-04-04T09:55:02.001Z</time></trkpt><trkpt lat="44.45031819444396" lon="8.967594699226106"><ele>101.83333333333333</ele><time>2026-04-04T09:55:05.001Z</time></trkpt><trkpt lat="44.45032632098007" lon="8.967493204959776"><ele>101.66666666666666</ele><time>2026-04-04T09:55:08.001Z</time></trkpt><trkpt lat="44.45037052314521" lon="8.967379008057291"><ele>101.5</ele><time>2026-04-04T09:55:11.001Z</time></trkpt><trkpt lat="44.450412833063304" lon="8.967299917789793"><ele>101.33333333333333</ele><time>2026-04-04T09:55:14.001Z</time></trkpt><trkpt lat="44.450466866539024" lon="8.967204575050296"><ele>101.16666666666666</ele><time>2026-04-04T09:55:17.001Z</time></trkpt><trkpt lat="44.45052064025504" lon="8.967102430772298"><ele>101.0</ele><time>2026-04-04T09:55:20.001Z</time></trkpt><trkpt lat="44.45054271728778" lon="8.967014708449934"><ele>105.83333333333333</ele><time>2026-04-04T09:55:22.001Z</time></trkpt><trkpt lat="44.4505618897712" lon="8.966924754919528"><ele>110.66666666666666</ele><time>2026-04-04T09:55:24.001Z</time></trkpt><trkpt lat="44.45057859828726" lon="8.966794989798366"><ele>115.5</ele><time>2026-04-04T09:55:27.001Z</time></trkpt><trkpt lat="44.450593660307135" lon="8.96667767750559"><ele>120.33333333333334</ele><time>2026-04-04T09:55:30.001Z</time></trkpt><trkpt lat="44.45062011491818" lon="8.966596934896236"><ele>125.16666666666667</ele><time>2026-04-04T09:55:32.001Z</time></trkpt><trkpt lat="44.450663610127684" lon="8.966528625069605"><ele>130.0</ele><time>2026-04-04T09:55:34.001Z</time></trkpt><trkpt lat="44.45072193976583" lon="8.966428295302165"><ele>130.0</ele><time>2026-04-04T09:55:37.001Z</time></trkpt><trkpt lat="44.4507654828471" lon="8.966363650770306"><ele>130.0</ele><time>2026-04-04T09:55:39.001Z</time></trkpt><trkpt lat="44.45082166204431" lon="8.966268351942121"><ele>130.0</ele><time>2026-04-04T09:55:42.001Z</time></trkpt><trkpt lat="44.450872969963285" lon="8.96616197792122"><ele>130.0</ele><time>2026-04-04T09:55:45.001Z</time></trkpt><trkpt lat="44.45091862650824" lon="8.966043979164432"><ele>130.0</ele><time>2026-04-04T09:55:48.001Z</time></trkpt><trkpt lat="44.45096949838716" lon="8.965938540279142"><ele>130.0</ele><time>2026-04-04T09:55:51.001Z</time></trkpt><trkpt lat="44.451012054373976" lon="8.965837224059225"><ele>132.33333333333334</ele><time>2026-04-04T09:55:54.001Z</time></trkpt><trkpt lat="44.451053981288524" lon="8.965766941160352"><ele>134.66666666666669</ele><time>2026-04-04T09:55:56.001Z</time></trkpt><trkpt lat="44.45112496612799" lon="8.965675534541045"><ele>137.0</ele><time>2026-04-04T09:55:59.001Z</time></trkpt><trkpt lat="44.45118746109717" lon="8.965648028357204"><ele>139.33333333333334</ele><time>2026-04-04T09:56:01.001Z</time></trkpt><trkpt lat="44.451263141778625" lon="8.965602762814038"><ele>141.66666666666666</ele><time>2026-04-04T09:56:04.001Z</time></trkpt><trkpt lat="44.45133557496986" lon="8.965542948571548"><ele>144.0</ele><time>2026-04-04T09:56:06.001Z</time></trkpt><trkpt lat="44.45140244077284" lon="8.965469348294754"><ele>144.00000000000003</ele><time>2026-04-04T09:56:08.001Z</time></trkpt><trkpt lat="44.45144105550522" lon="8.965395527662528"><ele>144.0</ele><time>2026-04-04T09:56:11.001Z</time></trkpt><trkpt lat="44.45149091215422" lon="8.965334247924917"><ele>144.0</ele><time>2026-04-04T09:56:13.001Z</time></trkpt><trkpt lat="44.45153650299756" lon="8.965243923982019"><ele>144.0</ele><time>2026-04-04T09:56:15.001Z</time></trkpt><trkpt lat="44.45156333384477" lon="8.965157152274111"><ele>144.0</ele><time>2026-04-04T09:56:17.001Z</time></trkpt><trkpt lat="44.45163492550837" lon="8.965057468867197"><ele>144.00000000000003</ele><time>2026-04-04T09:56:19.001Z</time></trkpt><trkpt lat="44.45166774738008" lon="8.964971147816701"><ele>144.0</ele><time>2026-04-04T09:56:21.001Z</time></trkpt><trkpt lat="44.45170318873358" lon="8.964888886819887"><ele>140.83333333333334</ele><time>2026-04-04T09:56:23.001Z</time></trkpt><trkpt lat="44.45174984801899" lon="8.964787943589682"><ele>137.66666666666666</ele><time>2026-04-04T09:56:25.001Z</time></trkpt><trkpt lat="44.45177450228549" lon="8.964667848037687"><ele>134.5</ele><time>2026-04-04T09:56:27.001Z</time></trkpt><trkpt lat="44.4518108740345" lon="8.964545582157754"><ele>131.33333333333331</ele><time>2026-04-04T09:56:29.001Z</time></trkpt><trkpt lat="44.45184522450805" lon="8.964445056954574"><ele>128.16666666666666</ele><time>2026-04-04T09:56:31.001Z</time></trkpt><trkpt lat="44.451915880773086" lon="8.964433776292783"><ele>125.0</ele><time>2026-04-04T09:56:33.001Z</time></trkpt><trkpt lat="44.45197859880208" lon="8.96446890165179"><ele>124.99999999999999</ele><time>2026-04-04T09:56:35.001Z</time></trkpt><trkpt lat="44.45204437797087" lon="8.964463536542445"><ele>125.0</ele><time>2026-04-04T09:56:37.001Z</time></trkpt><trkpt lat="44.45210622707258" lon="8.96436992835225"><ele>125.0</ele><time>2026-04-04T09:56:40.001Z</time></trkpt><trkpt lat="44.452103014336465" lon="8.964272427568792"><ele>125.0</ele><time>2026-04-04T09:56:42.001Z</time></trkpt><trkpt lat="44.45215933929951" lon="8.964165243206889"><ele>124.99999999999999</ele><time>2026-04-04T09:56:45.001Z</time></trkpt><trkpt lat="44.452227681275026" lon="8.964027896603122"><ele>125.0</ele><time>2026-04-04T09:56:47.001Z</time></trkpt><trkpt lat="44.45230308903632" lon="8.964029994374327"><ele>126.66666666666666</ele><time>2026-04-04T09:56:50.001Z</time></trkpt><trkpt lat="44.452354520677396" lon="8.9639260238733"><ele>128.33333333333331</ele><time>2026-04-04T09:56:53.001Z</time></trkpt><trkpt lat="44.45240224624549" lon="8.963851884438123"><ele>130.0</ele><time>2026-04-04T09:56:55.001Z</time></trkpt><trkpt lat="44.45245058895667" lon="8.963781463321979"><ele>131.66666666666666</ele><time>2026-04-04T09:56:57.001Z</time></trkpt><trkpt lat="44.45249518924038" lon="8.963703891625416"><ele>133.33333333333334</ele><time>2026-04-04T09:56:59.001Z</time></trkpt><trkpt lat="44.45254700216559" lon="8.963624679954014"><ele>135.0</ele><time>2026-04-04T09:57:02.001Z</time></trkpt><trkpt lat="44.45260387538156" lon="8.963549728289667"><ele>135.0</ele><time>2026-04-04T09:57:05.001Z</time></trkpt><trkpt lat="44.452650524233306" lon="8.963440943828706"><ele>135.0</ele><time>2026-04-04T09:57:08.001Z</time></trkpt><trkpt lat="44.45268931588739" lon="8.963365135867186"><ele>135.0</ele><time>2026-04-04T09:57:10.001Z</time></trkpt><trkpt lat="44.45273867575925" lon="8.963272861470498"><ele>135.0</ele><time>2026-04-04T09:57:12.001Z</time></trkpt><trkpt lat="44.45279069385653" lon="8.963191772912747"><ele>135.0</ele><time>2026-04-04T09:57:14.001Z</time></trkpt><trkpt lat="44.45284468285454" lon="8.963101989563754"><ele>135.0</ele><time>2026-04-04T09:57:16.001Z</time></trkpt><trkpt lat="44.4528979820919" lon="8.963001608499566"><ele>136.33333333333334</ele><time>2026-04-04T09:57:18.001Z</time></trkpt><trkpt lat="44.45293851228924" lon="8.962899007667309"><ele>137.66666666666666</ele><time>2026-04-04T09:57:20.001Z</time></trkpt><trkpt lat="44.452984843281754" lon="8.962810233993729"><ele>139.0</ele><time>2026-04-04T09:57:22.001Z</time></trkpt><trkpt lat="44.45304596312169" lon="8.962764037064952"><ele>140.33333333333331</ele><time>2026-04-04T09:57:25.001Z</time></trkpt><trkpt lat="44.45314947258792" lon="8.962724607269699"><ele>141.66666666666666</ele><time>2026-04-04T09:57:27.001Z</time></trkpt><trkpt lat="44.453229599938645" lon="8.962713607077625"><ele>143.0</ele><time>2026-04-04T09:57:29.001Z</time></trkpt><trkpt lat="44.45330694820808" lon="8.962714202096075"><ele>143.0</ele><time>2026-04-04T09:57:31.001Z</time></trkpt><trkpt lat="44.45338095229049" lon="8.962715841715085"><ele>143.0</ele><time>2026-04-04T09:57:33.001Z</time></trkpt><trkpt lat="44.4534768233483" lon="8.962725855150005"><ele>143.0</ele><time>2026-04-04T09:57:36.001Z</time></trkpt><trkpt lat="44.45353597158116" lon="8.962670664977663"><ele>143.0</ele><time>2026-04-04T09:57:38.001Z</time></trkpt><trkpt lat="44.45361093776525" lon="8.96266207157558"><ele>143.0</ele><time>2026-04-04T09:57:40.001Z</time></trkpt><trkpt lat="44.45367978384789" lon="8.96269419771792"><ele>143.0</ele><time>2026-04-04T09:57:42.001Z</time></trkpt><trkpt lat="44.453751583229284" lon="8.962683180193906"><ele>144.33333333333331</ele><time>2026-04-04T09:57:44.001Z</time></trkpt><trkpt lat="44.453840244190815" lon="8.9626542386024"><ele>145.66666666666666</ele><time>2026-04-04T09:57:47.001Z</time></trkpt><trkpt lat="44.453914622192535" lon="8.962647122681554"><ele>147.0</ele><time>2026-04-04T09:57:49.001Z</time></trkpt><trkpt lat="44.45398862552064" lon="8.962667863000554"><ele>148.33333333333334</ele><time>2026-04-04T09:57:51.001Z</time></trkpt><trkpt lat="44.45405684695134" lon="8.96265062513466"><ele>149.66666666666669</ele><time>2026-04-04T09:57:53.001Z</time></trkpt><trkpt lat="44.45413357420595" lon="8.962652538886514"><ele>151.0</ele><time>2026-04-04T09:57:55.001Z</time></trkpt><trkpt lat="44.45423049411047" lon="8.962625652768383"><ele>151.00000000000003</ele><time>2026-04-04T09:57:58.001Z</time></trkpt><trkpt lat="44.45428959785664" lon="8.962587973689516"><ele>151.0</ele><time>2026-04-04T09:58:00.001Z</time></trkpt><trkpt lat="44.454373221531085" lon="8.962585524345103"><ele>151.0</ele><time>2026-04-04T09:58:03Z</time></trkpt><trkpt lat="44.45446062721973" lon="8.962581273160962"><ele>151.0</ele><time>2026-04-04T09:58:06Z</time></trkpt><trkpt lat="44.45452978879216" lon="8.96256692622542"><ele>151.0</ele><time>2026-04-04T09:59:10Z</time></trkpt><trkpt lat="44.454580214306745" lon="8.962501453054399"><ele>151.00000000000003</ele><time>2026-04-04T09:59:49Z</time></trkpt><trkpt lat="44.454576471856285" lon="8.962411671316332"><ele>151.0</ele><time>2026-04-04T10:00:24Z</time></trkpt><trkpt lat="44.45453900094223" lon="8.962338339873225"><ele>147.0</ele><time>2026-04-04T10:00:30Z</time></trkpt><trkpt lat="44.454488350166585" lon="8.962276266895532"><ele>143.0</ele><time>2026-04-04T10:00:36Z</time></trkpt><trkpt lat="44.45442954812227" lon="8.962217734227819"><ele>139.0</ele><time>2026-04-04T10:00:40Z</time></trkpt><trkpt lat="44.45435530159353" lon="8.96218064679798"><ele>135.0</ele><time>2026-04-04T10:00:43Z</time></trkpt><trkpt lat="44.45427778307578" lon="8.962140899652791"><ele>131.0</ele><time>2026-04-04T10:00:46Z</time></trkpt><trkpt lat="44.454196692894016" lon="8.962106505932839"><ele>127.0</ele><time>2026-04-04T10:00:49Z</time></trkpt><trkpt lat="44.45411207870611" lon="8.962064799348363"><ele>127.0</ele><time>2026-04-04T10:00:52Z</time></trkpt><trkpt lat="44.45403463447833" lon="8.962020428770549"><ele>127.0</ele><time>2026-04-04T10:00:55Z</time></trkpt><trkpt lat="44.45395713794147" lon="8.961967688240563"><ele>127.0</ele><time>2026-04-04T10:00:58Z</time></trkpt><trkpt lat="44.453903831452024" lon="8.961916147236993"><ele>127.0</ele><time>2026-04-04T10:01:00Z</time></trkpt><trkpt lat="44.45385839142339" lon="8.961853645389073"><ele>127.0</ele><time>2026-04-04T10:01:02Z</time></trkpt><trkpt lat="44.4538027324287" lon="8.961799487733565"><ele>127.0</ele><time>2026-04-04T10:01:04Z</time></trkpt><trkpt lat="44.45372793852005" lon="8.961757596814596"><ele>127.0</ele><time>2026-04-04T10:01:07Z</time></trkpt><trkpt lat="44.453645630079585" lon="8.961734658078077"><ele>125.16666666666667</ele><time>2026-04-04T10:01:10Z</time></trkpt><trkpt lat="44.45356309317566" lon="8.961701947402567"><ele>123.33333333333334</ele><time>2026-04-04T10:01:13Z</time></trkpt><trkpt lat="44.453500497133305" lon="8.961671248436815"><ele>121.5</ele><time>2026-04-04T10:01:15Z</time></trkpt><trkpt lat="44.45344652615465" lon="8.961618278189782"><ele>119.66666666666666</ele><time>2026-04-04T10:01:17Z</time></trkpt><trkpt lat="44.45339204558138" lon="8.961526055986637"><ele>117.83333333333333</ele><time>2026-04-04T10:01:20Z</time></trkpt><trkpt lat="44.45333917193262" lon="8.96142113530423"><ele>116.0</ele><time>2026-04-04T10:01:23Z</time></trkpt><trkpt lat="44.45330720177668" lon="8.96134361215711"><ele>115.83333333333333</ele><time>2026-04-04T10:01:25Z</time></trkpt><trkpt lat="44.45332887485008" lon="8.961234083600031"><ele>115.66666666666666</ele><time>2026-04-04T10:01:28Z</time></trkpt><trkpt lat="44.45334409447292" lon="8.961129297183593"><ele>115.5</ele><time>2026-04-04T10:01:31Z</time></trkpt><trkpt lat="44.45331487596889" lon="8.961047072528395"><ele>115.33333333333334</ele><time>2026-04-04T10:01:32Z</time></trkpt><trkpt lat="44.453306804499775" lon="8.960952131314281"><ele>115.16666666666667</ele><time>2026-04-04T10:01:33Z</time></trkpt><trkpt lat="44.45332137774148" lon="8.960851750550122"><ele>115.0</ele><time>2026-04-04T10:01:36Z</time></trkpt><trkpt lat="44.45332865295968" lon="8.960721457239407"><ele>117.00000000000001</ele><time>2026-04-04T10:01:39Z</time></trkpt><trkpt lat="44.45332287513316" lon="8.960630352339571"><ele>119.0</ele><time>2026-04-04T10:01:41Z</time></trkpt><trkpt lat="44.4533441091278" lon="8.960538955928316"><ele>121.0</ele><time>2026-04-04T10:01:43Z</time></trkpt><trkpt lat="44.45332945838101" lon="8.960425871355067"><ele>123.0</ele><time>2026-04-04T10:01:45Z</time></trkpt><trkpt lat="44.45333231714027" lon="8.960312148866949"><ele>125.00000000000001</ele><time>2026-04-04T10:01:48Z</time></trkpt><trkpt lat="44.453359626422326" lon="8.960210291861328"><ele>127.0</ele><time>2026-04-04T10:01:51Z</time></trkpt><trkpt lat="44.453302939985825" lon="8.960106379166453"><ele>127.14285714285714</ele><time>2026-04-04T10:01:53Z</time></trkpt><trkpt lat="44.45329829829585" lon="8.960010218257354"><ele>127.28571428571428</ele><time>2026-04-04T10:01:55Z</time></trkpt><trkpt lat="44.45329709396566" lon="8.959912477210555"><ele>127.42857142857142</ele><time>2026-04-04T10:01:57Z</time></trkpt><trkpt lat="44.45328967930036" lon="8.959813073027814"><ele>127.57142857142857</ele><time>2026-04-04T10:01:59Z</time></trkpt><trkpt lat="44.453287019395496" lon="8.959723495656258"><ele>127.7142857142857</ele><time>2026-04-04T10:02:01Z</time></trkpt><trkpt lat="44.45327252432781" lon="8.959612499719341"><ele>127.85714285714285</ele><time>2026-04-04T10:02:04Z</time></trkpt><trkpt lat="44.453232502379876" lon="8.959493793733746"><ele>128.0</ele><time>2026-04-04T10:02:19Z</time></trkpt><trkpt lat="44.453199746717196" lon="8.959398502185714"><ele>128.0</ele><time>2026-04-04T10:02:26Z</time></trkpt><trkpt lat="44.453216025101064" lon="8.959309740660796"><ele>127.99999999999999</ele><time>2026-04-04T10:02:35Z</time></trkpt><trkpt lat="44.45320994468421" lon="8.959217689112911"><ele>128.0</ele><time>2026-04-04T10:02:45Z</time></trkpt><trkpt lat="44.453244453084345" lon="8.95913486524936"><ele>128.0</ele><time>2026-04-04T10:02:54Z</time></trkpt><trkpt lat="44.45322552369145" lon="8.959038642770796"><ele>127.99999999999999</ele><time>2026-04-04T10:03:02Z</time></trkpt><trkpt lat="44.453246594444614" lon="8.95895163483869"><ele>128.0</ele><time>2026-04-04T10:03:09Z</time></trkpt><trkpt lat="44.45329303322811" lon="8.958883712790868"><ele>128.0</ele><time>2026-04-04T10:03:15Z</time></trkpt><trkpt lat="44.45329530686808" lon="8.958788031440877"><ele>127.49999999999999</ele><time>2026-04-04T10:03:22Z</time></trkpt><trkpt lat="44.45332786618645" lon="8.95869020013902"><ele>127.0</ele><time>2026-04-04T10:03:34Z</time></trkpt><trkpt lat="44.45335925755813" lon="8.958605120657898"><ele>126.5</ele><time>2026-04-04T10:03:39Z</time></trkpt><trkpt lat="44.45343220264936" lon="8.958534595295276"><ele>126.0</ele><time>2026-04-04T10:03:43Z</time></trkpt><trkpt lat="44.453489458334815" lon="8.9584647051037"><ele>125.49999999999999</ele><time>2026-04-04T10:03:46Z</time></trkpt><trkpt lat="44.453554078984205" lon="8.958436467326516"><ele>125.0</ele><time>2026-04-04T10:03:50Z</time></trkpt><trkpt lat="44.45364094995368" lon="8.958403247688365"><ele>124.16666666666666</ele><time>2026-04-04T10:04:00Z</time></trkpt><trkpt lat="44.453633642102915" lon="8.95830887279701"><ele>123.33333333333333</ele><time>2026-04-04T10:04:06Z</time></trkpt><trkpt lat="44.45365601916363" lon="8.958197400313452"><ele>122.5</ele><time>2026-04-04T10:04:10Z</time></trkpt><trkpt lat="44.45364946963618" lon="8.958096669290573"><ele>121.66666666666666</ele><time>2026-04-04T10:04:13Z</time></trkpt><trkpt lat="44.45365667422276" lon="8.957982881902733"><ele>120.83333333333333</ele><time>2026-04-04T10:04:17Z</time></trkpt><trkpt lat="44.45364870130019" lon="8.957883443363944"><ele>120.0</ele><time>2026-04-04T10:04:21Z</time></trkpt><trkpt lat="44.453572366314" lon="8.957899899439838"><ele>120.0</ele><time>2026-04-04T10:04:24Z</time></trkpt><trkpt lat="44.45349523101147" lon="8.957938278858451"><ele>120.0</ele><time>2026-04-04T10:04:28Z</time></trkpt><trkpt lat="44.453419264501285" lon="8.957940300162779"><ele>120.0</ele><time>2026-04-04T10:04:34Z</time></trkpt><trkpt lat="44.45335062898288" lon="8.957948449680089"><ele>120.0</ele><time>2026-04-04T10:04:40Z</time></trkpt><trkpt lat="44.4532835103555" lon="8.957962359588196"><ele>120.0</ele><time>2026-04-04T10:04:46Z</time></trkpt><trkpt lat="44.453239997367106" lon="8.958029543212751"><ele>120.0</ele><time>2026-04-04T10:04:51Z</time></trkpt><trkpt lat="44.45316191504648" lon="8.95807989793465"><ele>120.0</ele><time>2026-04-04T10:04:58Z</time></trkpt><trkpt lat="44.45309582894202" lon="8.958101171318122"><ele>120.0</ele><time>2026-04-04T10:05:02Z</time></trkpt><trkpt lat="44.45305853540267" lon="8.958178614737701"><ele>120.0</ele><time>2026-04-04T10:05:07Z</time></trkpt><trkpt lat="44.453038659104145" lon="8.958268485848373"><ele>120.0</ele><time>2026-04-04T10:05:11Z</time></trkpt><trkpt lat="44.45302895662471" lon="8.958364813354494"><ele>120.0</ele><time>2026-04-04T10:05:16Z</time></trkpt><trkpt lat="44.453006554120634" lon="8.958492125266233"><ele>120.0</ele><time>2026-04-04T10:05:21Z</time></trkpt><trkpt lat="44.453026439917394" lon="8.958582889368195"><ele>120.0</ele><time>2026-04-04T10:05:24Z</time></trkpt><trkpt lat="44.453003904155366" lon="8.958705665595586"><ele>120.83333333333333</ele><time>2026-04-04T10:05:26Z</time></trkpt><trkpt lat="44.4529765790837" lon="8.95881732642389"><ele>121.66666666666666</ele><time>2026-04-04T10:05:29Z</time></trkpt><trkpt lat="44.452922128469176" lon="8.95890339283893"><ele>122.5</ele><time>2026-04-04T10:05:32Z</time></trkpt><trkpt lat="44.45288685533299" lon="8.959008307513612"><ele>123.33333333333333</ele><time>2026-04-04T10:05:35Z</time></trkpt><trkpt lat="44.452856957762236" lon="8.959106769594484"><ele>124.16666666666666</ele><time>2026-04-04T10:05:38Z</time></trkpt><trkpt lat="44.45279480779319" lon="8.95905635115874"><ele>125.0</ele><time>2026-04-04T10:06:35Z</time></trkpt><trkpt lat="44.4527850557371" lon="8.959163344006237"><ele>125.57142857142857</ele><time>2026-04-04T10:06:54Z</time></trkpt><trkpt lat="44.45276777220302" lon="8.959264283420255"><ele>126.14285714285714</ele><time>2026-04-04T10:06:57Z</time></trkpt><trkpt lat="44.452762505245694" lon="8.959356218224078"><ele>126.71428571428571</ele><time>2026-04-04T10:06:59Z</time></trkpt><trkpt lat="44.452752454805584" lon="8.95944571291066"><ele>127.28571428571428</ele><time>2026-04-04T10:07:01Z</time></trkpt><trkpt lat="44.45276069561946" lon="8.959547440922252"><ele>127.85714285714286</ele><time>2026-04-04T10:07:03Z</time></trkpt><trkpt lat="44.45274165847443" lon="8.959663640761054"><ele>128.42857142857142</ele><time>2026-04-04T10:07:05Z</time></trkpt><trkpt lat="44.452729327970836" lon="8.959780302359286"><ele>129.0</ele><time>2026-04-04T10:07:07Z</time></trkpt><trkpt lat="44.45270425921206" lon="8.959906678811587"><ele>126.6</ele><time>2026-04-04T10:07:09Z</time></trkpt><trkpt lat="44.45269195221488" lon="8.960036225462748"><ele>124.2</ele><time>2026-04-04T10:07:11Z</time></trkpt><trkpt lat="44.45267902922782" lon="8.960171460325975"><ele>121.79999999999998</ele><time>2026-04-04T10:07:13Z</time></trkpt><trkpt lat="44.452673748221805" lon="8.960305608395274"><ele>119.39999999999999</ele><time>2026-04-04T10:07:15Z</time></trkpt><trkpt lat="44.452649385672565" lon="8.960446540422511"><ele>117.0</ele><time>2026-04-04T10:07:17Z</time></trkpt><trkpt lat="44.45261703377706" lon="8.96061048171949"><ele>117.0</ele><time>2026-04-04T10:07:19Z</time></trkpt><trkpt lat="44.45259684815906" lon="8.960696913002062"><ele>116.99999999999999</ele><time>2026-04-04T10:07:20Z</time></trkpt><trkpt lat="44.45257333876579" lon="8.960788863922824"><ele>116.99999999999999</ele><time>2026-04-04T10:07:21Z</time></trkpt><trkpt lat="44.45254090361935" lon="8.96095846345632"><ele>117.0</ele><time>2026-04-04T10:07:23Z</time></trkpt><trkpt lat="44.45251701295786" lon="8.961081443698253"><ele>117.0</ele><time>2026-04-04T10:07:25Z</time></trkpt><trkpt lat="44.45244730236006" lon="8.96121058879385"><ele>114.0</ele><time>2026-04-04T10:07:28Z</time></trkpt><trkpt lat="44.4524041841122" lon="8.961337035597861"><ele>111.0</ele><time>2026-04-04T10:07:31Z</time></trkpt><trkpt lat="44.45237562639004" lon="8.96145862835039"><ele>108.0</ele><time>2026-04-04T10:07:34Z</time></trkpt><trkpt lat="44.45233870092467" lon="8.961579019197853"><ele>105.0</ele><time>2026-04-04T10:07:37Z</time></trkpt><trkpt lat="44.4523107014709" lon="8.961679703489278"><ele>102.0</ele><time>2026-04-04T10:07:39Z</time></trkpt><trkpt lat="44.452275719723325" lon="8.961762185718106"><ele>99.0</ele><time>2026-04-04T10:07:43Z</time></trkpt><trkpt lat="44.452233495566375" lon="8.961831543854034"><ele>97.33333333333333</ele><time>2026-04-04T10:07:45Z</time></trkpt><trkpt lat="44.45218061147771" lon="8.961879850609355"><ele>95.66666666666667</ele><time>2026-04-04T10:07:48Z</time></trkpt><trkpt lat="44.45211946507997" lon="8.961969609903969"><ele>94.0</ele><time>2026-04-04T10:07:52Z</time></trkpt><trkpt lat="44.45205140687799" lon="8.96204457499411"><ele>92.33333333333334</ele><time>2026-04-04T10:07:55Z</time></trkpt><trkpt lat="44.45193806977736" lon="8.962093513752437"><ele>90.66666666666667</ele><time>2026-04-04T10:07:58Z</time></trkpt><trkpt lat="44.451858199475616" lon="8.962100836212064"><ele>89.0</ele><time>2026-04-04T10:08:00Z</time></trkpt><trkpt lat="44.4517845129145" lon="8.96210562510948"><ele>89.0</ele><time>2026-04-04T10:08:02Z</time></trkpt><trkpt lat="44.45171188375971" lon="8.962117258280589"><ele>89.0</ele><time>2026-04-04T10:08:04Z</time></trkpt><trkpt lat="44.45163899973398" lon="8.962121520495073"><ele>89.0</ele><time>2026-04-04T10:08:06Z</time></trkpt><trkpt lat="44.45156050203481" lon="8.962151686914929"><ele>89.0</ele><time>2026-04-04T10:08:09Z</time></trkpt><trkpt lat="44.45149334622063" lon="8.962202352113582"><ele>89.0</ele><time>2026-04-04T10:08:12Z</time></trkpt><trkpt lat="44.45140899388587" lon="8.962254863347127"><ele>89.0</ele><time>2026-04-04T10:08:15Z</time></trkpt><trkpt lat="44.451351483611816" lon="8.962293133062836"><ele>88.99999999999999</ele><time>2026-04-04T10:08:17Z</time></trkpt><trkpt lat="44.45129300985596" lon="8.96233328308559"><ele>89.0</ele><time>2026-04-04T10:08:19Z</time></trkpt><trkpt lat="44.45123009811289" lon="8.96238768698715"><ele>89.0</ele><time>2026-04-04T10:08:21Z</time></trkpt><trkpt lat="44.45116394525913" lon="8.962428870081066"><ele>89.0</ele><time>2026-04-04T10:08:23Z</time></trkpt><trkpt lat="44.451112593519746" lon="8.962480428996704"><ele>89.0</ele><time>2026-04-04T10:08:25Z</time></trkpt><trkpt lat="44.45103329938741" lon="8.962562440139552"><ele>88.99999999999999</ele><time>2026-04-04T10:08:28Z</time></trkpt><trkpt lat="44.450969335099636" lon="8.962598595582733"><ele>89.0</ele><time>2026-04-04T10:08:30Z</time></trkpt><trkpt lat="44.45090229159218" lon="8.962626240559565"><ele>87.0</ele><time>2026-04-04T10:08:32Z</time></trkpt><trkpt lat="44.45080621995592" lon="8.962668338767399"><ele>85.0</ele><time>2026-04-04T10:08:35Z</time></trkpt><trkpt lat="44.450706976335276" lon="8.962723255608271"><ele>83.0</ele><time>2026-04-04T10:08:38Z</time></trkpt><trkpt lat="44.450638019025966" lon="8.962750701924586"><ele>81.0</ele><time>2026-04-04T10:08:40Z</time></trkpt><trkpt lat="44.45057000803806" lon="8.962767969938692"><ele>79.0</ele><time>2026-04-04T10:08:42Z</time></trkpt><trkpt lat="44.450509129075456" lon="8.962791745863054"><ele>77.0</ele><time>2026-04-04T10:08:44Z</time></trkpt><trkpt lat="44.45044894989845" lon="8.96283554576639"><ele>81.85714285714286</ele><time>2026-04-04T10:08:46Z</time></trkpt><trkpt lat="44.45039579537594" lon="8.962885474762023"><ele>86.71428571428572</ele><time>2026-04-04T10:08:48Z</time></trkpt><trkpt lat="44.45033176673043" lon="8.962938193428936"><ele>91.57142857142857</ele><time>2026-04-04T10:08:50Z</time></trkpt><trkpt lat="44.45027345319877" lon="8.962983219583053"><ele>96.42857142857143</ele><time>2026-04-04T10:08:52Z</time></trkpt><trkpt lat="44.450234333951826" lon="8.963058696354198"><ele>101.28571428571429</ele><time>2026-04-04T10:08:54Z</time></trkpt><trkpt lat="44.45019844630401" lon="8.963146082740659"><ele>106.14285714285714</ele><time>2026-04-04T10:08:56Z</time></trkpt><trkpt lat="44.450143817629254" lon="8.963234937776585"><ele>111.0</ele><time>2026-04-04T10:08:59Z</time></trkpt><trkpt lat="44.4501036714284" lon="8.963305695738175"><ele>108.0</ele><time>2026-04-04T10:09:01Z</time></trkpt><trkpt lat="44.45004967876525" lon="8.963394293466335"><ele>105.0</ele><time>2026-04-04T10:09:04Z</time></trkpt><trkpt lat="44.45001229694174" lon="8.963469151438353"><ele>102.0</ele><time>2026-04-04T10:09:07Z</time></trkpt><trkpt lat="44.44996949933228" lon="8.963533983159559"><ele>99.0</ele><time>2026-04-04T10:09:09Z</time></trkpt><trkpt lat="44.44993528165747" lon="8.963610385452883"><ele>96.0</ele><time>2026-04-04T10:09:11Z</time></trkpt><trkpt lat="44.449896077572404" lon="8.963701242578956"><ele>93.0</ele><time>2026-04-04T10:09:14Z</time></trkpt><trkpt lat="44.4498558419104" lon="8.96377234861976"><ele>90.0</ele><time>2026-04-04T10:09:16Z</time></trkpt><trkpt lat="44.44978637873254" lon="8.963861736747551"><ele>90.0</ele><time>2026-04-04T10:09:19Z</time></trkpt><trkpt lat="44.44974274033804" lon="8.96394038666831"><ele>90.0</ele><time>2026-04-04T10:09:21Z</time></trkpt><trkpt lat="44.44969157617662" lon="8.964043409082418"><ele>90.0</ele><time>2026-04-04T10:09:24Z</time></trkpt><trkpt lat="44.449638302463896" lon="8.964132548959965"><ele>90.0</ele><time>2026-04-04T10:09:26Z</time></trkpt><trkpt lat="44.449559952286705" lon="8.964210779260187"><ele>90.0</ele><time>2026-04-04T10:09:29Z</time></trkpt><trkpt lat="44.44950129406982" lon="8.964289055202375"><ele>90.0</ele><time>2026-04-04T10:09:32Z</time></trkpt><trkpt lat="44.44943167710008" lon="8.964375675865913"><ele>90.66666666666667</ele><time>2026-04-04T10:09:35Z</time></trkpt><trkpt lat="44.44938663060263" lon="8.96445012460831"><ele>91.33333333333333</ele><time>2026-04-04T10:09:37Z</time></trkpt><trkpt lat="44.449331145078965" lon="8.964523743919889"><ele>92.0</ele><time>2026-04-04T10:09:39Z</time></trkpt><trkpt lat="44.449278113859314" lon="8.964618991969969"><ele>92.66666666666666</ele><time>2026-04-04T10:09:42Z</time></trkpt><trkpt lat="44.44922840872759" lon="8.964696212603219"><ele>93.33333333333333</ele><time>2026-04-04T10:09:44Z</time></trkpt><trkpt lat="44.44915311453144" lon="8.964808828515135"><ele>94.0</ele><time>2026-04-04T10:09:47Z</time></trkpt><trkpt lat="44.44910867342426" lon="8.964896765592835"><ele>94.0</ele><time>2026-04-04T10:09:49Z</time></trkpt><trkpt lat="44.44905397749974" lon="8.964991111549999"><ele>94.0</ele><time>2026-04-04T10:09:51Z</time></trkpt><trkpt lat="44.4490097182648" lon="8.965097415792727"><ele>94.0</ele><time>2026-04-04T10:09:53Z</time></trkpt><trkpt lat="44.448949801586615" lon="8.965205025726796"><ele>94.0</ele><time>2026-04-04T10:09:56Z</time></trkpt><trkpt lat="44.4488993344545" lon="8.965270178042221"><ele>94.0</ele><time>2026-04-04T10:09:58Z</time></trkpt><trkpt lat="44.4488291209768" lon="8.965320218575165"><ele>94.0</ele><time>2026-04-04T10:10:00Z</time></trkpt><trkpt lat="44.44876346444903" lon="8.965372415461335"><ele>93.28571428571428</ele><time>2026-04-04T10:10:02Z</time></trkpt><trkpt lat="44.44869460053063" lon="8.965409579558555"><ele>92.57142857142857</ele><time>2026-04-04T10:10:04Z</time></trkpt><trkpt lat="44.44862042625436" lon="8.965442640051663"><ele>91.85714285714286</ele><time>2026-04-04T10:10:06Z</time></trkpt><trkpt lat="44.44854479034392" lon="8.965454786223656"><ele>91.14285714285714</ele><time>2026-04-04T10:10:08Z</time></trkpt><trkpt lat="44.44846963696226" lon="8.965478474215308"><ele>90.42857142857143</ele><time>2026-04-04T10:10:10Z</time></trkpt><trkpt lat="44.44840542995406" lon="8.965493623288728"><ele>89.71428571428571</ele><time>2026-04-04T10:10:12Z</time></trkpt><trkpt lat="44.44834090704343" lon="8.965511485022441"><ele>89.0</ele><time>2026-04-04T10:10:14Z</time></trkpt><trkpt lat="44.44825307485807" lon="8.965510286751204"><ele>89.0</ele><time>2026-04-04T10:10:17Z</time></trkpt><trkpt lat="44.44818480821268" lon="8.965483307915664"><ele>89.0</ele><time>2026-04-04T10:10:19Z</time></trkpt><trkpt lat="44.448113889889854" lon="8.965470163086506"><ele>89.0</ele><time>2026-04-04T10:10:21Z</time></trkpt><trkpt lat="44.44804123256148" lon="8.965458688991841"><ele>89.0</ele><time>2026-04-04T10:10:23Z</time></trkpt><trkpt lat="44.44793949362453" lon="8.965420687446814"><ele>89.0</ele><time>2026-04-04T10:10:26Z</time></trkpt><trkpt lat="44.447874481086295" lon="8.965422027721647"><ele>89.0</ele><time>2026-04-04T10:10:28Z</time></trkpt><trkpt lat="44.44780617400014" lon="8.965391941025787"><ele>88.14285714285714</ele><time>2026-04-04T10:10:30Z</time></trkpt><trkpt lat="44.44773962727607" lon="8.965368625368107"><ele>87.28571428571428</ele><time>2026-04-04T10:10:32Z</time></trkpt><trkpt lat="44.44767140121688" lon="8.965330081052075"><ele>86.42857142857142</ele><time>2026-04-04T10:10:34Z</time></trkpt><trkpt lat="44.447606810429434" lon="8.965305940041928"><ele>85.57142857142857</ele><time>2026-04-04T10:10:36Z</time></trkpt><trkpt lat="44.44753975206397" lon="8.965283235632464"><ele>84.71428571428572</ele><time>2026-04-04T10:10:38Z</time></trkpt><trkpt lat="44.447458553856855" lon="8.965264848852973"><ele>83.85714285714285</ele><time>2026-04-04T10:10:41Z</time></trkpt><trkpt lat="44.44739355694736" lon="8.965250125521036"><ele>83.0</ele><time>2026-04-04T10:10:43Z</time></trkpt><trkpt lat="44.447307273388155" lon="8.96523734405082"><ele>83.0</ele><time>2026-04-04T10:10:46Z</time></trkpt><trkpt lat="44.44724411005353" lon="8.965231523313872"><ele>83.0</ele><time>2026-04-04T10:10:48Z</time></trkpt><trkpt lat="44.44717818640287" lon="8.965210890844121"><ele>83.0</ele><time>2026-04-04T10:10:50Z</time></trkpt><trkpt lat="44.44708955545249" lon="8.965184607084298"><ele>83.0</ele><time>2026-04-04T10:10:53Z</time></trkpt><trkpt lat="44.44698960707968" lon="8.965145193947725"><ele>83.0</ele><time>2026-04-04T10:10:56Z</time></trkpt><trkpt lat="44.44690288580101" lon="8.965093384901861"><ele>83.0</ele><time>2026-04-04T10:10:59Z</time></trkpt><trkpt lat="44.44684602211421" lon="8.965031196467791"><ele>84.16666666666667</ele><time>2026-04-04T10:11:01Z</time></trkpt><trkpt lat="44.44677495462613" lon="8.964926853841494"><ele>85.33333333333334</ele><time>2026-04-04T10:11:05Z</time></trkpt><trkpt lat="44.44671231418845" lon="8.964861410398322"><ele>86.5</ele><time>2026-04-04T10:11:07Z</time></trkpt><trkpt lat="44.44663823124722" lon="8.964824688481286"><ele>87.66666666666667</ele><time>2026-04-04T10:11:09Z</time></trkpt><trkpt lat="44.44656711151663" lon="8.964775617081846"><ele>88.83333333333333</ele><time>2026-04-04T10:11:11Z</time></trkpt><trkpt lat="44.44649305376873" lon="8.964732153812658"><ele>90.0</ele><time>2026-04-04T10:11:13Z</time></trkpt><trkpt lat="44.446433674438005" lon="8.964687111934085"><ele>90.0</ele><time>2026-04-04T10:11:15Z</time></trkpt><trkpt lat="44.44635873093941" lon="8.964633083045296"><ele>90.0</ele><time>2026-04-04T10:11:18Z</time></trkpt><trkpt lat="44.4462872206645" lon="8.964557378581999"><ele>90.0</ele><time>2026-04-04T10:11:21Z</time></trkpt><trkpt lat="44.44623074775413" lon="8.964513901475215"><ele>90.0</ele><time>2026-04-04T10:11:23Z</time></trkpt><trkpt lat="44.4461718126282" lon="8.96448140802397"><ele>90.0</ele><time>2026-04-04T10:11:25Z</time></trkpt><trkpt lat="44.446113018385034" lon="8.964433344544892"><ele>90.0</ele><time>2026-04-04T10:11:27Z</time></trkpt><trkpt lat="44.44604815781951" lon="8.964383921402543"><ele>90.0</ele><time>2026-04-04T10:11:29Z</time></trkpt><trkpt lat="44.445987872662805" lon="8.96433632311229"><ele>89.66666666666667</ele><time>2026-04-04T10:11:31Z</time></trkpt><trkpt lat="44.44591795522194" lon="8.964281301457323"><ele>89.33333333333333</ele><time>2026-04-04T10:11:34Z</time></trkpt><trkpt lat="44.44583957898023" lon="8.964216327590192"><ele>89.0</ele><time>2026-04-04T10:11:37Z</time></trkpt><trkpt lat="44.44578232995831" lon="8.964145997116182"><ele>88.66666666666666</ele><time>2026-04-04T10:11:39Z</time></trkpt><trkpt lat="44.445735953274365" lon="8.964063987422907"><ele>88.33333333333333</ele><time>2026-04-04T10:11:42Z</time></trkpt><trkpt lat="44.445698145983705" lon="8.963976984879494"><ele>88.0</ele><time>2026-04-04T10:11:45Z</time></trkpt><trkpt lat="44.445666230251454" lon="8.963877812763197"><ele>88.0</ele><time>2026-04-04T10:11:48Z</time></trkpt><trkpt lat="44.44564297354633" lon="8.96376173891117"><ele>88.0</ele><time>2026-04-04T10:11:51Z</time></trkpt><trkpt lat="44.445635900063344" lon="8.963641620709835"><ele>88.0</ele><time>2026-04-04T10:11:54Z</time></trkpt><trkpt lat="44.44563964354205" lon="8.963552963028889"><ele>88.0</ele><time>2026-04-04T10:11:57Z</time></trkpt><trkpt lat="44.445672138545824" lon="8.963395934692862"><ele>88.0</ele><time>2026-04-04T10:12:00Z</time></trkpt><trkpt lat="44.44571307223575" lon="8.963312942491658"><ele>88.0</ele><time>2026-04-04T10:12:03Z</time></trkpt><trkpt lat="44.44575850962232" lon="8.96319699872191"><ele>90.83333333333333</ele><time>2026-04-04T10:12:06Z</time></trkpt><trkpt lat="44.4457964139399" lon="8.963111610895924"><ele>93.66666666666666</ele><time>2026-04-04T10:12:08Z</time></trkpt><trkpt lat="44.44584486368408" lon="8.963017901947797"><ele>96.5</ele><time>2026-04-04T10:12:11Z</time></trkpt><trkpt lat="44.4458547429053" lon="8.962891626061516"><ele>99.33333333333333</ele><time>2026-04-04T10:12:14Z</time></trkpt><trkpt lat="44.44585143929969" lon="8.962751985718459"><ele>102.16666666666667</ele><time>2026-04-04T10:12:18Z</time></trkpt><trkpt lat="44.445861370412565" lon="8.962663693011853"><ele>105.0</ele><time>2026-04-04T10:12:20Z</time></trkpt><trkpt lat="44.44587723104193" lon="8.962577078675912"><ele>104.0</ele><time>2026-04-04T10:12:22Z</time></trkpt><trkpt lat="44.44591053142428" lon="8.962487574410684"><ele>103.0</ele><time>2026-04-04T10:12:24Z</time></trkpt><trkpt lat="44.44591908131078" lon="8.962393282305767"><ele>102.0</ele><time>2026-04-04T10:12:26Z</time></trkpt><trkpt lat="44.44593373659722" lon="8.962274593191959"><ele>101.0</ele><time>2026-04-04T10:12:29Z</time></trkpt><trkpt lat="44.44594110115659" lon="8.962184434662271"><ele>100.0</ele><time>2026-04-04T10:12:31Z</time></trkpt><trkpt lat="44.445951459601474" lon="8.962093141045337"><ele>99.0</ele><time>2026-04-04T10:12:33Z</time></trkpt><trkpt lat="44.44596651755196" lon="8.962003897000418"><ele>98.0</ele><time>2026-04-04T10:12:35Z</time></trkpt><trkpt lat="44.44597798822438" lon="8.961916535073119"><ele>97.99999999999999</ele><time>2026-04-04T10:12:37Z</time></trkpt><trkpt lat="44.44599760623495" lon="8.961782849922633"><ele>98.0</ele><time>2026-04-04T10:12:40Z</time></trkpt><trkpt lat="44.44601091500402" lon="8.961683856818428"><ele>98.0</ele><time>2026-04-04T10:12:43Z</time></trkpt><trkpt lat="44.446051248847404" lon="8.961559350781314"><ele>98.0</ele><time>2026-04-04T10:12:47Z</time></trkpt><trkpt lat="44.446097198344205" lon="8.961452040578967"><ele>97.99999999999999</ele><time>2026-04-04T10:12:51Z</time></trkpt><trkpt lat="44.446128701307764" lon="8.961349476359903"><ele>98.0</ele><time>2026-04-04T10:12:54Z</time></trkpt><trkpt lat="44.446180073876604" lon="8.961252810081602"><ele>98.83333333333333</ele><time>2026-04-04T10:12:57Z</time></trkpt><trkpt lat="44.44624854038739" lon="8.961193855019788"><ele>99.66666666666666</ele><time>2026-04-04T10:13:00Z</time></trkpt><trkpt lat="44.446319401856705" lon="8.961137896577934"><ele>100.5</ele><time>2026-04-04T10:13:05Z</time></trkpt><trkpt lat="44.446389572924375" lon="8.961081585981027"><ele>101.33333333333334</ele><time>2026-04-04T10:13:08Z</time></trkpt><trkpt lat="44.44644155959012" lon="8.961014074988121"><ele>102.16666666666667</ele><time>2026-04-04T10:13:11Z</time></trkpt><trkpt lat="44.44650024019868" lon="8.960886569339202"><ele>103.0</ele><time>2026-04-04T10:13:14Z</time></trkpt><trkpt lat="44.44656161167451" lon="8.96079980607579"><ele>102.99999999999999</ele><time>2026-04-04T10:13:16Z</time></trkpt><trkpt lat="44.44661730385391" lon="8.960734709612208"><ele>103.0</ele><time>2026-04-04T10:13:18Z</time></trkpt><trkpt lat="44.44666049453753" lon="8.96065742034884"><ele>103.0</ele><time>2026-04-04T10:13:20Z</time></trkpt><trkpt lat="44.446706261327485" lon="8.960588732029496"><ele>103.0</ele><time>2026-04-04T10:13:22Z</time></trkpt><trkpt lat="44.44675616894716" lon="8.96050573430384"><ele>103.0</ele><time>2026-04-04T10:13:24Z</time></trkpt><trkpt lat="44.44680397103651" lon="8.960424505406268"><ele>102.99999999999999</ele><time>2026-04-04T10:13:26Z</time></trkpt><trkpt lat="44.44684470289622" lon="8.960339462675472"><ele>103.0</ele><time>2026-04-04T10:13:28Z</time></trkpt><trkpt lat="44.44688403752703" lon="8.960266598658905"><ele>103.00000000000001</ele><time>2026-04-04T10:13:30Z</time></trkpt><trkpt lat="44.44691757841863" lon="8.960191021232268"><ele>103.0</ele><time>2026-04-04T10:13:32Z</time></trkpt><trkpt lat="44.44696594635557" lon="8.960089702628366"><ele>103.0</ele><time>2026-04-04T10:13:35Z</time></trkpt><trkpt lat="44.44702887951837" lon="8.959989539008191"><ele>103.0</ele><time>2026-04-04T10:13:38Z</time></trkpt><trkpt lat="44.44708156075596" lon="8.959915290616676"><ele>103.00000000000001</ele><time>2026-04-04T10:13:40Z</time></trkpt><trkpt lat="44.44713764911547" lon="8.95984372043826"><ele>103.0</ele><time>2026-04-04T10:13:42Z</time></trkpt><trkpt lat="44.447200914699074" lon="8.959759833495252"><ele>106.50000000000001</ele><time>2026-04-04T10:13:45Z</time></trkpt><trkpt lat="44.447259470648234" lon="8.959673194866234"><ele>110.0</ele><time>2026-04-04T10:13:48Z</time></trkpt><trkpt lat="44.44729993503067" lon="8.959604980076241"><ele>113.5</ele><time>2026-04-04T10:13:50Z</time></trkpt><trkpt lat="44.447352805195145" lon="8.959513836357388"><ele>117.0</ele><time>2026-04-04T10:13:53Z</time></trkpt><trkpt lat="44.4473982417554" lon="8.959430053188482"><ele>120.50000000000001</ele><time>2026-04-04T10:13:56Z</time></trkpt><trkpt lat="44.4474681624284" lon="8.959341752804976"><ele>124.0</ele><time>2026-04-04T10:13:59Z</time></trkpt><trkpt lat="44.44751481223738" lon="8.959281210489454"><ele>124.00000000000001</ele><time>2026-04-04T10:14:01Z</time></trkpt><trkpt lat="44.447595340902225" lon="8.959237459236038"><ele>124.0</ele><time>2026-04-04T10:14:04Z</time></trkpt><trkpt lat="44.44767092695679" lon="8.959166623165919"><ele>124.0</ele><time>2026-04-04T10:14:07Z</time></trkpt><trkpt lat="44.447715849496475" lon="8.959049535790632"><ele>124.0</ele><time>2026-04-04T10:14:10Z</time></trkpt><trkpt lat="44.44775905000962" lon="8.958974139024773"><ele>124.00000000000001</ele><time>2026-04-04T10:14:12Z</time></trkpt><trkpt lat="44.44780384596547" lon="8.958906714068688"><ele>124.0</ele><time>2026-04-04T10:14:14Z</time></trkpt><trkpt lat="44.4478497795202" lon="8.958837258130053"><ele>124.57142857142858</ele><time>2026-04-04T10:14:16Z</time></trkpt><trkpt lat="44.44790599465795" lon="8.958779507610966"><ele>125.14285714285715</ele><time>2026-04-04T10:14:18Z</time></trkpt><trkpt lat="44.44795961703279" lon="8.958724368434188"><ele>125.71428571428572</ele><time>2026-04-04T10:14:20Z</time></trkpt><trkpt lat="44.44801722935446" lon="8.958658514205622"><ele>126.28571428571428</ele><time>2026-04-04T10:14:22Z</time></trkpt><trkpt lat="44.44808023265793" lon="8.95861675576426"><ele>126.85714285714285</ele><time>2026-04-04T10:14:24Z</time></trkpt><trkpt lat="44.44813972395203" lon="8.958577807849503"><ele>127.42857142857142</ele><time>2026-04-04T10:14:26Z</time></trkpt><trkpt lat="44.44820550622757" lon="8.958533892863967"><ele>128.0</ele><time>2026-04-04T10:14:28Z</time></trkpt><trkpt lat="44.44827571829573" lon="8.958477128401816"><ele>128.0</ele><time>2026-04-04T10:14:30Z</time></trkpt><trkpt lat="44.44833494404269" lon="8.958426231713077"><ele>127.99999999999999</ele><time>2026-04-04T10:14:32Z</time></trkpt><trkpt lat="44.44838159645272" lon="8.958359642551539"><ele>128.0</ele><time>2026-04-04T10:14:34Z</time></trkpt><trkpt lat="44.44841703628696" lon="8.958278530133688"><ele>128.0</ele><time>2026-04-04T10:14:36Z</time></trkpt><trkpt lat="44.448464088383595" lon="8.958191797134551"><ele>127.99999999999999</ele><time>2026-04-04T10:14:38Z</time></trkpt><trkpt lat="44.44851361141839" lon="8.958117973567449"><ele>128.0</ele><time>2026-04-04T10:14:40Z</time></trkpt><trkpt lat="44.448555170757345" lon="8.958037892582421"><ele>128.0</ele><time>2026-04-04T10:14:42Z</time></trkpt><trkpt lat="44.44861578157514" lon="8.95794278389032"><ele>128.85714285714286</ele><time>2026-04-04T10:14:45Z</time></trkpt><trkpt lat="44.44865947217719" lon="8.957873299354878"><ele>129.7142857142857</ele><time>2026-04-04T10:14:47Z</time></trkpt><trkpt lat="44.44869793412009" lon="8.957799948061506"><ele>130.57142857142856</ele><time>2026-04-04T10:14:49Z</time></trkpt><trkpt lat="44.44873744181504" lon="8.957710786140996"><ele>131.42857142857142</ele><time>2026-04-04T10:14:52Z</time></trkpt><trkpt lat="44.44879068622177" lon="8.957634179532691"><ele>132.28571428571428</ele><time>2026-04-04T10:14:55Z</time></trkpt><trkpt lat="44.448851696096874" lon="8.95753891372885"><ele>133.14285714285714</ele><time>2026-04-04T10:14:58Z</time></trkpt><trkpt lat="44.44889411034439" lon="8.957461578022324"><ele>134.0</ele><time>2026-04-04T10:15:00Z</time></trkpt><trkpt lat="44.44888868023066" lon="8.957344230283232"><ele>130.66666666666666</ele><time>2026-04-04T10:15:03Z</time></trkpt><trkpt lat="44.44882870009588" lon="8.957265863512871"><ele>127.33333333333333</ele><time>2026-04-04T10:15:06Z</time></trkpt><trkpt lat="44.448757676460474" lon="8.957297056420614"><ele>124.0</ele><time>2026-04-04T10:15:08Z</time></trkpt><trkpt lat="44.44869816225961" lon="8.957348426836006"><ele>120.66666666666666</ele><time>2026-04-04T10:15:10Z</time></trkpt><trkpt lat="44.448627050587895" lon="8.957396222324364"><ele>117.33333333333333</ele><time>2026-04-04T10:15:12Z</time></trkpt><trkpt lat="44.44855730913447" lon="8.95744191072071"><ele>114.0</ele><time>2026-04-04T10:15:14Z</time></trkpt><trkpt lat="44.44849511924679" lon="8.957486872145937"><ele>112.57142857142857</ele><time>2026-04-04T10:15:16Z</time></trkpt><trkpt lat="44.448431154801064" lon="8.95753301800266"><ele>111.14285714285714</ele><time>2026-04-04T10:15:18Z</time></trkpt><trkpt lat="44.4483592101839" lon="8.957577765586953"><ele>109.71428571428571</ele><time>2026-04-04T10:15:21Z</time></trkpt><trkpt lat="44.44830417051862" lon="8.957631581233908"><ele>108.28571428571428</ele><time>2026-04-04T10:15:23Z</time></trkpt><trkpt lat="44.44824287101697" lon="8.957656159500118"><ele>106.85714285714286</ele><time>2026-04-04T10:15:25Z</time></trkpt><trkpt lat="44.4481636100504" lon="8.957659906959101"><ele>105.42857142857142</ele><time>2026-04-04T10:15:27Z</time></trkpt><trkpt lat="44.448092914967766" lon="8.957661698827865"><ele>104.0</ele><time>2026-04-04T10:15:29Z</time></trkpt><trkpt lat="44.448035907952004" lon="8.95771818724691"><ele>103.57142857142857</ele><time>2026-04-04T10:15:31Z</time></trkpt><trkpt lat="44.448023223425686" lon="8.95783694632021"><ele>103.14285714285715</ele><time>2026-04-04T10:15:34Z</time></trkpt><trkpt lat="44.44796465780499" lon="8.95792837928042"><ele>102.71428571428572</ele><time>2026-04-04T10:15:37Z</time></trkpt><trkpt lat="44.447900609275955" lon="8.957960173411392"><ele>102.28571428571428</ele><time>2026-04-04T10:15:40Z</time></trkpt><trkpt lat="44.44783785256371" lon="8.957981810603606"><ele>101.85714285714286</ele><time>2026-04-04T10:15:44Z</time></trkpt><trkpt lat="44.44778150691906" lon="8.958022689424284"><ele>101.42857142857143</ele><time>2026-04-04T10:15:47Z</time></trkpt><trkpt lat="44.447725819089435" lon="8.958064199499168"><ele>101.0</ele><time>2026-04-04T10:15:51Z</time></trkpt><trkpt lat="44.44765620263042" lon="8.958121277998528"><ele>99.85714285714286</ele><time>2026-04-04T10:15:54Z</time></trkpt><trkpt lat="44.44758091677913" lon="8.958206237916345"><ele>98.71428571428571</ele><time>2026-04-04T10:15:57Z</time></trkpt><trkpt lat="44.44753043559755" lon="8.958262124772824"><ele>97.57142857142858</ele><time>2026-04-04T10:15:59Z</time></trkpt><trkpt lat="44.44747556878427" lon="8.958320280224275"><ele>96.42857142857143</ele><time>2026-04-04T10:16:01Z</time></trkpt><trkpt lat="44.44741349757221" lon="8.95837117443689"><ele>95.28571428571429</ele><time>2026-04-04T10:16:03Z</time></trkpt><trkpt lat="44.447356288462615" lon="8.958435886112754"><ele>94.14285714285715</ele><time>2026-04-04T10:16:05Z</time></trkpt><trkpt lat="44.447297964330794" lon="8.958494940391441"><ele>93.0</ele><time>2026-04-04T10:16:07Z</time></trkpt><trkpt lat="44.44723823813869" lon="8.958552896496977"><ele>92.66666666666667</ele><time>2026-04-04T10:16:09Z</time></trkpt><trkpt lat="44.44717902296665" lon="8.958592929550369"><ele>92.33333333333333</ele><time>2026-04-04T10:16:11Z</time></trkpt><trkpt lat="44.44709876915307" lon="8.958622973183902"><ele>92.0</ele><time>2026-04-04T10:16:13Z</time></trkpt><trkpt lat="44.44702110316588" lon="8.95861642833034"><ele>91.66666666666666</ele><time>2026-04-04T10:16:15Z</time></trkpt><trkpt lat="44.44694285362246" lon="8.95864378118484"><ele>91.33333333333333</ele><time>2026-04-04T10:16:17Z</time></trkpt><trkpt lat="44.4468755942053" lon="8.958692166904275"><ele>91.0</ele><time>2026-04-04T10:16:19Z</time></trkpt><trkpt lat="44.44680691526176" lon="8.958743497183663"><ele>90.0</ele><time>2026-04-04T10:16:21Z</time></trkpt><trkpt lat="44.44676961623828" lon="8.958825531755766"><ele>89.0</ele><time>2026-04-04T10:16:23Z</time></trkpt><trkpt lat="44.446725340302244" lon="8.958893041442836"><ele>88.0</ele><time>2026-04-04T10:16:25Z</time></trkpt><trkpt lat="44.44667037831562" lon="8.958963144073099"><ele>87.0</ele><time>2026-04-04T10:16:27Z</time></trkpt><trkpt lat="44.44661219390802" lon="8.959017724177874"><ele>86.0</ele><time>2026-04-04T10:16:29Z</time></trkpt><trkpt lat="44.44654946418049" lon="8.959078904209317"><ele>85.0</ele><time>2026-04-04T10:16:31Z</time></trkpt><trkpt lat="44.44647848340302" lon="8.959127111322958"><ele>84.0</ele><time>2026-04-04T10:16:33Z</time></trkpt><trkpt lat="44.446410930326245" lon="8.959175236252056"><ele>84.0</ele><time>2026-04-04T10:16:35Z</time></trkpt><trkpt lat="44.446342000380916" lon="8.95920050119346"><ele>84.0</ele><time>2026-04-04T10:16:37Z</time></trkpt><trkpt lat="44.4462739075182" lon="8.959238397055907"><ele>84.0</ele><time>2026-04-04T10:16:39Z</time></trkpt><trkpt lat="44.44619591246206" lon="8.959284054219404"><ele>84.0</ele><time>2026-04-04T10:16:42Z</time></trkpt><trkpt lat="44.446129593410745" lon="8.959328654694161"><ele>84.0</ele><time>2026-04-04T10:16:44Z</time></trkpt><trkpt lat="44.44606072095312" lon="8.959382201104459"><ele>84.0</ele><time>2026-04-04T10:16:46Z</time></trkpt><trkpt lat="44.44599577613972" lon="8.959418048420908"><ele>82.71428571428571</ele><time>2026-04-04T10:16:48Z</time></trkpt><trkpt lat="44.44593494310404" lon="8.959447065450936"><ele>81.42857142857143</ele><time>2026-04-04T10:16:50Z</time></trkpt><trkpt lat="44.44586608337537" lon="8.959479493959247"><ele>80.14285714285714</ele><time>2026-04-04T10:16:52Z</time></trkpt><trkpt lat="44.44578012141143" lon="8.959534701166406"><ele>78.85714285714286</ele><time>2026-04-04T10:16:55Z</time></trkpt><trkpt lat="44.445712027327026" lon="8.959558525391317"><ele>77.57142857142857</ele><time>2026-04-04T10:16:57Z</time></trkpt><trkpt lat="44.445643490077885" lon="8.95959998705925"><ele>76.28571428571428</ele><time>2026-04-04T10:16:59Z</time></trkpt><trkpt lat="44.44558393516392" lon="8.959634157476993"><ele>75.0</ele><time>2026-04-04T10:17:01Z</time></trkpt><trkpt lat="44.445514731120895" lon="8.959689489596276"><ele>73.66666666666667</ele><time>2026-04-04T10:17:03Z</time></trkpt><trkpt lat="44.44545475121961" lon="8.9597239730807"><ele>72.33333333333333</ele><time>2026-04-04T10:17:05Z</time></trkpt><trkpt lat="44.44540590036341" lon="8.959826326332738"><ele>71.0</ele><time>2026-04-04T10:17:08Z</time></trkpt><trkpt lat="44.445333823812" lon="8.959901029820228"><ele>69.66666666666666</ele><time>2026-04-04T10:17:11Z</time></trkpt><trkpt lat="44.44527087759939" lon="8.959939752783555"><ele>68.33333333333333</ele><time>2026-04-04T10:17:13Z</time></trkpt><trkpt lat="44.44521252176814" lon="8.959975730873749"><ele>67.0</ele><time>2026-04-04T10:17:15Z</time></trkpt><trkpt lat="44.4451323287345" lon="8.960043459362765"><ele>67.0</ele><time>2026-04-04T10:17:17Z</time></trkpt><trkpt lat="44.44503577340234" lon="8.960074662847692"><ele>67.0</ele><time>2026-04-04T10:17:20Z</time></trkpt><trkpt lat="44.44496441692629" lon="8.960090789167545"><ele>67.0</ele><time>2026-04-04T10:17:22Z</time></trkpt><trkpt lat="44.444900001967746" lon="8.960104417458227"><ele>67.0</ele><time>2026-04-04T10:17:24Z</time></trkpt><trkpt lat="44.44483791321363" lon="8.960128982474767"><ele>67.0</ele><time>2026-04-04T10:17:26Z</time></trkpt><trkpt lat="44.44476456644939" lon="8.960200781373652"><ele>67.0</ele><time>2026-04-04T10:17:30Z</time></trkpt><trkpt lat="44.44472042101617" lon="8.960333985207445"><ele>67.0</ele><time>2026-04-04T10:17:34Z</time></trkpt><trkpt lat="44.444637216781615" lon="8.960433501885271"><ele>67.0</ele><time>2026-04-04T10:17:36Z</time></trkpt><trkpt lat="44.444562465645994" lon="8.96050384856663"><ele>67.0</ele><time>2026-04-04T10:17:39Z</time></trkpt><trkpt lat="44.444491732054324" lon="8.960547610587533"><ele>67.0</ele><time>2026-04-04T10:17:44Z</time></trkpt><trkpt lat="44.44444896047801" lon="8.960623416832506"><ele>67.0</ele><time>2026-04-04T10:17:48Z</time></trkpt><trkpt lat="44.44443491720835" lon="8.960721109503146"><ele>67.0</ele><time>2026-04-04T10:17:51Z</time></trkpt><trkpt lat="44.44438562515398" lon="8.960803108940109"><ele>70.5</ele><time>2026-04-04T10:17:53Z</time></trkpt><trkpt lat="44.444331223447115" lon="8.960904641792727"><ele>74.0</ele><time>2026-04-04T10:17:56Z</time></trkpt><trkpt lat="44.44427282514591" lon="8.960972326988784"><ele>77.5</ele><time>2026-04-04T10:17:58Z</time></trkpt><trkpt lat="44.444210089997966" lon="8.961053696935634"><ele>81.0</ele><time>2026-04-04T10:18:01Z</time></trkpt><trkpt lat="44.444151680753095" lon="8.961132050218431"><ele>84.5</ele><time>2026-04-04T10:18:04Z</time></trkpt><trkpt lat="44.44409359405487" lon="8.961244696520778"><ele>88.0</ele><time>2026-04-04T10:18:07Z</time></trkpt><trkpt lat="44.44405583959966" lon="8.961366438736231"><ele>88.0</ele><time>2026-04-04T10:18:09Z</time></trkpt><trkpt lat="44.44403904947558" lon="8.961476514217688"><ele>88.0</ele><time>2026-04-04T10:18:11Z</time></trkpt><trkpt lat="44.444028092554554" lon="8.961568724062664"><ele>88.0</ele><time>2026-04-04T10:18:13Z</time></trkpt><trkpt lat="44.44400253267432" lon="8.961650540035484"><ele>88.0</ele><time>2026-04-04T10:18:16Z</time></trkpt><trkpt lat="44.443978148761374" lon="8.961782816077328"><ele>88.0</ele><time>2026-04-04T10:18:19Z</time></trkpt><trkpt lat="44.443969249287406" lon="8.961890153834883"><ele>88.0</ele><time>2026-04-04T10:18:22Z</time></trkpt><trkpt lat="44.44395472105375" lon="8.961992167201553"><ele>85.33333333333333</ele><time>2026-04-04T10:18:25Z</time></trkpt><trkpt lat="44.44392977884266" lon="8.962109147573843"><ele>82.66666666666666</ele><time>2026-04-04T10:18:28Z</time></trkpt><trkpt lat="44.44388962639526" lon="8.96221926246803"><ele>80.0</ele><time>2026-04-04T10:18:32Z</time></trkpt><trkpt lat="44.44385062148806" lon="8.962304928039817"><ele>77.33333333333333</ele><time>2026-04-04T10:18:35Z</time></trkpt><trkpt lat="44.443803287611075" lon="8.962403239697341"><ele>74.66666666666667</ele><time>2026-04-04T10:18:38Z</time></trkpt><trkpt lat="44.44375195291872" lon="8.962515975816872"><ele>72.0</ele><time>2026-04-04T10:18:41Z</time></trkpt><trkpt lat="44.44369320279054" lon="8.962571461041128"><ele>71.42857142857143</ele><time>2026-04-04T10:18:43Z</time></trkpt><trkpt lat="44.44364719160981" lon="8.962633540362372"><ele>70.85714285714286</ele><time>2026-04-04T10:18:45Z</time></trkpt><trkpt lat="44.44359392408136" lon="8.962682470632338"><ele>70.28571428571428</ele><time>2026-04-04T10:18:48Z</time></trkpt><trkpt lat="44.443519436317224" lon="8.962740189276523"><ele>69.71428571428572</ele><time>2026-04-04T10:18:51Z</time></trkpt><trkpt lat="44.44344236045805" lon="8.962796156094349"><ele>69.14285714285714</ele><time>2026-04-04T10:18:54Z</time></trkpt><trkpt lat="44.4433847877171" lon="8.962833222257627"><ele>68.57142857142857</ele><time>2026-04-04T10:18:56Z</time></trkpt><trkpt lat="44.44331927674272" lon="8.962850397167838"><ele>68.0</ele><time>2026-04-04T10:18:58Z</time></trkpt><trkpt lat="44.44324944663272" lon="8.962867853836022"><ele>68.0</ele><time>2026-04-04T10:19:00Z</time></trkpt><trkpt lat="44.44318283117464" lon="8.962851824371779"><ele>68.0</ele><time>2026-04-04T10:19:02Z</time></trkpt><trkpt lat="44.44311180597689" lon="8.962825138843428"><ele>68.0</ele><time>2026-04-04T10:19:04Z</time></trkpt><trkpt lat="44.443014909079004" lon="8.96282295174898"><ele>68.0</ele><time>2026-04-04T10:19:07Z</time></trkpt><trkpt lat="44.442933030459876" lon="8.962811537988188"><ele>68.0</ele><time>2026-04-04T10:19:10Z</time></trkpt><trkpt lat="44.44284958250516" lon="8.962786831145063"><ele>68.0</ele><time>2026-04-04T10:19:13Z</time></trkpt><trkpt lat="44.4427771373596" lon="8.9627802994704"><ele>67.0</ele><time>2026-04-04T10:19:15Z</time></trkpt><trkpt lat="44.44266843586295" lon="8.962768130738475"><ele>66.0</ele><time>2026-04-04T10:19:18Z</time></trkpt><trkpt lat="44.44260173024353" lon="8.962739908262302"><ele>65.0</ele><time>2026-04-04T10:19:21Z</time></trkpt><trkpt lat="44.44253874318281" lon="8.962716120420247"><ele>64.0</ele><time>2026-04-04T10:19:23Z</time></trkpt><trkpt lat="44.442474583095525" lon="8.96269243216105"><ele>63.00000000000001</ele><time>2026-04-04T10:19:25Z</time></trkpt><trkpt lat="44.44240179812852" lon="8.962688513305272"><ele>62.0</ele><time>2026-04-04T10:19:27Z</time></trkpt><trkpt lat="44.44230889789477" lon="8.962685827468984"><ele>62.00000000000001</ele><time>2026-04-04T10:19:30Z</time></trkpt><trkpt lat="44.442224146508046" lon="8.962670110169192"><ele>62.0</ele><time>2026-04-04T10:19:32Z</time></trkpt><trkpt lat="44.44215284329632" lon="8.96268541925025"><ele>62.0</ele><time>2026-04-04T10:19:34Z</time></trkpt><trkpt lat="44.44206210523225" lon="8.96268376623824"><ele>62.0</ele><time>2026-04-04T10:19:37Z</time></trkpt><trkpt lat="44.441989272495825" lon="8.962692467400188"><ele>62.00000000000001</ele><time>2026-04-04T10:19:39Z</time></trkpt><trkpt lat="44.44192658772807" lon="8.962670042434482"><ele>62.0</ele><time>2026-04-04T10:19:41Z</time></trkpt><trkpt lat="44.44184523057436" lon="8.962638515806328"><ele>61.50000000000001</ele><time>2026-04-04T10:19:51Z</time></trkpt><trkpt lat="44.44176288062751" lon="8.962584145778038"><ele>61.0</ele><time>2026-04-04T10:19:54Z</time></trkpt><trkpt lat="44.44168296820749" lon="8.962545365886788"><ele>60.5</ele><time>2026-04-04T10:19:57Z</time></trkpt><trkpt lat="44.441599793320776" lon="8.96250036845318"><ele>60.0</ele><time>2026-04-04T10:20:00Z</time></trkpt><trkpt lat="44.44155426435604" lon="8.962431152747437"><ele>59.50000000000001</ele><time>2026-04-04T10:20:02Z</time></trkpt><trkpt lat="44.44149950475921" lon="8.962381135148812"><ele>59.0</ele><time>2026-04-04T10:20:04Z</time></trkpt><trkpt lat="44.44140901050232" lon="8.962328588127296"><ele>60.50000000000001</ele><time>2026-04-04T10:20:07Z</time></trkpt><trkpt lat="44.441346775159445" lon="8.962275889435547"><ele>62.0</ele><time>2026-04-04T10:20:09Z</time></trkpt><trkpt lat="44.44129632150526" lon="8.96220578967301"><ele>63.5</ele><time>2026-04-04T10:20:11Z</time></trkpt><trkpt lat="44.44126493752008" lon="8.962077826480279"><ele>65.0</ele><time>2026-04-04T10:20:14Z</time></trkpt><trkpt lat="44.441231405948066" lon="8.96196669492887"><ele>66.5</ele><time>2026-04-04T10:20:16Z</time></trkpt><trkpt lat="44.44120197341821" lon="8.961876132603173"><ele>68.0</ele><time>2026-04-04T10:20:18Z</time></trkpt><trkpt lat="44.441172334204325" lon="8.961787080389135"><ele>71.16666666666667</ele><time>2026-04-04T10:20:20Z</time></trkpt><trkpt lat="44.441150348860475" lon="8.961674667978958"><ele>74.33333333333334</ele><time>2026-04-04T10:20:23Z</time></trkpt><trkpt lat="44.44115214610582" lon="8.961576641600178"><ele>77.5</ele><time>2026-04-04T10:20:25Z</time></trkpt><trkpt lat="44.44115867475938" lon="8.961461162986012"><ele>80.66666666666667</ele><time>2026-04-04T10:20:27Z</time></trkpt><trkpt lat="44.441163850655414" lon="8.961345784754803"><ele>83.83333333333333</ele><time>2026-04-04T10:20:29Z</time></trkpt><trkpt lat="44.441131715360406" lon="8.961217157688933"><ele>87.0</ele><time>2026-04-04T10:20:32Z</time></trkpt><trkpt lat="44.44106566349869" lon="8.961185509548006"><ele>87.0</ele><time>2026-04-04T10:20:34Z</time></trkpt><trkpt lat="44.44099463169445" lon="8.961115183860043"><ele>87.0</ele><time>2026-04-04T10:20:36Z</time></trkpt><trkpt lat="44.440945571194966" lon="8.961037119164175"><ele>87.0</ele><time>2026-04-04T10:20:39Z</time></trkpt><trkpt lat="44.44086897628058" lon="8.960954663497386"><ele>87.0</ele><time>2026-04-04T10:20:41Z</time></trkpt><trkpt lat="44.440775932625975" lon="8.960913286017638"><ele>87.0</ele><time>2026-04-04T10:20:44Z</time></trkpt><trkpt lat="44.44071555048499" lon="8.960873962525051"><ele>87.0</ele><time>2026-04-04T10:20:46Z</time></trkpt><trkpt lat="44.44063133311722" lon="8.96081842157483"><ele>86.57142857142857</ele><time>2026-04-04T10:20:49Z</time></trkpt><trkpt lat="44.44056189720297" lon="8.960784754972032"><ele>86.14285714285714</ele><time>2026-04-04T10:20:52Z</time></trkpt><trkpt lat="44.44050038631514" lon="8.96075373954626"><ele>85.71428571428572</ele><time>2026-04-04T10:20:55Z</time></trkpt><trkpt lat="44.44043042205581" lon="8.960715225171885"><ele>85.28571428571428</ele><time>2026-04-04T10:20:58Z</time></trkpt><trkpt lat="44.44037273267196" lon="8.960676197758668"><ele>84.85714285714286</ele><time>2026-04-04T10:21:00Z</time></trkpt><trkpt lat="44.44031440480946" lon="8.960637519870431"><ele>84.42857142857143</ele><time>2026-04-04T10:21:02Z</time></trkpt><trkpt lat="44.44025222636787" lon="8.960600810130183"><ele>84.0</ele><time>2026-04-04T10:21:04Z</time></trkpt><trkpt lat="44.440165341739956" lon="8.960537632171206"><ele>84.0</ele><time>2026-04-04T10:21:07Z</time></trkpt><trkpt lat="44.440100818662074" lon="8.960498757543812"><ele>84.0</ele><time>2026-04-04T10:21:09Z</time></trkpt><trkpt lat="44.440039370943666" lon="8.960459696467328"><ele>84.0</ele><time>2026-04-04T10:21:11Z</time></trkpt><trkpt lat="44.43997953416591" lon="8.960425001167101"><ele>84.0</ele><time>2026-04-04T10:21:13Z</time></trkpt><trkpt lat="44.43990260158619" lon="8.960379485489922"><ele>84.0</ele><time>2026-04-04T10:21:16Z</time></trkpt><trkpt lat="44.43984984350393" lon="8.960284752109283"><ele>84.0</ele><time>2026-04-04T10:21:19Z</time></trkpt><trkpt lat="44.439848383571075" lon="8.960195415217434"><ele>84.0</ele><time>2026-04-04T10:21:21Z</time></trkpt><trkpt lat="44.439871193868" lon="8.960090002523147"><ele>85.0</ele><time>2026-04-04T10:21:24Z</time></trkpt><trkpt lat="44.43985765524679" lon="8.960003031598601"><ele>86.0</ele><time>2026-04-04T10:21:31Z</time></trkpt><trkpt lat="44.43984732355393" lon="8.959910048168947"><ele>87.0</ele><time>2026-04-04T10:23:11Z</time></trkpt><trkpt lat="44.43988336998212" lon="8.959820961950903"><ele>88.0</ele><time>2026-04-04T10:23:14Z</time></trkpt><trkpt lat="44.43992147745396" lon="8.95972747046215"><ele>89.0</ele><time>2026-04-04T10:23:18Z</time></trkpt><trkpt lat="44.43996123612471" lon="8.959647913704945"><ele>90.0</ele><time>2026-04-04T10:23:21Z</time></trkpt><trkpt lat="44.44000159451202" lon="8.959574353265348"><ele>91.0</ele><time>2026-04-04T10:23:24Z</time></trkpt><trkpt lat="44.44003364481511" lon="8.959490039967724"><ele>91.0</ele><time>2026-04-04T10:23:28Z</time></trkpt><trkpt lat="44.440057508665426" lon="8.959352603398202"><ele>91.0</ele><time>2026-04-04T10:23:31Z</time></trkpt><trkpt lat="44.4400861362351" lon="8.959236899602217"><ele>91.0</ele><time>2026-04-04T10:23:33Z</time></trkpt><trkpt lat="44.44010877172674" lon="8.959128555242069"><ele>91.0</ele><time>2026-04-04T10:23:36Z</time></trkpt><trkpt lat="44.44012869736562" lon="8.959031989019838"><ele>91.0</ele><time>2026-04-04T10:23:39Z</time></trkpt><trkpt lat="44.44014037350775" lon="8.95894297232586"><ele>91.0</ele><time>2026-04-04T10:23:41Z</time></trkpt><trkpt lat="44.44015226402432" lon="8.958825176192242"><ele>90.5</ele><time>2026-04-04T10:23:44Z</time></trkpt><trkpt lat="44.440168666307684" lon="8.958669044807136"><ele>90.0</ele><time>2026-04-04T10:23:48Z</time></trkpt><trkpt lat="44.44017719532094" lon="8.958572880125429"><ele>89.5</ele><time>2026-04-04T10:23:50Z</time></trkpt><trkpt lat="44.440142840972705" lon="8.958446425999322"><ele>89.0</ele><time>2026-04-04T10:23:53Z</time></trkpt><trkpt lat="44.44010104857024" lon="8.958349070083319"><ele>88.5</ele><time>2026-04-04T10:23:55Z</time></trkpt><trkpt lat="44.44005304476332" lon="8.958283278858353"><ele>88.0</ele><time>2026-04-04T10:23:57Z</time></trkpt><trkpt lat="44.439997793934644" lon="8.958214049086815"><ele>87.28571428571429</ele><time>2026-04-04T10:23:59Z</time></trkpt><trkpt lat="44.4399421671783" lon="8.95814840167338"><ele>86.57142857142857</ele><time>2026-04-04T10:24:01Z</time></trkpt><trkpt lat="44.439888945220694" lon="8.958079711004867"><ele>85.85714285714286</ele><time>2026-04-04T10:24:03Z</time></trkpt><trkpt lat="44.439835096009254" lon="8.95801247088821"><ele>85.14285714285714</ele><time>2026-04-04T10:24:05Z</time></trkpt><trkpt lat="44.439776511182295" lon="8.957950689478627"><ele>84.42857142857143</ele><time>2026-04-04T10:24:07Z</time></trkpt><trkpt lat="44.43972197150605" lon="8.95788439481387"><ele>83.71428571428571</ele><time>2026-04-04T10:24:09Z</time></trkpt><trkpt lat="44.43967112939891" lon="8.957813433362146"><ele>83.0</ele><time>2026-04-04T10:24:11Z</time></trkpt><trkpt lat="44.439614469430836" lon="8.95776067506974"><ele>82.14285714285714</ele><time>2026-04-04T10:24:13Z</time></trkpt><trkpt lat="44.43957015285933" lon="8.957697636562923"><ele>81.28571428571429</ele><time>2026-04-04T10:24:15Z</time></trkpt><trkpt lat="44.43952227416613" lon="8.957635496032545"><ele>80.42857142857143</ele><time>2026-04-04T10:24:17Z</time></trkpt><trkpt lat="44.43944528912198" lon="8.95758953642477"><ele>79.57142857142857</ele><time>2026-04-04T10:24:20Z</time></trkpt><trkpt lat="44.439385718662734" lon="8.957634497273085"><ele>78.71428571428572</ele><time>2026-04-04T10:24:22Z</time></trkpt><trkpt lat="44.43931789055262" lon="8.957660196988604"><ele>77.85714285714286</ele><time>2026-04-04T10:24:24Z</time></trkpt><trkpt lat="44.439233976248126" lon="8.957686364459391"><ele>77.0</ele><time>2026-04-04T10:24:27Z</time></trkpt><trkpt lat="44.43915574860669" lon="8.957710562364577"><ele>77.0</ele><time>2026-04-04T10:24:30Z</time></trkpt><trkpt lat="44.43907251128956" lon="8.957741689506928"><ele>77.0</ele><time>2026-04-04T10:24:33Z</time></trkpt><trkpt lat="44.43900944527111" lon="8.95776671787839"><ele>77.0</ele><time>2026-04-04T10:24:36Z</time></trkpt><trkpt lat="44.43892901614496" lon="8.957794206054125"><ele>77.0</ele><time>2026-04-04T10:24:39Z</time></trkpt><trkpt lat="44.438859089294546" lon="8.95780716387531"><ele>77.0</ele><time>2026-04-04T10:24:41Z</time></trkpt><trkpt lat="44.43878196659368" lon="8.957873009151886"><ele>77.0</ele><time>2026-04-04T10:24:44Z</time></trkpt><trkpt lat="44.43872772216163" lon="8.957961247026484"><ele>77.71428571428571</ele><time>2026-04-04T10:24:46Z</time></trkpt><trkpt lat="44.438679312421804" lon="8.958042867252592"><ele>78.42857142857143</ele><time>2026-04-04T10:24:48Z</time></trkpt><trkpt lat="44.438627479717695" lon="8.958105166846753"><ele>79.14285714285714</ele><time>2026-04-04T10:24:50Z</time></trkpt><trkpt lat="44.43858318808254" lon="8.958179741260846"><ele>79.85714285714286</ele><time>2026-04-04T10:24:53Z</time></trkpt><trkpt lat="44.43854050052037" lon="8.958259851016075"><ele>80.57142857142857</ele><time>2026-04-04T10:24:55Z</time></trkpt><trkpt lat="44.43850176060387" lon="8.958353553126544"><ele>81.28571428571428</ele><time>2026-04-04T10:24:57Z</time></trkpt><trkpt lat="44.438464346870326" lon="8.958430922176703"><ele>82.0</ele><time>2026-04-04T10:24:59Z</time></trkpt><trkpt lat="44.43842312024963" lon="8.958515639585436"><ele>81.99999999999999</ele><time>2026-04-04T10:25:01Z</time></trkpt><trkpt lat="44.43838202419576" lon="8.958595872439286"><ele>82.0</ele><time>2026-04-04T10:25:03Z</time></trkpt><trkpt lat="44.438345075724676" lon="8.958672513031324"><ele>82.0</ele><time>2026-04-04T10:25:05Z</time></trkpt><trkpt lat="44.43829713813326" lon="8.958763187360109"><ele>82.0</ele><time>2026-04-04T10:25:08Z</time></trkpt><trkpt lat="44.43826814684792" lon="8.9588417558315"><ele>82.0</ele><time>2026-04-04T10:25:10Z</time></trkpt><trkpt lat="44.43823547132318" lon="8.958918409733151"><ele>81.99999999999999</ele><time>2026-04-04T10:25:12Z</time></trkpt><trkpt lat="44.43818688827114" lon="8.959029477878225"><ele>82.0</ele><time>2026-04-04T10:25:15Z</time></trkpt><trkpt lat="44.43815191059906" lon="8.959121269205195"><ele>82.16666666666666</ele><time>2026-04-04T10:25:18Z</time></trkpt><trkpt lat="44.43810763664654" lon="8.959213622784606"><ele>82.33333333333333</ele><time>2026-04-04T10:25:21Z</time></trkpt><trkpt lat="44.438042890843356" lon="8.959281927785005"><ele>82.5</ele><time>2026-04-04T10:25:24Z</time></trkpt><trkpt lat="44.437955328247256" lon="8.959305154011904"><ele>82.66666666666667</ele><time>2026-04-04T10:25:27Z</time></trkpt><trkpt lat="44.437867096019914" lon="8.959299284646407"><ele>82.83333333333334</ele><time>2026-04-04T10:25:30Z</time></trkpt><trkpt lat="44.43778718480832" lon="8.95927427727604"><ele>83.0</ele><time>2026-04-04T10:25:33Z</time></trkpt><trkpt lat="44.43773211760629" lon="8.959199215135735"><ele>83.0</ele><time>2026-04-04T10:25:36Z</time></trkpt><trkpt lat="44.437681794134285" lon="8.959103748463171"><ele>83.0</ele><time>2026-04-04T10:25:39Z</time></trkpt><trkpt lat="44.43761857337544" lon="8.959008686844719"><ele>83.0</ele><time>2026-04-04T10:25:42Z</time></trkpt><trkpt lat="44.43756975461459" lon="8.95892206948289"><ele>83.0</ele><time>2026-04-04T10:25:45Z</time></trkpt><trkpt lat="44.43752343219019" lon="8.95884471795172"><ele>83.0</ele><time>2026-04-04T10:25:47Z</time></trkpt><trkpt lat="44.43747431140268" lon="8.95877122776656"><ele>83.0</ele><time>2026-04-04T10:25:49Z</time></trkpt><trkpt lat="44.43742066938851" lon="8.958705392542486"><ele>83.0</ele><time>2026-04-04T10:25:51Z</time></trkpt><trkpt lat="44.43738063960228" lon="8.958628401471978"><ele>83.0</ele><time>2026-04-04T10:25:53Z</time></trkpt><trkpt lat="44.437330149694226" lon="8.958566809036958"><ele>83.0</ele><time>2026-04-04T10:25:55Z</time></trkpt><trkpt lat="44.437264261798866" lon="8.958500113904986"><ele>83.0</ele><time>2026-04-04T10:25:58Z</time></trkpt><trkpt lat="44.437208666497945" lon="8.958429872782173"><ele>83.0</ele><time>2026-04-04T10:26:01Z</time></trkpt><trkpt lat="44.43714831229822" lon="8.958364497521845"><ele>83.0</ele><time>2026-04-04T10:26:04Z</time></trkpt><trkpt lat="44.43709143377807" lon="8.958323708592001"><ele>83.0</ele><time>2026-04-04T10:26:06Z</time></trkpt><trkpt lat="44.43703306602657" lon="8.958280391326618"><ele>82.0</ele><time>2026-04-04T10:26:08Z</time></trkpt><trkpt lat="44.4369770059509" lon="8.958230194472371"><ele>81.0</ele><time>2026-04-04T10:26:11Z</time></trkpt><trkpt lat="44.43690349993428" lon="8.958168790244864"><ele>80.0</ele><time>2026-04-04T10:26:14Z</time></trkpt><trkpt lat="44.436831828869416" lon="8.958107307215815"><ele>79.0</ele><time>2026-04-04T10:26:18Z</time></trkpt><trkpt lat="44.43677501221212" lon="8.958022846243201"><ele>78.0</ele><time>2026-04-04T10:26:22Z</time></trkpt><trkpt lat="44.4367453824999" lon="8.957908867216615"><ele>77.0</ele><time>2026-04-04T10:26:26Z</time></trkpt><trkpt lat="44.43670090227988" lon="8.957804759215984"><ele>77.0</ele><time>2026-04-04T10:26:29Z</time></trkpt><trkpt lat="44.4366379312294" lon="8.95774751280338"><ele>77.0</ele><time>2026-04-04T10:26:31Z</time></trkpt><trkpt lat="44.43656842625184" lon="8.95769190671188"><ele>77.0</ele><time>2026-04-04T10:26:34Z</time></trkpt><trkpt lat="44.43650055320516" lon="8.957611522206737"><ele>77.0</ele><time>2026-04-04T10:26:37Z</time></trkpt><trkpt lat="44.43642019503129" lon="8.957542004742928"><ele>77.0</ele><time>2026-04-04T10:26:40Z</time></trkpt><trkpt lat="44.436339976736754" lon="8.957466511030615"><ele>77.0</ele><time>2026-04-04T10:26:44Z</time></trkpt><trkpt lat="44.43628480301606" lon="8.957419734028962"><ele>77.83333333333334</ele><time>2026-04-04T10:26:46Z</time></trkpt><trkpt lat="44.4362265366384" lon="8.957367266074211"><ele>78.66666666666667</ele><time>2026-04-04T10:26:48Z</time></trkpt><trkpt lat="44.43615380692039" lon="8.957303942725241"><ele>79.5</ele><time>2026-04-04T10:26:51Z</time></trkpt><trkpt lat="44.43609036492376" lon="8.95724674867966"><ele>80.33333333333333</ele><time>2026-04-04T10:26:54Z</time></trkpt><trkpt lat="44.43602714377173" lon="8.957173307632052"><ele>81.16666666666666</ele><time>2026-04-04T10:26:57Z</time></trkpt><trkpt lat="44.435959495544324" lon="8.957107914073204"><ele>82.0</ele><time>2026-04-04T10:27:00Z</time></trkpt><trkpt lat="44.435881442971656" lon="8.957021909159367"><ele>82.0</ele><time>2026-04-04T10:27:03Z</time></trkpt><trkpt lat="44.435826246836086" lon="8.956961560644155"><ele>82.0</ele><time>2026-04-04T10:27:05Z</time></trkpt><trkpt lat="44.435751278219044" lon="8.956894210527885"><ele>82.0</ele><time>2026-04-04T10:27:08Z</time></trkpt><trkpt lat="44.435653781211265" lon="8.956904909926367"><ele>82.0</ele><time>2026-04-04T10:27:11Z</time></trkpt><trkpt lat="44.43558548661974" lon="8.956927460602971"><ele>82.0</ele><time>2026-04-04T10:27:14Z</time></trkpt><trkpt lat="44.43550173996389" lon="8.956944325388108"><ele>82.0</ele><time>2026-04-04T10:27:17Z</time></trkpt><trkpt lat="44.435432896995295" lon="8.956944776687363"><ele>80.28571428571428</ele><time>2026-04-04T10:27:19Z</time></trkpt><trkpt lat="44.43536910323219" lon="8.956921816348649"><ele>78.57142857142857</ele><time>2026-04-04T10:27:21Z</time></trkpt><trkpt lat="44.4352940516701" lon="8.956872663297636"><ele>76.85714285714286</ele><time>2026-04-04T10:27:23Z</time></trkpt><trkpt lat="44.43524196844962" lon="8.956814198817588"><ele>75.14285714285714</ele><time>2026-04-04T10:27:25Z</time></trkpt><trkpt lat="44.43519072178494" lon="8.956758880569106"><ele>73.42857142857143</ele><time>2026-04-04T10:27:27Z</time></trkpt><trkpt lat="44.43512228257022" lon="8.9566844331232"><ele>71.71428571428571</ele><time>2026-04-04T10:27:30Z</time></trkpt><trkpt lat="44.435040082501224" lon="8.956681621208377"><ele>70.0</ele><time>2026-04-04T10:27:33Z</time></trkpt><trkpt lat="44.43493359128685" lon="8.956710008413538"><ele>70.0</ele><time>2026-04-04T10:27:36Z</time></trkpt><trkpt lat="44.43486689749039" lon="8.956761350522447"><ele>70.0</ele><time>2026-04-04T10:27:39Z</time></trkpt><trkpt lat="44.434758878074035" lon="8.956775490302228"><ele>70.0</ele><time>2026-04-04T10:27:42Z</time></trkpt><trkpt lat="44.43468335914241" lon="8.956801837836483"><ele>70.0</ele><time>2026-04-04T10:27:45Z</time></trkpt><trkpt lat="44.43464906039097" lon="8.956881492227485"><ele>70.0</ele><time>2026-04-04T10:27:48Z</time></trkpt><trkpt lat="44.434596047911334" lon="8.956981845016392"><ele>70.0</ele><time>2026-04-04T10:27:50Z</time></trkpt><trkpt lat="44.434525190832545" lon="8.957045076613495"><ele>72.83333333333333</ele><time>2026-04-04T10:27:53Z</time></trkpt><trkpt lat="44.43446654444675" lon="8.957142761639606"><ele>75.66666666666666</ele><time>2026-04-04T10:27:56Z</time></trkpt><trkpt lat="44.434410819108344" lon="8.957225794975658"><ele>78.5</ele><time>2026-04-04T10:27:59Z</time></trkpt><trkpt lat="44.43434864938018" lon="8.957290802505735"><ele>81.33333333333333</ele><time>2026-04-04T10:28:01Z</time></trkpt><trkpt lat="44.43428056957333" lon="8.957319974557276"><ele>84.16666666666667</ele><time>2026-04-04T10:28:04Z</time></trkpt><trkpt lat="44.434192519681595" lon="8.95734277467643"><ele>87.0</ele><time>2026-04-04T10:28:06Z</time></trkpt><trkpt lat="44.43412335027392" lon="8.957376721621138"><ele>87.0</ele><time>2026-04-04T10:28:08Z</time></trkpt><trkpt lat="44.434049702422875" lon="8.957395425753175"><ele>87.0</ele><time>2026-04-04T10:28:11Z</time></trkpt><trkpt lat="44.433970717366584" lon="8.957423853089344"><ele>87.0</ele><time>2026-04-04T10:28:13Z</time></trkpt><trkpt lat="44.43389061620148" lon="8.957463659123908"><ele>87.0</ele><time>2026-04-04T10:28:16Z</time></trkpt><trkpt lat="44.43382178102876" lon="8.95747666457095"><ele>87.0</ele><time>2026-04-04T10:28:19Z</time></trkpt><trkpt lat="44.43374715936905" lon="8.957472904008279"><ele>87.0</ele><time>2026-04-04T10:28:21Z</time></trkpt><trkpt lat="44.43367359589876" lon="8.957452665083395"><ele>85.66666666666667</ele><time>2026-04-04T10:28:23Z</time></trkpt><trkpt lat="44.43360717142749" lon="8.957403288197122"><ele>84.33333333333333</ele><time>2026-04-04T10:28:25Z</time></trkpt><trkpt lat="44.43355571382264" lon="8.957341670677447"><ele>83.0</ele><time>2026-04-04T10:28:27Z</time></trkpt><trkpt lat="44.43350694566737" lon="8.957268994876967"><ele>81.66666666666666</ele><time>2026-04-04T10:28:29Z</time></trkpt><trkpt lat="44.43345527146534" lon="8.957207534879776"><ele>80.33333333333333</ele><time>2026-04-04T10:28:31Z</time></trkpt><trkpt lat="44.43338840176705" lon="8.957113249404268"><ele>79.0</ele><time>2026-04-04T10:28:34Z</time></trkpt><trkpt lat="44.43331006640826" lon="8.95705989713832"><ele>79.00000000000001</ele><time>2026-04-04T10:28:37Z</time></trkpt><trkpt lat="44.43325198761714" lon="8.95700829484577"><ele>79.0</ele><time>2026-04-04T10:28:39Z</time></trkpt><trkpt lat="44.43319927332811" lon="8.95695766356172"><ele>79.0</ele><time>2026-04-04T10:28:41Z</time></trkpt><trkpt lat="44.43314374069355" lon="8.956903558601779"><ele>79.0</ele><time>2026-04-04T10:28:44Z</time></trkpt><trkpt lat="44.433063207634866" lon="8.95681378568809"><ele>79.0</ele><time>2026-04-04T10:28:47Z</time></trkpt><trkpt lat="44.433007641828766" lon="8.956755353517007"><ele>79.00000000000001</ele><time>2026-04-04T10:28:49Z</time></trkpt><trkpt lat="44.43295267723395" lon="8.956696300027822"><ele>79.0</ele><time>2026-04-04T10:28:51Z</time></trkpt><trkpt lat="44.432880423491575" lon="8.956613079348314"><ele>79.0</ele><time>2026-04-04T10:28:54Z</time></trkpt><trkpt lat="44.43281224064927" lon="8.956529877078744"><ele>79.0</ele><time>2026-04-04T10:28:57Z</time></trkpt><trkpt lat="44.43278768772581" lon="8.956430421501631"><ele>79.0</ele><time>2026-04-04T10:29:00Z</time></trkpt><trkpt lat="44.43272884883316" lon="8.956350166326365"><ele>79.0</ele><time>2026-04-04T10:29:03Z</time></trkpt><trkpt lat="44.43267872207849" lon="8.956293589871374"><ele>79.0</ele><time>2026-04-04T10:29:05Z</time></trkpt><trkpt lat="44.43261551700286" lon="8.95623386073212"><ele>79.0</ele><time>2026-04-04T10:29:09Z</time></trkpt><trkpt lat="44.432562690038615" lon="8.956181157886112"><ele>79.00000000000001</ele><time>2026-04-04T10:29:11Z</time></trkpt><trkpt lat="44.432519360256016" lon="8.956116773138424"><ele>79.0</ele><time>2026-04-04T10:29:13Z</time></trkpt><trkpt lat="44.4324455816197" lon="8.956038887989816"><ele>79.0</ele><time>2026-04-04T10:29:16Z</time></trkpt><trkpt lat="44.432383182395355" lon="8.955953195777042"><ele>79.0</ele><time>2026-04-04T10:29:18Z</time></trkpt><trkpt lat="44.43233080408955" lon="8.955899989833386"><ele>79.0</ele><time>2026-04-04T10:29:20Z</time></trkpt><trkpt lat="44.43227572245589" lon="8.955829135786132"><ele>79.00000000000001</ele><time>2026-04-04T10:29:23Z</time></trkpt><trkpt lat="44.43222683458579" lon="8.955772689532626"><ele>79.0</ele><time>2026-04-04T10:29:27Z</time></trkpt><trkpt lat="44.43216382496959" lon="8.955729886122835"><ele>79.33333333333333</ele><time>2026-04-04T10:29:29Z</time></trkpt><trkpt lat="44.432083313085634" lon="8.95568590802057"><ele>79.66666666666666</ele><time>2026-04-04T10:29:32Z</time></trkpt><trkpt lat="44.432009839309245" lon="8.955657247935655"><ele>80.0</ele><time>2026-04-04T10:29:34Z</time></trkpt><trkpt lat="44.431910663467384" lon="8.955625391585773"><ele>80.33333333333333</ele><time>2026-04-04T10:29:37Z</time></trkpt><trkpt lat="44.431840518773654" lon="8.955593837008898"><ele>80.66666666666667</ele><time>2026-04-04T10:29:39Z</time></trkpt><trkpt lat="44.43177059557653" lon="8.955541488926675"><ele>81.0</ele><time>2026-04-04T10:29:42Z</time></trkpt><trkpt lat="44.43171029254561" lon="8.955499869455199"><ele>81.0</ele><time>2026-04-04T10:29:44Z</time></trkpt><trkpt lat="44.43164730808687" lon="8.955463497510385"><ele>81.0</ele><time>2026-04-04T10:29:46Z</time></trkpt><trkpt lat="44.4315678903323" lon="8.955413968854282"><ele>81.0</ele><time>2026-04-04T10:29:49Z</time></trkpt><trkpt lat="44.431497170345544" lon="8.95539009761927"><ele>81.0</ele><time>2026-04-04T10:29:52Z</time></trkpt><trkpt lat="44.43141886546944" lon="8.95536674447932"><ele>81.0</ele><time>2026-04-04T10:29:54Z</time></trkpt><trkpt lat="44.431319181236134" lon="8.95534332503639"><ele>81.0</ele><time>2026-04-04T10:29:57Z</time></trkpt><trkpt lat="44.431229323422365" lon="8.955319728403246"><ele>80.42857142857143</ele><time>2026-04-04T10:30:00Z</time></trkpt><trkpt lat="44.43113959756369" lon="8.955288198008708"><ele>79.85714285714286</ele><time>2026-04-04T10:30:03Z</time></trkpt><trkpt lat="44.431072225851445" lon="8.955224576432544"><ele>79.28571428571428</ele><time>2026-04-04T10:30:06Z</time></trkpt><trkpt lat="44.43105812306431" lon="8.955136823733447"><ele>78.71428571428572</ele><time>2026-04-04T10:30:25Z</time></trkpt><trkpt lat="44.43101543492354" lon="8.955061580465255"><ele>78.14285714285714</ele><time>2026-04-04T10:31:51Z</time></trkpt><trkpt lat="44.43095187324167" lon="8.955051227358968"><ele>77.57142857142857</ele><time>2026-04-04T10:31:53Z</time></trkpt><trkpt lat="44.43088092133461" lon="8.955031382261176"><ele>77.0</ele><time>2026-04-04T10:31:55Z</time></trkpt><trkpt lat="44.43081425847253" lon="8.955051360059489"><ele>74.83333333333334</ele><time>2026-04-04T10:31:58Z</time></trkpt><trkpt lat="44.43077943348209" lon="8.95513755140321"><ele>72.66666666666667</ele><time>2026-04-04T10:32:00Z</time></trkpt><trkpt lat="44.43081590576262" lon="8.955282023110362"><ele>70.5</ele><time>2026-04-04T10:32:02Z</time></trkpt><trkpt lat="44.4308626726266" lon="8.95537562343789"><ele>68.33333333333333</ele><time>2026-04-04T10:32:04Z</time></trkpt><trkpt lat="44.43093932377097" lon="8.955429731659335"><ele>66.16666666666666</ele><time>2026-04-04T10:32:07Z</time></trkpt><trkpt lat="44.43101185193508" lon="8.955464931033442"><ele>64.0</ele><time>2026-04-04T10:32:09Z</time></trkpt><trkpt lat="44.43110864509663" lon="8.955515767143279"><ele>64.0</ele><time>2026-04-04T10:32:11Z</time></trkpt><trkpt lat="44.43117580705672" lon="8.95553994660034"><ele>63.99999999999999</ele><time>2026-04-04T10:32:12Z</time></trkpt><trkpt lat="44.43123970157446" lon="8.955567415006433"><ele>64.0</ele><time>2026-04-04T10:32:13Z</time></trkpt><trkpt lat="44.431310938045215" lon="8.95558404843753"><ele>64.0</ele><time>2026-04-04T10:32:14Z</time></trkpt><trkpt lat="44.43138906461355" lon="8.95560997046631"><ele>63.99999999999999</ele><time>2026-04-04T10:32:15Z</time></trkpt><trkpt lat="44.431463856294236" lon="8.955645141609631"><ele>64.0</ele><time>2026-04-04T10:32:16Z</time></trkpt><trkpt lat="44.431539406827" lon="8.955683054539001"><ele>64.0</ele><time>2026-04-04T10:32:17Z</time></trkpt><trkpt lat="44.43159831148981" lon="8.955715610287303"><ele>63.400000000000006</ele><time>2026-04-04T10:32:18Z</time></trkpt><trkpt lat="44.4316631090418" lon="8.955747887050991"><ele>62.800000000000004</ele><time>2026-04-04T10:32:19Z</time></trkpt><trkpt lat="44.4317709473842" lon="8.95582085996574"><ele>62.199999999999996</ele><time>2026-04-04T10:32:21Z</time></trkpt><trkpt lat="44.43188813034934" lon="8.95588988689275"><ele>61.599999999999994</ele><time>2026-04-04T10:32:23Z</time></trkpt><trkpt lat="44.431989870708556" lon="8.955983728683222"><ele>61.0</ele><time>2026-04-04T10:32:25Z</time></trkpt><trkpt lat="44.43206792597061" lon="8.956094411440883"><ele>61.0</ele><time>2026-04-04T10:32:27Z</time></trkpt><trkpt lat="44.432135829294744" lon="8.956223761682056"><ele>60.99999999999999</ele><time>2026-04-04T10:32:29Z</time></trkpt><trkpt lat="44.432199812236064" lon="8.956364613002053"><ele>60.99999999999999</ele><time>2026-04-04T10:32:31Z</time></trkpt><trkpt lat="44.43225431028333" lon="8.956423285318778"><ele>61.0</ele><time>2026-04-04T10:32:32Z</time></trkpt><trkpt lat="44.432300012462996" lon="8.956494578985877"><ele>61.0</ele><time>2026-04-04T10:32:33Z</time></trkpt><trkpt lat="44.432361067061755" lon="8.95661854290141"><ele>59.666666666666664</ele><time>2026-04-04T10:32:35Z</time></trkpt><trkpt lat="44.4324176829266" lon="8.956737653486295"><ele>58.33333333333333</ele><time>2026-04-04T10:32:37Z</time></trkpt><trkpt lat="44.43248661986939" lon="8.956846753853647"><ele>57.0</ele><time>2026-04-04T10:32:39Z</time></trkpt><trkpt lat="44.43252158776752" lon="8.95693654627769"><ele>55.66666666666667</ele><time>2026-04-04T10:32:40Z</time></trkpt><trkpt lat="44.43257086845424" lon="8.957010004417912"><ele>54.333333333333336</ele><time>2026-04-04T10:32:41Z</time></trkpt><trkpt lat="44.432628524321366" lon="8.957072324149113"><ele>53.0</ele><time>2026-04-04T10:32:42Z</time></trkpt><trkpt lat="44.4326913626356" lon="8.957142239066034"><ele>53.00000000000001</ele><time>2026-04-04T10:32:43Z</time></trkpt><trkpt lat="44.43274847672436" lon="8.957215289603228"><ele>53.0</ele><time>2026-04-04T10:32:44Z</time></trkpt><trkpt lat="44.432798448070486" lon="8.957295079303108"><ele>53.0</ele><time>2026-04-04T10:32:45Z</time></trkpt><trkpt lat="44.43284100707437" lon="8.957382420994099"><ele>53.0</ele><time>2026-04-04T10:32:46Z</time></trkpt><trkpt lat="44.43288293605366" lon="8.957474196330702"><ele>53.00000000000001</ele><time>2026-04-04T10:32:47Z</time></trkpt><trkpt lat="44.432919510463506" lon="8.957568397070185"><ele>53.0</ele><time>2026-04-04T10:32:48Z</time></trkpt><trkpt lat="44.4329503727665" lon="8.957652302192395"><ele>54.599999999999994</ele><time>2026-04-04T10:32:49Z</time></trkpt><trkpt lat="44.43299261543005" lon="8.957784037318236"><ele>56.199999999999996</ele><time>2026-04-04T10:32:51Z</time></trkpt><trkpt lat="44.43305469899058" lon="8.957934815000936"><ele>57.8</ele><time>2026-04-04T10:32:53Z</time></trkpt><trkpt lat="44.433111925431" lon="8.957999324451018"><ele>59.4</ele><time>2026-04-04T10:32:54Z</time></trkpt><trkpt lat="44.433139998988565" lon="8.958081399323635"><ele>61.0</ele><time>2026-04-04T10:32:55Z</time></trkpt><trkpt lat="44.43322639960818" lon="8.958193072155758"><ele>61.0</ele><time>2026-04-04T10:32:57Z</time></trkpt><trkpt lat="44.43328627317793" lon="8.958330879049951"><ele>60.99999999999999</ele><time>2026-04-04T10:32:59Z</time></trkpt><trkpt lat="44.43335538761681" lon="8.958425510295635"><ele>60.99999999999999</ele><time>2026-04-04T10:33:01Z</time></trkpt><trkpt lat="44.43343872097799" lon="8.958504542780934"><ele>61.0</ele><time>2026-04-04T10:33:03Z</time></trkpt><trkpt lat="44.43354606781795" lon="8.958578109458838"><ele>61.0</ele><time>2026-04-04T10:33:05Z</time></trkpt><trkpt lat="44.43364947978693" lon="8.958611028640103"><ele>59.666666666666664</ele><time>2026-04-04T10:33:07Z</time></trkpt><trkpt lat="44.43373744742225" lon="8.958529720603646"><ele>58.33333333333333</ele><time>2026-04-04T10:33:09Z</time></trkpt><trkpt lat="44.433786937817494" lon="8.958448334450265"><ele>57.0</ele><time>2026-04-04T10:33:10Z</time></trkpt><trkpt lat="44.43383773328845" lon="8.958369839077548"><ele>55.66666666666667</ele><time>2026-04-04T10:33:11Z</time></trkpt><trkpt lat="44.433896523518975" lon="8.95831213123221"><ele>54.333333333333336</ele><time>2026-04-04T10:33:12Z</time></trkpt><trkpt lat="44.43395780516679" lon="8.95825666783294"><ele>53.0</ele><time>2026-04-04T10:33:13Z</time></trkpt><trkpt lat="44.43405208185863" lon="8.958175077003252"><ele>53.0</ele><time>2026-04-04T10:33:15Z</time></trkpt><trkpt lat="44.434122231626894" lon="8.958156963150481"><ele>53.0</ele><time>2026-04-04T10:33:17Z</time></trkpt><trkpt lat="44.43420317135305" lon="8.95811606578521"><ele>53.0</ele><time>2026-04-04T10:33:20Z</time></trkpt><trkpt lat="44.43442206804924" lon="8.958105832429911"><ele>53.0</ele><time>2026-04-04T10:33:37Z</time></trkpt><trkpt lat="44.4344817924401" lon="8.958172242701817"><ele>53.00000000000001</ele><time>2026-04-04T10:33:39Z</time></trkpt><trkpt lat="44.43452618140738" lon="8.958239965289705"><ele>53.0</ele><time>2026-04-04T10:33:41Z</time></trkpt><trkpt lat="44.43460604056045" lon="8.958293765439302"><ele>53.0</ele><time>2026-04-04T10:33:43Z</time></trkpt><trkpt lat="44.43462984722384" lon="8.958402410272123"><ele>53.0</ele><time>2026-04-04T10:33:46Z</time></trkpt><trkpt lat="44.434538127443375" lon="8.958494497439796"><ele>53.00000000000001</ele><time>2026-04-04T10:33:48Z</time></trkpt><trkpt lat="44.43447328943914" lon="8.958542605572697"><ele>53.0</ele><time>2026-04-04T10:33:49Z</time></trkpt><trkpt lat="44.4344097337483" lon="8.95857519602079"><ele>50.00000000000001</ele><time>2026-04-04T10:33:50Z</time></trkpt><trkpt lat="44.434308883352124" lon="8.958635211610892"><ele>47.0</ele><time>2026-04-04T10:33:52Z</time></trkpt><trkpt lat="44.434215901348836" lon="8.958681337949514"><ele>44.0</ele><time>2026-04-04T10:33:54Z</time></trkpt><trkpt lat="44.43415130654152" lon="8.95872918367868"><ele>41.0</ele><time>2026-04-04T10:33:55Z</time></trkpt><trkpt lat="44.43409425277209" lon="8.95877371345779"><ele>38.0</ele><time>2026-04-04T10:33:56Z</time></trkpt><trkpt lat="44.43404330390826" lon="8.958847201796411"><ele>35.0</ele><time>2026-04-04T10:33:57Z</time></trkpt><trkpt lat="44.433986670491656" lon="8.9589151147905"><ele>35.0</ele><time>2026-04-04T10:33:58Z</time></trkpt><trkpt lat="44.43393909721966" lon="8.95898062980224"><ele>35.0</ele><time>2026-04-04T10:33:59Z</time></trkpt><trkpt lat="44.43385815812954" lon="8.959101797648874"><ele>35.0</ele><time>2026-04-04T10:34:01Z</time></trkpt><trkpt lat="44.43380872667584" lon="8.959234709474563"><ele>35.0</ele><time>2026-04-04T10:34:03Z</time></trkpt><trkpt lat="44.43376453960607" lon="8.959344192905792"><ele>35.0</ele><time>2026-04-04T10:34:06Z</time></trkpt><trkpt lat="44.43370034056526" lon="8.959393843652965"><ele>35.0</ele><time>2026-04-04T10:34:11Z</time></trkpt><trkpt lat="44.43364076356006" lon="8.959492655143322"><ele>35.0</ele><time>2026-04-04T10:34:14Z</time></trkpt><trkpt lat="44.43341147552249" lon="8.959361704067469"><ele>35.0</ele><time>2026-04-04T10:34:17Z</time></trkpt><trkpt lat="44.4333322939679" lon="8.959375527575158"><ele>35.0</ele><time>2026-04-04T10:34:19Z</time></trkpt><trkpt lat="44.4332631630341" lon="8.959395110472395"><ele>35.0</ele><time>2026-04-04T10:34:22Z</time></trkpt><trkpt lat="44.43319513064016" lon="8.959364814791977"><ele>35.0</ele><time>2026-04-04T10:34:24Z</time></trkpt><trkpt lat="44.433125710573734" lon="8.959307224171543"><ele>35.0</ele><time>2026-04-04T10:34:26Z</time></trkpt><trkpt lat="44.43304807386033" lon="8.959231920708048"><ele>35.0</ele><time>2026-04-04T10:34:28Z</time></trkpt><trkpt lat="44.43296522060905" lon="8.959155521050398"><ele>35.0</ele><time>2026-04-04T10:34:30Z</time></trkpt><trkpt lat="44.43291728626855" lon="8.95903364619567"><ele>35.0</ele><time>2026-04-04T10:34:32Z</time></trkpt><trkpt lat="44.43287201316451" lon="8.958922727086101"><ele>34.83333333333333</ele><time>2026-04-04T10:34:34Z</time></trkpt><trkpt lat="44.43280902878798" lon="8.958816469825951"><ele>34.666666666666664</ele><time>2026-04-04T10:34:36Z</time></trkpt><trkpt lat="44.432753100345" lon="8.958712077334061"><ele>34.5</ele><time>2026-04-04T10:34:38Z</time></trkpt><trkpt lat="44.432713101107495" lon="8.958600222167854"><ele>34.333333333333336</ele><time>2026-04-04T10:34:40Z</time></trkpt><trkpt lat="44.43265777939722" lon="8.958514246839464"><ele>34.16666666666667</ele><time>2026-04-04T10:34:42Z</time></trkpt><trkpt lat="44.43261251573798" lon="8.958422000901423"><ele>34.0</ele><time>2026-04-04T10:34:44Z</time></trkpt><trkpt lat="44.43256999860261" lon="8.958303895376849"><ele>34.333333333333336</ele><time>2026-04-04T10:34:47Z</time></trkpt><trkpt lat="44.43250749214964" lon="8.958243569878043"><ele>34.66666666666667</ele><time>2026-04-04T10:34:50Z</time></trkpt><trkpt lat="44.43245780615039" lon="8.958150663199548"><ele>35.0</ele><time>2026-04-04T10:34:53Z</time></trkpt><trkpt lat="44.43242005561146" lon="8.958067683195752"><ele>35.333333333333336</ele><time>2026-04-04T10:34:55Z</time></trkpt><trkpt lat="44.432378280983556" lon="8.957998753264672"><ele>35.666666666666664</ele><time>2026-04-04T10:34:57Z</time></trkpt><trkpt lat="44.432321284346244" lon="8.957923712566359"><ele>36.0</ele><time>2026-04-04T10:34:59Z</time></trkpt><trkpt lat="44.432244515795496" lon="8.95786579814967"><ele>36.0</ele><time>2026-04-04T10:35:01Z</time></trkpt><trkpt lat="44.43216029490544" lon="8.957823897075246"><ele>36.0</ele><time>2026-04-04T10:35:03Z</time></trkpt><trkpt lat="44.43208802851748" lon="8.957783898265237"><ele>36.0</ele><time>2026-04-04T10:35:05Z</time></trkpt><trkpt lat="44.432011872054666" lon="8.957756471013031"><ele>36.0</ele><time>2026-04-04T10:35:07Z</time></trkpt><trkpt lat="44.43194117505909" lon="8.957748221142252"><ele>36.0</ele><time>2026-04-04T10:35:09Z</time></trkpt><trkpt lat="44.431853090044555" lon="8.957732224087207"><ele>36.0</ele><time>2026-04-04T10:35:11Z</time></trkpt><trkpt lat="44.431777033259" lon="8.957718774098197"><ele>36.57142857142858</ele><time>2026-04-04T10:35:13Z</time></trkpt><trkpt lat="44.431696249550235" lon="8.957690727276718"><ele>37.142857142857146</ele><time>2026-04-04T10:35:16Z</time></trkpt><trkpt lat="44.43161588045824" lon="8.957680576129858"><ele>37.714285714285715</ele><time>2026-04-04T10:35:18Z</time></trkpt><trkpt lat="44.43155182503868" lon="8.957653141079463"><ele>38.28571428571429</ele><time>2026-04-04T10:35:20Z</time></trkpt><trkpt lat="44.43148612826548" lon="8.957625815548234"><ele>38.85714285714286</ele><time>2026-04-04T10:35:22Z</time></trkpt><trkpt lat="44.431418203061455" lon="8.957597435403118"><ele>39.42857142857143</ele><time>2026-04-04T10:35:26Z</time></trkpt><trkpt lat="44.4313717801994" lon="8.957532687570538"><ele>40.0</ele><time>2026-04-04T10:35:29Z</time></trkpt><trkpt lat="44.43126906847114" lon="8.957453376318332"><ele>38.2</ele><time>2026-04-04T10:35:32Z</time></trkpt><trkpt lat="44.43116423568887" lon="8.957411509857147"><ele>36.4</ele><time>2026-04-04T10:35:34Z</time></trkpt><trkpt lat="44.43107731370344" lon="8.95736481614371"><ele>34.6</ele><time>2026-04-04T10:35:36Z</time></trkpt><trkpt lat="44.43100062284992" lon="8.9573051139274"><ele>32.8</ele><time>2026-04-04T10:35:38Z</time></trkpt><trkpt lat="44.43092307218798" lon="8.957265062587403"><ele>31.0</ele><time>2026-04-04T10:35:40Z</time></trkpt><trkpt lat="44.43086273223661" lon="8.957171864432489"><ele>31.000000000000004</ele><time>2026-04-04T10:35:42Z</time></trkpt><trkpt lat="44.43079059310955" lon="8.95711087833487"><ele>31.0</ele><time>2026-04-04T10:35:44Z</time></trkpt><trkpt lat="44.43074048446645" lon="8.957038027936056"><ele>31.0</ele><time>2026-04-04T10:35:46Z</time></trkpt><trkpt lat="44.430694251422395" lon="8.956968462344516"><ele>31.0</ele><time>2026-04-04T10:35:48Z</time></trkpt><trkpt lat="44.43064120539566" lon="8.956891808735136"><ele>31.000000000000004</ele><time>2026-04-04T10:35:51Z</time></trkpt><trkpt lat="44.43060007165757" lon="8.956791461095417"><ele>31.0</ele><time>2026-04-04T10:35:54Z</time></trkpt><trkpt lat="44.430584213236585" lon="8.956692496599876"><ele>30.000000000000004</ele><time>2026-04-04T10:35:56Z</time></trkpt><trkpt lat="44.4305909412326" lon="8.956599887211253"><ele>29.0</ele><time>2026-04-04T10:35:58Z</time></trkpt><trkpt lat="44.430568540804366" lon="8.95650963076573"><ele>28.0</ele><time>2026-04-04T10:36:00Z</time></trkpt><trkpt lat="44.43050989837743" lon="8.956466295460007"><ele>27.0</ele><time>2026-04-04T10:36:02Z</time></trkpt><trkpt lat="44.43044164612894" lon="8.956419423403942"><ele>26.000000000000004</ele><time>2026-04-04T10:36:05Z</time></trkpt><trkpt lat="44.430354964867654" lon="8.956420535895285"><ele>25.0</ele><time>2026-04-04T10:36:08Z</time></trkpt><trkpt lat="44.430289539753645" lon="8.956340314163349"><ele>25.000000000000004</ele><time>2026-04-04T10:36:11Z</time></trkpt><trkpt lat="44.430240485962116" lon="8.956273344183703"><ele>25.0</ele><time>2026-04-04T10:36:13Z</time></trkpt><trkpt lat="44.430195661344364" lon="8.956210216873968"><ele>25.0</ele><time>2026-04-04T10:36:15Z</time></trkpt><trkpt lat="44.43013967663036" lon="8.95610203343702"><ele>25.0</ele><time>2026-04-04T10:36:18Z</time></trkpt><trkpt lat="44.43009816889632" lon="8.956021697806749"><ele>25.0</ele><time>2026-04-04T10:36:20Z</time></trkpt><trkpt lat="44.43006037509044" lon="8.955937503274853"><ele>25.000000000000004</ele><time>2026-04-04T10:36:22Z</time></trkpt><trkpt lat="44.4300258452159" lon="8.955844760951065"><ele>25.0</ele><time>2026-04-04T10:36:24Z</time></trkpt><trkpt lat="44.429981040924524" lon="8.955758949009716"><ele>26.666666666666668</ele><time>2026-04-04T10:36:26Z</time></trkpt><trkpt lat="44.4299359197664" lon="8.955650550623838"><ele>28.333333333333336</ele><time>2026-04-04T10:36:28Z</time></trkpt><trkpt lat="44.429888311462385" lon="8.955554644675015"><ele>30.0</ele><time>2026-04-04T10:36:30Z</time></trkpt><trkpt lat="44.42984624259974" lon="8.955451217356387"><ele>31.666666666666664</ele><time>2026-04-04T10:36:32Z</time></trkpt><trkpt lat="44.42982903938075" lon="8.955350467609247"><ele>33.33333333333333</ele><time>2026-04-04T10:36:34Z</time></trkpt><trkpt lat="44.429798519049335" lon="8.955236316463457"><ele>35.0</ele><time>2026-04-04T10:36:36Z</time></trkpt><trkpt lat="44.4297794848703" lon="8.955114636288425"><ele>36.33333333333333</ele><time>2026-04-04T10:36:38Z</time></trkpt><trkpt lat="44.42975675073243" lon="8.955005971598819"><ele>37.666666666666664</ele><time>2026-04-04T10:36:40Z</time></trkpt><trkpt lat="44.42973876129387" lon="8.954887183985614"><ele>39.0</ele><time>2026-04-04T10:36:42Z</time></trkpt><trkpt lat="44.429719894360986" lon="8.95477881988643"><ele>40.333333333333336</ele><time>2026-04-04T10:36:44Z</time></trkpt><trkpt lat="44.429702632464945" lon="8.954670671067326"><ele>41.66666666666667</ele><time>2026-04-04T10:36:46Z</time></trkpt><trkpt lat="44.42966821073099" lon="8.954556090391836"><ele>43.0</ele><time>2026-04-04T10:36:48Z</time></trkpt><trkpt lat="44.4296134704668" lon="8.954473256670648"><ele>40.0</ele><time>2026-04-04T10:36:50Z</time></trkpt><trkpt lat="44.429565868364776" lon="8.95440037683479"><ele>37.0</ele><time>2026-04-04T10:36:52Z</time></trkpt><trkpt lat="44.42948847983103" lon="8.954343497366372"><ele>34.0</ele><time>2026-04-04T10:36:55Z</time></trkpt><trkpt lat="44.42939422725287" lon="8.954390919621192"><ele>31.0</ele><time>2026-04-04T10:36:58Z</time></trkpt><trkpt lat="44.429314839394195" lon="8.954416097580562"><ele>28.000000000000004</ele><time>2026-04-04T10:37:00Z</time></trkpt><trkpt lat="44.429242036430054" lon="8.954419805018295"><ele>25.0</ele><time>2026-04-04T10:38:33Z</time></trkpt><trkpt lat="44.42917686512251" lon="8.95447570844685"><ele>25.000000000000004</ele><time>2026-04-04T10:38:37Z</time></trkpt><trkpt lat="44.429092242791235" lon="8.95449009819236"><ele>25.0</ele><time>2026-04-04T10:38:40Z</time></trkpt><trkpt lat="44.42905309859613" lon="8.954414390028811"><ele>25.0</ele><time>2026-04-04T10:38:43Z</time></trkpt><trkpt lat="44.42901192749382" lon="8.954310345199454"><ele>25.0</ele><time>2026-04-04T10:38:47Z</time></trkpt><trkpt lat="44.42898969835056" lon="8.954212520595913"><ele>25.000000000000004</ele><time>2026-04-04T10:38:50Z</time></trkpt><trkpt lat="44.42895753321615" lon="8.954116059793101"><ele>25.0</ele><time>2026-04-04T10:38:53Z</time></trkpt><trkpt lat="44.428922241678904" lon="8.954035646603073"><ele>24.833333333333336</ele><time>2026-04-04T10:38:55Z</time></trkpt><trkpt lat="44.4288830272861" lon="8.953927676000607"><ele>24.666666666666668</ele><time>2026-04-04T10:38:58Z</time></trkpt><trkpt lat="44.4288438608036" lon="8.953818183392318"><ele>24.5</ele><time>2026-04-04T10:39:01Z</time></trkpt><trkpt lat="44.4288106015153" lon="8.953705284396769"><ele>24.333333333333336</ele><time>2026-04-04T10:39:04Z</time></trkpt><trkpt lat="44.42880746439679" lon="8.953591497742753"><ele>24.166666666666668</ele><time>2026-04-04T10:39:07Z</time></trkpt><trkpt lat="44.42879051652978" lon="8.95349578145048"><ele>24.0</ele><time>2026-04-04T10:39:09Z</time></trkpt><trkpt lat="44.42876482496235" lon="8.95337318741724"><ele>23.57142857142857</ele><time>2026-04-04T10:39:12Z</time></trkpt><trkpt lat="44.428735949803894" lon="8.953260873725036"><ele>23.142857142857142</ele><time>2026-04-04T10:39:15Z</time></trkpt><trkpt lat="44.428678384961934" lon="8.95318515169662"><ele>22.714285714285715</ele><time>2026-04-04T10:39:17Z</time></trkpt><trkpt lat="44.42862302312647" lon="8.953122349055835"><ele>22.285714285714285</ele><time>2026-04-04T10:39:19Z</time></trkpt><trkpt lat="44.42860249523761" lon="8.953036042384214"><ele>21.857142857142858</ele><time>2026-04-04T10:39:21Z</time></trkpt><trkpt lat="44.42858625429217" lon="8.952939823453647"><ele>21.428571428571427</ele><time>2026-04-04T10:39:23Z</time></trkpt><trkpt lat="44.42859623368814" lon="8.952840170431827"><ele>21.0</ele><time>2026-04-04T10:39:25Z</time></trkpt><trkpt lat="44.42862664831594" lon="8.952753477509193"><ele>21.0</ele><time>2026-04-04T10:39:27Z</time></trkpt><trkpt lat="44.42862975569202" lon="8.952648576591056"><ele>21.0</ele><time>2026-04-04T10:39:29Z</time></trkpt><trkpt lat="44.42860095798216" lon="8.952556599188629"><ele>21.0</ele><time>2026-04-04T10:39:31Z</time></trkpt><trkpt lat="44.428575205731505" lon="8.952455524408338"><ele>21.0</ele><time>2026-04-04T10:39:33Z</time></trkpt><trkpt lat="44.42854985529744" lon="8.952356074845499"><ele>21.0</ele><time>2026-04-04T10:39:35Z</time></trkpt><trkpt lat="44.42852639838698" lon="8.95224589132259"><ele>21.0</ele><time>2026-04-04T10:39:37Z</time></trkpt><trkpt lat="44.42850603865444" lon="8.952147278127624"><ele>21.166666666666668</ele><time>2026-04-04T10:39:39Z</time></trkpt><trkpt lat="44.428483519986095" lon="8.952042233303851"><ele>21.333333333333332</ele><time>2026-04-04T10:39:41Z</time></trkpt><trkpt lat="44.428462177666844" lon="8.951941306764235"><ele>21.5</ele><time>2026-04-04T10:39:43Z</time></trkpt><trkpt lat="44.42843708949004" lon="8.951832540424729"><ele>21.666666666666664</ele><time>2026-04-04T10:39:45Z</time></trkpt><trkpt lat="44.42841825366412" lon="8.95172595734278"><ele>21.833333333333332</ele><time>2026-04-04T10:39:47Z</time></trkpt><trkpt lat="44.42839077259436" lon="8.951622735708309"><ele>22.0</ele><time>2026-04-04T10:39:49Z</time></trkpt><trkpt lat="44.428366082611994" lon="8.95152243220855"><ele>22.666666666666664</ele><time>2026-04-04T10:39:51Z</time></trkpt><trkpt lat="44.42834875699065" lon="8.951433308873664"><ele>23.333333333333332</ele><time>2026-04-04T10:39:53Z</time></trkpt><trkpt lat="44.4283047202556" lon="8.951331211679467"><ele>24.0</ele><time>2026-04-04T10:39:56Z</time></trkpt><trkpt lat="44.42824141590862" lon="8.951250783017404"><ele>24.666666666666664</ele><time>2026-04-04T10:39:59Z</time></trkpt><trkpt lat="44.42823478658982" lon="8.951145378041709"><ele>25.333333333333332</ele><time>2026-04-04T10:40:01Z</time></trkpt><trkpt lat="44.428256918993085" lon="8.951060412121128"><ele>26.0</ele><time>2026-04-04T10:40:03Z</time></trkpt><trkpt lat="44.42824144183207" lon="8.950931910889508"><ele>26.166666666666664</ele><time>2026-04-04T10:40:06Z</time></trkpt><trkpt lat="44.428218318752975" lon="8.950832097576301"><ele>26.333333333333332</ele><time>2026-04-04T10:40:08Z</time></trkpt><trkpt lat="44.428195014338" lon="8.950734772485648"><ele>26.5</ele><time>2026-04-04T10:40:10Z</time></trkpt><trkpt lat="44.42817135205565" lon="8.950631868675899"><ele>26.666666666666664</ele><time>2026-04-04T10:40:12Z</time></trkpt><trkpt lat="44.42815100853049" lon="8.950525151809241"><ele>26.833333333333332</ele><time>2026-04-04T10:40:14Z</time></trkpt><trkpt lat="44.42812584912555" lon="8.950418196356065"><ele>27.0</ele><time>2026-04-04T10:40:16Z</time></trkpt><trkpt lat="44.428101143807595" lon="8.950316619346111"><ele>27.0</ele><time>2026-04-04T10:40:18Z</time></trkpt><trkpt lat="44.42808448512818" lon="8.950225732563695"><ele>27.0</ele><time>2026-04-04T10:40:20Z</time></trkpt><trkpt lat="44.428066254356935" lon="8.95014126113589"><ele>27.0</ele><time>2026-04-04T10:40:22Z</time></trkpt><trkpt lat="44.42803404789699" lon="8.950031114971573"><ele>27.0</ele><time>2026-04-04T10:40:25Z</time></trkpt><trkpt lat="44.428011782040464" lon="8.949907202348557"><ele>27.0</ele><time>2026-04-04T10:40:28Z</time></trkpt><trkpt lat="44.42798569305501" lon="8.949780270936426"><ele>27.0</ele><time>2026-04-04T10:40:31Z</time></trkpt><trkpt lat="44.427950887430534" lon="8.949675095942842"><ele>27.142857142857142</ele><time>2026-04-04T10:40:34Z</time></trkpt><trkpt lat="44.42790548259481" lon="8.949610937879187"><ele>27.285714285714285</ele><time>2026-04-04T10:40:38Z</time></trkpt><trkpt lat="44.42793370727303" lon="8.949531229288768"><ele>27.42857142857143</ele><time>2026-04-04T10:40:44Z</time></trkpt><trkpt lat="44.42799304998026" lon="8.949476712843117"><ele>27.57142857142857</ele><time>2026-04-04T10:40:59Z</time></trkpt><trkpt lat="44.42805906115999" lon="8.949425363356356"><ele>27.714285714285715</ele><time>2026-04-04T10:41:02Z</time></trkpt><trkpt lat="44.42809145151655" lon="8.949347783195247"><ele>27.857142857142858</ele><time>2026-04-04T10:41:05Z</time></trkpt><trkpt lat="44.42807407253941" lon="8.949249487213052"><ele>28.0</ele><time>2026-04-04T10:41:07Z</time></trkpt><trkpt lat="44.42804296190724" lon="8.949131926619616"><ele>27.666666666666668</ele><time>2026-04-04T10:41:09Z</time></trkpt><trkpt lat="44.428038017322315" lon="8.948999609318832"><ele>27.333333333333336</ele><time>2026-04-04T10:41:11Z</time></trkpt><trkpt lat="44.42801403338877" lon="8.948879174765297"><ele>27.0</ele><time>2026-04-04T10:41:13Z</time></trkpt><trkpt lat="44.42799032361057" lon="8.948747886770617"><ele>26.666666666666664</ele><time>2026-04-04T10:41:15Z</time></trkpt><trkpt lat="44.42796461853053" lon="8.948634076458907"><ele>26.333333333333332</ele><time>2026-04-04T10:41:17Z</time></trkpt><trkpt lat="44.42794609547296" lon="8.948525074721719"><ele>26.0</ele><time>2026-04-04T10:41:19Z</time></trkpt><trkpt lat="44.42792147868842" lon="8.948417102570772"><ele>25.666666666666664</ele><time>2026-04-04T10:41:21Z</time></trkpt><trkpt lat="44.427886578721534" lon="8.948308501003755"><ele>25.333333333333332</ele><time>2026-04-04T10:41:23Z</time></trkpt><trkpt lat="44.42784501233202" lon="8.948213378338355"><ele>25.0</ele><time>2026-04-04T10:41:25Z</time></trkpt><trkpt lat="44.42780177864154" lon="8.948121559745283"><ele>24.666666666666664</ele><time>2026-04-04T10:41:27Z</time></trkpt><trkpt lat="44.42776256296461" lon="8.948042857997661"><ele>24.333333333333332</ele><time>2026-04-04T10:41:29Z</time></trkpt><trkpt lat="44.42771370567265" lon="8.947963365567922"><ele>24.0</ele><time>2026-04-04T10:41:31Z</time></trkpt><trkpt lat="44.42766240248418" lon="8.947886220312524"><ele>24.0</ele><time>2026-04-04T10:41:34Z</time></trkpt><trkpt lat="44.42761439842652" lon="8.94781673264667"><ele>24.0</ele><time>2026-04-04T10:41:41Z</time></trkpt><trkpt lat="44.42756811282995" lon="8.947719399465754"><ele>24.0</ele><time>2026-04-04T10:41:43Z</time></trkpt><trkpt lat="44.427459134557175" lon="8.947689561223191"><ele>24.0</ele><time>2026-04-04T10:41:45Z</time></trkpt><trkpt lat="44.42737878960235" lon="8.947666891565422"><ele>24.0</ele><time>2026-04-04T10:41:47Z</time></trkpt><trkpt lat="44.42729355632201" lon="8.94761993875166"><ele>24.0</ele><time>2026-04-04T10:41:49Z</time></trkpt><trkpt lat="44.427211287210206" lon="8.947587043512716"><ele>23.6</ele><time>2026-04-04T10:41:51Z</time></trkpt><trkpt lat="44.42711827611504" lon="8.947575640084015"><ele>23.2</ele><time>2026-04-04T10:41:53Z</time></trkpt><trkpt lat="44.427017766726635" lon="8.947565887935529"><ele>22.8</ele><time>2026-04-04T10:41:55Z</time></trkpt><trkpt lat="44.42692039331934" lon="8.947544748351259"><ele>22.400000000000002</ele><time>2026-04-04T10:41:57Z</time></trkpt><trkpt lat="44.42683065782303" lon="8.947533561813872"><ele>22.0</ele><time>2026-04-04T10:41:59Z</time></trkpt><trkpt lat="44.42673851211333" lon="8.94752783259666"><ele>22.666666666666664</ele><time>2026-04-04T10:42:01Z</time></trkpt><trkpt lat="44.42665621377251" lon="8.947519117017968"><ele>23.333333333333332</ele><time>2026-04-04T10:42:03Z</time></trkpt><trkpt lat="44.426569794649744" lon="8.9475148675507"><ele>24.0</ele><time>2026-04-04T10:42:05Z</time></trkpt><trkpt lat="44.42649990159767" lon="8.947500167318692"><ele>24.666666666666664</ele><time>2026-04-04T10:42:07Z</time></trkpt><trkpt lat="44.42640901407748" lon="8.947487517201052"><ele>25.333333333333332</ele><time>2026-04-04T10:42:09Z</time></trkpt><trkpt lat="44.426318004203786" lon="8.94747431915287"><ele>26.0</ele><time>2026-04-04T10:42:11Z</time></trkpt><trkpt lat="44.42622114999674" lon="8.947455389434156"><ele>25.999999999999996</ele><time>2026-04-04T10:42:13Z</time></trkpt><trkpt lat="44.426122887864345" lon="8.947441782495083"><ele>26.0</ele><time>2026-04-04T10:42:15Z</time></trkpt><trkpt lat="44.42601896047188" lon="8.947430432373958"><ele>26.0</ele><time>2026-04-04T10:42:17Z</time></trkpt><trkpt lat="44.42593312014322" lon="8.947427271881335"><ele>26.0</ele><time>2026-04-04T10:42:19Z</time></trkpt><trkpt lat="44.42585981687036" lon="8.947411127726967"><ele>25.999999999999996</ele><time>2026-04-04T10:42:21Z</time></trkpt><trkpt lat="44.4257757686711" lon="8.947398590366117"><ele>26.0</ele><time>2026-04-04T10:42:23Z</time></trkpt><trkpt lat="44.42568599614267" lon="8.947392471754195"><ele>26.0</ele><time>2026-04-04T10:42:25Z</time></trkpt><trkpt lat="44.42559238655414" lon="8.947358590654948"><ele>26.0</ele><time>2026-04-04T10:42:27Z</time></trkpt><trkpt lat="44.42549494132257" lon="8.947340734428305"><ele>26.0</ele><time>2026-04-04T10:42:29Z</time></trkpt><trkpt lat="44.42539979893006" lon="8.947331871280657"><ele>26.0</ele><time>2026-04-04T10:42:31Z</time></trkpt><trkpt lat="44.425308990596605" lon="8.947307415074336"><ele>26.0</ele><time>2026-04-04T10:42:33Z</time></trkpt><trkpt lat="44.42521226940609" lon="8.947277285709145"><ele>25.8</ele><time>2026-04-04T10:42:35Z</time></trkpt><trkpt lat="44.425113386789214" lon="8.947257753059825"><ele>25.6</ele><time>2026-04-04T10:42:37Z</time></trkpt><trkpt lat="44.425030011820986" lon="8.947248550452985"><ele>25.4</ele><time>2026-04-04T10:42:39Z</time></trkpt><trkpt lat="44.42493076362362" lon="8.94722640417163"><ele>25.2</ele><time>2026-04-04T10:42:41Z</time></trkpt><trkpt lat="44.424828735810166" lon="8.947215054409112"><ele>25.0</ele><time>2026-04-04T10:42:43Z</time></trkpt><trkpt lat="44.424730634051265" lon="8.947201270670043"><ele>24.2</ele><time>2026-04-04T10:42:45Z</time></trkpt><trkpt lat="44.4246349095517" lon="8.947188567105165"><ele>23.4</ele><time>2026-04-04T10:42:47Z</time></trkpt><trkpt lat="44.42453669200866" lon="8.947174390955308"><ele>22.6</ele><time>2026-04-04T10:42:49Z</time></trkpt><trkpt lat="44.424434607696355" lon="8.947163720108955"><ele>21.8</ele><time>2026-04-04T10:42:51Z</time></trkpt><trkpt lat="44.42433591294462" lon="8.94715280535402"><ele>21.0</ele><time>2026-04-04T10:42:53Z</time></trkpt><trkpt lat="44.424241078192495" lon="8.947146701317815"><ele>21.0</ele><time>2026-04-04T10:42:55Z</time></trkpt><trkpt lat="44.424140334148966" lon="8.947133391236688"><ele>21.0</ele><time>2026-04-04T10:42:57Z</time></trkpt><trkpt lat="44.424050678178205" lon="8.947138005746867"><ele>21.0</ele><time>2026-04-04T10:42:59Z</time></trkpt><trkpt lat="44.42396066855397" lon="8.947122950553124"><ele>21.0</ele><time>2026-04-04T10:43:01Z</time></trkpt><trkpt lat="44.42386985088718" lon="8.947128283032821"><ele>21.0</ele><time>2026-04-04T10:43:03Z</time></trkpt><trkpt lat="44.42378455004751" lon="8.94710222956385"><ele>20.333333333333332</ele><time>2026-04-04T10:43:05Z</time></trkpt><trkpt lat="44.42370177814368" lon="8.94708372801355"><ele>19.666666666666668</ele><time>2026-04-04T10:43:07Z</time></trkpt><trkpt lat="44.42363351780552" lon="8.947085911419611"><ele>19.0</ele><time>2026-04-04T10:43:09Z</time></trkpt><trkpt lat="44.42355218882028" lon="8.947078738812555"><ele>18.333333333333336</ele><time>2026-04-04T10:43:11Z</time></trkpt><trkpt lat="44.42347176754172" lon="8.947066619954956"><ele>17.666666666666668</ele><time>2026-04-04T10:43:13Z</time></trkpt><trkpt lat="44.42339819033333" lon="8.947054439349934"><ele>17.0</ele><time>2026-04-04T10:43:15Z</time></trkpt><trkpt lat="44.42332728768442" lon="8.947048371216523"><ele>17.0</ele><time>2026-04-04T10:43:17Z</time></trkpt><trkpt lat="44.42324897009915" lon="8.947044206499168"><ele>17.0</ele><time>2026-04-04T10:43:21Z</time></trkpt><trkpt lat="44.42318508935713" lon="8.947036798530181"><ele>17.0</ele><time>2026-04-04T10:43:25Z</time></trkpt><trkpt lat="44.42310725555125" lon="8.947036218798651"><ele>17.0</ele><time>2026-04-04T10:43:31Z</time></trkpt><trkpt lat="44.42306398626878" lon="8.946955832606042"><ele>17.0</ele><time>2026-04-04T10:43:37Z</time></trkpt><trkpt lat="44.42299289679372" lon="8.94692344248407"><ele>17.0</ele><time>2026-04-04T10:43:44Z</time></trkpt><trkpt lat="44.42290742757582" lon="8.946951846455363"><ele>16.666666666666668</ele><time>2026-04-04T10:43:46Z</time></trkpt><trkpt lat="44.422827980744096" lon="8.946946590765961"><ele>16.333333333333336</ele><time>2026-04-04T10:43:48Z</time></trkpt><trkpt lat="44.42275028209743" lon="8.946939074950281"><ele>16.0</ele><time>2026-04-04T10:43:50Z</time></trkpt><trkpt lat="44.4226786515369" lon="8.946957520565128"><ele>15.666666666666668</ele><time>2026-04-04T10:43:52Z</time></trkpt><trkpt lat="44.42259826084551" lon="8.946955658704601"><ele>15.333333333333334</ele><time>2026-04-04T10:43:54Z</time></trkpt><trkpt lat="44.42250687151708" lon="8.946937004183676"><ele>15.0</ele><time>2026-04-04T10:43:56Z</time></trkpt><trkpt lat="44.42243045069529" lon="8.946937024111314"><ele>15.0</ele><time>2026-04-04T10:43:58Z</time></trkpt><trkpt lat="44.42233958373454" lon="8.94692670005764"><ele>15.0</ele><time>2026-04-04T10:44:00Z</time></trkpt><trkpt lat="44.42225111309531" lon="8.946920702693246"><ele>15.0</ele><time>2026-04-04T10:44:02Z</time></trkpt><trkpt lat="44.42217461796193" lon="8.946913648269168"><ele>15.0</ele><time>2026-04-04T10:44:04Z</time></trkpt><trkpt lat="44.42208658446487" lon="8.946907793336573"><ele>15.0</ele><time>2026-04-04T10:44:06Z</time></trkpt><trkpt lat="44.42199538320676" lon="8.946897148429791"><ele>15.0</ele><time>2026-04-04T10:44:08Z</time></trkpt><trkpt lat="44.42190627198357" lon="8.946871903059861"><ele>14.8</ele><time>2026-04-04T10:44:10Z</time></trkpt><trkpt lat="44.42181700313142" lon="8.946872826296202"><ele>14.6</ele><time>2026-04-04T10:44:12Z</time></trkpt><trkpt lat="44.42172823658475" lon="8.946867975638076"><ele>14.399999999999999</ele><time>2026-04-04T10:44:14Z</time></trkpt><trkpt lat="44.42164180962484" lon="8.94684285637996"><ele>14.2</ele><time>2026-04-04T10:44:16Z</time></trkpt><trkpt lat="44.42154361096298" lon="8.946826808527337"><ele>14.0</ele><time>2026-04-04T10:44:18Z</time></trkpt><trkpt lat="44.42145722994186" lon="8.946813684486415"><ele>14.000000000000002</ele><time>2026-04-04T10:44:20Z</time></trkpt><trkpt lat="44.42136991801911" lon="8.94680705751047"><ele>14.0</ele><time>2026-04-04T10:44:22Z</time></trkpt><trkpt lat="44.42128767564782" lon="8.946780175421923"><ele>14.0</ele><time>2026-04-04T10:44:24Z</time></trkpt><trkpt lat="44.421200982212" lon="8.946775603930641"><ele>14.0</ele><time>2026-04-04T10:44:26Z</time></trkpt><trkpt lat="44.421112469289056" lon="8.946793391274165"><ele>14.000000000000002</ele><time>2026-04-04T10:44:28Z</time></trkpt><trkpt lat="44.42103487441407" lon="8.946819789695693"><ele>14.0</ele><time>2026-04-04T10:44:30Z</time></trkpt><trkpt lat="44.42096019735305" lon="8.9468419156981"><ele>14.0</ele><time>2026-04-04T10:44:32Z</time></trkpt><trkpt lat="44.42089512035195" lon="8.946850357527726"><ele>14.0</ele><time>2026-04-04T10:44:34Z</time></trkpt><trkpt lat="44.42081686488635" lon="8.946872523747057"><ele>14.0</ele><time>2026-04-04T10:44:36Z</time></trkpt><trkpt lat="44.42073649817039" lon="8.946876550294347"><ele>14.0</ele><time>2026-04-04T10:44:38Z</time></trkpt><trkpt lat="44.42066767949937" lon="8.946876342910066"><ele>14.0</ele><time>2026-04-04T10:44:40Z</time></trkpt><trkpt lat="44.42059748284557" lon="8.94688391190377"><ele>14.0</ele><time>2026-04-04T10:44:43Z</time></trkpt><trkpt lat="44.42053725042727" lon="8.946856141955978"><ele>14.0</ele><time>2026-04-04T10:48:02Z</time></trkpt><trkpt lat="44.42062573034237" lon="8.94671867507161"><ele>17.5</ele><time>2026-04-04T10:50:28.999Z</time></trkpt><trkpt lat="44.420507478166535" lon="8.946635664326529"><ele>21.0</ele><time>2026-04-04T10:50:35Z</time></trkpt><trkpt lat="44.42097410763828" lon="8.946654340446795"><ele>21.0</ele><time>2026-04-04T10:50:38Z</time></trkpt><trkpt lat="44.42079183163191" lon="8.946617597895507"><ele>21.0</ele><time>2026-04-04T10:50:41Z</time></trkpt><trkpt lat="44.420732108832745" lon="8.946656534246973"><ele>21.0</ele><time>2026-04-04T10:51:08Z</time></trkpt><trkpt lat="44.42066900897877" lon="8.946663904685773"><ele>21.0</ele><time>2026-04-04T11:12:23Z</time></trkpt><trkpt lat="44.420625106578576" lon="8.946732728044376"><ele>14.0</ele><time>2026-04-04T11:12:28Z</time></trkpt></trkseg></trk></gpx>